GFSSGP_prec_precacc_045.txt.gz
Total_Precipitation_Accumulation
0.00 0.00 0.00 0.00 0.00 0.00 0.00 0.00 0.01 0.02 0.05 0.03 0.05 0.06 0.06 0.06 0.14 0.33 0.12 0.06 0.12 0.07 0.03 0.08 0.22 0.04 0.06 0.11 0.11 0.06 0.02 0.01 0.01 0.01 0.00 0.00 0.00 0.00 0.00 0.00 0.00 0.01 0.00 0.00 0.00 0.00 0.00 0.01 0.01
0.00 0.00 0.00 0.00 0.00 0.00 0.00 0.02 0.01 0.06 0.17 0.19 0.16 0.14 0.08 0.16 0.07 0.11 0.29 0.24 0.17 0.04 0.03 0.04 0.12 0.05 0.01 0.03 0.01 0.01 0.02 0.00 0.00 0.00 0.00 0.00 0.00 0.00 0.00 0.00 0.00 0.00 0.00 0.00 0.00 0.00 0.00 0.00 0.00
0.00 0.00 0.00 0.00 0.00 0.00 0.00 0.02 0.02 0.02 0.06 0.10 0.11 0.04 0.15 0.17 0.27 0.41 0.39 0.26 0.22 0.11 0.02 0.04 0.07 0.11 0.05 0.01 0.01 0.02 0.03 0.02 0.01 0.01 0.01 0.01 0.00 0.00 0.00 0.00 0.00 0.00 0.00 0.00 0.00 0.00 0.00 0.00 0.00
0.00 0.00 0.00 0.00 0.00 0.00 0.00 0.02 0.03 0.12 0.11 0.07 0.08 0.07 0.15 0.18 0.39 0.42 0.46 0.47 0.42 0.22 0.11 0.13 0.22 0.27 0.06 0.00 0.00 0.00 0.00 0.00 0.00 0.00 0.00 0.00 0.00 0.00 0.00 0.00 0.00 0.00 0.00 0.00 0.00 0.00 0.00 0.00 0.00
0.00 0.00 0.00 0.00 0.00 0.00 0.01 0.06 0.16 0.17 0.16 0.07 0.01 0.07 0.13 0.11 0.22 0.43 0.88 1.19 1.29 0.93 0.58 0.45 0.82 0.64 0.10 0.00 0.00 0.00 0.00 0.00 0.00 0.00 0.00 0.00 0.00 0.00 0.00 0.00 0.00 0.00 0.00 0.00 0.00 0.00 0.00 0.00 0.00
0.00 0.00 0.00 0.00 0.00 0.00 0.01 0.11 0.29 0.35 0.12 0.09 0.04 0.01 0.11 0.20 0.25 0.57 1.51 1.74 1.89 2.07 1.80 1.22 1.27 0.82 0.07 0.00 0.00 0.00 0.00 0.00 0.00 0.00 0.00 0.00 0.00 0.00 0.00 0.00 0.00 0.00 0.00 0.00 0.00 0.00 0.00 0.00 0.00
0.00 0.00 0.00 0.00 0.00 0.01 0.04 0.13 0.20 0.18 0.05 0.01 0.02 0.07 0.16 0.18 0.28 0.79 1.50 3.61 4.49 3.56 2.70 2.43 1.08 0.38 0.04 0.00 0.00 0.00 0.00 0.00 0.00 0.00 0.00 0.00 0.00 0.00 0.00 0.00 0.00 0.00 0.00 0.00 0.00 0.00 0.00 0.00 0.00
0.00 0.00 0.00 0.00 0.01 0.04 0.08 0.21 0.26 0.13 0.08 0.06 0.07 0.11 0.10 0.15 0.28 0.34 0.61 1.79 5.34 5.23 3.04 2.28 1.01 0.19 0.03 0.00 0.00 0.00 0.00 0.00 0.00 0.00 0.00 0.00 0.00 0.00 0.00 0.00 0.00 0.00 0.00 0.00 0.00 0.00 0.00 0.00 0.00
0.00 0.00 0.00 0.00 0.04 0.12 0.13 0.12 0.05 0.01 0.00 0.04 0.14 0.17 0.26 0.15 0.09 0.15 0.80 0.78 1.70 2.63 2.25 1.43 0.49 0.05 0.01 0.00 0.00 0.00 0.00 0.00 0.00 0.00 0.00 0.00 0.00 0.00 0.00 0.00 0.00 0.00 0.00 0.00 0.00 0.00 0.00 0.00 0.00
0.00 0.00 0.00 0.00 0.02 0.28 0.21 0.26 0.23 0.04 0.02 0.05 0.12 0.43 0.34 0.10 0.11 0.18 0.53 0.66 1.51 1.87 1.20 0.59 0.23 0.02 0.00 0.00 0.00 0.00 0.00 0.00 0.00 0.00 0.00 0.02 0.01 0.00 0.00 0.00 0.00 0.00 0.00 0.00 0.00 0.00 0.00 0.00 0.00
0.00 0.00 0.00 0.00 0.00 0.05 0.09 0.01 0.01 0.04 0.01 0.02 0.16 0.18 0.04 0.06 0.04 0.14 0.30 0.61 1.02 0.72 0.56 0.27 0.06 0.00 0.00 0.00 0.00 0.00 0.00 0.00 0.00 0.02 0.03 0.03 0.00 0.01 0.02 0.00 0.00 0.00 0.00 0.00 0.00 0.00 0.00 0.00 0.00
0.00 0.00 0.00 0.00 0.01 0.00 0.00 0.00 0.00 0.02 0.11 0.03 0.04 0.13 0.02 0.05 0.14 0.23 0.29 0.30 0.17 0.11 0.16 0.10 0.00 0.00 0.00 0.00 0.00 0.00 0.01 0.04 0.06 0.07 0.03 0.01 0.02 0.04 0.00 0.00 0.00 0.00 0.00 0.00 0.00 0.00 0.00 0.00 0.00
0.00 0.00 0.00 0.00 0.02 0.02 0.01 0.01 0.01 0.06 0.07 0.13 0.14 0.15 0.08 0.09 0.15 0.12 0.09 0.08 0.00 0.01 0.02 0.04 0.00 0.00 0.00 0.00 0.00 0.01 0.08 0.07 0.09 0.08 0.03 0.00 0.00 0.00 0.00 0.00 0.00 0.00 0.00 0.00 0.00 0.00 0.00 0.00 0.00
0.00 0.00 0.00 0.02 0.01 0.01 0.01 0.01 0.06 0.13 0.14 0.19 0.12 0.07 0.09 0.07 0.09 0.07 0.03 0.00 0.00 0.00 0.01 0.03 0.05 0.03 0.00 0.01 0.06 0.12 0.17 0.14 0.15 0.26 0.14 0.04 0.02 0.01 0.00 0.00 0.00 0.00 0.00 0.00 0.00 0.00 0.00 0.00 0.00
0.00 0.00 0.01 0.01 0.01 0.01 0.02 0.02 0.03 0.04 0.16 0.12 0.04 0.03 0.05 0.05 0.08 0.04 0.01 0.00 0.00 0.00 0.01 0.13 0.56 0.13 0.05 0.03 0.07 0.13 0.04 0.05 0.15 0.18 0.10 0.01 0.00 0.00 0.00 0.00 0.00 0.00 0.00 0.00 0.00 0.00 0.00 0.00 0.00
0.00 0.00 0.01 0.01 0.01 0.00 0.00 0.01 0.00 0.04 0.03 0.02 0.01 0.02 0.02 0.06 0.03 0.00 0.00 0.00 0.00 0.01 0.06 0.43 0.76 0.44 0.15 0.08 0.13 0.13 0.16 0.10 0.13 0.13 0.05 0.01 0.01 0.00 0.00 0.00 0.00 0.00 0.00 0.00 0.00 0.00 0.00 0.00 0.00
0.00 0.00 0.00 0.00 0.00 0.00 0.01 0.01 0.00 0.02 0.01 0.01 0.00 0.01 0.01 0.01 0.01 0.00 0.00 0.00 0.03 0.03 0.15 0.43 0.54 0.57 0.56 0.56 0.53 0.26 0.09 0.05 0.05 0.03 0.02 0.01 0.01 0.00 0.00 0.00 0.00 0.00 0.00 0.00 0.00 0.00 0.00 0.00 0.00
0.00 0.00 0.00 0.00 0.00 0.00 0.00 0.00 0.00 0.00 0.00 0.01 0.00 0.00 0.00 0.00 0.00 0.00 0.02 0.04 0.06 0.08 0.31 0.54 0.61 0.93 1.15 0.67 0.22 0.08 0.08 0.03 0.01 0.02 0.02 0.01 0.00 0.00 0.00 0.00 0.00 0.00 0.00 0.00 0.00 0.00 0.00 0.00 0.00
0.00 0.00 0.00 0.00 0.00 0.00 0.00 0.00 0.00 0.00 0.00 0.01 0.00 0.00 0.01 0.00 0.00 0.02 0.05 0.06 0.08 0.18 0.41 0.62 0.96 0.92 0.32 0.10 0.07 0.05 0.02 0.02 0.03 0.02 0.00 0.00 0.00 0.00 0.00 0.00 0.00 0.00 0.00 0.00 0.00 0.00 0.00 0.00 0.00
0.00 0.00 0.00 0.00 0.00 0.00 0.00 0.00 0.00 0.00 0.00 0.00 0.00 0.00 0.00 0.00 0.00 0.01 0.04 0.10 0.28 0.44 0.44 0.31 0.14 0.12 0.02 0.02 0.04 0.03 0.02 0.01 0.00 0.00 0.00 0.00 0.00 0.00 0.00 0.00 0.00 0.00 0.00 0.00 0.00 0.00 0.00 0.00 0.00
0.00 0.00 0.00 0.00 0.00 0.00 0.00 0.00 0.00 0.00 0.00 0.00 0.00 0.00 0.00 0.00 0.01 0.04 0.08 0.13 0.10 0.05 0.02 0.06 0.08 0.13 0.04 0.02 0.01 0.00 0.00 0.00 0.00 0.00 0.00 0.00 0.00 0.00 0.00 0.00 0.00 0.00 0.00 0.00 0.00 0.00 0.00 0.00 0.00
0.00 0.00 0.00 0.00 0.00 0.00 0.00 0.00 0.01 0.00 0.00 0.00 0.00 0.00 0.01 0.02 0.03 0.03 0.00 0.00 0.01 0.02 0.03 0.06 0.11 0.14 0.04 0.01 0.00 0.00 0.01 0.03 0.01 0.00 0.00 0.00 0.00 0.00 0.00 0.00 0.00 0.00 0.00 0.00 0.00 0.00 0.00 0.00 0.00
0.00 0.00 0.00 0.00 0.00 0.02 0.00 0.01 0.02 0.01 0.00 0.00 0.00 0.00 0.00 0.00 0.00 0.00 0.01 0.00 0.00 0.04 0.07 0.08 0.09 0.14 0.08 0.01 0.05 0.06 0.04 0.01 0.00 0.00 0.00 0.00 0.00 0.00 0.00 0.00 0.00 0.00 0.00 0.00 0.00 0.00 0.00 0.00 0.00
0.00 0.00 0.00 0.00 0.00 0.01 0.01 0.02 0.01 0.01 0.01 0.02 0.00 0.00 0.00 0.00 0.01 0.02 0.02 0.01 0.01 0.05 0.07 0.09 0.12 0.13 0.03 0.02 0.02 0.06 0.03 0.01 0.01 0.00 0.00 0.00 0.00 0.01 0.00 0.00 0.00 0.00 0.00 0.00 0.00 0.00 0.00 0.00 0.00
0.00 0.00 0.01 0.07 0.02 0.01 0.03 0.03 0.01 0.00 0.01 0.08 0.04 0.00 0.00 0.00 0.01 0.03 0.02 0.01 0.02 0.04 0.08 0.07 0.06 0.06 0.02 0.01 0.01 0.02 0.02 0.01 0.01 0.00 0.00 0.00 0.00 0.00 0.00 0.00 0.00 0.00 0.00 0.00 0.00 0.01 0.01 0.01 0.03
0.00 0.00 0.01 0.06 0.07 0.02 0.02 0.01 0.00 0.00 0.00 0.00 0.01 0.00 0.00 0.00 0.00 0.01 0.01 0.02 0.02 0.05 0.14 0.11 0.09 0.06 0.02 0.01 0.01 0.02 0.01 0.00 0.00 0.00 0.00 0.00 0.00 0.00 0.00 0.00 0.01 0.01 0.00 0.00 0.01 0.03 0.03 0.04 0.07
0.00 0.00 0.00 0.00 0.01 0.00 0.00 0.00 0.00 0.00 0.00 0.00 0.00 0.00 0.00 0.00 0.00 0.00 0.00 0.02 0.02 0.02 0.10 0.13 0.09 0.07 0.05 0.04 0.04 0.06 0.06 0.03 0.01 0.01 0.01 0.01 0.00 0.01 0.02 0.02 0.01 0.00 0.00 0.00 0.00 0.02 0.04 0.07 0.11
0.00 0.00 0.00 0.00 0.00 0.00 0.00 0.00 0.00 0.01 0.01 0.00 0.00 0.00 0.00 0.00 0.00 0.00 0.00 0.00 0.01 0.01 0.03 0.03 0.03 0.05 0.05 0.03 0.03 0.03 0.04 0.02 0.02 0.02 0.02 0.00 0.01 0.02 0.02 0.01 0.01 0.01 0.00 0.01 0.01 0.03 0.06 0.08 0.07
0.00 0.00 0.00 0.00 0.00 0.00 0.00 0.00 0.00 0.00 0.00 0.00 0.00 0.00 0.00 0.00 0.00 0.00 0.00 0.00 0.00 0.00 0.00 0.00 0.01 0.02 0.01 0.01 0.03 0.03 0.03 0.02 0.02 0.02 0.01 0.00 0.00 0.01 0.02 0.02 0.01 0.01 0.03 0.08 0.10 0.08 0.06 0.05 0.04
0.00 0.01 0.02 0.00 0.00 0.00 0.00 0.00 0.00 0.00 0.00 0.00 0.00 0.00 0.00 0.00 0.00 0.00 0.00 0.00 0.00 0.00 0.00 0.00 0.01 0.02 0.02 0.02 0.03 0.03 0.01 0.00 0.00 0.00 0.00 0.01 0.02 0.02 0.02 0.01 0.03 0.05 0.07 0.07 0.07 0.04 0.02 0.01 0.01

GFSSGP_prec_precacc_048.txt.gz
Total_Precipitation_Accumulation
0.00 0.00 0.00 0.00 0.00 0.00 0.00 0.00 0.01 0.02 0.05 0.03 0.07 0.08 0.08 0.11 0.17 0.35 0.13 0.07 0.12 0.07 0.04 0.08 0.22 0.04 0.06 0.11 0.11 0.06 0.02 0.01 0.01 0.01 0.00 0.00 0.00 0.00 0.00 0.00 0.00 0.01 0.00 0.00 0.00 0.00 0.00 0.01 0.01
0.00 0.00 0.00 0.00 0.00 0.00 0.00 0.02 0.01 0.06 0.19 0.23 0.21 0.21 0.14 0.23 0.15 0.17 0.34 0.28 0.18 0.06 0.04 0.04 0.13 0.05 0.01 0.03 0.01 0.01 0.02 0.00 0.00 0.00 0.00 0.00 0.00 0.00 0.00 0.00 0.00 0.00 0.00 0.00 0.00 0.00 0.00 0.00 0.00
0.00 0.00 0.00 0.00 0.00 0.00 0.00 0.02 0.02 0.06 0.11 0.14 0.11 0.05 0.17 0.19 0.32 0.51 0.46 0.30 0.25 0.13 0.03 0.08 0.11 0.11 0.05 0.01 0.01 0.02 0.03 0.02 0.01 0.01 0.01 0.01 0.00 0.00 0.00 0.00 0.00 0.00 0.00 0.00 0.00 0.00 0.00 0.00 0.00
0.00 0.00 0.00 0.00 0.00 0.00 0.00 0.02 0.04 0.14 0.13 0.08 0.11 0.08 0.18 0.21 0.41 0.50 0.49 0.51 0.45 0.25 0.15 0.21 0.33 0.29 0.07 0.00 0.00 0.00 0.00 0.00 0.00 0.00 0.00 0.00 0.00 0.00 0.00 0.00 0.00 0.00 0.00 0.00 0.00 0.00 0.00 0.00 0.00
0.00 0.00 0.00 0.00 0.00 0.00 0.01 0.06 0.17 0.19 0.21 0.17 0.10 0.11 0.15 0.16 0.24 0.45 0.93 1.29 1.37 0.96 0.66 0.58 1.02 0.74 0.11 0.00 0.00 0.00 0.00 0.00 0.00 0.00 0.00 0.00 0.00 0.00 0.00 0.00 0.00 0.00 0.00 0.00 0.00 0.00 0.00 0.00 0.00
0.00 0.00 0.00 0.00 0.00 0.00 0.01 0.11 0.29 0.38 0.15 0.19 0.09 0.08 0.14 0.23 0.30 0.59 1.55 1.80 2.15 2.44 2.34 1.47 1.44 1.02 0.11 0.00 0.00 0.00 0.00 0.00 0.00 0.00 0.00 0.00 0.00 0.00 0.00 0.00 0.00 0.00 0.00 0.00 0.00 0.00 0.00 0.00 0.00
0.00 0.00 0.00 0.00 0.00 0.01 0.04 0.13 0.20 0.20 0.06 0.02 0.03 0.08 0.20 0.22 0.30 0.80 1.51 3.65 4.81 4.04 3.27 3.51 1.30 0.48 0.07 0.00 0.00 0.00 0.00 0.00 0.00 0.00 0.00 0.00 0.00 0.00 0.00 0.00 0.00 0.00 0.00 0.00 0.00 0.00 0.00 0.00 0.00
0.00 0.00 0.00 0.00 0.01 0.04 0.08 0.21 0.27 0.14 0.09 0.06 0.07 0.11 0.11 0.18 0.29 0.34 0.62 1.82 5.55 6.07 3.82 2.80 1.36 0.28 0.04 0.00 0.00 0.00 0.00 0.00 0.00 0.00 0.00 0.00 0.00 0.00 0.00 0.00 0.00 0.00 0.00 0.00 0.00 0.00 0.00 0.00 0.00
0.00 0.00 0.00 0.00 0.04 0.12 0.13 0.12 0.05 0.01 0.00 0.05 0.16 0.17 0.26 0.16 0.09 0.15 0.80 0.79 1.71 2.90 2.84 2.08 0.83 0.14 0.01 0.00 0.00 0.00 0.00 0.00 0.00 0.00 0.00 0.00 0.00 0.00 0.00 0.00 0.00 0.00 0.00 0.00 0.00 0.00 0.00 0.00 0.00
0.00 0.00 0.00 0.00 0.02 0.28 0.21 0.26 0.23 0.04 0.03 0.06 0.12 0.44 0.35 0.11 0.11 0.18 0.54 0.66 1.52 1.88 1.26 0.65 0.26 0.04 0.01 0.00 0.00 0.00 0.00 0.00 0.00 0.00 0.00 0.02 0.01 0.00 0.00 0.00 0.00 0.00 0.00 0.00 0.00 0.00 0.00 0.00 0.00
0.00 0.00 0.00 0.00 0.00 0.05 0.09 0.01 0.01 0.04 0.01 0.02 0.17 0.19 0.05 0.07 0.05 0.14 0.30 0.61 1.03 0.76 0.63 0.41 0.14 0.05 0.01 0.00 0.00 0.00 0.00 0.00 0.00 0.02 0.03 0.03 0.00 0.01 0.02 0.00 0.00 0.00 0.00 0.00 0.00 0.00 0.00 0.00 0.00
0.00 0.00 0.00 0.00 0.01 0.00 0.00 0.01 0.00 0.02 0.11 0.03 0.04 0.14 0.03 0.06 0.15 0.24 0.30 0.33 0.27 0.20 0.24 0.17 0.06 0.03 0.00 0.00 0.00 0.00 0.01 0.04 0.06 0.07 0.03 0.01 0.02 0.04 0.00 0.00 0.00 0.00 0.00 0.00 0.00 0.00 0.00 0.00 0.00
0.00 0.00 0.00 0.00 0.02 0.02 0.01 0.01 0.01 0.07 0.07 0.14 0.14 0.15 0.08 0.10 0.15 0.13 0.09 0.09 0.03 0.03 0.03 0.05 0.01 0.00 0.00 0.00 0.00 0.01 0.08 0.07 0.09 0.08 0.03 0.00 0.00 0.00 0.00 0.00 0.00 0.00 0.00 0.00 0.00 0.00 0.00 0.00 0.00
0.00 0.00 0.00 0.02 0.01 0.02 0.01 0.01 0.06 0.14 0.14 0.19 0.13 0.08 0.10 0.07 0.09 0.07 0.03 0.00 0.00 0.00 0.01 0.03 0.05 0.03 0.00 0.01 0.06 0.12 0.17 0.14 0.15 0.26 0.14 0.04 0.02 0.01 0.00 0.00 0.00 0.00 0.00 0.00 0.00 0.00 0.00 0.00 0.00
0.00 0.00 0.01 0.01 0.01 0.01 0.02 0.02 0.03 0.04 0.16 0.13 0.08 0.05 0.06 0.06 0.08 0.04 0.01 0.00 0.00 0.00 0.01 0.13 0.56 0.13 0.05 0.03 0.07 0.13 0.04 0.05 0.15 0.20 0.13 0.02 0.00 0.02 0.00 0.00 0.00 0.00 0.00 0.00 0.00 0.00 0.00 0.00 0.00
0.00 0.00 0.01 0.01 0.01 0.00 0.00 0.01 0.00 0.04 0.03 0.02 0.01 0.02 0.02 0.06 0.03 0.00 0.00 0.00 0.00 0.01 0.06 0.43 0.76 0.44 0.15 0.08 0.13 0.13 0.16 0.10 0.16 0.15 0.07 0.04 0.03 0.03 0.01 0.00 0.00 0.00 0.00 0.00 0.00 0.00 0.00 0.00 0.00
0.00 0.00 0.00 0.00 0.00 0.00 0.01 0.01 0.00 0.02 0.01 0.01 0.00 0.01 0.01 0.01 0.01 0.00 0.00 0.00 0.03 0.03 0.15 0.43 0.54 0.57 0.56 0.56 0.53 0.26 0.09 0.09 0.16 0.07 0.02 0.02 0.01 0.00 0.00 0.00 0.00 0.00 0.00 0.00 0.00 0.00 0.00 0.00 0.00
0.00 0.00 0.00 0.00 0.00 0.00 0.00 0.00 0.00 0.00 0.00 0.01 0.00 0.00 0.00 0.00 0.00 0.00 0.02 0.04 0.06 0.08 0.31 0.54 0.61 0.93 1.15 0.67 0.22 0.08 0.09 0.08 0.08 0.04 0.02 0.01 0.00 0.00 0.00 0.00 0.00 0.00 0.00 0.00 0.00 0.00 0.00 0.00 0.00
0.00 0.00 0.00 0.00 0.00 0.00 0.00 0.00 0.00 0.00 0.00 0.01 0.00 0.00 0.01 0.00 0.00 0.02 0.05 0.06 0.08 0.18 0.41 0.62 0.96 0.92 0.32 0.10 0.07 0.05 0.06 0.12 0.12 0.04 0.00 0.00 0.00 0.00 0.00 0.00 0.00 0.00 0.00 0.00 0.00 0.00 0.00 0.00 0.00
0.00 0.00 0.00 0.00 0.00 0.00 0.00 0.00 0.00 0.00 0.00 0.00 0.00 0.00 0.00 0.00 0.00 0.01 0.04 0.10 0.28 0.44 0.44 0.31 0.14 0.12 0.02 0.02 0.05 0.05 0.06 0.09 0.08 0.01 0.00 0.00 0.00 0.00 0.00 0.00 0.00 0.00 0.00 0.00 0.00 0.00 0.00 0.00 0.00
0.00 0.00 0.00 0.00 0.00 0.00 0.00 0.00 0.00 0.00 0.00 0.00 0.00 0.00 0.00 0.00 0.01 0.04 0.08 0.13 0.10 0.05 0.02 0.06 0.08 0.13 0.04 0.02 0.01 0.01 0.05 0.08 0.04 0.01 0.00 0.00 0.00 0.00 0.00 0.00 0.00 0.00 0.00 0.00 0.00 0.00 0.00 0.00 0.00
0.00 0.00 0.00 0.00 0.00 0.00 0.00 0.00 0.01 0.00 0.00 0.00 0.00 0.00 0.01 0.02 0.03 0.03 0.00 0.00 0.01 0.02 0.03 0.06 0.11 0.14 0.04 0.01 0.00 0.01 0.05 0.07 0.05 0.01 0.00 0.00 0.00 0.00 0.00 0.00 0.00 0.00 0.00 0.00 0.00 0.00 0.00 0.00 0.00
0.00 0.00 0.00 0.00 0.00 0.02 0.00 0.01 0.02 0.01 0.00 0.00 0.00 0.00 0.00 0.00 0.00 0.00 0.01 0.00 0.00 0.04 0.07 0.08 0.11 0.15 0.08 0.01 0.06 0.12 0.13 0.11 0.04 0.01 0.01 0.00 0.00 0.00 0.00 0.00 0.00 0.00 0.00 0.00 0.00 0.00 0.00 0.00 0.00
0.00 0.00 0.00 0.00 0.00 0.01 0.01 0.02 0.01 0.01 0.01 0.02 0.00 0.00 0.00 0.00 0.01 0.02 0.02 0.01 0.01 0.05 0.08 0.10 0.12 0.19 0.09 0.02 0.03 0.11 0.15 0.09 0.05 0.02 0.00 0.00 0.00 0.01 0.00 0.00 0.00 0.00 0.00 0.00 0.00 0.01 0.00 0.00 0.00
0.00 0.00 0.01 0.07 0.02 0.01 0.03 0.03 0.01 0.00 0.01 0.08 0.04 0.00 0.00 0.00 0.01 0.03 0.02 0.01 0.02 0.04 0.08 0.08 0.07 0.09 0.08 0.06 0.01 0.02 0.09 0.10 0.06 0.02 0.00 0.00 0.00 0.00 0.00 0.00 0.00 0.00 0.01 0.03 0.02 0.01 0.01 0.01 0.03
0.00 0.00 0.01 0.06 0.07 0.02 0.02 0.01 0.00 0.00 0.00 0.00 0.01 0.00 0.00 0.00 0.00 0.01 0.01 0.02 0.02 0.07 0.18 0.12 0.11 0.11 0.06 0.06 0.05 0.06 0.10 0.10 0.07 0.04 0.00 0.00 0.00 0.00 0.01 0.01 0.03 0.04 0.03 0.01 0.02 0.03 0.03 0.04 0.07
0.00 0.00 0.00 0.00 0.01 0.00 0.00 0.00 0.00 0.00 0.00 0.00 0.00 0.00 0.00 0.00 0.00 0.00 0.00 0.02 0.02 0.02 0.15 0.20 0.13 0.10 0.07 0.06 0.10 0.15 0.18 0.17 0.14 0.08 0.03 0.02 0.01 0.01 0.08 0.12 0.05 0.01 0.01 0.01 0.00 0.02 0.04 0.07 0.11
0.00 0.00 0.00 0.00 0.00 0.00 0.00 0.00 0.00 0.01 0.01 0.00 0.00 0.00 0.00 0.00 0.00 0.00 0.00 0.00 0.01 0.01 0.05 0.06 0.05 0.07 0.06 0.04 0.07 0.11 0.14 0.13 0.11 0.10 0.07 0.04 0.03 0.05 0.05 0.01 0.02 0.02 0.01 0.01 0.01 0.03 0.06 0.08 0.07
0.00 0.00 0.00 0.00 0.00 0.00 0.00 0.00 0.00 0.00 0.00 0.00 0.00 0.00 0.00 0.00 0.00 0.00 0.00 0.00 0.00 0.00 0.01 0.00 0.02 0.02 0.02 0.03 0.09 0.08 0.10 0.10 0.09 0.09 0.06 0.03 0.01 0.01 0.02 0.03 0.02 0.02 0.03 0.08 0.10 0.08 0.06 0.05 0.04
0.00 0.01 0.02 0.00 0.00 0.00 0.00 0.00 0.00 0.00 0.00 0.00 0.00 0.00 0.00 0.00 0.00 0.00 0.00 0.00 0.00 0.00 0.00 0.00 0.02 0.06 0.08 0.09 0.11 0.14 0.12 0.09 0.06 0.04 0.03 0.03 0.02 0.02 0.04 0.04 0.03 0.05 0.07 0.07 0.07 0.04 0.02 0.01 0.01

GFSSGP_prec_precacc_051.txt.gz
Total_Precipitation_Accumulation
0.00 0.00 0.00 0.00 0.00 0.00 0.00 0.00 0.01 0.02 0.05 0.07 0.12 0.12 0.12 0.17 0.21 0.37 0.15 0.14 0.15 0.09 0.05 0.09 0.23 0.04 0.06 0.11 0.11 0.06 0.02 0.01 0.01 0.01 0.00 0.00 0.00 0.00 0.00 0.00 0.00 0.01 0.00 0.00 0.00 0.00 0.00 0.01 0.01
0.00 0.00 0.00 0.00 0.00 0.00 0.00 0.02 0.01 0.06 0.20 0.25 0.26 0.29 0.19 0.28 0.21 0.23 0.40 0.34 0.22 0.07 0.06 0.07 0.14 0.05 0.01 0.03 0.01 0.01 0.02 0.00 0.00 0.00 0.00 0.00 0.00 0.00 0.00 0.00 0.00 0.00 0.00 0.00 0.00 0.00 0.00 0.00 0.00
0.00 0.00 0.00 0.00 0.00 0.00 0.00 0.02 0.02 0.06 0.16 0.17 0.15 0.11 0.22 0.24 0.37 0.53 0.47 0.34 0.29 0.15 0.04 0.11 0.14 0.13 0.06 0.01 0.01 0.02 0.03 0.02 0.01 0.01 0.01 0.01 0.00 0.00 0.00 0.00 0.00 0.00 0.00 0.00 0.00 0.00 0.00 0.00 0.00
0.00 0.00 0.00 0.00 0.00 0.00 0.00 0.02 0.04 0.14 0.14 0.09 0.12 0.09 0.19 0.22 0.46 0.54 0.53 0.58 0.50 0.27 0.17 0.26 0.40 0.38 0.13 0.01 0.00 0.00 0.00 0.00 0.00 0.00 0.00 0.00 0.00 0.00 0.00 0.00 0.00 0.00 0.00 0.00 0.00 0.00 0.00 0.00 0.00
0.00 0.00 0.00 0.00 0.00 0.00 0.01 0.06 0.17 0.19 0.21 0.18 0.11 0.13 0.16 0.18 0.26 0.47 0.96 1.49 1.76 1.15 0.72 0.64 1.10 0.84 0.15 0.00 0.00 0.00 0.00 0.00 0.00 0.00 0.00 0.00 0.00 0.00 0.00 0.00 0.00 0.00 0.00 0.00 0.00 0.00 0.00 0.00 0.00
0.00 0.00 0.00 0.00 0.00 0.00 0.01 0.11 0.30 0.40 0.18 0.19 0.09 0.09 0.15 0.26 0.35 0.60 1.57 1.88 2.39 2.89 2.70 1.67 1.56 1.09 0.13 0.00 0.00 0.00 0.00 0.00 0.00 0.00 0.00 0.00 0.00 0.00 0.00 0.00 0.00 0.00 0.00 0.00 0.00 0.00 0.00 0.00 0.00
0.00 0.00 0.00 0.00 0.00 0.01 0.04 0.13 0.21 0.21 0.06 0.02 0.03 0.10 0.22 0.24 0.32 0.80 1.52 3.76 5.03 4.30 3.83 4.53 1.65 0.62 0.14 0.01 0.00 0.00 0.00 0.00 0.00 0.00 0.00 0.00 0.00 0.00 0.00 0.00 0.00 0.00 0.00 0.00 0.00 0.00 0.00 0.00 0.00
0.00 0.00 0.00 0.00 0.01 0.04 0.08 0.21 0.27 0.14 0.09 0.06 0.07 0.12 0.15 0.23 0.30 0.34 0.62 1.84 5.64 6.25 4.08 3.55 2.04 0.62 0.18 0.03 0.00 0.00 0.00 0.00 0.00 0.00 0.00 0.00 0.00 0.00 0.00 0.00 0.00 0.00 0.00 0.00 0.00 0.00 0.00 0.00 0.00
0.00 0.00 0.00 0.00 0.04 0.12 0.13 0.12 0.05 0.01 0.00 0.05 0.16 0.17 0.27 0.22 0.12 0.16 0.81 0.80 1.72 3.05 3.27 2.47 1.13 0.27 0.10 0.06 0.01 0.00 0.00 0.00 0.00 0.00 0.00 0.00 0.00 0.00 0.00 0.00 0.00 0.00 0.00 0.00 0.00 0.00 0.00 0.00 0.00
0.00 0.00 0.00 0.00 0.02 0.28 0.21 0.26 0.23 0.04 0.03 0.06 0.13 0.45 0.35 0.12 0.12 0.19 0.55 0.68 1.53 1.89 1.49 0.99 0.49 0.14 0.05 0.06 0.06 0.03 0.00 0.00 0.00 0.00 0.00 0.02 0.01 0.00 0.00 0.00 0.00 0.00 0.00 0.00 0.00 0.00 0.00 0.00 0.00
0.00 0.00 0.00 0.00 0.00 0.05 0.09 0.01 0.01 0.04 0.01 0.02 0.17 0.19 0.07 0.09 0.06 0.15 0.31 0.62 1.05 0.76 0.65 0.47 0.18 0.06 0.03 0.00 0.03 0.02 0.00 0.00 0.00 0.02 0.03 0.03 0.00 0.01 0.02 0.00 0.00 0.00 0.00 0.00 0.00 0.00 0.00 0.00 0.00
0.00 0.00 0.00 0.00 0.01 0.00 0.00 0.01 0.00 0.02 0.11 0.03 0.04 0.14 0.04 0.07 0.16 0.24 0.30 0.35 0.35 0.22 0.25 0.17 0.08 0.07 0.04 0.01 0.02 0.01 0.01 0.04 0.06 0.07 0.03 0.01 0.02 0.04 0.00 0.00 0.00 0.00 0.00 0.00 0.00 0.00 0.00 0.00 0.00
0.00 0.00 0.00 0.00 0.02 0.02 0.01 0.01 0.01 0.07 0.08 0.14 0.15 0.16 0.10 0.10 0.15 0.13 0.09 0.10 0.05 0.06 0.04 0.07 0.02 0.01 0.00 0.00 0.00 0.01 0.08 0.07 0.09 0.08 0.03 0.00 0.00 0.00 0.00 0.00 0.00 0.00 0.00 0.00 0.00 0.00 0.00 0.00 0.00
0.00 0.00 0.00 0.02 0.01 0.02 0.01 0.01 0.06 0.14 0.15 0.19 0.16 0.09 0.11 0.08 0.09 0.07 0.03 0.00 0.00 0.00 0.01 0.03 0.05 0.03 0.00 0.01 0.06 0.12 0.17 0.14 0.15 0.26 0.14 0.04 0.02 0.01 0.00 0.00 0.00 0.00 0.00 0.00 0.00 0.00 0.00 0.00 0.00
0.00 0.00 0.01 0.01 0.01 0.01 0.02 0.02 0.03 0.04 0.16 0.13 0.08 0.06 0.08 0.09 0.08 0.04 0.01 0.00 0.00 0.00 0.01 0.13 0.56 0.13 0.05 0.03 0.07 0.13 0.04 0.05 0.16 0.23 0.21 0.06 0.01 0.04 0.02 0.00 0.00 0.00 0.00 0.00 0.00 0.00 0.00 0.00 0.00
0.00 0.00 0.01 0.01 0.01 0.00 0.00 0.01 0.00 0.04 0.03 0.02 0.01 0.02 0.06 0.06 0.03 0.00 0.00 0.00 0.00 0.01 0.06 0.43 0.76 0.44 0.15 0.08 0.13 0.13 0.16 0.10 0.17 0.21 0.16 0.14 0.10 0.08 0.04 0.01 0.00 0.00 0.00 0.00 0.00 0.00 0.00 0.00 0.00
0.00 0.00 0.00 0.00 0.00 0.00 0.01 0.01 0.00 0.02 0.01 0.01 0.00 0.01 0.01 0.01 0.01 0.00 0.00 0.00 0.03 0.03 0.15 0.43 0.54 0.57 0.56 0.56 0.53 0.26 0.09 0.09 0.18 0.16 0.11 0.07 0.06 0.04 0.02 0.01 0.00 0.00 0.00 0.00 0.00 0.00 0.00 0.00 0.00
0.00 0.00 0.00 0.00 0.00 0.00 0.00 0.00 0.00 0.00 0.00 0.01 0.00 0.00 0.00 0.00 0.00 0.00 0.03 0.04 0.06 0.08 0.31 0.54 0.61 0.93 1.15 0.67 0.22 0.08 0.09 0.08 0.13 0.11 0.07 0.04 0.01 0.01 0.00 0.00 0.00 0.00 0.00 0.00 0.00 0.00 0.00 0.00 0.00
0.00 0.00 0.00 0.00 0.00 0.00 0.00 0.00 0.00 0.00 0.00 0.01 0.00 0.00 0.01 0.00 0.00 0.02 0.05 0.06 0.08 0.18 0.41 0.62 0.96 0.92 0.32 0.10 0.07 0.05 0.06 0.13 0.21 0.17 0.09 0.03 0.00 0.00 0.00 0.00 0.00 0.00 0.00 0.00 0.00 0.00 0.00 0.00 0.00
0.00 0.00 0.00 0.00 0.00 0.00 0.00 0.00 0.00 0.00 0.00 0.00 0.00 0.00 0.00 0.00 0.00 0.01 0.04 0.10 0.28 0.44 0.44 0.31 0.14 0.12 0.02 0.02 0.05 0.05 0.06 0.11 0.18 0.13 0.07 0.05 0.00 0.00 0.00 0.00 0.00 0.00 0.00 0.00 0.00 0.00 0.00 0.00 0.00
0.00 0.00 0.00 0.00 0.00 0.00 0.00 0.00 0.00 0.00 0.00 0.00 0.00 0.00 0.00 0.00 0.01 0.04 0.08 0.13 0.10 0.05 0.02 0.06 0.08 0.13 0.04 0.02 0.01 0.01 0.06 0.12 0.09 0.11 0.06 0.02 0.00 0.00 0.00 0.00 0.00 0.00 0.00 0.00 0.00 0.00 0.00 0.00 0.00
0.00 0.00 0.00 0.00 0.00 0.00 0.00 0.00 0.01 0.00 0.00 0.00 0.00 0.00 0.01 0.02 0.03 0.03 0.00 0.00 0.01 0.02 0.03 0.06 0.11 0.14 0.04 0.01 0.00 0.01 0.05 0.08 0.15 0.12 0.04 0.00 0.00 0.00 0.00 0.00 0.00 0.00 0.00 0.00 0.00 0.00 0.00 0.00 0.00
0.00 0.00 0.00 0.00 0.00 0.02 0.00 0.01 0.02 0.01 0.00 0.00 0.00 0.00 0.00 0.00 0.00 0.00 0.01 0.00 0.00 0.04 0.07 0.08 0.11 0.15 0.08 0.01 0.06 0.12 0.14 0.15 0.15 0.10 0.05 0.01 0.00 0.00 0.00 0.00 0.00 0.00 0.00 0.00 0.00 0.00 0.00 0.00 0.00
0.00 0.00 0.00 0.00 0.00 0.01 0.01 0.02 0.01 0.01 0.01 0.02 0.00 0.00 0.00 0.00 0.01 0.02 0.02 0.01 0.01 0.05 0.08 0.10 0.12 0.19 0.09 0.06 0.05 0.12 0.16 0.13 0.08 0.07 0.04 0.01 0.01 0.01 0.00 0.00 0.00 0.00 0.00 0.00 0.01 0.04 0.02 0.00 0.00
0.00 0.00 0.01 0.07 0.02 0.01 0.03 0.03 0.01 0.00 0.01 0.08 0.04 0.00 0.00 0.00 0.01 0.03 0.02 0.01 0.02 0.04 0.08 0.08 0.07 0.09 0.08 0.10 0.05 0.04 0.11 0.13 0.12 0.08 0.04 0.02 0.01 0.01 0.00 0.00 0.00 0.00 0.02 0.05 0.04 0.02 0.02 0.01 0.03
0.00 0.00 0.01 0.06 0.07 0.02 0.02 0.01 0.00 0.00 0.00 0.00 0.01 0.00 0.00 0.00 0.00 0.01 0.01 0.02 0.02 0.07 0.18 0.12 0.11 0.11 0.07 0.09 0.12 0.12 0.13 0.14 0.17 0.18 0.09 0.03 0.02 0.01 0.01 0.02 0.05 0.06 0.03 0.01 0.02 0.03 0.03 0.04 0.07
0.00 0.00 0.00 0.00 0.01 0.00 0.00 0.00 0.00 0.00 0.00 0.00 0.00 0.00 0.00 0.00 0.00 0.00 0.00 0.02 0.02 0.02 0.15 0.20 0.13 0.10 0.07 0.07 0.11 0.18 0.24 0.27 0.27 0.22 0.16 0.11 0.04 0.02 0.08 0.14 0.06 0.01 0.01 0.01 0.01 0.02 0.04 0.07 0.11
0.00 0.00 0.00 0.00 0.00 0.00 0.00 0.00 0.00 0.01 0.01 0.00 0.00 0.00 0.00 0.00 0.00 0.00 0.00 0.00 0.01 0.01 0.05 0.06 0.05 0.08 0.07 0.04 0.08 0.14 0.19 0.23 0.24 0.23 0.19 0.12 0.08 0.07 0.06 0.02 0.02 0.03 0.02 0.01 0.01 0.03 0.06 0.08 0.07
0.00 0.00 0.00 0.00 0.00 0.00 0.00 0.00 0.00 0.00 0.00 0.00 0.00 0.00 0.00 0.00 0.00 0.00 0.00 0.00 0.00 0.00 0.01 0.00 0.02 0.03 0.02 0.06 0.15 0.15 0.16 0.19 0.20 0.20 0.15 0.09 0.05 0.03 0.03 0.04 0.04 0.06 0.09 0.11 0.10 0.09 0.07 0.05 0.04
0.00 0.01 0.02 0.00 0.00 0.00 0.00 0.00 0.00 0.00 0.00 0.00 0.00 0.00 0.00 0.00 0.00 0.00 0.00 0.00 0.00 0.00 0.00 0.00 0.02 0.07 0.13 0.16 0.20 0.24 0.25 0.22 0.17 0.12 0.08 0.06 0.04 0.04 0.04 0.05 0.05 0.06 0.07 0.08 0.08 0.05 0.02 0.01 0.01

GFSSGP_prec_precacc_054.txt.gz
Total_Precipitation_Accumulation
0.00 0.00 0.00 0.00 0.00 0.00 0.00 0.00 0.01 0.02 0.05 0.07 0.12 0.14 0.13 0.18 0.25 0.41 0.15 0.14 0.16 0.11 0.07 0.10 0.23 0.04 0.06 0.11 0.11 0.06 0.02 0.01 0.01 0.01 0.00 0.00 0.00 0.00 0.00 0.00 0.00 0.01 0.00 0.00 0.00 0.00 0.00 0.01 0.01
0.00 0.00 0.00 0.00 0.00 0.00 0.00 0.02 0.01 0.06 0.20 0.25 0.27 0.31 0.23 0.33 0.21 0.24 0.41 0.34 0.24 0.10 0.07 0.07 0.14 0.05 0.01 0.03 0.01 0.01 0.02 0.00 0.00 0.00 0.00 0.00 0.00 0.00 0.00 0.00 0.00 0.00 0.00 0.00 0.00 0.00 0.00 0.00 0.00
0.00 0.00 0.00 0.00 0.00 0.00 0.00 0.02 0.02 0.06 0.16 0.17 0.15 0.13 0.23 0.29 0.38 0.55 0.48 0.37 0.34 0.19 0.07 0.14 0.14 0.13 0.06 0.01 0.01 0.02 0.03 0.02 0.01 0.01 0.01 0.01 0.00 0.00 0.00 0.00 0.00 0.00 0.00 0.00 0.00 0.00 0.00 0.00 0.00
0.00 0.00 0.00 0.00 0.00 0.00 0.00 0.02 0.04 0.14 0.14 0.09 0.12 0.10 0.19 0.23 0.49 0.55 0.54 0.66 0.60 0.43 0.38 0.33 0.47 0.44 0.16 0.01 0.00 0.00 0.00 0.00 0.00 0.00 0.00 0.00 0.00 0.00 0.00 0.00 0.00 0.00 0.00 0.00 0.00 0.00 0.00 0.00 0.00
0.00 0.00 0.00 0.00 0.00 0.00 0.01 0.06 0.17 0.20 0.21 0.18 0.11 0.14 0.17 0.20 0.32 0.49 1.01 1.88 2.18 1.39 0.95 0.74 1.21 0.96 0.23 0.01 0.00 0.00 0.00 0.00 0.00 0.00 0.00 0.00 0.00 0.00 0.00 0.00 0.00 0.00 0.00 0.00 0.00 0.00 0.00 0.00 0.00
0.00 0.00 0.00 0.00 0.00 0.00 0.01 0.11 0.30 0.40 0.18 0.19 0.09 0.09 0.15 0.27 0.37 0.62 1.64 2.05 2.86 3.45 2.95 1.80 1.64 1.19 0.20 0.03 0.01 0.00 0.00 0.00 0.00 0.00 0.00 0.00 0.00 0.00 0.00 0.00 0.00 0.00 0.00 0.00 0.00 0.00 0.00 0.00 0.00
0.00 0.00 0.00 0.00 0.00 0.01 0.04 0.13 0.21 0.21 0.06 0.02 0.03 0.10 0.22 0.25 0.34 0.81 1.55 3.84 5.18 4.81 4.81 5.04 1.73 0.69 0.19 0.04 0.00 0.00 0.00 0.00 0.00 0.00 0.00 0.00 0.00 0.00 0.00 0.00 0.00 0.00 0.00 0.00 0.00 0.00 0.00 0.00 0.00
0.00 0.00 0.00 0.00 0.01 0.04 0.08 0.21 0.27 0.14 0.09 0.06 0.07 0.12 0.15 0.24 0.32 0.35 0.63 1.86 5.75 6.58 4.71 4.31 2.41 0.77 0.24 0.08 0.03 0.00 0.00 0.00 0.00 0.00 0.00 0.00 0.00 0.00 0.00 0.00 0.00 0.00 0.00 0.00 0.00 0.00 0.00 0.00 0.00
0.00 0.00 0.00 0.00 0.04 0.12 0.13 0.12 0.05 0.01 0.00 0.05 0.16 0.18 0.27 0.24 0.14 0.17 0.81 0.81 1.76 3.20 3.54 2.65 1.28 0.40 0.22 0.17 0.11 0.01 0.00 0.00 0.00 0.00 0.00 0.00 0.00 0.00 0.00 0.00 0.00 0.00 0.00 0.00 0.00 0.00 0.00 0.00 0.00
0.00 0.00 0.00 0.00 0.02 0.28 0.21 0.26 0.23 0.04 0.03 0.06 0.13 0.45 0.36 0.19 0.16 0.20 0.56 0.68 1.54 1.89 1.54 1.05 0.56 0.18 0.08 0.16 0.23 0.17 0.03 0.00 0.00 0.00 0.00 0.02 0.01 0.00 0.00 0.00 0.00 0.00 0.00 0.00 0.00 0.00 0.00 0.00 0.00
0.00 0.00 0.00 0.00 0.00 0.05 0.09 0.01 0.01 0.04 0.01 0.02 0.18 0.21 0.11 0.12 0.08 0.16 0.31 0.63 1.07 0.78 0.67 0.59 0.42 0.23 0.10 0.08 0.14 0.13 0.04 0.00 0.00 0.02 0.03 0.03 0.00 0.01 0.02 0.00 0.00 0.00 0.00 0.00 0.00 0.00 0.00 0.00 0.00
0.00 0.00 0.00 0.00 0.01 0.00 0.00 0.01 0.00 0.02 0.11 0.03 0.05 0.17 0.06 0.09 0.16 0.24 0.30 0.36 0.38 0.29 0.29 0.24 0.19 0.23 0.27 0.07 0.05 0.05 0.02 0.04 0.06 0.07 0.03 0.01 0.02 0.04 0.00 0.00 0.00 0.00 0.00 0.00 0.00 0.00 0.00 0.00 0.00
0.00 0.00 0.00 0.00 0.02 0.02 0.01 0.01 0.01 0.07 0.08 0.14 0.16 0.17 0.10 0.10 0.15 0.13 0.10 0.15 0.14 0.12 0.08 0.13 0.06 0.04 0.04 0.03 0.03 0.02 0.09 0.07 0.09 0.08 0.03 0.00 0.00 0.00 0.00 0.00 0.00 0.00 0.00 0.00 0.00 0.00 0.00 0.00 0.00
0.00 0.00 0.00 0.02 0.01 0.02 0.01 0.01 0.06 0.14 0.15 0.19 0.17 0.09 0.11 0.08 0.09 0.08 0.03 0.01 0.03 0.05 0.07 0.07 0.07 0.05 0.01 0.02 0.07 0.12 0.17 0.14 0.15 0.26 0.14 0.04 0.02 0.01 0.00 0.00 0.00 0.00 0.00 0.00 0.00 0.00 0.00 0.00 0.00
0.00 0.01 0.01 0.01 0.02 0.01 0.02 0.02 0.03 0.04 0.16 0.13 0.08 0.06 0.09 0.12 0.09 0.04 0.01 0.00 0.00 0.00 0.01 0.13 0.56 0.14 0.07 0.06 0.08 0.13 0.04 0.05 0.16 0.23 0.21 0.07 0.01 0.04 0.02 0.00 0.00 0.00 0.00 0.00 0.00 0.00 0.00 0.00 0.00
0.00 0.00 0.01 0.01 0.01 0.00 0.00 0.01 0.00 0.04 0.03 0.02 0.01 0.03 0.08 0.08 0.04 0.00 0.00 0.00 0.00 0.01 0.06 0.43 0.76 0.44 0.15 0.09 0.13 0.13 0.16 0.10 0.17 0.21 0.17 0.14 0.11 0.09 0.04 0.01 0.00 0.00 0.00 0.00 0.00 0.00 0.00 0.00 0.00
0.00 0.00 0.00 0.00 0.00 0.00 0.01 0.01 0.00 0.02 0.01 0.01 0.00 0.01 0.01 0.01 0.01 0.00 0.00 0.00 0.03 0.03 0.15 0.43 0.54 0.57 0.56 0.56 0.53 0.26 0.09 0.09 0.18 0.16 0.15 0.08 0.08 0.08 0.04 0.02 0.00 0.00 0.00 0.00 0.00 0.00 0.00 0.00 0.00
0.00 0.00 0.00 0.01 0.00 0.00 0.00 0.00 0.00 0.00 0.00 0.01 0.00 0.00 0.00 0.00 0.00 0.00 0.03 0.04 0.06 0.08 0.31 0.54 0.61 0.93 1.15 0.67 0.22 0.08 0.09 0.08 0.13 0.11 0.10 0.07 0.04 0.04 0.01 0.01 0.00 0.00 0.00 0.00 0.00 0.00 0.00 0.00 0.00
0.00 0.00 0.00 0.00 0.00 0.00 0.00 0.00 0.00 0.00 0.00 0.01 0.00 0.00 0.01 0.00 0.00 0.02 0.05 0.06 0.08 0.18 0.41 0.62 0.96 0.92 0.32 0.10 0.07 0.05 0.06 0.13 0.21 0.17 0.14 0.12 0.03 0.02 0.00 0.00 0.00 0.00 0.00 0.00 0.00 0.00 0.00 0.00 0.00
0.00 0.00 0.00 0.00 0.00 0.00 0.00 0.00 0.00 0.00 0.00 0.00 0.00 0.00 0.00 0.00 0.00 0.01 0.04 0.10 0.28 0.44 0.44 0.31 0.14 0.12 0.02 0.02 0.05 0.05 0.06 0.11 0.18 0.14 0.11 0.17 0.10 0.02 0.00 0.00 0.00 0.00 0.00 0.00 0.00 0.00 0.00 0.00 0.00
0.00 0.00 0.00 0.00 0.00 0.00 0.00 0.00 0.00 0.00 0.00 0.00 0.00 0.00 0.00 0.00 0.01 0.04 0.08 0.13 0.10 0.05 0.02 0.06 0.08 0.13 0.04 0.02 0.01 0.01 0.06 0.12 0.10 0.17 0.17 0.15 0.09 0.04 0.00 0.00 0.00 0.00 0.00 0.00 0.00 0.00 0.00 0.00 0.00
0.00 0.00 0.00 0.00 0.00 0.00 0.00 0.00 0.01 0.00 0.00 0.00 0.00 0.00 0.01 0.02 0.03 0.03 0.00 0.00 0.01 0.02 0.03 0.06 0.11 0.14 0.04 0.01 0.00 0.01 0.06 0.08 0.16 0.17 0.13 0.09 0.04 0.02 0.00 0.00 0.00 0.00 0.00 0.00 0.00 0.00 0.00 0.00 0.00
0.00 0.00 0.00 0.00 0.00 0.02 0.00 0.01 0.02 0.01 0.00 0.00 0.00 0.00 0.00 0.00 0.00 0.00 0.01 0.00 0.00 0.04 0.07 0.08 0.11 0.15 0.08 0.01 0.06 0.12 0.14 0.15 0.16 0.13 0.10 0.07 0.05 0.02 0.00 0.00 0.00 0.00 0.00 0.00 0.00 0.00 0.00 0.01 0.00
0.00 0.00 0.00 0.00 0.00 0.01 0.01 0.02 0.01 0.01 0.01 0.02 0.00 0.00 0.00 0.00 0.01 0.02 0.02 0.01 0.01 0.05 0.08 0.10 0.12 0.19 0.09 0.06 0.07 0.13 0.17 0.13 0.09 0.07 0.06 0.05 0.05 0.03 0.01 0.00 0.00 0.00 0.00 0.00 0.01 0.04 0.03 0.01 0.00
0.00 0.00 0.01 0.07 0.02 0.01 0.03 0.03 0.01 0.00 0.01 0.08 0.04 0.00 0.00 0.00 0.01 0.03 0.02 0.01 0.02 0.04 0.08 0.08 0.07 0.09 0.09 0.12 0.06 0.04 0.12 0.15 0.12 0.09 0.06 0.06 0.05 0.03 0.02 0.01 0.00 0.00 0.02 0.05 0.04 0.02 0.02 0.01 0.03
0.00 0.00 0.01 0.06 0.07 0.02 0.02 0.01 0.00 0.00 0.00 0.00 0.01 0.00 0.00 0.00 0.00 0.01 0.01 0.02 0.02 0.07 0.18 0.12 0.11 0.11 0.07 0.11 0.16 0.18 0.16 0.17 0.18 0.19 0.13 0.08 0.08 0.10 0.05 0.02 0.06 0.06 0.04 0.01 0.02 0.03 0.03 0.05 0.07
0.00 0.00 0.00 0.00 0.01 0.00 0.00 0.00 0.00 0.00 0.00 0.00 0.00 0.00 0.00 0.00 0.00 0.00 0.00 0.02 0.02 0.02 0.15 0.20 0.13 0.12 0.08 0.10 0.16 0.21 0.30 0.33 0.29 0.25 0.20 0.16 0.10 0.08 0.13 0.17 0.09 0.02 0.01 0.02 0.02 0.04 0.06 0.08 0.11
0.00 0.00 0.00 0.00 0.00 0.00 0.00 0.00 0.00 0.01 0.01 0.00 0.00 0.00 0.00 0.00 0.00 0.00 0.00 0.00 0.01 0.01 0.05 0.06 0.05 0.10 0.10 0.07 0.09 0.15 0.21 0.26 0.26 0.26 0.24 0.18 0.14 0.11 0.11 0.12 0.09 0.04 0.04 0.05 0.06 0.07 0.07 0.10 0.09
0.00 0.00 0.00 0.00 0.00 0.00 0.00 0.00 0.00 0.00 0.00 0.00 0.00 0.00 0.00 0.00 0.00 0.00 0.00 0.00 0.00 0.00 0.01 0.00 0.02 0.03 0.02 0.06 0.15 0.16 0.19 0.23 0.24 0.25 0.21 0.15 0.09 0.06 0.06 0.05 0.05 0.07 0.11 0.16 0.15 0.10 0.09 0.07 0.04
0.00 0.01 0.02 0.00 0.00 0.00 0.00 0.00 0.00 0.00 0.00 0.00 0.00 0.00 0.00 0.00 0.00 0.00 0.00 0.00 0.00 0.00 0.00 0.00 0.02 0.07 0.13 0.16 0.20 0.25 0.27 0.27 0.22 0.17 0.13 0.09 0.06 0.04 0.05 0.06 0.06 0.08 0.10 0.10 0.11 0.09 0.04 0.01 0.01

GFSSGP_prec_precacc_057.txt.gz
Total_Precipitation_Accumulation
0.00 0.00 0.00 0.00 0.00 0.00 0.00 0.00 0.01 0.02 0.05 0.07 0.13 0.14 0.13 0.19 0.40 0.65 0.37 0.16 0.17 0.12 0.10 0.12 0.24 0.05 0.07 0.11 0.11 0.06 0.02 0.01 0.01 0.01 0.00 0.00 0.00 0.00 0.00 0.00 0.00 0.01 0.01 0.00 0.00 0.00 0.00 0.01 0.01
0.00 0.00 0.00 0.00 0.00 0.00 0.00 0.02 0.01 0.06 0.20 0.25 0.27 0.31 0.23 0.36 0.22 0.26 0.47 0.36 0.25 0.12 0.15 0.14 0.15 0.06 0.01 0.03 0.01 0.01 0.02 0.00 0.00 0.00 0.00 0.00 0.00 0.00 0.00 0.00 0.00 0.00 0.01 0.00 0.00 0.00 0.00 0.00 0.00
0.00 0.00 0.00 0.00 0.00 0.00 0.00 0.02 0.02 0.06 0.16 0.17 0.15 0.13 0.23 0.31 0.38 0.55 0.48 0.37 0.35 0.23 0.11 0.22 0.14 0.13 0.06 0.01 0.01 0.02 0.03 0.02 0.01 0.01 0.01 0.01 0.00 0.00 0.00 0.00 0.00 0.00 0.01 0.00 0.00 0.00 0.00 0.00 0.00
0.00 0.00 0.00 0.00 0.00 0.00 0.00 0.02 0.04 0.14 0.14 0.09 0.12 0.10 0.20 0.24 0.50 0.56 0.54 0.67 0.72 0.76 0.54 0.48 0.53 0.46 0.16 0.01 0.00 0.00 0.00 0.00 0.00 0.00 0.00 0.00 0.00 0.00 0.00 0.00 0.00 0.01 0.00 0.00 0.00 0.00 0.00 0.00 0.00
0.00 0.00 0.00 0.00 0.00 0.00 0.01 0.06 0.17 0.20 0.22 0.18 0.11 0.15 0.21 0.20 0.32 0.49 1.02 1.99 2.53 1.83 1.15 0.86 1.39 1.00 0.24 0.01 0.00 0.00 0.00 0.00 0.00 0.00 0.00 0.00 0.00 0.00 0.00 0.00 0.00 0.00 0.00 0.00 0.00 0.00 0.00 0.00 0.00
0.00 0.00 0.00 0.00 0.00 0.00 0.01 0.11 0.30 0.40 0.19 0.19 0.09 0.09 0.17 0.27 0.37 0.62 1.64 2.10 3.46 4.50 3.45 2.03 1.79 1.31 0.27 0.06 0.02 0.00 0.00 0.00 0.00 0.00 0.00 0.00 0.00 0.00 0.00 0.00 0.00 0.00 0.00 0.00 0.00 0.00 0.00 0.00 0.00
0.00 0.00 0.00 0.00 0.00 0.01 0.04 0.13 0.21 0.22 0.06 0.02 0.03 0.10 0.25 0.26 0.35 0.82 1.56 3.99 5.32 5.70 6.73 5.62 1.91 0.80 0.31 0.13 0.03 0.01 0.01 0.00 0.00 0.00 0.00 0.00 0.00 0.00 0.00 0.00 0.00 0.00 0.00 0.00 0.00 0.00 0.00 0.00 0.00
0.00 0.00 0.00 0.00 0.01 0.04 0.08 0.21 0.27 0.14 0.10 0.06 0.07 0.12 0.22 0.26 0.37 0.37 0.64 1.95 5.78 6.91 5.60 5.40 3.03 1.14 0.41 0.14 0.05 0.02 0.03 0.02 0.00 0.00 0.00 0.00 0.00 0.00 0.00 0.00 0.00 0.00 0.00 0.00 0.00 0.00 0.00 0.00 0.00
0.00 0.00 0.00 0.00 0.04 0.12 0.13 0.12 0.05 0.01 0.00 0.05 0.16 0.19 0.31 0.26 0.18 0.19 0.82 0.84 1.76 3.27 3.63 3.04 1.70 0.83 0.49 0.21 0.16 0.09 0.04 0.00 0.00 0.00 0.00 0.00 0.00 0.00 0.00 0.00 0.00 0.00 0.00 0.00 0.00 0.00 0.00 0.00 0.00
0.00 0.00 0.00 0.00 0.02 0.28 0.21 0.26 0.23 0.04 0.03 0.06 0.15 0.46 0.37 0.23 0.20 0.21 0.56 0.69 1.55 1.97 1.65 1.10 0.61 0.22 0.12 0.19 0.29 0.25 0.08 0.00 0.00 0.00 0.00 0.02 0.01 0.00 0.00 0.00 0.00 0.00 0.00 0.00 0.00 0.00 0.00 0.00 0.00
0.00 0.00 0.00 0.00 0.00 0.05 0.09 0.01 0.01 0.04 0.01 0.02 0.18 0.23 0.14 0.14 0.10 0.18 0.31 0.63 1.07 0.78 0.71 0.64 0.46 0.25 0.15 0.13 0.18 0.20 0.11 0.00 0.00 0.02 0.03 0.03 0.00 0.01 0.02 0.00 0.00 0.00 0.00 0.00 0.00 0.00 0.00 0.00 0.00
0.00 0.00 0.00 0.00 0.01 0.00 0.00 0.01 0.00 0.02 0.12 0.03 0.05 0.18 0.09 0.10 0.16 0.24 0.30 0.36 0.39 0.31 0.31 0.26 0.23 0.26 0.39 0.28 0.19 0.14 0.04 0.04 0.06 0.07 0.03 0.01 0.02 0.04 0.00 0.00 0.00 0.00 0.00 0.00 0.00 0.00 0.00 0.00 0.00
0.00 0.00 0.00 0.00 0.02 0.02 0.01 0.01 0.01 0.07 0.08 0.14 0.16 0.17 0.11 0.11 0.16 0.13 0.10 0.16 0.16 0.16 0.11 0.17 0.11 0.13 0.16 0.19 0.17 0.08 0.09 0.07 0.09 0.08 0.03 0.00 0.00 0.00 0.00 0.00 0.00 0.00 0.00 0.00 0.00 0.00 0.00 0.00 0.00
0.00 0.00 0.00 0.02 0.01 0.02 0.01 0.01 0.06 0.14 0.15 0.19 0.17 0.10 0.13 0.09 0.09 0.08 0.03 0.02 0.08 0.14 0.15 0.15 0.19 0.18 0.16 0.09 0.11 0.16 0.20 0.14 0.15 0.26 0.14 0.04 0.02 0.01 0.00 0.00 0.00 0.00 0.00 0.00 0.00 0.00 0.00 0.00 0.00
0.00 0.01 0.01 0.02 0.02 0.01 0.02 0.09 0.06 0.05 0.16 0.13 0.09 0.07 0.09 0.12 0.09 0.04 0.02 0.00 0.00 0.01 0.07 0.23 0.68 0.22 0.11 0.08 0.09 0.15 0.06 0.05 0.16 0.23 0.21 0.07 0.01 0.04 0.02 0.00 0.00 0.00 0.00 0.00 0.00 0.00 0.00 0.00 0.00
0.00 0.00 0.02 0.14 0.02 0.01 0.01 0.17 0.10 0.04 0.03 0.02 0.02 0.04 0.09 0.09 0.04 0.00 0.00 0.00 0.00 0.01 0.06 0.44 0.79 0.47 0.17 0.13 0.16 0.16 0.16 0.10 0.17 0.21 0.17 0.14 0.11 0.09 0.04 0.01 0.00 0.00 0.00 0.00 0.00 0.00 0.00 0.00 0.00
0.00 0.00 0.00 0.01 0.00 0.00 0.01 0.02 0.00 0.02 0.01 0.01 0.00 0.01 0.01 0.01 0.01 0.00 0.00 0.00 0.03 0.03 0.15 0.43 0.54 0.57 0.57 0.61 0.55 0.27 0.09 0.09 0.18 0.16 0.15 0.08 0.08 0.08 0.04 0.02 0.00 0.00 0.00 0.00 0.00 0.00 0.00 0.00 0.00
0.00 0.00 0.00 0.02 0.01 0.00 0.00 0.00 0.00 0.00 0.00 0.01 0.00 0.00 0.00 0.00 0.00 0.00 0.03 0.04 0.06 0.08 0.31 0.54 0.61 0.93 1.15 0.69 0.22 0.08 0.09 0.08 0.13 0.11 0.10 0.07 0.04 0.05 0.01 0.01 0.00 0.00 0.00 0.00 0.00 0.00 0.00 0.00 0.00
0.00 0.00 0.00 0.00 0.01 0.00 0.00 0.00 0.00 0.00 0.00 0.01 0.00 0.00 0.01 0.00 0.00 0.02 0.05 0.06 0.08 0.18 0.41 0.62 0.96 0.92 0.32 0.10 0.07 0.05 0.06 0.13 0.21 0.17 0.15 0.13 0.03 0.04 0.01 0.00 0.01 0.00 0.00 0.00 0.00 0.00 0.00 0.00 0.00
0.00 0.00 0.00 0.00 0.00 0.00 0.00 0.00 0.00 0.00 0.00 0.00 0.00 0.00 0.00 0.00 0.00 0.01 0.04 0.10 0.28 0.44 0.44 0.31 0.14 0.12 0.02 0.02 0.05 0.05 0.06 0.11 0.18 0.14 0.11 0.19 0.12 0.04 0.01 0.02 0.02 0.00 0.00 0.00 0.00 0.00 0.00 0.00 0.00
0.00 0.00 0.00 0.00 0.00 0.00 0.00 0.00 0.00 0.00 0.00 0.00 0.00 0.00 0.00 0.00 0.01 0.04 0.08 0.13 0.10 0.05 0.02 0.06 0.08 0.13 0.04 0.02 0.01 0.01 0.06 0.12 0.10 0.17 0.17 0.15 0.14 0.13 0.06 0.02 0.00 0.00 0.00 0.00 0.00 0.00 0.00 0.00 0.00
0.00 0.00 0.00 0.00 0.00 0.00 0.00 0.00 0.01 0.00 0.00 0.00 0.00 0.00 0.01 0.02 0.03 0.03 0.00 0.00 0.01 0.02 0.03 0.06 0.11 0.14 0.04 0.01 0.00 0.01 0.06 0.08 0.16 0.17 0.13 0.10 0.09 0.10 0.09 0.05 0.04 0.00 0.00 0.00 0.00 0.00 0.00 0.00 0.00
0.00 0.00 0.00 0.00 0.00 0.02 0.00 0.01 0.02 0.01 0.00 0.00 0.00 0.00 0.00 0.00 0.00 0.00 0.01 0.00 0.00 0.04 0.07 0.08 0.11 0.15 0.08 0.01 0.06 0.12 0.14 0.15 0.16 0.13 0.10 0.08 0.08 0.06 0.04 0.03 0.02 0.01 0.00 0.00 0.00 0.00 0.00 0.01 0.00
0.00 0.00 0.00 0.00 0.00 0.01 0.01 0.02 0.02 0.01 0.01 0.02 0.00 0.00 0.00 0.00 0.01 0.02 0.02 0.01 0.01 0.05 0.08 0.10 0.12 0.19 0.09 0.06 0.07 0.13 0.17 0.13 0.09 0.08 0.06 0.05 0.06 0.05 0.04 0.04 0.03 0.02 0.01 0.00 0.01 0.04 0.03 0.01 0.00
0.00 0.00 0.01 0.10 0.02 0.01 0.03 0.03 0.01 0.00 0.01 0.08 0.04 0.00 0.00 0.00 0.01 0.03 0.02 0.01 0.02 0.04 0.08 0.08 0.07 0.09 0.09 0.12 0.06 0.04 0.12 0.15 0.12 0.09 0.07 0.06 0.05 0.03 0.06 0.09 0.08 0.05 0.06 0.08 0.04 0.02 0.02 0.01 0.03
0.00 0.00 0.02 0.12 0.10 0.03 0.02 0.01 0.00 0.00 0.00 0.00 0.01 0.00 0.00 0.00 0.00 0.01 0.01 0.02 0.02 0.07 0.18 0.12 0.11 0.11 0.07 0.11 0.16 0.18 0.19 0.19 0.18 0.19 0.13 0.08 0.08 0.12 0.21 0.27 0.25 0.20 0.12 0.04 0.06 0.06 0.03 0.05 0.07
0.00 0.00 0.00 0.01 0.01 0.00 0.00 0.00 0.00 0.00 0.00 0.00 0.00 0.00 0.00 0.00 0.00 0.00 0.00 0.02 0.02 0.02 0.15 0.20 0.13 0.12 0.08 0.10 0.16 0.23 0.32 0.34 0.30 0.25 0.21 0.17 0.12 0.09 0.17 0.25 0.18 0.16 0.17 0.11 0.07 0.05 0.07 0.09 0.12
0.00 0.00 0.00 0.00 0.02 0.01 0.00 0.00 0.00 0.01 0.01 0.00 0.00 0.00 0.00 0.00 0.00 0.00 0.00 0.00 0.01 0.01 0.05 0.06 0.05 0.10 0.10 0.07 0.09 0.15 0.24 0.29 0.28 0.29 0.29 0.22 0.16 0.13 0.13 0.14 0.18 0.16 0.11 0.09 0.08 0.07 0.09 0.11 0.13
0.00 0.00 0.00 0.00 0.00 0.02 0.01 0.00 0.00 0.00 0.00 0.00 0.00 0.00 0.00 0.00 0.00 0.00 0.00 0.00 0.00 0.00 0.01 0.00 0.02 0.03 0.02 0.06 0.15 0.20 0.25 0.24 0.25 0.27 0.23 0.15 0.09 0.07 0.07 0.07 0.09 0.11 0.14 0.19 0.18 0.14 0.12 0.11 0.06
0.00 0.01 0.02 0.00 0.00 0.00 0.00 0.00 0.00 0.00 0.00 0.00 0.00 0.00 0.00 0.00 0.00 0.00 0.00 0.00 0.00 0.00 0.00 0.00 0.02 0.07 0.13 0.16 0.21 0.27 0.29 0.29 0.24 0.18 0.13 0.09 0.06 0.05 0.06 0.08 0.07 0.09 0.12 0.13 0.13 0.10 0.07 0.04 0.02

GFSSGP_prec_precacc_060.txt.gz
Total_Precipitation_Accumulation
0.00 0.00 0.00 0.00 0.00 0.00 0.00 0.00 0.01 0.02 0.05 0.07 0.15 0.17 0.15 0.19 0.40 0.72 0.59 1.11 2.11 0.90 0.16 0.13 0.24 0.05 0.07 0.11 0.11 0.06 0.02 0.01 0.01 0.01 0.00 0.00 0.00 0.00 0.00 0.00 0.00 0.01 0.01 0.00 0.00 0.00 0.00 0.01 0.01
0.00 0.00 0.00 0.00 0.00 0.00 0.00 0.02 0.01 0.06 0.20 0.31 0.32 0.34 0.31 0.36 0.22 0.27 0.47 0.42 0.44 0.29 0.22 0.16 0.15 0.06 0.02 0.03 0.01 0.01 0.02 0.00 0.00 0.00 0.00 0.00 0.00 0.00 0.00 0.00 0.00 0.00 0.01 0.00 0.00 0.00 0.00 0.00 0.00
0.00 0.00 0.00 0.00 0.00 0.00 0.00 0.02 0.02 0.06 0.16 0.17 0.15 0.13 0.25 0.40 0.45 0.55 0.48 0.37 0.37 0.24 0.16 0.25 0.15 0.13 0.06 0.01 0.01 0.02 0.03 0.02 0.01 0.01 0.01 0.01 0.00 0.00 0.00 0.00 0.00 0.01 0.01 0.00 0.00 0.00 0.00 0.00 0.00
0.00 0.00 0.00 0.00 0.00 0.00 0.00 0.02 0.04 0.15 0.14 0.09 0.12 0.19 0.51 0.46 0.78 0.57 0.54 0.67 0.81 0.93 0.63 0.52 0.57 0.47 0.16 0.01 0.00 0.00 0.00 0.00 0.00 0.00 0.00 0.00 0.00 0.00 0.00 0.00 0.00 0.01 0.00 0.00 0.00 0.00 0.00 0.00 0.00
0.00 0.00 0.00 0.00 0.00 0.00 0.01 0.06 0.17 0.20 0.22 0.28 0.12 0.27 0.87 0.45 0.36 0.51 1.04 2.03 2.87 2.32 1.41 0.96 1.45 1.08 0.26 0.02 0.00 0.00 0.00 0.00 0.00 0.00 0.00 0.00 0.00 0.00 0.00 0.00 0.00 0.00 0.00 0.00 0.00 0.00 0.00 0.00 0.00
0.00 0.00 0.00 0.00 0.00 0.00 0.01 0.11 0.30 0.40 0.25 0.32 0.12 0.31 0.82 0.38 0.46 0.65 1.66 2.17 3.68 5.03 4.80 2.46 2.00 1.52 0.40 0.12 0.02 0.00 0.00 0.00 0.00 0.00 0.00 0.00 0.00 0.00 0.00 0.00 0.00 0.00 0.00 0.00 0.00 0.00 0.00 0.00 0.00
0.00 0.00 0.00 0.00 0.00 0.01 0.04 0.13 0.21 0.23 0.18 0.32 0.19 0.33 0.55 0.36 0.42 0.88 1.68 4.16 5.52 5.94 8.65 7.58 2.81 1.17 0.63 0.47 0.08 0.01 0.02 0.01 0.00 0.00 0.00 0.00 0.00 0.00 0.00 0.00 0.00 0.00 0.00 0.00 0.00 0.00 0.00 0.00 0.00
0.00 0.00 0.00 0.00 0.01 0.04 0.08 0.21 0.27 0.14 0.23 0.43 0.18 0.17 0.73 0.56 0.42 0.45 0.77 2.03 5.86 7.04 5.86 5.88 3.67 2.02 1.12 0.76 0.26 0.09 0.06 0.04 0.00 0.00 0.00 0.00 0.00 0.00 0.00 0.00 0.00 0.00 0.00 0.00 0.00 0.00 0.00 0.00 0.00
0.00 0.00 0.00 0.00 0.04 0.12 0.13 0.12 0.09 0.04 0.03 0.07 0.20 0.20 0.33 0.29 0.23 0.22 0.88 0.93 1.81 3.35 3.71 3.10 1.87 1.03 0.90 0.69 0.48 0.27 0.17 0.04 0.00 0.00 0.00 0.00 0.00 0.00 0.00 0.00 0.00 0.00 0.00 0.00 0.00 0.00 0.00 0.00 0.00
0.00 0.00 0.00 0.00 0.02 0.28 0.21 0.26 0.23 0.04 0.04 0.18 0.25 0.48 0.37 0.23 0.21 0.22 0.58 0.71 1.57 1.99 1.70 1.14 0.64 0.23 0.15 0.28 0.31 0.27 0.16 0.09 0.01 0.00 0.00 0.02 0.01 0.00 0.00 0.00 0.00 0.00 0.00 0.00 0.00 0.00 0.00 0.00 0.00
0.00 0.00 0.00 0.00 0.00 0.05 0.09 0.01 0.01 0.04 0.10 0.24 0.35 0.32 0.14 0.14 0.10 0.18 0.31 0.63 1.08 0.79 0.75 0.71 0.48 0.26 0.15 0.14 0.18 0.21 0.13 0.06 0.01 0.02 0.03 0.03 0.00 0.01 0.02 0.00 0.00 0.00 0.00 0.00 0.00 0.00 0.00 0.00 0.00
0.00 0.00 0.00 0.00 0.01 0.00 0.00 0.01 0.00 0.05 0.46 0.41 0.07 0.19 0.09 0.10 0.16 0.24 0.30 0.36 0.40 0.33 0.35 0.29 0.32 0.32 0.44 0.30 0.21 0.17 0.12 0.07 0.07 0.08 0.04 0.01 0.02 0.04 0.00 0.00 0.00 0.00 0.00 0.00 0.00 0.00 0.00 0.00 0.00
0.00 0.00 0.00 0.00 0.02 0.02 0.01 0.01 0.02 0.15 0.20 0.17 0.16 0.17 0.11 0.11 0.16 0.13 0.10 0.16 0.17 0.20 0.23 0.23 0.13 0.17 0.18 0.21 0.22 0.18 0.23 0.11 0.10 0.08 0.03 0.00 0.00 0.00 0.00 0.00 0.00 0.00 0.00 0.00 0.00 0.00 0.00 0.00 0.00
0.00 0.00 0.00 0.02 0.01 0.02 0.01 0.02 0.17 0.29 0.19 0.20 0.17 0.10 0.13 0.09 0.09 0.08 0.04 0.02 0.09 0.20 0.22 0.21 0.23 0.22 0.21 0.20 0.27 0.25 0.24 0.15 0.15 0.26 0.14 0.04 0.02 0.01 0.00 0.00 0.00 0.00 0.00 0.00 0.00 0.00 0.00 0.00 0.00
0.00 0.01 0.01 0.04 0.02 0.01 0.02 0.10 0.20 0.47 0.33 0.15 0.09 0.08 0.10 0.12 0.09 0.04 0.02 0.00 0.00 0.02 0.11 0.29 0.72 0.31 0.17 0.20 0.26 0.23 0.09 0.05 0.16 0.23 0.21 0.07 0.02 0.04 0.02 0.00 0.00 0.00 0.00 0.00 0.00 0.00 0.00 0.00 0.00
0.00 0.00 0.02 0.16 0.03 0.01 0.01 0.20 0.34 0.14 0.12 0.04 0.03 0.05 0.10 0.09 0.04 0.00 0.00 0.00 0.00 0.01 0.06 0.46 0.81 0.49 0.19 0.16 0.19 0.19 0.17 0.12 0.17 0.21 0.17 0.15 0.11 0.09 0.04 0.01 0.00 0.00 0.00 0.00 0.00 0.00 0.00 0.00 0.00
0.00 0.00 0.00 0.01 0.01 0.01 0.01 0.02 0.15 0.08 0.05 0.02 0.01 0.01 0.01 0.01 0.01 0.00 0.00 0.00 0.03 0.03 0.15 0.43 0.54 0.58 0.57 0.61 0.55 0.29 0.12 0.10 0.18 0.16 0.15 0.08 0.08 0.08 0.04 0.02 0.00 0.00 0.00 0.00 0.00 0.00 0.00 0.00 0.00
0.00 0.00 0.00 0.02 0.01 0.00 0.00 0.00 0.01 0.08 0.03 0.01 0.00 0.00 0.00 0.00 0.00 0.00 0.03 0.04 0.06 0.08 0.31 0.54 0.61 0.93 1.16 0.71 0.24 0.09 0.12 0.08 0.13 0.11 0.10 0.09 0.06 0.08 0.02 0.01 0.01 0.00 0.00 0.00 0.00 0.00 0.00 0.00 0.00
0.00 0.00 0.00 0.00 0.01 0.00 0.00 0.00 0.00 0.03 0.04 0.01 0.00 0.00 0.01 0.00 0.00 0.02 0.05 0.06 0.08 0.18 0.41 0.62 0.96 0.92 0.32 0.11 0.07 0.05 0.06 0.13 0.21 0.17 0.15 0.14 0.07 0.13 0.11 0.07 0.10 0.01 0.00 0.00 0.00 0.00 0.00 0.00 0.00
0.00 0.00 0.00 0.00 0.00 0.00 0.00 0.00 0.00 0.00 0.02 0.00 0.00 0.00 0.00 0.00 0.00 0.01 0.04 0.10 0.28 0.44 0.44 0.31 0.14 0.12 0.02 0.02 0.05 0.05 0.06 0.11 0.18 0.14 0.12 0.22 0.15 0.10 0.06 0.09 0.16 0.05 0.05 0.00 0.00 0.00 0.00 0.00 0.00
0.00 0.00 0.00 0.00 0.00 0.00 0.00 0.00 0.00 0.00 0.00 0.00 0.00 0.00 0.00 0.00 0.01 0.04 0.08 0.13 0.10 0.05 0.02 0.06 0.08 0.13 0.04 0.02 0.01 0.01 0.06 0.12 0.10 0.17 0.17 0.16 0.15 0.20 0.10 0.06 0.08 0.07 0.03 0.00 0.00 0.00 0.00 0.00 0.00
0.00 0.00 0.00 0.00 0.00 0.00 0.00 0.00 0.01 0.00 0.00 0.00 0.00 0.00 0.01 0.02 0.03 0.03 0.00 0.00 0.01 0.02 0.03 0.06 0.11 0.14 0.04 0.01 0.00 0.01 0.06 0.08 0.16 0.17 0.13 0.10 0.09 0.11 0.12 0.09 0.10 0.14 0.12 0.10 0.03 0.00 0.00 0.00 0.00
0.00 0.00 0.00 0.00 0.00 0.02 0.01 0.01 0.02 0.01 0.00 0.00 0.00 0.00 0.00 0.00 0.00 0.00 0.01 0.00 0.00 0.04 0.07 0.08 0.11 0.15 0.08 0.01 0.06 0.12 0.14 0.15 0.16 0.13 0.10 0.08 0.08 0.07 0.05 0.03 0.02 0.03 0.02 0.02 0.03 0.03 0.02 0.03 0.01
0.00 0.00 0.00 0.00 0.00 0.01 0.01 0.02 0.02 0.02 0.01 0.02 0.00 0.00 0.00 0.00 0.01 0.02 0.02 0.01 0.01 0.05 0.08 0.10 0.12 0.19 0.09 0.06 0.07 0.13 0.17 0.13 0.09 0.08 0.09 0.06 0.07 0.07 0.04 0.04 0.03 0.03 0.03 0.04 0.12 0.20 0.14 0.14 0.07
0.00 0.00 0.02 0.13 0.03 0.01 0.03 0.03 0.01 0.01 0.01 0.08 0.04 0.00 0.00 0.00 0.01 0.03 0.02 0.01 0.02 0.04 0.08 0.08 0.07 0.09 0.09 0.12 0.06 0.04 0.12 0.15 0.13 0.10 0.16 0.12 0.06 0.05 0.08 0.10 0.08 0.06 0.10 0.18 0.18 0.14 0.13 0.12 0.12
0.00 0.00 0.03 0.16 0.16 0.07 0.03 0.01 0.00 0.00 0.00 0.00 0.01 0.00 0.00 0.00 0.00 0.01 0.01 0.02 0.02 0.07 0.18 0.12 0.11 0.11 0.07 0.11 0.16 0.19 0.24 0.27 0.36 0.29 0.26 0.16 0.16 0.17 0.27 0.30 0.26 0.21 0.17 0.16 0.21 0.29 0.32 0.26 0.16
0.00 0.00 0.00 0.01 0.03 0.03 0.01 0.01 0.00 0.00 0.00 0.00 0.00 0.00 0.00 0.00 0.00 0.00 0.01 0.02 0.02 0.02 0.15 0.20 0.13 0.12 0.08 0.10 0.16 0.24 0.34 0.36 0.30 0.27 0.29 0.27 0.18 0.12 0.21 0.27 0.19 0.17 0.20 0.22 0.22 0.19 0.16 0.13 0.16
0.00 0.00 0.00 0.00 0.06 0.05 0.00 0.00 0.01 0.01 0.01 0.00 0.00 0.00 0.00 0.00 0.00 0.00 0.00 0.00 0.01 0.01 0.05 0.06 0.05 0.10 0.10 0.07 0.10 0.15 0.26 0.33 0.33 0.52 0.44 0.34 0.21 0.18 0.16 0.15 0.18 0.17 0.13 0.13 0.14 0.10 0.11 0.14 0.16
0.00 0.00 0.00 0.00 0.00 0.05 0.03 0.01 0.01 0.01 0.00 0.00 0.00 0.00 0.00 0.00 0.00 0.00 0.00 0.00 0.00 0.00 0.01 0.00 0.02 0.03 0.02 0.06 0.17 0.26 0.32 0.50 0.54 0.36 0.31 0.24 0.15 0.09 0.08 0.07 0.10 0.13 0.17 0.22 0.21 0.16 0.13 0.12 0.08
0.00 0.01 0.02 0.00 0.00 0.01 0.02 0.01 0.01 0.00 0.00 0.00 0.00 0.00 0.00 0.00 0.00 0.00 0.00 0.00 0.00 0.00 0.00 0.00 0.02 0.07 0.14 0.24 0.47 0.42 0.54 0.40 0.32 0.24 0.18 0.13 0.07 0.06 0.06 0.08 0.10 0.14 0.17 0.17 0.14 0.11 0.07 0.04 0.03

GFSSGP_prec_precacc_063.txt.gz
Total_Precipitation_Accumulation
0.00 0.00 0.00 0.00 0.00 0.00 0.00 0.00 0.01 0.02 0.05 0.07 0.15 0.17 0.15 0.19 0.40 0.73 0.64 1.20 2.29 1.57 0.85 0.79 0.74 0.08 0.07 0.11 0.11 0.06 0.02 0.01 0.01 0.01 0.00 0.00 0.00 0.00 0.01 0.00 0.00 0.01 0.01 0.00 0.00 0.00 0.00 0.01 0.01
0.00 0.00 0.00 0.00 0.00 0.00 0.00 0.02 0.01 0.06 0.20 0.31 0.32 0.34 0.31 0.36 0.25 0.40 0.60 0.49 0.45 0.31 0.38 0.50 1.07 0.33 0.06 0.03 0.01 0.01 0.02 0.00 0.00 0.00 0.00 0.00 0.00 0.00 0.00 0.00 0.00 0.00 0.01 0.00 0.00 0.00 0.00 0.00 0.00
0.00 0.00 0.00 0.00 0.00 0.00 0.00 0.02 0.02 0.06 0.16 0.17 0.15 0.13 0.26 0.42 0.69 0.79 0.68 0.50 0.44 0.25 0.17 0.36 0.66 0.41 0.09 0.01 0.01 0.02 0.03 0.02 0.01 0.01 0.01 0.01 0.01 0.00 0.00 0.00 0.00 0.01 0.01 0.00 0.00 0.00 0.00 0.00 0.00
0.00 0.00 0.00 0.00 0.00 0.00 0.00 0.02 0.04 0.15 0.14 0.09 0.12 0.20 0.54 0.51 0.96 0.72 0.65 0.80 0.88 0.97 0.66 0.68 0.74 0.48 0.16 0.01 0.00 0.00 0.00 0.00 0.00 0.00 0.00 0.00 0.00 0.00 0.00 0.00 0.00 0.01 0.00 0.00 0.00 0.00 0.00 0.00 0.00
0.00 0.00 0.00 0.00 0.00 0.00 0.01 0.06 0.17 0.20 0.22 0.28 0.12 0.30 0.91 0.46 0.41 0.62 1.19 2.19 3.10 2.54 1.75 1.37 1.70 1.17 0.28 0.04 0.01 0.00 0.00 0.00 0.00 0.00 0.00 0.01 0.00 0.00 0.00 0.00 0.00 0.00 0.00 0.00 0.00 0.00 0.00 0.00 0.00
0.00 0.00 0.00 0.00 0.00 0.00 0.01 0.11 0.30 0.40 0.25 0.32 0.12 0.38 0.91 0.39 0.47 0.72 1.82 2.28 3.95 5.46 5.56 3.51 3.15 2.09 0.68 0.31 0.07 0.02 0.00 0.00 0.00 0.00 0.01 0.01 0.01 0.00 0.00 0.00 0.00 0.00 0.00 0.00 0.00 0.00 0.00 0.00 0.00
0.00 0.00 0.00 0.00 0.00 0.01 0.04 0.13 0.21 0.23 0.19 0.32 0.20 0.49 1.07 0.45 0.44 0.95 1.77 4.23 5.66 6.29 9.07 8.95 4.79 3.12 2.13 1.70 0.80 0.29 0.06 0.02 0.01 0.01 0.01 0.02 0.00 0.00 0.00 0.00 0.00 0.00 0.00 0.00 0.00 0.00 0.00 0.00 0.00
0.00 0.00 0.00 0.00 0.01 0.04 0.08 0.21 0.27 0.14 0.28 0.50 0.20 0.35 1.12 0.58 0.43 0.49 0.80 2.09 5.93 7.14 6.05 6.05 4.09 2.81 2.33 1.67 1.21 0.64 0.23 0.06 0.01 0.01 0.02 0.02 0.00 0.00 0.00 0.00 0.00 0.00 0.00 0.00 0.00 0.00 0.00 0.00 0.00
0.00 0.00 0.00 0.00 0.04 0.12 0.13 0.12 0.09 0.04 0.06 0.24 0.35 0.31 0.36 0.30 0.25 0.26 0.93 0.95 1.83 3.35 3.73 3.11 1.88 1.05 1.09 0.97 0.84 0.64 0.37 0.09 0.03 0.03 0.08 0.07 0.03 0.00 0.00 0.00 0.00 0.00 0.00 0.00 0.00 0.00 0.00 0.00 0.00
0.00 0.00 0.00 0.00 0.02 0.28 0.21 0.26 0.23 0.04 0.07 0.42 0.52 0.57 0.43 0.26 0.22 0.23 0.60 0.73 1.58 1.99 1.70 1.14 0.64 0.23 0.15 0.29 0.38 0.42 0.30 0.18 0.02 0.02 0.02 0.06 0.02 0.00 0.00 0.00 0.00 0.00 0.00 0.00 0.00 0.00 0.00 0.00 0.00
0.00 0.00 0.00 0.00 0.00 0.05 0.09 0.01 0.01 0.04 0.10 0.25 0.36 0.32 0.15 0.18 0.11 0.18 0.32 0.64 1.09 0.79 0.76 0.72 0.49 0.26 0.15 0.14 0.18 0.21 0.13 0.08 0.02 0.03 0.03 0.03 0.00 0.01 0.02 0.00 0.00 0.00 0.00 0.00 0.00 0.00 0.00 0.00 0.00
0.00 0.00 0.00 0.00 0.01 0.00 0.00 0.01 0.00 0.06 0.54 0.42 0.08 0.21 0.12 0.11 0.16 0.24 0.31 0.38 0.44 0.37 0.40 0.31 0.34 0.34 0.46 0.30 0.21 0.17 0.13 0.09 0.08 0.08 0.04 0.01 0.02 0.04 0.00 0.00 0.00 0.00 0.00 0.00 0.00 0.00 0.00 0.00 0.00
0.00 0.00 0.00 0.00 0.02 0.02 0.01 0.01 0.02 0.40 0.85 0.25 0.21 0.18 0.11 0.12 0.16 0.13 0.10 0.16 0.19 0.25 0.32 0.34 0.15 0.24 0.22 0.22 0.23 0.18 0.24 0.13 0.11 0.09 0.04 0.00 0.00 0.00 0.00 0.00 0.00 0.00 0.00 0.00 0.00 0.00 0.00 0.00 0.00
0.00 0.00 0.00 0.02 0.01 0.02 0.01 0.02 0.18 0.31 0.29 0.38 0.32 0.18 0.14 0.09 0.09 0.08 0.04 0.02 0.10 0.21 0.30 0.35 0.32 0.28 0.23 0.20 0.28 0.25 0.24 0.16 0.16 0.26 0.14 0.04 0.02 0.01 0.00 0.00 0.00 0.00 0.00 0.00 0.00 0.00 0.00 0.00 0.00
0.00 0.01 0.01 0.04 0.02 0.01 0.02 0.10 0.20 0.47 0.35 0.19 0.22 0.20 0.17 0.15 0.09 0.04 0.02 0.00 0.01 0.05 0.12 0.38 0.78 0.35 0.19 0.21 0.27 0.28 0.12 0.06 0.16 0.24 0.21 0.07 0.02 0.04 0.02 0.00 0.00 0.00 0.00 0.00 0.00 0.00 0.00 0.00 0.00
0.00 0.00 0.02 0.16 0.03 0.01 0.01 0.20 0.34 0.14 0.15 0.40 0.12 0.15 0.16 0.11 0.04 0.00 0.00 0.00 0.00 0.02 0.07 0.47 0.86 0.52 0.20 0.16 0.20 0.21 0.18 0.12 0.17 0.22 0.17 0.15 0.11 0.09 0.04 0.01 0.00 0.00 0.00 0.00 0.00 0.00 0.00 0.00 0.00
0.00 0.00 0.00 0.01 0.01 0.01 0.01 0.02 0.15 0.11 0.10 0.26 0.08 0.05 0.02 0.02 0.01 0.00 0.00 0.00 0.03 0.03 0.15 0.43 0.55 0.58 0.57 0.61 0.55 0.29 0.12 0.10 0.18 0.17 0.16 0.08 0.08 0.08 0.04 0.02 0.00 0.00 0.00 0.00 0.00 0.00 0.00 0.00 0.00
0.00 0.00 0.00 0.02 0.01 0.00 0.00 0.00 0.01 0.11 0.12 0.09 0.05 0.01 0.01 0.00 0.00 0.00 0.03 0.04 0.06 0.08 0.31 0.54 0.61 0.93 1.16 0.71 0.24 0.09 0.13 0.08 0.13 0.11 0.10 0.10 0.06 0.08 0.02 0.01 0.01 0.00 0.00 0.00 0.00 0.00 0.00 0.00 0.00
0.00 0.00 0.00 0.00 0.01 0.00 0.00 0.00 0.00 0.04 0.15 0.07 0.03 0.01 0.01 0.01 0.00 0.02 0.05 0.06 0.08 0.18 0.41 0.62 0.96 0.92 0.32 0.11 0.07 0.05 0.07 0.13 0.21 0.17 0.15 0.15 0.08 0.13 0.11 0.07 0.10 0.01 0.01 0.00 0.00 0.00 0.00 0.00 0.00
0.00 0.00 0.00 0.00 0.00 0.00 0.00 0.00 0.00 0.00 0.02 0.00 0.00 0.01 0.00 0.01 0.00 0.01 0.04 0.10 0.28 0.44 0.44 0.31 0.14 0.12 0.02 0.02 0.05 0.05 0.06 0.11 0.18 0.14 0.12 0.22 0.15 0.11 0.07 0.13 0.26 0.12 0.09 0.01 0.00 0.00 0.00 0.00 0.00
0.00 0.00 0.00 0.00 0.00 0.00 0.00 0.00 0.00 0.00 0.00 0.00 0.00 0.02 0.01 0.00 0.01 0.04 0.08 0.13 0.10 0.05 0.02 0.06 0.08 0.13 0.04 0.02 0.01 0.01 0.06 0.12 0.10 0.17 0.17 0.16 0.15 0.20 0.13 0.16 0.20 0.15 0.08 0.03 0.00 0.00 0.00 0.00 0.00
0.00 0.00 0.00 0.00 0.00 0.00 0.00 0.00 0.01 0.00 0.00 0.00 0.00 0.01 0.02 0.02 0.03 0.03 0.00 0.00 0.01 0.02 0.03 0.06 0.11 0.14 0.04 0.01 0.00 0.01 0.06 0.08 0.16 0.17 0.13 0.10 0.09 0.11 0.12 0.15 0.16 0.18 0.13 0.11 0.05 0.02 0.01 0.03 0.06
0.00 0.00 0.00 0.00 0.00 0.02 0.01 0.01 0.02 0.01 0.00 0.00 0.00 0.00 0.03 0.01 0.00 0.00 0.01 0.00 0.00 0.04 0.07 0.08 0.11 0.15 0.08 0.01 0.06 0.12 0.14 0.15 0.16 0.13 0.10 0.08 0.08 0.07 0.05 0.03 0.03 0.03 0.03 0.02 0.04 0.05 0.12 0.19 0.21
0.00 0.00 0.00 0.00 0.00 0.01 0.01 0.02 0.02 0.02 0.01 0.02 0.00 0.00 0.09 0.01 0.01 0.02 0.02 0.01 0.01 0.05 0.08 0.10 0.12 0.19 0.09 0.06 0.07 0.13 0.17 0.14 0.10 0.08 0.09 0.06 0.07 0.08 0.07 0.05 0.03 0.03 0.03 0.04 0.12 0.27 0.30 0.27 0.25
0.00 0.00 0.02 0.13 0.03 0.01 0.03 0.03 0.01 0.01 0.01 0.08 0.04 0.00 0.00 0.00 0.01 0.03 0.02 0.01 0.02 0.04 0.08 0.08 0.07 0.09 0.09 0.12 0.07 0.05 0.12 0.16 0.16 0.12 0.17 0.12 0.07 0.06 0.13 0.18 0.11 0.06 0.11 0.19 0.19 0.16 0.17 0.18 0.20
0.00 0.00 0.03 0.16 0.16 0.07 0.03 0.01 0.00 0.00 0.00 0.00 0.01 0.00 0.00 0.00 0.00 0.01 0.01 0.02 0.03 0.07 0.18 0.12 0.11 0.11 0.07 0.11 0.16 0.20 0.25 0.31 0.37 0.35 0.29 0.17 0.19 0.23 0.39 0.48 0.40 0.27 0.18 0.16 0.21 0.30 0.33 0.29 0.25
0.00 0.00 0.00 0.01 0.03 0.04 0.01 0.01 0.00 0.00 0.00 0.00 0.00 0.00 0.00 0.00 0.00 0.00 0.01 0.02 0.03 0.03 0.15 0.20 0.13 0.12 0.08 0.10 0.16 0.24 0.36 0.39 0.30 0.30 0.48 0.36 0.25 0.17 0.32 0.44 0.28 0.20 0.20 0.22 0.23 0.20 0.20 0.19 0.18
0.00 0.00 0.00 0.00 0.07 0.06 0.00 0.00 0.02 0.02 0.01 0.00 0.00 0.00 0.00 0.00 0.00 0.00 0.00 0.00 0.01 0.01 0.06 0.08 0.07 0.11 0.10 0.08 0.10 0.15 0.27 0.37 0.38 0.69 0.91 0.96 0.68 0.40 0.24 0.22 0.20 0.17 0.14 0.14 0.16 0.18 0.18 0.17 0.16
0.00 0.00 0.00 0.00 0.00 0.05 0.03 0.01 0.01 0.01 0.01 0.00 0.00 0.00 0.00 0.00 0.00 0.00 0.00 0.01 0.00 0.00 0.01 0.02 0.05 0.07 0.04 0.10 0.20 0.33 0.39 0.56 0.74 0.64 0.89 0.51 0.30 0.19 0.13 0.09 0.10 0.14 0.17 0.23 0.24 0.20 0.16 0.13 0.09
0.00 0.01 0.02 0.00 0.00 0.01 0.02 0.01 0.01 0.00 0.00 0.00 0.00 0.00 0.00 0.00 0.00 0.00 0.00 0.01 0.00 0.00 0.00 0.00 0.04 0.14 0.28 0.40 0.87 0.82 0.97 0.90 0.82 0.86 0.73 0.30 0.13 0.14 0.09 0.09 0.11 0.14 0.17 0.17 0.15 0.12 0.08 0.05 0.04

GFSSGP_prec_precacc_066.txt.gz
Total_Precipitation_Accumulation
0.00 0.00 0.00 0.00 0.00 0.00 0.00 0.00 0.01 0.02 0.05 0.07 0.15 0.17 0.15 0.19 0.41 0.74 0.65 1.21 2.32 1.59 0.94 0.80 0.93 0.29 0.16 0.12 0.11 0.06 0.02 0.01 0.01 0.01 0.00 0.00 0.00 0.00 0.01 0.00 0.00 0.01 0.01 0.00 0.00 0.00 0.00 0.01 0.01
0.00 0.00 0.00 0.00 0.00 0.00 0.00 0.02 0.01 0.06 0.20 0.31 0.32 0.34 0.31 0.36 0.28 0.48 0.65 0.52 0.46 0.31 0.42 0.56 1.15 0.92 0.72 0.25 0.01 0.01 0.02 0.00 0.00 0.00 0.00 0.00 0.00 0.00 0.00 0.00 0.00 0.00 0.01 0.00 0.00 0.00 0.00 0.00 0.00
0.00 0.00 0.00 0.00 0.00 0.00 0.00 0.02 0.02 0.06 0.16 0.17 0.15 0.13 0.26 0.42 0.69 0.83 0.68 0.51 0.47 0.25 0.17 0.36 0.84 1.13 0.60 0.51 0.11 0.02 0.03 0.02 0.01 0.01 0.01 0.01 0.01 0.00 0.00 0.00 0.00 0.01 0.01 0.00 0.00 0.00 0.00 0.00 0.00
0.00 0.00 0.00 0.00 0.00 0.00 0.00 0.02 0.04 0.15 0.14 0.09 0.12 0.20 0.54 0.52 0.96 0.72 0.65 0.80 0.88 0.97 0.67 0.69 0.81 0.73 0.46 0.46 0.18 0.03 0.01 0.00 0.00 0.01 0.01 0.01 0.01 0.00 0.00 0.00 0.00 0.01 0.00 0.00 0.00 0.00 0.00 0.00 0.00
0.00 0.00 0.00 0.00 0.00 0.00 0.01 0.06 0.17 0.20 0.22 0.28 0.12 0.30 0.91 0.46 0.41 0.62 1.19 2.26 3.11 2.57 1.85 1.54 2.10 1.50 0.51 0.25 0.12 0.03 0.01 0.00 0.00 0.00 0.01 0.01 0.00 0.00 0.00 0.00 0.00 0.00 0.00 0.00 0.00 0.00 0.00 0.00 0.00
0.00 0.00 0.00 0.00 0.00 0.00 0.01 0.11 0.30 0.40 0.25 0.32 0.12 0.38 0.91 0.39 0.47 0.72 1.82 2.32 3.98 5.60 5.95 3.87 4.09 4.45 2.42 0.80 0.14 0.03 0.00 0.00 0.01 0.02 0.03 0.01 0.01 0.00 0.00 0.00 0.00 0.00 0.00 0.00 0.00 0.00 0.00 0.00 0.00
0.00 0.00 0.00 0.00 0.00 0.01 0.04 0.13 0.21 0.23 0.19 0.33 0.20 0.49 1.07 0.45 0.44 0.95 1.78 4.25 5.79 6.43 9.41 9.38 5.80 5.30 4.37 4.55 1.82 0.50 0.13 0.02 0.02 0.04 0.05 0.03 0.00 0.00 0.00 0.00 0.00 0.00 0.00 0.00 0.00 0.00 0.00 0.00 0.00
0.00 0.00 0.00 0.00 0.01 0.04 0.08 0.21 0.27 0.14 0.28 0.50 0.20 0.35 1.12 0.58 0.43 0.49 0.81 2.11 6.02 7.28 6.23 6.24 4.37 3.79 3.52 3.30 2.69 1.28 0.49 0.09 0.06 0.09 0.10 0.05 0.00 0.00 0.00 0.00 0.00 0.00 0.00 0.00 0.00 0.00 0.00 0.00 0.00
0.00 0.00 0.00 0.00 0.04 0.12 0.13 0.12 0.09 0.04 0.06 0.24 0.35 0.31 0.37 0.30 0.26 0.28 0.94 0.96 1.85 3.43 3.81 3.18 1.96 1.23 1.53 1.47 1.52 1.49 0.75 0.21 0.08 0.06 0.11 0.08 0.04 0.00 0.00 0.00 0.00 0.00 0.00 0.00 0.00 0.00 0.00 0.00 0.00
0.00 0.00 0.00 0.00 0.02 0.28 0.21 0.26 0.23 0.04 0.07 0.42 0.52 0.57 0.44 0.30 0.27 0.24 0.61 0.74 1.59 2.00 1.71 1.15 0.65 0.23 0.19 0.34 0.45 0.60 0.51 0.24 0.08 0.06 0.07 0.09 0.03 0.00 0.00 0.00 0.00 0.00 0.00 0.00 0.00 0.00 0.00 0.00 0.00
0.00 0.00 0.00 0.00 0.00 0.05 0.09 0.01 0.01 0.04 0.10 0.25 0.36 0.32 0.16 0.20 0.13 0.18 0.33 0.65 1.10 0.82 0.77 0.72 0.49 0.26 0.15 0.15 0.19 0.22 0.16 0.09 0.03 0.06 0.06 0.04 0.01 0.01 0.02 0.00 0.00 0.00 0.00 0.00 0.00 0.00 0.00 0.00 0.00
0.00 0.00 0.00 0.00 0.01 0.00 0.00 0.01 0.00 0.06 0.54 0.42 0.08 0.21 0.13 0.12 0.17 0.24 0.31 0.39 0.46 0.40 0.43 0.31 0.34 0.34 0.46 0.30 0.21 0.17 0.13 0.09 0.09 0.08 0.04 0.01 0.02 0.04 0.00 0.00 0.00 0.00 0.00 0.00 0.00 0.00 0.00 0.00 0.00
0.00 0.00 0.00 0.00 0.02 0.02 0.01 0.01 0.02 0.40 0.85 0.25 0.22 0.18 0.11 0.12 0.16 0.13 0.11 0.17 0.19 0.26 0.37 0.36 0.16 0.24 0.22 0.22 0.23 0.18 0.24 0.13 0.11 0.09 0.04 0.00 0.00 0.00 0.00 0.00 0.00 0.00 0.00 0.00 0.00 0.00 0.00 0.00 0.00
0.00 0.00 0.00 0.02 0.01 0.02 0.01 0.02 0.18 0.31 0.29 0.38 0.32 0.19 0.14 0.09 0.09 0.08 0.04 0.02 0.10 0.23 0.36 0.42 0.37 0.31 0.28 0.21 0.28 0.25 0.24 0.16 0.16 0.26 0.14 0.04 0.02 0.01 0.00 0.00 0.00 0.00 0.00 0.00 0.00 0.00 0.00 0.00 0.00
0.00 0.01 0.01 0.04 0.02 0.01 0.02 0.10 0.20 0.47 0.35 0.20 0.23 0.21 0.21 0.18 0.09 0.04 0.02 0.01 0.02 0.06 0.17 0.54 0.92 0.38 0.22 0.22 0.28 0.29 0.12 0.06 0.16 0.24 0.21 0.07 0.02 0.04 0.02 0.00 0.00 0.00 0.00 0.00 0.00 0.00 0.00 0.00 0.00
0.00 0.00 0.02 0.16 0.03 0.01 0.01 0.20 0.34 0.14 0.15 0.41 0.12 0.15 0.20 0.12 0.04 0.00 0.00 0.00 0.00 0.02 0.08 0.57 0.95 0.55 0.21 0.16 0.21 0.21 0.18 0.12 0.17 0.22 0.17 0.15 0.11 0.09 0.04 0.01 0.00 0.00 0.00 0.00 0.00 0.00 0.00 0.00 0.00
0.00 0.00 0.00 0.01 0.01 0.01 0.01 0.02 0.15 0.11 0.10 0.26 0.08 0.05 0.02 0.02 0.01 0.00 0.00 0.00 0.03 0.03 0.16 0.46 0.57 0.58 0.58 0.61 0.55 0.29 0.12 0.10 0.18 0.17 0.16 0.09 0.08 0.08 0.04 0.02 0.00 0.00 0.00 0.00 0.00 0.00 0.00 0.00 0.00
0.00 0.00 0.00 0.02 0.01 0.00 0.00 0.00 0.01 0.11 0.12 0.09 0.05 0.01 0.01 0.00 0.00 0.00 0.03 0.04 0.06 0.08 0.31 0.55 0.62 0.93 1.16 0.71 0.24 0.10 0.13 0.08 0.13 0.11 0.11 0.10 0.06 0.08 0.02 0.01 0.01 0.00 0.00 0.00 0.00 0.00 0.00 0.00 0.00
0.00 0.00 0.00 0.00 0.01 0.00 0.00 0.00 0.00 0.04 0.15 0.07 0.03 0.01 0.01 0.01 0.00 0.02 0.05 0.06 0.08 0.18 0.41 0.62 0.97 0.92 0.32 0.11 0.08 0.05 0.07 0.13 0.21 0.17 0.15 0.15 0.08 0.13 0.11 0.07 0.10 0.01 0.01 0.00 0.00 0.00 0.00 0.00 0.00
0.00 0.00 0.00 0.00 0.00 0.00 0.00 0.00 0.00 0.00 0.02 0.00 0.00 0.01 0.00 0.01 0.00 0.01 0.04 0.10 0.28 0.44 0.44 0.31 0.14 0.12 0.02 0.02 0.05 0.05 0.06 0.11 0.18 0.14 0.12 0.22 0.15 0.11 0.07 0.13 0.26 0.12 0.09 0.02 0.02 0.00 0.00 0.00 0.00
0.00 0.00 0.00 0.00 0.00 0.00 0.00 0.00 0.00 0.00 0.00 0.00 0.01 0.03 0.01 0.01 0.01 0.04 0.08 0.13 0.10 0.05 0.02 0.06 0.08 0.13 0.04 0.02 0.01 0.01 0.06 0.12 0.10 0.17 0.17 0.16 0.15 0.20 0.13 0.16 0.20 0.15 0.08 0.03 0.01 0.01 0.00 0.00 0.00
0.00 0.00 0.00 0.00 0.00 0.00 0.00 0.00 0.01 0.00 0.00 0.00 0.01 0.02 0.02 0.02 0.03 0.03 0.00 0.00 0.01 0.02 0.03 0.06 0.11 0.14 0.04 0.01 0.00 0.01 0.06 0.08 0.16 0.17 0.13 0.10 0.09 0.11 0.12 0.15 0.16 0.18 0.13 0.12 0.07 0.02 0.01 0.03 0.06
0.00 0.00 0.00 0.00 0.00 0.02 0.01 0.01 0.02 0.01 0.00 0.00 0.00 0.00 0.03 0.01 0.00 0.00 0.01 0.00 0.00 0.04 0.07 0.08 0.11 0.15 0.08 0.01 0.06 0.12 0.14 0.15 0.16 0.13 0.10 0.08 0.08 0.07 0.05 0.04 0.03 0.03 0.04 0.06 0.07 0.07 0.13 0.20 0.24
0.00 0.00 0.00 0.00 0.00 0.01 0.01 0.02 0.02 0.02 0.01 0.02 0.00 0.00 0.09 0.02 0.01 0.02 0.02 0.01 0.01 0.05 0.08 0.10 0.12 0.19 0.09 0.06 0.07 0.13 0.17 0.14 0.10 0.08 0.09 0.06 0.07 0.08 0.07 0.05 0.04 0.04 0.07 0.07 0.14 0.29 0.32 0.29 0.27
0.00 0.00 0.02 0.13 0.03 0.01 0.03 0.03 0.01 0.01 0.01 0.08 0.04 0.00 0.00 0.00 0.01 0.03 0.02 0.01 0.02 0.04 0.08 0.08 0.07 0.09 0.09 0.12 0.07 0.05 0.12 0.16 0.16 0.12 0.17 0.12 0.07 0.06 0.15 0.22 0.19 0.12 0.14 0.25 0.20 0.17 0.19 0.20 0.23
0.00 0.00 0.03 0.16 0.16 0.07 0.03 0.01 0.00 0.00 0.00 0.00 0.01 0.00 0.00 0.00 0.00 0.01 0.01 0.02 0.03 0.07 0.18 0.12 0.11 0.11 0.07 0.11 0.16 0.20 0.25 0.31 0.37 0.36 0.30 0.19 0.20 0.24 0.39 0.52 0.54 0.43 0.27 0.21 0.23 0.30 0.34 0.31 0.28
0.00 0.00 0.00 0.01 0.03 0.04 0.01 0.01 0.00 0.00 0.00 0.00 0.00 0.00 0.00 0.00 0.00 0.00 0.01 0.02 0.03 0.03 0.15 0.20 0.13 0.12 0.08 0.10 0.16 0.24 0.37 0.40 0.30 0.34 0.56 0.39 0.33 0.23 0.37 0.48 0.39 0.38 0.29 0.23 0.23 0.21 0.20 0.23 0.28
0.00 0.00 0.00 0.00 0.07 0.06 0.00 0.00 0.02 0.02 0.01 0.00 0.00 0.00 0.00 0.00 0.00 0.00 0.00 0.00 0.01 0.02 0.08 0.11 0.08 0.11 0.10 0.08 0.10 0.15 0.27 0.41 0.48 0.78 1.06 1.17 0.91 0.67 0.40 0.37 0.39 0.29 0.16 0.15 0.16 0.18 0.19 0.19 0.18
0.00 0.00 0.00 0.00 0.00 0.05 0.03 0.01 0.01 0.01 0.01 0.00 0.00 0.00 0.00 0.00 0.00 0.00 0.00 0.01 0.00 0.00 0.02 0.04 0.09 0.11 0.06 0.10 0.20 0.33 0.39 0.58 0.91 0.86 1.16 0.89 0.61 0.34 0.16 0.16 0.20 0.18 0.19 0.24 0.24 0.21 0.16 0.13 0.10
0.00 0.01 0.02 0.00 0.00 0.01 0.02 0.01 0.01 0.00 0.00 0.00 0.00 0.00 0.00 0.00 0.00 0.00 0.00 0.01 0.00 0.00 0.00 0.02 0.11 0.32 0.54 0.55 0.98 0.90 1.04 1.21 1.10 1.34 1.84 1.01 0.37 0.23 0.16 0.19 0.16 0.16 0.18 0.18 0.15 0.12 0.09 0.06 0.05

GFSSGP_prec_precacc_069.txt.gz
Total_Precipitation_Accumulation
0.00 0.00 0.00 0.00 0.00 0.00 0.00 0.00 0.01 0.02 0.05 0.07 0.15 0.17 0.15 0.19 0.41 0.75 0.65 1.21 2.33 1.60 0.94 0.80 0.93 0.29 0.21 0.16 0.12 0.06 0.02 0.01 0.01 0.01 0.00 0.00 0.00 0.00 0.01 0.00 0.00 0.01 0.01 0.00 0.00 0.00 0.00 0.02 0.01
0.00 0.00 0.00 0.00 0.00 0.00 0.00 0.02 0.01 0.06 0.20 0.31 0.32 0.34 0.31 0.36 0.28 0.48 0.65 0.52 0.46 0.35 0.42 0.56 1.15 0.94 0.73 0.45 0.21 0.09 0.03 0.00 0.00 0.00 0.01 0.01 0.00 0.00 0.00 0.00 0.00 0.00 0.01 0.00 0.00 0.00 0.00 0.00 0.00
0.00 0.00 0.00 0.00 0.00 0.00 0.00 0.02 0.02 0.06 0.16 0.17 0.15 0.13 0.26 0.42 0.69 0.83 0.68 0.51 0.47 0.28 0.19 0.36 0.86 1.15 0.60 0.57 0.39 0.23 0.13 0.03 0.01 0.01 0.02 0.01 0.01 0.00 0.00 0.00 0.00 0.01 0.01 0.00 0.00 0.00 0.00 0.00 0.00
0.00 0.00 0.00 0.00 0.00 0.00 0.00 0.02 0.04 0.15 0.14 0.09 0.12 0.20 0.54 0.52 0.96 0.72 0.65 0.80 0.89 0.98 0.71 0.74 1.02 1.01 0.54 0.50 0.33 0.34 0.23 0.05 0.00 0.01 0.01 0.01 0.01 0.00 0.00 0.00 0.00 0.01 0.00 0.00 0.00 0.00 0.00 0.00 0.00
0.00 0.00 0.00 0.00 0.00 0.00 0.01 0.06 0.17 0.20 0.22 0.28 0.12 0.30 0.91 0.46 0.41 0.62 1.19 2.26 3.11 2.58 1.87 1.57 2.23 1.78 0.96 0.61 0.46 0.31 0.46 0.14 0.01 0.01 0.02 0.01 0.00 0.00 0.00 0.00 0.00 0.00 0.00 0.00 0.00 0.00 0.00 0.00 0.00
0.00 0.00 0.00 0.00 0.00 0.00 0.01 0.11 0.30 0.40 0.25 0.32 0.12 0.38 0.91 0.39 0.47 0.72 1.82 2.34 4.00 5.67 6.09 4.00 4.23 4.74 3.50 1.99 0.82 0.43 0.23 0.18 0.02 0.02 0.03 0.01 0.01 0.00 0.00 0.00 0.00 0.00 0.00 0.00 0.00 0.00 0.00 0.00 0.00
0.00 0.00 0.00 0.00 0.00 0.01 0.04 0.13 0.21 0.23 0.19 0.33 0.20 0.49 1.07 0.45 0.44 0.95 1.81 4.34 5.94 6.61 9.69 9.78 6.33 5.65 4.88 5.48 3.44 1.01 0.34 0.17 0.04 0.04 0.05 0.03 0.00 0.00 0.00 0.00 0.00 0.00 0.00 0.00 0.00 0.00 0.00 0.00 0.00
0.00 0.00 0.00 0.00 0.01 0.04 0.08 0.21 0.27 0.14 0.28 0.50 0.20 0.35 1.12 0.58 0.43 0.49 0.83 2.19 6.12 7.42 6.39 6.50 4.90 4.29 4.13 4.13 4.78 2.74 1.24 0.32 0.11 0.10 0.11 0.05 0.00 0.00 0.00 0.00 0.00 0.00 0.00 0.00 0.00 0.00 0.00 0.00 0.00
0.00 0.00 0.00 0.00 0.04 0.12 0.13 0.12 0.09 0.04 0.06 0.24 0.35 0.31 0.37 0.30 0.26 0.28 0.94 0.99 1.89 3.46 3.88 3.37 2.13 1.35 1.67 1.87 2.33 2.57 1.83 0.79 0.24 0.11 0.12 0.08 0.04 0.00 0.00 0.00 0.00 0.00 0.00 0.00 0.00 0.00 0.00 0.00 0.00
0.00 0.00 0.00 0.00 0.02 0.28 0.21 0.26 0.23 0.04 0.07 0.42 0.52 0.57 0.44 0.30 0.27 0.24 0.61 0.75 1.61 2.03 1.73 1.21 0.71 0.27 0.23 0.42 0.63 1.02 1.10 0.77 0.43 0.20 0.09 0.09 0.03 0.00 0.00 0.00 0.00 0.00 0.00 0.00 0.00 0.00 0.00 0.00 0.00
0.00 0.00 0.00 0.00 0.00 0.05 0.09 0.01 0.01 0.04 0.10 0.25 0.36 0.32 0.16 0.20 0.13 0.18 0.33 0.65 1.11 0.83 0.78 0.72 0.49 0.26 0.15 0.15 0.21 0.28 0.26 0.34 0.22 0.19 0.11 0.04 0.01 0.01 0.02 0.00 0.00 0.00 0.00 0.00 0.00 0.00 0.00 0.00 0.00
0.00 0.00 0.00 0.00 0.01 0.00 0.00 0.01 0.00 0.06 0.54 0.42 0.08 0.21 0.13 0.12 0.17 0.24 0.31 0.39 0.47 0.42 0.44 0.31 0.34 0.34 0.46 0.30 0.21 0.17 0.14 0.13 0.16 0.14 0.07 0.01 0.02 0.04 0.00 0.00 0.00 0.00 0.00 0.00 0.00 0.00 0.00 0.00 0.00
0.00 0.00 0.00 0.00 0.02 0.02 0.01 0.01 0.02 0.40 0.85 0.25 0.22 0.18 0.11 0.12 0.16 0.13 0.11 0.17 0.20 0.28 0.38 0.36 0.16 0.24 0.22 0.22 0.23 0.18 0.24 0.13 0.12 0.12 0.04 0.00 0.00 0.00 0.00 0.00 0.00 0.00 0.00 0.00 0.00 0.00 0.00 0.00 0.00
0.00 0.00 0.00 0.02 0.01 0.02 0.01 0.02 0.18 0.31 0.29 0.38 0.32 0.19 0.14 0.09 0.09 0.08 0.04 0.02 0.10 0.24 0.37 0.45 0.39 0.34 0.28 0.21 0.28 0.26 0.24 0.16 0.18 0.27 0.15 0.04 0.02 0.01 0.00 0.00 0.00 0.00 0.00 0.00 0.00 0.00 0.00 0.00 0.00
0.00 0.01 0.01 0.04 0.02 0.01 0.02 0.10 0.20 0.47 0.35 0.20 0.23 0.21 0.21 0.18 0.09 0.04 0.02 0.01 0.02 0.07 0.20 0.60 0.97 0.47 0.29 0.26 0.29 0.29 0.13 0.07 0.17 0.24 0.21 0.07 0.02 0.04 0.02 0.00 0.00 0.00 0.00 0.00 0.00 0.00 0.00 0.00 0.00
0.00 0.00 0.02 0.16 0.03 0.01 0.01 0.20 0.34 0.14 0.15 0.41 0.12 0.15 0.20 0.12 0.04 0.00 0.00 0.00 0.00 0.03 0.11 0.64 1.17 0.75 0.34 0.20 0.24 0.24 0.19 0.13 0.18 0.22 0.17 0.15 0.11 0.09 0.04 0.01 0.00 0.00 0.00 0.00 0.00 0.00 0.00 0.00 0.00
0.00 0.00 0.00 0.01 0.01 0.01 0.01 0.02 0.15 0.11 0.10 0.26 0.08 0.05 0.02 0.02 0.01 0.00 0.00 0.00 0.03 0.04 0.17 0.47 0.71 0.77 0.65 0.62 0.56 0.30 0.12 0.10 0.18 0.17 0.16 0.09 0.08 0.08 0.04 0.02 0.00 0.00 0.00 0.00 0.00 0.00 0.00 0.00 0.00
0.00 0.00 0.00 0.02 0.01 0.00 0.00 0.00 0.01 0.11 0.12 0.09 0.05 0.01 0.01 0.00 0.00 0.00 0.03 0.04 0.06 0.08 0.31 0.56 0.68 0.99 1.20 0.72 0.24 0.10 0.13 0.08 0.13 0.11 0.11 0.10 0.06 0.08 0.02 0.01 0.01 0.00 0.00 0.00 0.00 0.00 0.00 0.00 0.00
0.00 0.00 0.00 0.00 0.01 0.00 0.00 0.00 0.00 0.04 0.15 0.07 0.03 0.01 0.01 0.01 0.00 0.02 0.05 0.06 0.08 0.18 0.41 0.63 0.99 0.92 0.32 0.11 0.08 0.06 0.07 0.13 0.21 0.17 0.15 0.15 0.08 0.13 0.11 0.07 0.10 0.01 0.01 0.00 0.00 0.00 0.00 0.00 0.00
0.00 0.00 0.00 0.00 0.00 0.00 0.00 0.00 0.00 0.00 0.02 0.00 0.00 0.01 0.00 0.01 0.00 0.01 0.04 0.10 0.28 0.44 0.44 0.31 0.14 0.12 0.02 0.02 0.05 0.05 0.06 0.11 0.18 0.14 0.12 0.22 0.15 0.11 0.07 0.13 0.26 0.12 0.09 0.02 0.02 0.00 0.00 0.00 0.00
0.00 0.00 0.00 0.00 0.00 0.00 0.00 0.00 0.00 0.00 0.00 0.00 0.01 0.03 0.01 0.01 0.01 0.04 0.08 0.13 0.10 0.05 0.02 0.06 0.08 0.13 0.04 0.02 0.01 0.01 0.06 0.12 0.10 0.17 0.17 0.16 0.15 0.20 0.13 0.16 0.20 0.15 0.08 0.03 0.01 0.01 0.00 0.00 0.00
0.00 0.00 0.00 0.00 0.00 0.00 0.00 0.00 0.01 0.00 0.00 0.00 0.01 0.02 0.02 0.02 0.03 0.03 0.00 0.00 0.01 0.02 0.03 0.06 0.11 0.14 0.04 0.01 0.00 0.01 0.06 0.08 0.16 0.17 0.13 0.10 0.09 0.11 0.12 0.15 0.16 0.18 0.13 0.12 0.07 0.02 0.02 0.05 0.08
0.00 0.00 0.00 0.00 0.00 0.02 0.01 0.01 0.02 0.01 0.00 0.00 0.00 0.00 0.03 0.01 0.00 0.00 0.01 0.00 0.00 0.04 0.07 0.08 0.11 0.15 0.08 0.01 0.06 0.12 0.14 0.15 0.16 0.13 0.10 0.08 0.08 0.07 0.05 0.04 0.03 0.03 0.04 0.06 0.07 0.07 0.14 0.22 0.26
0.00 0.00 0.00 0.00 0.00 0.01 0.01 0.02 0.02 0.02 0.01 0.02 0.00 0.00 0.09 0.02 0.01 0.02 0.02 0.01 0.01 0.05 0.08 0.10 0.12 0.19 0.09 0.06 0.07 0.13 0.17 0.14 0.10 0.08 0.09 0.06 0.07 0.08 0.07 0.05 0.04 0.04 0.07 0.07 0.14 0.29 0.33 0.30 0.28
0.00 0.00 0.02 0.13 0.03 0.01 0.03 0.03 0.01 0.01 0.01 0.08 0.04 0.00 0.00 0.00 0.01 0.03 0.02 0.01 0.02 0.04 0.08 0.08 0.07 0.09 0.09 0.12 0.07 0.05 0.12 0.16 0.16 0.12 0.17 0.12 0.07 0.06 0.15 0.22 0.19 0.13 0.16 0.28 0.26 0.20 0.21 0.22 0.24
0.00 0.00 0.03 0.16 0.16 0.07 0.03 0.01 0.00 0.00 0.00 0.00 0.01 0.00 0.00 0.00 0.00 0.01 0.01 0.02 0.03 0.07 0.18 0.12 0.11 0.11 0.07 0.11 0.16 0.20 0.25 0.31 0.37 0.36 0.31 0.19 0.21 0.24 0.39 0.52 0.55 0.47 0.35 0.33 0.35 0.37 0.38 0.32 0.28
0.00 0.00 0.00 0.01 0.03 0.04 0.01 0.01 0.00 0.00 0.00 0.00 0.00 0.00 0.00 0.00 0.00 0.00 0.01 0.02 0.03 0.03 0.16 0.20 0.13 0.12 0.08 0.10 0.16 0.24 0.37 0.40 0.30 0.35 0.57 0.42 0.37 0.28 0.39 0.49 0.40 0.40 0.36 0.39 0.35 0.25 0.21 0.23 0.29
0.00 0.00 0.00 0.00 0.07 0.06 0.00 0.00 0.02 0.02 0.01 0.00 0.00 0.00 0.00 0.00 0.00 0.00 0.00 0.00 0.01 0.02 0.11 0.15 0.09 0.11 0.10 0.08 0.10 0.15 0.27 0.41 0.48 0.80 1.09 1.22 0.99 0.76 0.49 0.51 0.47 0.34 0.24 0.23 0.20 0.19 0.19 0.19 0.18
0.00 0.00 0.00 0.00 0.00 0.05 0.03 0.01 0.01 0.01 0.01 0.00 0.00 0.00 0.00 0.00 0.00 0.00 0.00 0.01 0.00 0.01 0.05 0.13 0.18 0.15 0.06 0.10 0.20 0.33 0.39 0.58 0.91 0.87 1.17 0.94 0.89 0.95 0.79 0.50 0.42 0.23 0.27 0.30 0.26 0.21 0.16 0.13 0.10
0.00 0.01 0.02 0.00 0.00 0.01 0.02 0.01 0.01 0.00 0.00 0.00 0.00 0.00 0.00 0.00 0.00 0.00 0.00 0.01 0.00 0.00 0.01 0.06 0.26 0.48 0.63 0.59 1.00 0.92 1.05 1.21 1.11 1.37 1.94 1.33 0.97 0.70 0.48 0.31 0.19 0.18 0.19 0.18 0.15 0.12 0.10 0.07 0.05

GFSSGP_prec_precacc_072.txt.gz
Total_Precipitation_Accumulation
0.00 0.00 0.00 0.00 0.00 0.00 0.00 0.00 0.01 0.02 0.05 0.07 0.15 0.17 0.15 0.19 0.41 0.75 0.65 1.22 2.34 1.61 0.95 0.85 0.94 0.29 0.21 0.16 0.12 0.06 0.02 0.01 0.01 0.01 0.00 0.00 0.00 0.00 0.01 0.00 0.00 0.01 0.01 0.00 0.00 0.00 0.00 0.02 0.01
0.00 0.00 0.00 0.00 0.00 0.00 0.00 0.02 0.01 0.06 0.20 0.31 0.32 0.34 0.31 0.36 0.28 0.48 0.65 0.53 0.48 0.37 0.51 0.71 1.18 0.95 0.73 0.45 0.21 0.10 0.04 0.01 0.00 0.00 0.01 0.01 0.00 0.00 0.00 0.00 0.00 0.00 0.01 0.00 0.00 0.00 0.00 0.00 0.00
0.00 0.00 0.00 0.00 0.00 0.00 0.00 0.02 0.02 0.06 0.16 0.17 0.15 0.13 0.26 0.42 0.69 0.83 0.68 0.51 0.48 0.29 0.24 0.54 0.96 1.18 0.61 0.57 0.39 0.24 0.15 0.06 0.01 0.01 0.02 0.02 0.01 0.00 0.00 0.00 0.00 0.01 0.01 0.00 0.00 0.00 0.00 0.00 0.00
0.00 0.00 0.00 0.00 0.00 0.00 0.00 0.02 0.04 0.15 0.14 0.09 0.12 0.20 0.54 0.52 0.96 0.72 0.65 0.81 0.95 1.01 0.78 1.01 1.82 1.39 0.72 0.60 0.40 0.47 0.29 0.18 0.06 0.01 0.01 0.01 0.01 0.00 0.00 0.00 0.00 0.01 0.00 0.00 0.00 0.00 0.00 0.00 0.00
0.00 0.00 0.00 0.00 0.00 0.00 0.01 0.06 0.17 0.20 0.22 0.28 0.12 0.30 0.91 0.46 0.41 0.62 1.19 2.26 3.11 2.59 1.95 1.76 2.49 2.00 1.27 0.84 0.73 0.60 0.57 0.28 0.14 0.02 0.02 0.01 0.01 0.00 0.01 0.00 0.00 0.00 0.00 0.00 0.00 0.00 0.00 0.00 0.00
0.00 0.00 0.00 0.00 0.00 0.00 0.01 0.11 0.30 0.40 0.25 0.32 0.12 0.38 0.91 0.39 0.47 0.72 1.82 2.34 4.04 5.72 6.15 4.04 4.25 4.78 3.61 2.11 0.94 0.68 0.40 0.42 0.18 0.06 0.03 0.02 0.01 0.00 0.00 0.00 0.00 0.00 0.00 0.00 0.00 0.00 0.00 0.00 0.00
0.00 0.00 0.00 0.00 0.00 0.01 0.04 0.13 0.21 0.23 0.19 0.33 0.20 0.49 1.07 0.45 0.44 0.96 1.81 4.35 6.03 6.76 9.78 9.81 6.42 5.75 5.01 5.56 3.48 1.20 0.49 0.32 0.28 0.14 0.06 0.03 0.00 0.00 0.00 0.00 0.00 0.00 0.00 0.00 0.00 0.00 0.00 0.00 0.00
0.00 0.00 0.00 0.00 0.01 0.04 0.08 0.21 0.27 0.14 0.28 0.50 0.20 0.35 1.12 0.58 0.43 0.49 0.84 2.20 6.15 7.49 6.47 6.53 5.01 4.35 4.20 4.25 4.89 3.21 1.81 0.65 0.39 0.21 0.13 0.05 0.00 0.00 0.00 0.00 0.00 0.00 0.00 0.00 0.00 0.00 0.00 0.00 0.00
0.00 0.00 0.00 0.00 0.04 0.12 0.13 0.12 0.09 0.04 0.06 0.24 0.35 0.31 0.37 0.30 0.26 0.29 0.95 1.01 1.91 3.49 3.91 3.42 2.17 1.36 1.68 1.88 2.41 2.90 2.74 1.84 0.74 0.38 0.14 0.08 0.04 0.00 0.00 0.00 0.00 0.00 0.00 0.00 0.00 0.00 0.00 0.00 0.00
0.00 0.00 0.00 0.00 0.02 0.28 0.21 0.26 0.23 0.04 0.07 0.42 0.52 0.57 0.44 0.30 0.27 0.25 0.62 0.77 1.63 2.07 1.78 1.26 0.72 0.27 0.23 0.43 0.66 1.18 1.83 1.96 1.22 0.65 0.17 0.09 0.03 0.00 0.00 0.00 0.00 0.00 0.00 0.00 0.00 0.00 0.00 0.00 0.00
0.00 0.00 0.00 0.00 0.00 0.05 0.09 0.01 0.01 0.04 0.10 0.25 0.36 0.32 0.16 0.20 0.14 0.18 0.33 0.66 1.11 0.84 0.79 0.73 0.49 0.26 0.15 0.15 0.21 0.33 0.66 1.15 1.05 0.61 0.15 0.04 0.01 0.01 0.02 0.00 0.00 0.00 0.00 0.00 0.00 0.00 0.00 0.00 0.00
0.00 0.00 0.00 0.00 0.01 0.00 0.00 0.01 0.00 0.06 0.54 0.42 0.08 0.21 0.13 0.12 0.17 0.24 0.31 0.39 0.47 0.43 0.44 0.31 0.34 0.34 0.46 0.30 0.21 0.19 0.24 0.35 0.47 0.27 0.07 0.01 0.02 0.04 0.00 0.00 0.00 0.00 0.00 0.00 0.00 0.00 0.00 0.00 0.00
0.00 0.00 0.00 0.00 0.02 0.02 0.01 0.01 0.02 0.40 0.85 0.25 0.22 0.18 0.11 0.12 0.16 0.13 0.11 0.17 0.20 0.28 0.39 0.36 0.16 0.24 0.22 0.22 0.23 0.19 0.25 0.16 0.21 0.16 0.04 0.00 0.00 0.00 0.00 0.00 0.00 0.00 0.00 0.00 0.00 0.00 0.00 0.00 0.00
0.00 0.00 0.00 0.02 0.01 0.02 0.01 0.02 0.18 0.31 0.29 0.38 0.32 0.19 0.14 0.09 0.09 0.08 0.04 0.03 0.11 0.25 0.38 0.45 0.39 0.34 0.29 0.21 0.28 0.26 0.25 0.19 0.21 0.29 0.15 0.04 0.02 0.01 0.00 0.00 0.00 0.00 0.00 0.00 0.00 0.00 0.00 0.00 0.00
0.00 0.01 0.01 0.04 0.02 0.01 0.02 0.10 0.20 0.47 0.35 0.20 0.23 0.21 0.21 0.18 0.09 0.04 0.02 0.01 0.02 0.07 0.21 0.60 0.99 0.48 0.33 0.26 0.29 0.29 0.13 0.09 0.19 0.26 0.21 0.07 0.02 0.04 0.02 0.00 0.00 0.00 0.00 0.00 0.00 0.00 0.00 0.00 0.00
0.00 0.00 0.02 0.16 0.03 0.01 0.01 0.20 0.34 0.14 0.15 0.41 0.12 0.15 0.20 0.12 0.04 0.00 0.00 0.00 0.00 0.03 0.11 0.64 1.22 0.82 0.41 0.21 0.25 0.26 0.20 0.16 0.22 0.24 0.17 0.15 0.11 0.09 0.04 0.01 0.00 0.00 0.00 0.00 0.00 0.00 0.00 0.00 0.00
0.00 0.00 0.00 0.01 0.01 0.01 0.01 0.02 0.15 0.11 0.10 0.26 0.08 0.05 0.02 0.02 0.01 0.00 0.00 0.00 0.03 0.04 0.17 0.48 0.74 0.91 0.85 0.65 0.61 0.37 0.16 0.15 0.24 0.21 0.16 0.09 0.08 0.08 0.04 0.02 0.00 0.00 0.00 0.00 0.00 0.00 0.00 0.00 0.00
0.00 0.00 0.00 0.02 0.01 0.00 0.00 0.00 0.01 0.11 0.12 0.09 0.05 0.01 0.01 0.00 0.00 0.00 0.03 0.04 0.06 0.08 0.31 0.56 0.69 1.12 1.40 0.77 0.27 0.18 0.22 0.17 0.21 0.15 0.11 0.10 0.06 0.08 0.02 0.01 0.01 0.00 0.00 0.00 0.00 0.00 0.00 0.00 0.00
0.00 0.00 0.00 0.00 0.01 0.00 0.00 0.00 0.00 0.04 0.15 0.07 0.03 0.01 0.01 0.01 0.00 0.02 0.05 0.06 0.08 0.18 0.41 0.63 0.99 0.95 0.41 0.19 0.09 0.12 0.13 0.23 0.27 0.20 0.16 0.15 0.08 0.13 0.11 0.07 0.10 0.01 0.01 0.00 0.00 0.00 0.00 0.00 0.00
0.00 0.00 0.00 0.00 0.00 0.00 0.00 0.00 0.00 0.00 0.02 0.00 0.00 0.01 0.00 0.01 0.00 0.01 0.04 0.10 0.29 0.44 0.44 0.32 0.14 0.12 0.03 0.04 0.06 0.08 0.11 0.15 0.20 0.15 0.13 0.23 0.16 0.12 0.08 0.13 0.27 0.13 0.10 0.02 0.02 0.00 0.00 0.00 0.00
0.00 0.00 0.00 0.00 0.00 0.00 0.00 0.00 0.00 0.00 0.00 0.00 0.01 0.03 0.01 0.01 0.01 0.04 0.08 0.13 0.11 0.05 0.02 0.06 0.08 0.13 0.04 0.02 0.02 0.02 0.08 0.14 0.11 0.18 0.18 0.17 0.16 0.21 0.15 0.19 0.21 0.15 0.08 0.03 0.01 0.01 0.00 0.00 0.01
0.00 0.00 0.00 0.00 0.00 0.00 0.00 0.00 0.01 0.00 0.00 0.00 0.01 0.02 0.02 0.02 0.03 0.03 0.00 0.00 0.01 0.02 0.03 0.06 0.11 0.14 0.04 0.01 0.00 0.02 0.06 0.09 0.16 0.17 0.13 0.10 0.10 0.12 0.12 0.15 0.16 0.18 0.13 0.12 0.07 0.02 0.02 0.05 0.09
0.00 0.00 0.00 0.00 0.00 0.02 0.01 0.01 0.02 0.01 0.00 0.00 0.00 0.00 0.03 0.01 0.00 0.00 0.01 0.00 0.00 0.04 0.07 0.08 0.11 0.15 0.08 0.01 0.06 0.12 0.14 0.15 0.16 0.13 0.10 0.08 0.08 0.07 0.05 0.04 0.03 0.03 0.04 0.06 0.08 0.08 0.15 0.23 0.26
0.00 0.00 0.00 0.00 0.00 0.01 0.01 0.02 0.02 0.02 0.01 0.02 0.00 0.00 0.09 0.02 0.01 0.02 0.02 0.01 0.01 0.05 0.08 0.10 0.12 0.19 0.09 0.06 0.07 0.13 0.17 0.14 0.10 0.08 0.09 0.06 0.07 0.08 0.07 0.05 0.04 0.04 0.07 0.07 0.16 0.34 0.35 0.31 0.28
0.00 0.00 0.02 0.13 0.03 0.01 0.03 0.03 0.01 0.01 0.01 0.08 0.04 0.00 0.00 0.00 0.01 0.03 0.02 0.01 0.02 0.04 0.08 0.08 0.07 0.09 0.09 0.12 0.07 0.05 0.12 0.16 0.16 0.12 0.17 0.12 0.07 0.06 0.15 0.22 0.19 0.13 0.16 0.28 0.26 0.21 0.23 0.28 0.30
0.00 0.00 0.03 0.16 0.16 0.07 0.03 0.01 0.00 0.00 0.00 0.00 0.01 0.00 0.00 0.00 0.00 0.01 0.01 0.02 0.03 0.07 0.18 0.12 0.11 0.11 0.07 0.11 0.16 0.20 0.25 0.31 0.37 0.36 0.31 0.19 0.21 0.24 0.39 0.52 0.55 0.47 0.35 0.33 0.38 0.41 0.44 0.43 0.36
0.00 0.00 0.00 0.01 0.03 0.04 0.01 0.01 0.00 0.00 0.00 0.00 0.00 0.00 0.00 0.00 0.00 0.00 0.01 0.02 0.03 0.03 0.16 0.20 0.13 0.12 0.08 0.10 0.16 0.24 0.37 0.40 0.30 0.35 0.57 0.42 0.37 0.28 0.39 0.49 0.40 0.40 0.36 0.40 0.52 0.50 0.39 0.30 0.29
0.00 0.00 0.00 0.00 0.07 0.06 0.00 0.00 0.02 0.02 0.01 0.00 0.00 0.00 0.00 0.00 0.00 0.00 0.00 0.00 0.01 0.02 0.11 0.16 0.10 0.11 0.10 0.08 0.10 0.15 0.27 0.41 0.48 0.80 1.09 1.22 0.99 0.77 0.49 0.53 0.52 0.38 0.25 0.24 0.25 0.27 0.25 0.21 0.18
0.00 0.00 0.00 0.00 0.00 0.05 0.03 0.01 0.01 0.01 0.01 0.00 0.00 0.00 0.00 0.00 0.00 0.00 0.00 0.01 0.00 0.01 0.05 0.13 0.23 0.20 0.07 0.10 0.20 0.33 0.39 0.58 0.91 0.87 1.17 0.94 0.90 0.96 0.82 0.62 0.62 0.52 0.42 0.37 0.32 0.27 0.22 0.16 0.11
0.00 0.01 0.02 0.00 0.00 0.01 0.02 0.01 0.01 0.00 0.00 0.00 0.00 0.00 0.00 0.00 0.00 0.00 0.00 0.01 0.00 0.00 0.01 0.07 0.29 0.53 0.68 0.59 1.00 0.92 1.05 1.21 1.11 1.37 1.94 1.33 0.97 0.72 0.50 0.36 0.27 0.26 0.29 0.27 0.20 0.15 0.13 0.10 0.07

GFSSGP_prec_precacc_075.txt.gz
Total_Precipitation_Accumulation
0.00 0.00 0.00 0.00 0.00 0.00 0.00 0.00 0.01 0.02 0.05 0.07 0.15 0.17 0.15 0.19 0.41 0.75 0.65 1.22 2.36 1.62 0.96 0.86 0.94 0.29 0.21 0.16 0.12 0.06 0.02 0.01 0.01 0.01 0.00 0.00 0.00 0.00 0.01 0.00 0.00 0.01 0.01 0.00 0.00 0.00 0.00 0.02 0.01
0.00 0.00 0.00 0.00 0.00 0.00 0.00 0.02 0.01 0.06 0.20 0.31 0.32 0.34 0.31 0.36 0.28 0.48 0.65 0.55 0.56 0.39 0.54 0.75 1.19 0.95 0.74 0.50 0.21 0.10 0.04 0.01 0.00 0.00 0.01 0.01 0.00 0.00 0.00 0.00 0.00 0.00 0.01 0.00 0.00 0.00 0.00 0.00 0.00
0.00 0.00 0.00 0.00 0.00 0.00 0.00 0.02 0.02 0.06 0.16 0.17 0.15 0.13 0.26 0.42 0.69 0.83 0.68 0.55 0.58 0.34 0.27 0.69 1.13 1.31 0.71 0.71 0.50 0.27 0.16 0.06 0.01 0.01 0.02 0.02 0.01 0.00 0.00 0.01 0.00 0.01 0.01 0.00 0.00 0.00 0.00 0.00 0.00
0.00 0.00 0.00 0.00 0.00 0.00 0.00 0.02 0.04 0.15 0.14 0.09 0.12 0.20 0.54 0.52 0.96 0.72 0.65 0.83 1.03 1.12 0.82 1.18 1.93 1.46 0.79 0.62 0.47 0.74 0.55 0.22 0.06 0.01 0.01 0.01 0.01 0.00 0.01 0.01 0.01 0.01 0.01 0.01 0.01 0.00 0.00 0.00 0.00
0.00 0.00 0.00 0.00 0.00 0.00 0.01 0.06 0.17 0.20 0.22 0.28 0.12 0.30 0.91 0.46 0.41 0.62 1.19 2.26 3.14 2.72 2.16 1.96 2.77 2.21 1.52 0.88 0.74 0.63 0.95 0.76 0.25 0.03 0.02 0.01 0.01 0.00 0.01 0.02 0.01 0.01 0.00 0.01 0.01 0.00 0.00 0.00 0.00
0.00 0.00 0.00 0.00 0.00 0.00 0.01 0.11 0.30 0.40 0.25 0.32 0.12 0.38 0.91 0.39 0.47 0.72 1.82 2.34 4.04 5.80 6.48 4.31 4.44 5.02 3.74 2.18 0.99 0.79 0.67 1.09 0.55 0.13 0.03 0.02 0.01 0.00 0.01 0.01 0.00 0.00 0.00 0.00 0.00 0.00 0.00 0.00 0.00
0.00 0.00 0.00 0.00 0.00 0.01 0.04 0.13 0.21 0.23 0.19 0.33 0.20 0.49 1.07 0.45 0.44 0.96 1.81 4.35 6.04 6.85 9.94 10.10 6.65 6.02 5.17 5.64 3.55 1.24 0.53 0.60 0.55 0.24 0.07 0.03 0.00 0.00 0.00 0.00 0.00 0.00 0.00 0.00 0.00 0.00 0.00 0.00 0.00
0.00 0.00 0.00 0.00 0.01 0.04 0.08 0.21 0.27 0.14 0.28 0.50 0.20 0.35 1.12 0.58 0.43 0.50 0.85 2.20 6.16 7.50 6.54 6.70 5.20 4.53 4.25 4.34 4.92 3.22 1.85 0.85 0.74 0.30 0.14 0.05 0.00 0.00 0.00 0.00 0.00 0.00 0.00 0.00 0.00 0.00 0.00 0.00 0.00
0.00 0.00 0.00 0.00 0.04 0.12 0.13 0.12 0.09 0.04 0.06 0.24 0.35 0.31 0.37 0.30 0.27 0.29 0.96 1.01 1.92 3.49 3.93 3.46 2.30 1.49 1.76 1.89 2.41 2.90 2.77 2.05 1.36 0.73 0.17 0.08 0.04 0.00 0.00 0.00 0.00 0.00 0.00 0.00 0.00 0.00 0.00 0.00 0.00
0.00 0.00 0.00 0.00 0.02 0.28 0.21 0.26 0.23 0.04 0.07 0.42 0.52 0.57 0.44 0.30 0.28 0.25 0.62 0.77 1.64 2.08 1.79 1.27 0.72 0.31 0.29 0.43 0.66 1.18 1.92 2.23 1.73 1.09 0.26 0.09 0.03 0.00 0.00 0.00 0.00 0.00 0.00 0.00 0.00 0.00 0.00 0.00 0.00
0.00 0.00 0.00 0.00 0.00 0.05 0.09 0.01 0.01 0.04 0.10 0.25 0.36 0.32 0.16 0.20 0.14 0.19 0.33 0.66 1.12 0.84 0.81 0.74 0.50 0.27 0.19 0.16 0.21 0.35 0.96 1.71 1.61 0.99 0.25 0.04 0.01 0.01 0.02 0.00 0.00 0.00 0.00 0.00 0.00 0.00 0.00 0.00 0.00
0.00 0.00 0.00 0.00 0.01 0.00 0.00 0.01 0.00 0.06 0.54 0.42 0.08 0.21 0.13 0.12 0.17 0.24 0.31 0.39 0.47 0.43 0.45 0.31 0.34 0.34 0.46 0.30 0.21 0.21 0.58 1.07 0.96 0.41 0.10 0.01 0.02 0.04 0.00 0.00 0.00 0.00 0.00 0.00 0.00 0.00 0.00 0.00 0.00
0.00 0.00 0.00 0.00 0.02 0.02 0.01 0.01 0.02 0.40 0.85 0.25 0.22 0.18 0.11 0.12 0.16 0.13 0.11 0.17 0.20 0.29 0.39 0.36 0.16 0.24 0.22 0.22 0.23 0.20 0.49 0.46 0.41 0.24 0.05 0.00 0.00 0.00 0.00 0.00 0.00 0.00 0.00 0.00 0.00 0.00 0.00 0.00 0.00
0.00 0.00 0.00 0.02 0.01 0.02 0.01 0.02 0.18 0.31 0.29 0.38 0.32 0.19 0.14 0.09 0.09 0.08 0.04 0.03 0.11 0.25 0.38 0.45 0.39 0.34 0.29 0.21 0.28 0.26 0.39 0.43 0.30 0.34 0.15 0.04 0.02 0.01 0.00 0.00 0.00 0.00 0.00 0.00 0.00 0.00 0.00 0.00 0.00
0.00 0.01 0.01 0.04 0.02 0.01 0.02 0.10 0.20 0.47 0.35 0.20 0.23 0.21 0.21 0.18 0.09 0.04 0.02 0.01 0.02 0.07 0.21 0.60 1.00 0.49 0.33 0.26 0.30 0.30 0.21 0.28 0.31 0.29 0.21 0.07 0.02 0.04 0.02 0.00 0.00 0.00 0.00 0.00 0.00 0.00 0.00 0.00 0.00
0.00 0.00 0.02 0.16 0.03 0.01 0.01 0.20 0.34 0.14 0.15 0.41 0.12 0.15 0.20 0.12 0.04 0.00 0.00 0.00 0.00 0.04 0.12 0.65 1.25 0.92 0.46 0.24 0.26 0.26 0.27 0.29 0.33 0.24 0.17 0.15 0.11 0.09 0.04 0.01 0.00 0.00 0.00 0.00 0.00 0.00 0.00 0.00 0.00
0.00 0.00 0.00 0.01 0.01 0.01 0.01 0.02 0.15 0.11 0.10 0.26 0.08 0.05 0.02 0.02 0.01 0.00 0.00 0.00 0.03 0.04 0.17 0.48 0.78 1.04 0.93 0.69 0.61 0.38 0.21 0.31 0.35 0.22 0.16 0.09 0.08 0.08 0.04 0.02 0.00 0.00 0.00 0.00 0.00 0.00 0.00 0.00 0.00
0.00 0.00 0.00 0.02 0.01 0.00 0.00 0.00 0.01 0.11 0.12 0.09 0.05 0.01 0.01 0.00 0.00 0.00 0.03 0.04 0.06 0.08 0.31 0.56 0.70 1.18 1.54 0.80 0.31 0.23 0.30 0.35 0.36 0.18 0.11 0.10 0.06 0.08 0.02 0.01 0.01 0.00 0.00 0.00 0.00 0.00 0.00 0.00 0.00
0.00 0.00 0.00 0.00 0.01 0.00 0.00 0.00 0.00 0.04 0.15 0.07 0.03 0.01 0.01 0.01 0.00 0.02 0.05 0.06 0.08 0.18 0.42 0.63 0.99 0.95 0.46 0.21 0.10 0.15 0.23 0.39 0.46 0.31 0.16 0.15 0.08 0.13 0.11 0.07 0.10 0.01 0.01 0.00 0.01 0.01 0.00 0.00 0.00
0.00 0.00 0.00 0.00 0.00 0.00 0.00 0.00 0.00 0.00 0.02 0.00 0.00 0.01 0.00 0.01 0.00 0.01 0.04 0.10 0.29 0.44 0.44 0.32 0.14 0.12 0.03 0.04 0.06 0.09 0.14 0.24 0.33 0.30 0.14 0.23 0.16 0.12 0.08 0.13 0.27 0.14 0.10 0.02 0.02 0.01 0.01 0.01 0.00
0.00 0.00 0.00 0.00 0.00 0.00 0.00 0.00 0.00 0.00 0.00 0.00 0.01 0.03 0.01 0.01 0.01 0.04 0.08 0.13 0.11 0.05 0.02 0.06 0.08 0.13 0.04 0.02 0.02 0.05 0.21 0.27 0.21 0.32 0.21 0.17 0.16 0.21 0.15 0.19 0.23 0.16 0.09 0.05 0.02 0.01 0.00 0.00 0.01
0.00 0.00 0.00 0.00 0.00 0.00 0.00 0.00 0.01 0.00 0.00 0.00 0.01 0.02 0.02 0.02 0.03 0.03 0.00 0.00 0.01 0.02 0.03 0.06 0.11 0.14 0.04 0.01 0.00 0.02 0.11 0.16 0.21 0.20 0.16 0.11 0.10 0.13 0.13 0.15 0.17 0.21 0.16 0.13 0.08 0.02 0.02 0.05 0.09
0.00 0.00 0.00 0.00 0.00 0.02 0.01 0.01 0.02 0.01 0.00 0.00 0.00 0.00 0.03 0.01 0.00 0.00 0.01 0.00 0.00 0.04 0.07 0.08 0.11 0.15 0.08 0.01 0.06 0.12 0.14 0.16 0.20 0.16 0.12 0.09 0.08 0.07 0.06 0.05 0.05 0.04 0.06 0.08 0.11 0.12 0.17 0.24 0.27
0.00 0.00 0.00 0.00 0.00 0.01 0.01 0.02 0.02 0.02 0.01 0.02 0.00 0.00 0.09 0.02 0.01 0.02 0.02 0.01 0.01 0.05 0.08 0.10 0.12 0.19 0.09 0.06 0.07 0.13 0.17 0.14 0.10 0.08 0.09 0.06 0.07 0.08 0.07 0.05 0.05 0.04 0.07 0.08 0.18 0.39 0.37 0.32 0.30
0.00 0.00 0.02 0.13 0.03 0.01 0.03 0.03 0.01 0.01 0.01 0.08 0.04 0.00 0.00 0.00 0.01 0.03 0.02 0.01 0.02 0.04 0.08 0.08 0.07 0.09 0.09 0.12 0.07 0.05 0.12 0.16 0.16 0.12 0.17 0.12 0.07 0.06 0.15 0.22 0.19 0.13 0.16 0.28 0.26 0.23 0.26 0.31 0.33
0.00 0.00 0.03 0.16 0.16 0.07 0.03 0.01 0.00 0.00 0.00 0.00 0.01 0.00 0.00 0.00 0.00 0.01 0.01 0.02 0.03 0.07 0.18 0.12 0.11 0.11 0.07 0.11 0.16 0.20 0.25 0.31 0.37 0.36 0.31 0.19 0.21 0.24 0.39 0.52 0.55 0.47 0.35 0.33 0.38 0.41 0.44 0.44 0.38
0.00 0.00 0.00 0.01 0.03 0.04 0.01 0.01 0.00 0.00 0.00 0.00 0.00 0.00 0.00 0.00 0.00 0.00 0.01 0.02 0.03 0.03 0.16 0.20 0.13 0.12 0.08 0.10 0.16 0.24 0.37 0.40 0.30 0.35 0.57 0.42 0.37 0.28 0.39 0.49 0.40 0.40 0.36 0.40 0.52 0.50 0.40 0.32 0.32
0.00 0.00 0.00 0.00 0.07 0.06 0.00 0.00 0.02 0.02 0.01 0.00 0.00 0.00 0.00 0.00 0.00 0.00 0.00 0.00 0.01 0.02 0.11 0.16 0.10 0.11 0.10 0.08 0.10 0.15 0.27 0.41 0.48 0.80 1.09 1.22 0.99 0.77 0.49 0.53 0.52 0.38 0.25 0.24 0.25 0.28 0.27 0.26 0.22
0.00 0.00 0.00 0.00 0.00 0.05 0.03 0.01 0.01 0.01 0.01 0.00 0.00 0.00 0.00 0.00 0.00 0.00 0.00 0.01 0.00 0.01 0.05 0.13 0.23 0.23 0.09 0.10 0.20 0.33 0.39 0.58 0.91 0.87 1.17 0.94 0.90 0.96 0.82 0.62 0.63 0.56 0.49 0.45 0.39 0.32 0.26 0.21 0.15
0.00 0.01 0.02 0.00 0.00 0.01 0.02 0.01 0.01 0.00 0.00 0.00 0.00 0.00 0.00 0.00 0.00 0.00 0.00 0.01 0.00 0.00 0.01 0.07 0.29 0.53 0.73 0.66 1.00 0.92 1.05 1.21 1.11 1.37 1.94 1.33 0.97 0.72 0.50 0.36 0.28 0.29 0.34 0.36 0.30 0.22 0.17 0.16 0.14

GFSSGP_prec_precacc_078.txt.gz
Total_Precipitation_Accumulation
0.00 0.00 0.00 0.00 0.00 0.00 0.00 0.00 0.01 0.02 0.05 0.07 0.15 0.17 0.15 0.19 0.41 0.75 0.65 1.22 2.37 1.63 0.96 0.86 0.94 0.30 0.21 0.17 0.12 0.06 0.02 0.01 0.01 0.01 0.00 0.00 0.00 0.00 0.01 0.00 0.00 0.01 0.05 0.01 0.00 0.00 0.01 0.02 0.01
0.00 0.00 0.00 0.00 0.00 0.00 0.00 0.02 0.01 0.06 0.20 0.31 0.32 0.34 0.31 0.36 0.28 0.48 0.65 0.56 0.56 0.40 0.55 0.75 1.19 0.97 0.77 0.56 0.22 0.11 0.05 0.01 0.00 0.00 0.01 0.01 0.00 0.00 0.00 0.00 0.00 0.00 0.02 0.00 0.00 0.01 0.01 0.00 0.00
0.00 0.00 0.00 0.00 0.00 0.00 0.00 0.02 0.02 0.06 0.16 0.17 0.15 0.13 0.26 0.42 0.69 0.83 0.68 0.55 0.58 0.35 0.28 0.75 1.17 1.33 0.82 0.94 0.59 0.32 0.16 0.07 0.01 0.01 0.02 0.02 0.01 0.00 0.00 0.01 0.00 0.01 0.01 0.00 0.01 0.01 0.00 0.00 0.00
0.00 0.00 0.00 0.00 0.00 0.00 0.00 0.02 0.04 0.15 0.14 0.09 0.12 0.20 0.54 0.52 0.96 0.72 0.65 0.83 1.04 1.13 0.88 1.55 2.01 1.48 1.01 0.77 0.79 1.36 0.75 0.25 0.07 0.01 0.01 0.01 0.01 0.00 0.01 0.01 0.01 0.01 0.01 0.01 0.01 0.00 0.00 0.00 0.00
0.00 0.00 0.00 0.00 0.00 0.00 0.01 0.06 0.17 0.20 0.22 0.28 0.12 0.30 0.91 0.46 0.41 0.62 1.19 2.26 3.14 2.76 2.22 2.12 2.90 2.26 1.54 0.91 0.87 0.94 1.42 1.24 0.44 0.17 0.03 0.01 0.01 0.00 0.01 0.02 0.01 0.01 0.01 0.01 0.01 0.00 0.00 0.00 0.00
0.00 0.00 0.00 0.00 0.00 0.00 0.01 0.11 0.30 0.40 0.25 0.32 0.12 0.38 0.91 0.39 0.47 0.72 1.82 2.34 4.04 5.80 6.52 4.47 4.51 5.07 3.80 2.31 1.09 0.94 0.77 1.31 0.83 0.62 0.24 0.06 0.01 0.00 0.01 0.01 0.00 0.00 0.01 0.00 0.00 0.00 0.00 0.00 0.00
0.00 0.00 0.00 0.00 0.00 0.01 0.04 0.13 0.21 0.23 0.19 0.33 0.20 0.49 1.07 0.45 0.44 0.96 1.82 4.35 6.04 6.86 10.01 10.29 6.81 6.17 5.31 5.72 3.62 1.32 0.61 0.67 0.67 0.39 0.26 0.16 0.05 0.00 0.01 0.00 0.00 0.00 0.00 0.00 0.00 0.00 0.00 0.00 0.00
0.00 0.00 0.00 0.00 0.01 0.04 0.08 0.21 0.27 0.14 0.28 0.50 0.20 0.35 1.12 0.58 0.43 0.50 0.85 2.20 6.16 7.50 6.56 6.78 5.31 4.65 4.28 4.38 4.97 3.26 1.87 0.93 0.95 0.47 0.25 0.14 0.06 0.02 0.00 0.00 0.00 0.00 0.00 0.00 0.00 0.00 0.00 0.00 0.00
0.00 0.00 0.00 0.00 0.04 0.12 0.13 0.12 0.09 0.04 0.06 0.24 0.35 0.31 0.37 0.30 0.27 0.29 0.96 1.01 1.92 3.49 3.95 3.53 2.40 1.61 1.83 1.97 2.45 2.94 2.78 2.12 1.66 1.47 0.51 0.20 0.11 0.03 0.00 0.00 0.00 0.00 0.00 0.00 0.00 0.00 0.00 0.00 0.00
0.00 0.00 0.00 0.00 0.02 0.28 0.21 0.26 0.23 0.04 0.07 0.42 0.52 0.57 0.44 0.30 0.28 0.25 0.62 0.77 1.64 2.08 1.79 1.27 0.77 0.40 0.44 0.56 0.73 1.21 1.95 2.26 1.95 2.35 1.01 0.28 0.10 0.02 0.00 0.00 0.00 0.00 0.00 0.00 0.00 0.00 0.00 0.00 0.00
0.00 0.00 0.00 0.00 0.00 0.05 0.09 0.01 0.01 0.04 0.10 0.25 0.36 0.32 0.16 0.20 0.14 0.19 0.33 0.66 1.12 0.85 0.81 0.74 0.50 0.28 0.29 0.23 0.25 0.37 0.96 1.74 1.95 1.97 1.13 0.20 0.10 0.02 0.02 0.00 0.00 0.00 0.00 0.00 0.00 0.00 0.00 0.00 0.00
0.00 0.00 0.00 0.00 0.01 0.00 0.00 0.01 0.00 0.06 0.54 0.42 0.08 0.21 0.13 0.12 0.17 0.24 0.31 0.39 0.47 0.44 0.46 0.32 0.35 0.35 0.47 0.31 0.22 0.22 0.59 1.29 1.51 1.08 0.52 0.14 0.06 0.04 0.00 0.00 0.00 0.00 0.00 0.00 0.00 0.00 0.00 0.00 0.00
0.00 0.00 0.00 0.00 0.02 0.02 0.01 0.01 0.02 0.40 0.85 0.25 0.22 0.18 0.11 0.12 0.16 0.13 0.11 0.17 0.21 0.29 0.40 0.37 0.16 0.24 0.22 0.22 0.23 0.21 0.52 0.68 0.86 0.68 0.13 0.03 0.01 0.00 0.00 0.00 0.00 0.00 0.00 0.00 0.00 0.00 0.00 0.00 0.00
0.00 0.00 0.00 0.02 0.01 0.02 0.01 0.02 0.18 0.31 0.29 0.38 0.32 0.19 0.14 0.09 0.09 0.08 0.04 0.03 0.11 0.25 0.39 0.46 0.40 0.34 0.29 0.21 0.28 0.29 0.44 0.75 0.60 0.57 0.23 0.06 0.03 0.01 0.00 0.00 0.00 0.00 0.00 0.00 0.00 0.00 0.00 0.00 0.00
0.00 0.01 0.01 0.04 0.02 0.01 0.02 0.10 0.20 0.47 0.35 0.20 0.23 0.21 0.21 0.18 0.09 0.04 0.02 0.01 0.02 0.07 0.22 0.61 1.01 0.49 0.33 0.26 0.31 0.33 0.24 0.39 0.55 0.40 0.26 0.08 0.02 0.04 0.02 0.00 0.00 0.00 0.00 0.00 0.00 0.00 0.00 0.00 0.00
0.00 0.00 0.02 0.16 0.03 0.01 0.01 0.20 0.34 0.14 0.15 0.41 0.12 0.15 0.20 0.12 0.04 0.00 0.00 0.00 0.01 0.04 0.12 0.66 1.26 0.92 0.47 0.25 0.30 0.35 0.43 0.36 0.42 0.30 0.18 0.15 0.11 0.09 0.04 0.01 0.00 0.00 0.00 0.00 0.00 0.00 0.00 0.00 0.00
0.00 0.00 0.00 0.01 0.01 0.01 0.01 0.02 0.15 0.11 0.10 0.26 0.08 0.05 0.02 0.02 0.01 0.00 0.00 0.00 0.03 0.04 0.17 0.49 0.78 1.06 0.95 0.71 0.67 0.46 0.39 0.42 0.37 0.24 0.16 0.09 0.08 0.08 0.04 0.02 0.00 0.00 0.00 0.00 0.00 0.00 0.00 0.00 0.00
0.00 0.00 0.00 0.02 0.01 0.00 0.00 0.00 0.01 0.11 0.12 0.09 0.05 0.01 0.01 0.00 0.00 0.00 0.03 0.04 0.06 0.08 0.32 0.57 0.70 1.20 1.57 0.84 0.32 0.33 0.50 0.47 0.39 0.18 0.11 0.10 0.06 0.08 0.02 0.01 0.01 0.00 0.00 0.00 0.00 0.00 0.00 0.00 0.00
0.00 0.00 0.00 0.00 0.01 0.00 0.00 0.00 0.00 0.04 0.15 0.07 0.03 0.01 0.01 0.01 0.00 0.02 0.05 0.06 0.08 0.18 0.42 0.64 0.99 0.96 0.47 0.22 0.11 0.21 0.40 0.51 0.49 0.31 0.16 0.15 0.08 0.13 0.11 0.07 0.10 0.01 0.01 0.00 0.01 0.01 0.00 0.00 0.00
0.00 0.00 0.00 0.00 0.00 0.00 0.00 0.00 0.00 0.00 0.02 0.00 0.00 0.01 0.00 0.01 0.00 0.01 0.04 0.10 0.29 0.44 0.44 0.33 0.15 0.12 0.03 0.05 0.06 0.09 0.19 0.39 0.39 0.31 0.14 0.23 0.16 0.12 0.08 0.13 0.27 0.14 0.10 0.02 0.02 0.02 0.02 0.03 0.02
0.00 0.00 0.00 0.00 0.00 0.00 0.00 0.00 0.00 0.00 0.00 0.00 0.01 0.03 0.01 0.01 0.01 0.04 0.08 0.13 0.11 0.05 0.02 0.06 0.08 0.13 0.04 0.02 0.03 0.05 0.23 0.39 0.31 0.36 0.22 0.17 0.16 0.22 0.15 0.19 0.23 0.16 0.09 0.05 0.02 0.01 0.00 0.01 0.02
0.00 0.00 0.00 0.00 0.00 0.00 0.00 0.00 0.01 0.00 0.00 0.00 0.01 0.02 0.02 0.02 0.03 0.03 0.00 0.00 0.01 0.02 0.03 0.06 0.12 0.15 0.04 0.01 0.01 0.02 0.11 0.20 0.23 0.21 0.16 0.12 0.10 0.13 0.13 0.15 0.17 0.21 0.16 0.13 0.08 0.04 0.03 0.05 0.09
0.00 0.00 0.00 0.00 0.00 0.02 0.01 0.01 0.02 0.01 0.00 0.00 0.00 0.00 0.03 0.01 0.00 0.00 0.01 0.00 0.00 0.04 0.07 0.08 0.11 0.15 0.08 0.01 0.06 0.12 0.15 0.17 0.21 0.19 0.14 0.10 0.09 0.08 0.06 0.05 0.05 0.04 0.06 0.08 0.12 0.13 0.17 0.24 0.27
0.00 0.00 0.00 0.00 0.00 0.01 0.01 0.02 0.02 0.02 0.01 0.02 0.00 0.00 0.09 0.02 0.01 0.02 0.02 0.01 0.01 0.05 0.08 0.10 0.12 0.19 0.09 0.06 0.07 0.13 0.17 0.15 0.12 0.10 0.10 0.06 0.07 0.08 0.07 0.05 0.05 0.05 0.07 0.09 0.20 0.42 0.39 0.33 0.32
0.00 0.00 0.02 0.13 0.03 0.01 0.03 0.03 0.01 0.01 0.01 0.08 0.04 0.00 0.00 0.00 0.01 0.03 0.02 0.01 0.02 0.04 0.08 0.08 0.07 0.09 0.09 0.12 0.07 0.05 0.12 0.16 0.16 0.12 0.17 0.12 0.07 0.06 0.15 0.22 0.19 0.15 0.17 0.32 0.33 0.29 0.31 0.33 0.35
0.00 0.00 0.03 0.16 0.16 0.07 0.03 0.01 0.00 0.00 0.00 0.00 0.01 0.00 0.00 0.00 0.00 0.01 0.01 0.02 0.03 0.07 0.18 0.12 0.11 0.11 0.07 0.11 0.16 0.20 0.25 0.31 0.37 0.36 0.31 0.19 0.21 0.24 0.39 0.53 0.56 0.47 0.37 0.36 0.42 0.45 0.47 0.45 0.39
0.00 0.00 0.00 0.01 0.03 0.04 0.01 0.01 0.00 0.00 0.00 0.00 0.00 0.00 0.00 0.00 0.00 0.00 0.01 0.02 0.03 0.03 0.16 0.20 0.13 0.12 0.08 0.10 0.16 0.24 0.37 0.40 0.30 0.35 0.57 0.42 0.37 0.28 0.39 0.50 0.40 0.40 0.36 0.40 0.53 0.51 0.41 0.33 0.32
0.00 0.00 0.00 0.00 0.07 0.06 0.00 0.00 0.02 0.02 0.01 0.00 0.00 0.00 0.00 0.00 0.00 0.00 0.00 0.00 0.01 0.02 0.11 0.16 0.10 0.11 0.10 0.08 0.10 0.15 0.27 0.41 0.48 0.80 1.09 1.22 0.99 0.77 0.49 0.53 0.52 0.38 0.25 0.24 0.25 0.28 0.27 0.26 0.23
0.00 0.00 0.00 0.00 0.00 0.05 0.03 0.01 0.01 0.01 0.01 0.00 0.00 0.00 0.00 0.00 0.00 0.00 0.00 0.01 0.00 0.01 0.05 0.13 0.23 0.23 0.09 0.10 0.20 0.33 0.39 0.58 0.91 0.87 1.17 0.94 0.90 0.96 0.82 0.62 0.63 0.56 0.49 0.45 0.39 0.32 0.26 0.21 0.17
0.00 0.01 0.02 0.00 0.00 0.01 0.02 0.01 0.01 0.00 0.00 0.00 0.00 0.00 0.00 0.00 0.00 0.00 0.00 0.01 0.00 0.00 0.01 0.07 0.29 0.53 0.73 0.69 1.01 0.92 1.05 1.21 1.11 1.37 1.94 1.33 0.97 0.72 0.50 0.36 0.28 0.29 0.34 0.36 0.30 0.23 0.19 0.18 0.17

GFSSGP_prec_precacc_081.txt.gz
Total_Precipitation_Accumulation
0.00 0.00 0.00 0.00 0.00 0.00 0.00 0.00 0.01 0.02 0.05 0.07 0.15 0.17 0.15 0.19 0.41 0.75 0.66 1.22 2.37 1.63 0.97 0.86 0.94 0.30 0.22 0.19 0.12 0.06 0.02 0.01 0.01 0.01 0.00 0.00 0.00 0.00 0.01 0.00 0.00 0.02 0.11 0.04 0.00 0.00 0.01 0.02 0.01
0.00 0.00 0.00 0.00 0.00 0.00 0.00 0.02 0.01 0.06 0.20 0.31 0.32 0.34 0.31 0.36 0.28 0.48 0.65 0.56 0.56 0.41 0.57 0.75 1.19 0.97 0.80 0.62 0.22 0.11 0.06 0.03 0.00 0.00 0.01 0.01 0.00 0.00 0.00 0.00 0.00 0.01 0.07 0.02 0.01 0.01 0.01 0.00 0.00
0.00 0.00 0.00 0.00 0.00 0.00 0.00 0.02 0.02 0.06 0.16 0.17 0.15 0.13 0.26 0.42 0.69 0.83 0.68 0.55 0.58 0.35 0.31 0.76 1.17 1.33 0.83 0.95 0.63 0.42 0.36 0.13 0.01 0.01 0.02 0.02 0.01 0.01 0.01 0.01 0.00 0.01 0.04 0.01 0.01 0.01 0.00 0.00 0.00
0.00 0.00 0.00 0.00 0.00 0.00 0.00 0.02 0.04 0.15 0.14 0.09 0.12 0.20 0.54 0.52 0.96 0.72 0.65 0.83 1.04 1.14 0.91 1.60 2.02 1.48 1.01 0.82 1.02 1.74 1.42 0.65 0.11 0.02 0.02 0.01 0.01 0.00 0.01 0.01 0.01 0.01 0.01 0.01 0.01 0.01 0.00 0.00 0.00
0.00 0.00 0.00 0.00 0.00 0.00 0.01 0.06 0.17 0.20 0.22 0.28 0.12 0.30 0.91 0.46 0.41 0.62 1.19 2.26 3.14 2.76 2.23 2.16 2.94 2.30 1.61 1.02 1.15 1.45 2.36 2.51 0.97 0.30 0.13 0.05 0.02 0.00 0.01 0.02 0.01 0.01 0.01 0.01 0.01 0.01 0.00 0.00 0.00
0.00 0.00 0.00 0.00 0.00 0.00 0.01 0.11 0.30 0.40 0.25 0.32 0.12 0.38 0.91 0.39 0.47 0.72 1.82 2.34 4.04 5.81 6.52 4.50 4.56 5.13 3.92 2.50 1.22 1.17 1.35 2.25 1.55 0.88 0.65 0.28 0.07 0.00 0.01 0.01 0.01 0.00 0.01 0.00 0.00 0.00 0.00 0.00 0.00
0.00 0.00 0.00 0.00 0.00 0.01 0.04 0.13 0.21 0.23 0.19 0.33 0.20 0.49 1.07 0.45 0.44 0.96 1.82 4.35 6.04 6.86 10.03 10.32 6.88 6.24 5.51 6.09 3.85 1.50 1.41 1.32 1.01 0.52 0.56 0.78 0.31 0.03 0.02 0.03 0.03 0.00 0.00 0.00 0.00 0.00 0.00 0.00 0.00
0.00 0.00 0.00 0.00 0.01 0.04 0.08 0.21 0.27 0.14 0.28 0.50 0.20 0.35 1.12 0.58 0.43 0.50 0.85 2.20 6.16 7.50 6.56 6.81 5.45 4.74 4.34 4.46 5.03 3.39 2.12 1.62 1.31 0.57 0.31 0.51 0.52 0.17 0.02 0.02 0.05 0.02 0.00 0.00 0.00 0.00 0.00 0.00 0.00
0.00 0.00 0.00 0.00 0.04 0.12 0.13 0.12 0.09 0.04 0.06 0.24 0.35 0.31 0.37 0.30 0.27 0.29 0.96 1.02 1.92 3.50 3.95 3.54 2.42 1.68 1.93 2.03 2.48 3.03 2.89 2.29 1.99 1.65 0.65 0.38 0.35 0.16 0.03 0.03 0.02 0.01 0.00 0.00 0.00 0.00 0.00 0.00 0.00
0.00 0.00 0.00 0.00 0.02 0.28 0.21 0.26 0.23 0.04 0.07 0.42 0.52 0.57 0.44 0.30 0.28 0.25 0.62 0.77 1.65 2.08 1.79 1.27 0.78 0.42 0.46 0.58 0.74 1.22 1.96 2.28 2.00 2.45 1.14 0.65 0.44 0.15 0.12 0.11 0.01 0.00 0.00 0.00 0.00 0.00 0.00 0.00 0.00
0.00 0.00 0.00 0.00 0.00 0.05 0.09 0.01 0.01 0.04 0.10 0.25 0.36 0.32 0.16 0.20 0.14 0.19 0.33 0.66 1.12 0.85 0.81 0.74 0.51 0.28 0.31 0.25 0.27 0.39 0.99 1.78 2.06 2.12 1.49 0.60 0.46 0.31 0.18 0.09 0.03 0.00 0.00 0.00 0.00 0.00 0.00 0.00 0.00
0.00 0.00 0.00 0.00 0.01 0.00 0.00 0.01 0.00 0.06 0.54 0.42 0.08 0.21 0.13 0.12 0.17 0.24 0.31 0.39 0.48 0.45 0.47 0.32 0.35 0.35 0.48 0.33 0.23 0.23 0.60 1.33 1.54 1.20 0.99 0.70 0.36 0.22 0.15 0.10 0.03 0.00 0.00 0.00 0.00 0.00 0.00 0.00 0.00
0.00 0.00 0.00 0.00 0.02 0.02 0.01 0.01 0.02 0.40 0.85 0.25 0.22 0.18 0.11 0.12 0.16 0.13 0.11 0.17 0.21 0.30 0.41 0.39 0.18 0.25 0.23 0.22 0.23 0.22 0.53 0.70 0.88 0.77 0.33 0.64 0.22 0.07 0.09 0.09 0.03 0.00 0.00 0.00 0.00 0.00 0.00 0.00 0.00
0.00 0.00 0.00 0.02 0.01 0.02 0.01 0.02 0.18 0.31 0.29 0.38 0.32 0.19 0.14 0.09 0.09 0.08 0.04 0.03 0.11 0.26 0.39 0.46 0.41 0.35 0.30 0.22 0.30 0.30 0.45 0.77 0.64 0.76 0.30 0.21 0.16 0.09 0.04 0.07 0.04 0.00 0.00 0.00 0.00 0.00 0.00 0.00 0.00
0.00 0.01 0.01 0.04 0.02 0.01 0.02 0.10 0.20 0.47 0.35 0.20 0.23 0.21 0.21 0.18 0.09 0.04 0.02 0.01 0.02 0.07 0.22 0.61 1.02 0.50 0.34 0.27 0.31 0.34 0.25 0.43 0.63 0.71 0.42 0.18 0.09 0.10 0.04 0.07 0.04 0.01 0.00 0.00 0.00 0.00 0.00 0.00 0.00
0.00 0.00 0.02 0.16 0.03 0.01 0.01 0.20 0.34 0.14 0.15 0.41 0.12 0.15 0.20 0.12 0.04 0.00 0.00 0.00 0.01 0.04 0.12 0.66 1.27 0.93 0.47 0.26 0.32 0.37 0.46 0.42 0.51 0.52 0.37 0.23 0.15 0.10 0.05 0.04 0.04 0.01 0.00 0.00 0.00 0.00 0.00 0.00 0.00
0.00 0.00 0.00 0.01 0.01 0.01 0.01 0.02 0.15 0.11 0.10 0.26 0.08 0.05 0.02 0.02 0.01 0.00 0.00 0.00 0.03 0.04 0.17 0.50 0.80 1.07 0.96 0.74 0.70 0.55 0.47 0.51 0.45 0.31 0.26 0.16 0.14 0.11 0.05 0.02 0.01 0.00 0.00 0.00 0.00 0.00 0.00 0.00 0.00
0.00 0.00 0.00 0.02 0.01 0.00 0.00 0.00 0.01 0.11 0.12 0.09 0.05 0.01 0.01 0.00 0.00 0.00 0.03 0.04 0.06 0.08 0.32 0.58 0.71 1.20 1.57 0.85 0.34 0.39 0.62 0.51 0.41 0.19 0.14 0.15 0.10 0.09 0.02 0.01 0.01 0.00 0.00 0.00 0.00 0.00 0.00 0.00 0.00
0.00 0.00 0.00 0.00 0.01 0.00 0.00 0.00 0.00 0.04 0.15 0.07 0.03 0.01 0.01 0.01 0.00 0.02 0.05 0.06 0.08 0.18 0.42 0.64 1.00 0.97 0.47 0.23 0.13 0.25 0.45 0.58 0.50 0.31 0.16 0.16 0.08 0.13 0.11 0.07 0.10 0.01 0.01 0.00 0.01 0.01 0.00 0.00 0.00
0.00 0.00 0.00 0.00 0.00 0.00 0.00 0.00 0.00 0.00 0.02 0.00 0.00 0.01 0.00 0.01 0.00 0.01 0.04 0.10 0.29 0.44 0.44 0.33 0.15 0.12 0.04 0.05 0.08 0.11 0.20 0.41 0.40 0.31 0.14 0.23 0.16 0.12 0.08 0.13 0.27 0.14 0.10 0.02 0.02 0.02 0.02 0.03 0.02
0.00 0.00 0.00 0.00 0.00 0.00 0.00 0.00 0.00 0.00 0.00 0.00 0.01 0.03 0.01 0.01 0.01 0.04 0.08 0.13 0.11 0.05 0.02 0.06 0.08 0.14 0.05 0.03 0.05 0.08 0.25 0.41 0.33 0.37 0.22 0.17 0.16 0.22 0.15 0.19 0.23 0.16 0.09 0.05 0.02 0.01 0.00 0.01 0.03
0.00 0.00 0.00 0.00 0.00 0.00 0.00 0.00 0.01 0.00 0.00 0.00 0.01 0.02 0.02 0.02 0.03 0.03 0.00 0.00 0.01 0.02 0.03 0.06 0.12 0.15 0.05 0.01 0.02 0.04 0.12 0.23 0.24 0.21 0.17 0.12 0.10 0.13 0.13 0.15 0.17 0.21 0.16 0.14 0.08 0.04 0.03 0.05 0.10
0.00 0.00 0.00 0.00 0.00 0.02 0.01 0.01 0.02 0.01 0.00 0.00 0.00 0.00 0.03 0.01 0.00 0.00 0.01 0.00 0.00 0.04 0.07 0.08 0.12 0.16 0.08 0.01 0.06 0.14 0.16 0.19 0.23 0.19 0.14 0.10 0.09 0.08 0.06 0.05 0.05 0.04 0.06 0.08 0.12 0.13 0.17 0.24 0.31
0.00 0.00 0.00 0.00 0.00 0.01 0.01 0.02 0.02 0.02 0.01 0.02 0.00 0.00 0.09 0.02 0.01 0.02 0.02 0.01 0.01 0.05 0.08 0.10 0.13 0.19 0.10 0.06 0.07 0.14 0.18 0.16 0.14 0.11 0.10 0.06 0.07 0.08 0.07 0.05 0.05 0.05 0.07 0.10 0.20 0.47 0.43 0.36 0.39
0.00 0.00 0.02 0.13 0.03 0.01 0.03 0.03 0.01 0.01 0.01 0.08 0.04 0.00 0.00 0.00 0.01 0.03 0.02 0.01 0.02 0.04 0.08 0.08 0.07 0.09 0.09 0.12 0.07 0.05 0.13 0.16 0.16 0.13 0.17 0.12 0.07 0.06 0.15 0.22 0.19 0.15 0.17 0.33 0.37 0.37 0.35 0.40 0.43
0.00 0.00 0.03 0.16 0.16 0.07 0.03 0.01 0.00 0.00 0.00 0.00 0.01 0.00 0.00 0.00 0.00 0.01 0.01 0.02 0.03 0.07 0.18 0.12 0.11 0.11 0.07 0.11 0.17 0.20 0.25 0.31 0.37 0.36 0.31 0.19 0.21 0.24 0.39 0.53 0.56 0.47 0.37 0.36 0.47 0.52 0.52 0.52 0.43
0.00 0.00 0.00 0.01 0.03 0.04 0.01 0.01 0.00 0.00 0.00 0.00 0.00 0.00 0.00 0.00 0.00 0.00 0.01 0.02 0.03 0.03 0.16 0.20 0.13 0.12 0.08 0.10 0.16 0.25 0.37 0.40 0.31 0.35 0.58 0.42 0.37 0.28 0.39 0.50 0.40 0.40 0.37 0.40 0.55 0.57 0.44 0.36 0.36
0.00 0.00 0.00 0.00 0.07 0.06 0.00 0.00 0.02 0.02 0.01 0.00 0.00 0.00 0.00 0.00 0.00 0.00 0.00 0.00 0.01 0.02 0.11 0.16 0.10 0.11 0.10 0.08 0.10 0.15 0.27 0.41 0.48 0.80 1.10 1.22 0.99 0.77 0.49 0.53 0.52 0.39 0.25 0.24 0.26 0.30 0.29 0.29 0.27
0.00 0.00 0.00 0.00 0.00 0.05 0.03 0.01 0.01 0.01 0.01 0.00 0.00 0.00 0.00 0.00 0.00 0.00 0.00 0.01 0.00 0.01 0.05 0.13 0.23 0.23 0.09 0.10 0.20 0.33 0.39 0.58 0.91 0.87 1.17 0.94 0.90 0.96 0.82 0.62 0.63 0.56 0.50 0.46 0.40 0.33 0.27 0.23 0.19
0.00 0.01 0.02 0.01 0.00 0.01 0.02 0.01 0.01 0.00 0.00 0.00 0.00 0.00 0.00 0.00 0.00 0.00 0.00 0.01 0.00 0.00 0.01 0.07 0.29 0.53 0.73 0.69 1.01 0.92 1.05 1.21 1.11 1.37 1.94 1.33 0.97 0.72 0.50 0.36 0.28 0.29 0.34 0.37 0.30 0.24 0.19 0.18 0.18

GFSSGP_prec_precacc_084.txt.gz
Total_Precipitation_Accumulation
0.00 0.00 0.00 0.00 0.00 0.00 0.00 0.00 0.01 0.02 0.05 0.07 0.15 0.17 0.15 0.19 0.41 0.76 0.67 1.22 2.37 1.63 0.97 0.87 0.94 0.30 0.22 0.19 0.12 0.06 0.02 0.01 0.02 0.01 0.00 0.00 0.00 0.00 0.01 0.01 0.00 0.02 0.12 0.05 0.01 0.01 0.01 0.02 0.01
0.00 0.00 0.00 0.00 0.00 0.00 0.00 0.02 0.01 0.06 0.20 0.31 0.32 0.34 0.31 0.36 0.28 0.48 0.65 0.56 0.56 0.41 0.57 0.75 1.19 0.97 0.80 0.62 0.22 0.12 0.08 0.05 0.01 0.02 0.01 0.01 0.01 0.01 0.02 0.01 0.00 0.03 0.08 0.03 0.01 0.01 0.01 0.00 0.00
0.00 0.00 0.00 0.00 0.00 0.00 0.00 0.02 0.02 0.06 0.16 0.17 0.15 0.13 0.26 0.42 0.69 0.83 0.68 0.55 0.58 0.35 0.31 0.76 1.18 1.33 0.83 0.97 0.67 0.43 0.38 0.15 0.03 0.10 0.03 0.02 0.01 0.02 0.04 0.02 0.01 0.03 0.06 0.01 0.02 0.02 0.01 0.00 0.00
0.00 0.00 0.00 0.00 0.00 0.00 0.00 0.02 0.04 0.15 0.14 0.09 0.12 0.20 0.54 0.52 0.96 0.72 0.65 0.83 1.04 1.14 0.91 1.63 2.05 1.48 1.02 0.91 1.10 2.02 1.80 1.05 0.47 0.14 0.03 0.02 0.01 0.01 0.03 0.03 0.03 0.05 0.04 0.01 0.02 0.01 0.00 0.00 0.00
0.00 0.00 0.00 0.00 0.00 0.00 0.01 0.06 0.17 0.20 0.22 0.28 0.12 0.30 0.91 0.46 0.41 0.62 1.19 2.26 3.14 2.76 2.23 2.19 3.00 2.30 1.62 1.11 1.31 1.92 3.25 3.33 2.62 1.40 0.34 0.11 0.04 0.01 0.01 0.02 0.03 0.04 0.04 0.02 0.01 0.01 0.00 0.00 0.00
0.00 0.00 0.00 0.00 0.00 0.00 0.01 0.11 0.30 0.40 0.25 0.32 0.12 0.38 0.91 0.39 0.47 0.72 1.82 2.34 4.04 5.81 6.52 4.51 4.60 5.14 3.94 2.53 1.23 1.43 1.95 2.83 2.52 2.41 1.41 0.47 0.10 0.01 0.03 0.04 0.02 0.01 0.01 0.00 0.00 0.00 0.00 0.00 0.00
0.00 0.00 0.00 0.00 0.00 0.01 0.04 0.13 0.21 0.23 0.19 0.33 0.20 0.49 1.07 0.45 0.44 0.96 1.82 4.35 6.04 6.86 10.03 10.32 6.89 6.24 5.55 6.18 3.88 1.55 1.45 1.45 1.69 1.78 1.30 1.11 0.77 0.14 0.04 0.06 0.05 0.00 0.00 0.00 0.00 0.00 0.00 0.00 0.00
0.00 0.00 0.00 0.00 0.01 0.04 0.08 0.21 0.27 0.14 0.28 0.50 0.20 0.35 1.12 0.58 0.43 0.50 0.85 2.20 6.16 7.50 6.57 6.82 5.46 4.74 4.34 4.46 5.04 3.39 2.14 1.71 1.50 1.31 0.97 0.73 0.95 0.63 0.14 0.03 0.05 0.02 0.00 0.00 0.00 0.00 0.00 0.00 0.00
0.00 0.00 0.00 0.00 0.04 0.12 0.13 0.12 0.09 0.04 0.06 0.24 0.35 0.31 0.37 0.30 0.27 0.29 0.96 1.02 1.92 3.50 3.96 3.54 2.43 1.70 1.94 2.04 2.48 3.03 2.92 2.35 2.38 2.36 1.13 0.64 0.59 0.72 0.31 0.09 0.02 0.01 0.00 0.00 0.00 0.00 0.00 0.00 0.00
0.00 0.00 0.00 0.00 0.02 0.28 0.21 0.26 0.23 0.04 0.07 0.42 0.52 0.57 0.44 0.30 0.28 0.25 0.62 0.77 1.65 2.08 1.80 1.28 0.79 0.43 0.47 0.60 0.75 1.23 1.99 2.35 2.08 3.31 1.63 0.91 0.58 0.33 0.38 0.30 0.05 0.00 0.00 0.00 0.00 0.00 0.00 0.00 0.00
0.00 0.00 0.00 0.00 0.00 0.05 0.09 0.01 0.01 0.04 0.10 0.25 0.36 0.32 0.16 0.20 0.14 0.19 0.33 0.66 1.12 0.85 0.81 0.74 0.51 0.29 0.32 0.26 0.30 0.46 1.08 1.89 2.14 2.24 1.62 0.76 0.61 0.57 0.41 0.43 0.18 0.01 0.00 0.00 0.00 0.00 0.00 0.00 0.00
0.00 0.00 0.00 0.00 0.01 0.00 0.00 0.01 0.00 0.06 0.54 0.42 0.08 0.21 0.13 0.12 0.17 0.24 0.31 0.39 0.48 0.45 0.47 0.32 0.35 0.35 0.50 0.36 0.25 0.29 0.69 1.44 1.66 1.29 1.03 0.72 0.45 0.40 0.27 0.31 0.23 0.02 0.00 0.00 0.00 0.00 0.00 0.00 0.00
0.00 0.00 0.00 0.00 0.02 0.02 0.01 0.01 0.02 0.40 0.85 0.25 0.22 0.18 0.11 0.12 0.16 0.13 0.11 0.17 0.21 0.30 0.41 0.39 0.18 0.25 0.23 0.22 0.24 0.22 0.57 0.78 1.00 0.88 0.36 0.66 0.31 0.16 0.16 0.24 0.20 0.01 0.00 0.00 0.00 0.00 0.00 0.00 0.00
0.00 0.00 0.00 0.02 0.01 0.02 0.01 0.02 0.18 0.31 0.29 0.38 0.32 0.19 0.14 0.09 0.09 0.08 0.04 0.03 0.11 0.26 0.39 0.47 0.41 0.35 0.30 0.23 0.31 0.30 0.45 0.80 0.70 0.80 0.31 0.22 0.20 0.21 0.17 0.17 0.12 0.00 0.00 0.00 0.00 0.00 0.00 0.00 0.00
0.00 0.01 0.01 0.04 0.02 0.01 0.02 0.10 0.20 0.47 0.35 0.20 0.23 0.21 0.21 0.18 0.09 0.04 0.02 0.01 0.02 0.07 0.22 0.62 1.02 0.50 0.34 0.27 0.31 0.34 0.25 0.43 0.64 0.73 0.45 0.19 0.09 0.13 0.10 0.13 0.10 0.02 0.00 0.00 0.00 0.00 0.00 0.00 0.00
0.00 0.00 0.02 0.16 0.03 0.01 0.01 0.20 0.34 0.14 0.15 0.41 0.12 0.15 0.20 0.12 0.04 0.00 0.00 0.00 0.01 0.04 0.12 0.66 1.27 0.93 0.48 0.27 0.32 0.37 0.47 0.43 0.51 0.54 0.47 0.26 0.18 0.14 0.11 0.14 0.16 0.09 0.01 0.00 0.00 0.00 0.00 0.00 0.00
0.00 0.00 0.00 0.01 0.01 0.01 0.01 0.02 0.15 0.11 0.10 0.26 0.08 0.05 0.02 0.02 0.01 0.00 0.00 0.00 0.03 0.04 0.17 0.50 0.80 1.08 0.97 0.76 0.71 0.56 0.47 0.52 0.47 0.35 0.34 0.20 0.18 0.20 0.09 0.12 0.14 0.15 0.05 0.00 0.00 0.00 0.00 0.00 0.00
0.00 0.00 0.00 0.02 0.01 0.00 0.00 0.00 0.01 0.11 0.12 0.09 0.05 0.01 0.01 0.00 0.00 0.00 0.03 0.04 0.06 0.08 0.32 0.58 0.72 1.21 1.58 0.87 0.34 0.41 0.63 0.53 0.47 0.28 0.23 0.24 0.16 0.20 0.11 0.12 0.08 0.04 0.03 0.00 0.00 0.00 0.00 0.00 0.00
0.00 0.00 0.00 0.00 0.01 0.00 0.00 0.00 0.00 0.04 0.15 0.07 0.03 0.01 0.01 0.01 0.00 0.02 0.05 0.06 0.08 0.18 0.42 0.64 1.00 0.97 0.47 0.23 0.13 0.26 0.46 0.59 0.52 0.35 0.22 0.22 0.17 0.17 0.19 0.15 0.16 0.04 0.02 0.01 0.01 0.01 0.00 0.00 0.00
0.00 0.00 0.00 0.00 0.00 0.00 0.00 0.00 0.00 0.00 0.02 0.00 0.00 0.01 0.00 0.01 0.00 0.01 0.04 0.10 0.29 0.44 0.44 0.33 0.15 0.13 0.04 0.06 0.08 0.11 0.20 0.41 0.40 0.33 0.15 0.25 0.17 0.14 0.10 0.14 0.28 0.14 0.11 0.02 0.02 0.02 0.02 0.03 0.02
0.00 0.00 0.00 0.00 0.00 0.00 0.00 0.00 0.00 0.00 0.00 0.00 0.01 0.03 0.01 0.01 0.01 0.04 0.08 0.13 0.11 0.05 0.02 0.06 0.08 0.14 0.05 0.03 0.05 0.09 0.27 0.42 0.33 0.37 0.22 0.18 0.17 0.22 0.15 0.19 0.23 0.16 0.09 0.05 0.02 0.01 0.00 0.01 0.03
0.00 0.00 0.00 0.00 0.00 0.00 0.00 0.00 0.01 0.00 0.00 0.00 0.01 0.02 0.02 0.02 0.03 0.03 0.00 0.00 0.01 0.02 0.03 0.06 0.12 0.15 0.05 0.02 0.02 0.04 0.13 0.23 0.24 0.21 0.17 0.12 0.10 0.13 0.13 0.16 0.17 0.21 0.16 0.14 0.08 0.05 0.04 0.07 0.11
0.00 0.00 0.00 0.00 0.00 0.02 0.01 0.01 0.02 0.01 0.00 0.00 0.00 0.00 0.03 0.01 0.00 0.00 0.01 0.00 0.00 0.04 0.07 0.08 0.12 0.16 0.08 0.01 0.07 0.14 0.16 0.19 0.23 0.19 0.14 0.10 0.09 0.08 0.06 0.05 0.05 0.04 0.07 0.10 0.13 0.14 0.20 0.28 0.35
0.01 0.00 0.00 0.00 0.00 0.01 0.01 0.02 0.02 0.02 0.01 0.02 0.00 0.00 0.09 0.02 0.01 0.02 0.02 0.01 0.01 0.05 0.08 0.10 0.13 0.19 0.10 0.07 0.08 0.14 0.18 0.16 0.15 0.11 0.10 0.06 0.07 0.08 0.07 0.05 0.05 0.05 0.08 0.12 0.24 0.48 0.44 0.38 0.43
0.00 0.00 0.03 0.14 0.03 0.01 0.03 0.03 0.01 0.01 0.01 0.08 0.04 0.00 0.00 0.00 0.01 0.03 0.02 0.01 0.02 0.04 0.08 0.08 0.07 0.10 0.09 0.13 0.07 0.06 0.13 0.16 0.16 0.13 0.17 0.12 0.07 0.06 0.15 0.22 0.19 0.15 0.18 0.34 0.42 0.46 0.40 0.44 0.48
0.00 0.00 0.04 0.17 0.16 0.07 0.03 0.01 0.00 0.00 0.00 0.00 0.01 0.00 0.00 0.00 0.00 0.01 0.01 0.02 0.03 0.07 0.18 0.12 0.11 0.11 0.07 0.11 0.17 0.21 0.26 0.31 0.37 0.36 0.31 0.19 0.21 0.24 0.39 0.53 0.56 0.47 0.37 0.37 0.48 0.57 0.55 0.57 0.48
0.01 0.00 0.00 0.04 0.04 0.05 0.01 0.01 0.00 0.00 0.00 0.00 0.00 0.00 0.00 0.00 0.00 0.00 0.01 0.02 0.03 0.03 0.16 0.20 0.13 0.12 0.08 0.11 0.16 0.25 0.38 0.40 0.31 0.35 0.58 0.42 0.37 0.28 0.39 0.50 0.40 0.40 0.37 0.40 0.55 0.61 0.47 0.39 0.39
0.00 0.01 0.04 0.04 0.08 0.08 0.00 0.01 0.02 0.02 0.01 0.00 0.00 0.00 0.00 0.00 0.00 0.00 0.00 0.00 0.01 0.02 0.11 0.16 0.10 0.11 0.10 0.08 0.10 0.15 0.27 0.41 0.48 0.80 1.10 1.22 0.99 0.77 0.49 0.53 0.52 0.39 0.25 0.24 0.26 0.30 0.31 0.31 0.28
0.00 0.01 0.04 0.03 0.01 0.10 0.06 0.02 0.01 0.01 0.01 0.00 0.00 0.00 0.00 0.00 0.00 0.00 0.00 0.01 0.00 0.01 0.05 0.13 0.23 0.23 0.09 0.10 0.20 0.33 0.39 0.58 0.92 0.88 1.17 0.94 0.90 0.96 0.82 0.62 0.63 0.56 0.50 0.46 0.40 0.33 0.27 0.24 0.20
0.00 0.01 0.02 0.08 0.07 0.04 0.07 0.03 0.01 0.00 0.00 0.00 0.00 0.00 0.00 0.00 0.00 0.00 0.00 0.01 0.00 0.00 0.01 0.07 0.29 0.53 0.73 0.69 1.01 0.92 1.05 1.21 1.11 1.38 1.94 1.33 0.98 0.72 0.50 0.36 0.28 0.29 0.34 0.37 0.30 0.24 0.19 0.18 0.18

GFSSGP_prec_precacc_090.txt.gz
Total_Precipitation_Accumulation
0.00 0.00 0.00 0.00 0.00 0.00 0.00 0.00 0.01 0.02 0.05 0.07 0.15 0.17 0.15 0.19 0.41 0.76 0.68 1.22 2.37 1.63 0.97 0.87 0.94 0.30 0.22 0.19 0.12 0.06 0.02 0.01 0.02 0.01 0.00 0.00 0.00 0.00 0.01 0.01 0.00 0.02 0.13 0.06 0.02 0.01 0.03 0.03 0.01
0.00 0.00 0.00 0.00 0.00 0.00 0.00 0.02 0.01 0.06 0.20 0.31 0.32 0.34 0.31 0.36 0.28 0.48 0.66 0.56 0.56 0.41 0.57 0.75 1.19 0.97 0.80 0.62 0.22 0.12 0.08 0.05 0.01 0.02 0.01 0.01 0.01 0.01 0.02 0.01 0.01 0.05 0.11 0.04 0.02 0.04 0.02 0.01 0.00
0.00 0.00 0.00 0.00 0.00 0.00 0.00 0.02 0.02 0.06 0.16 0.17 0.15 0.13 0.26 0.42 0.69 0.83 0.68 0.55 0.58 0.35 0.31 0.76 1.18 1.33 0.83 0.99 0.67 0.43 0.38 0.15 0.07 0.12 0.05 0.02 0.01 0.02 0.04 0.02 0.02 0.08 0.12 0.04 0.04 0.04 0.02 0.00 0.00
0.00 0.00 0.00 0.00 0.00 0.00 0.00 0.02 0.04 0.15 0.14 0.09 0.12 0.20 0.54 0.52 0.96 0.72 0.65 0.83 1.04 1.14 0.91 1.64 2.05 1.48 1.03 0.94 1.15 2.03 1.84 1.25 0.95 0.61 0.38 0.17 0.07 0.02 0.03 0.03 0.04 0.10 0.13 0.06 0.05 0.02 0.02 0.00 0.00
0.00 0.00 0.00 0.00 0.00 0.00 0.01 0.06 0.17 0.20 0.22 0.28 0.12 0.30 0.91 0.46 0.41 0.62 1.19 2.26 3.14 2.76 2.23 2.19 3.00 2.30 1.62 1.11 1.35 2.01 3.37 3.87 3.31 2.24 1.16 0.96 0.72 0.37 0.11 0.03 0.04 0.12 0.15 0.07 0.02 0.02 0.00 0.00 0.00
0.00 0.00 0.00 0.00 0.00 0.00 0.01 0.11 0.30 0.40 0.25 0.32 0.12 0.38 0.91 0.39 0.47 0.72 1.82 2.34 4.04 5.81 6.52 4.51 4.60 5.14 3.94 2.53 1.23 1.44 2.01 3.19 3.21 3.22 2.85 2.45 1.92 1.05 0.55 0.16 0.06 0.07 0.08 0.01 0.01 0.00 0.00 0.00 0.00
0.00 0.00 0.00 0.00 0.00 0.01 0.04 0.13 0.21 0.23 0.19 0.33 0.20 0.49 1.07 0.45 0.44 0.96 1.82 4.35 6.04 6.86 10.03 10.33 6.89 6.24 5.55 6.18 3.88 1.55 1.47 1.57 1.93 1.92 1.88 2.34 2.41 1.33 0.89 0.43 0.19 0.06 0.08 0.01 0.00 0.00 0.00 0.00 0.00
0.00 0.00 0.00 0.00 0.01 0.04 0.08 0.21 0.27 0.14 0.28 0.50 0.20 0.35 1.12 0.58 0.43 0.50 0.85 2.20 6.16 7.50 6.57 6.82 5.47 4.74 4.34 4.46 5.04 3.39 2.15 1.72 1.54 1.41 1.25 1.31 1.90 1.88 1.23 0.47 0.25 0.11 0.03 0.00 0.00 0.00 0.00 0.00 0.00
0.00 0.00 0.00 0.00 0.04 0.12 0.13 0.12 0.09 0.04 0.06 0.24 0.35 0.31 0.37 0.30 0.27 0.29 0.96 1.02 1.92 3.50 3.96 3.54 2.44 1.70 1.94 2.04 2.48 3.03 2.92 2.35 2.38 2.56 1.68 1.22 1.15 1.71 1.26 0.74 0.28 0.07 0.03 0.00 0.00 0.00 0.00 0.00 0.00
0.00 0.00 0.00 0.00 0.02 0.28 0.21 0.26 0.23 0.04 0.07 0.42 0.52 0.57 0.44 0.30 0.28 0.25 0.62 0.77 1.65 2.08 1.80 1.28 0.80 0.43 0.47 0.60 0.75 1.23 1.99 2.35 2.08 3.39 2.23 1.82 0.99 1.10 0.91 0.87 0.36 0.03 0.00 0.00 0.00 0.00 0.00 0.00 0.00
0.00 0.00 0.00 0.00 0.00 0.05 0.09 0.01 0.01 0.04 0.10 0.25 0.36 0.32 0.16 0.20 0.14 0.19 0.33 0.66 1.12 0.85 0.81 0.74 0.52 0.30 0.33 0.26 0.30 0.46 1.09 1.92 2.15 2.27 2.06 2.06 1.09 1.21 0.84 0.85 0.50 0.04 0.00 0.00 0.00 0.00 0.00 0.00 0.00
0.00 0.00 0.00 0.00 0.01 0.00 0.00 0.01 0.00 0.06 0.54 0.42 0.08 0.21 0.13 0.12 0.17 0.24 0.31 0.39 0.48 0.45 0.47 0.32 0.35 0.36 0.51 0.36 0.25 0.29 0.70 1.49 1.70 1.32 1.09 1.43 0.90 0.77 0.52 0.45 0.41 0.03 0.00 0.00 0.00 0.00 0.00 0.00 0.00
0.00 0.00 0.00 0.00 0.02 0.02 0.01 0.01 0.02 0.40 0.85 0.25 0.22 0.18 0.11 0.12 0.16 0.13 0.11 0.17 0.21 0.30 0.41 0.39 0.18 0.25 0.23 0.23 0.24 0.22 0.57 0.80 1.09 0.96 0.37 0.78 0.39 0.21 0.21 0.29 0.30 0.06 0.00 0.00 0.00 0.00 0.00 0.00 0.00
0.00 0.00 0.00 0.02 0.01 0.02 0.01 0.02 0.18 0.31 0.29 0.38 0.32 0.19 0.14 0.09 0.09 0.08 0.04 0.03 0.11 0.26 0.39 0.47 0.41 0.35 0.30 0.23 0.31 0.30 0.45 0.80 0.72 0.88 0.36 0.22 0.21 0.21 0.18 0.22 0.18 0.04 0.00 0.00 0.00 0.00 0.00 0.00 0.00
0.00 0.01 0.01 0.04 0.02 0.01 0.02 0.10 0.20 0.47 0.35 0.20 0.23 0.21 0.21 0.18 0.09 0.04 0.02 0.01 0.02 0.07 0.22 0.62 1.02 0.50 0.34 0.28 0.31 0.34 0.25 0.43 0.66 0.77 0.53 0.21 0.10 0.15 0.11 0.20 0.14 0.03 0.00 0.00 0.00 0.00 0.00 0.00 0.00
0.00 0.00 0.02 0.16 0.03 0.01 0.01 0.20 0.34 0.14 0.15 0.41 0.12 0.15 0.20 0.12 0.04 0.00 0.00 0.00 0.01 0.04 0.12 0.66 1.27 0.93 0.48 0.27 0.32 0.37 0.47 0.43 0.52 0.59 0.53 0.28 0.19 0.16 0.13 0.19 0.21 0.09 0.01 0.00 0.00 0.00 0.00 0.00 0.00
0.00 0.00 0.00 0.01 0.01 0.01 0.01 0.02 0.15 0.11 0.10 0.26 0.08 0.05 0.02 0.02 0.01 0.00 0.00 0.00 0.03 0.04 0.17 0.50 0.80 1.08 0.97 0.76 0.71 0.56 0.47 0.52 0.48 0.37 0.41 0.27 0.22 0.23 0.13 0.21 0.18 0.19 0.07 0.01 0.00 0.00 0.00 0.00 0.00
0.00 0.00 0.00 0.02 0.01 0.00 0.00 0.00 0.01 0.11 0.12 0.09 0.05 0.01 0.01 0.00 0.00 0.00 0.03 0.04 0.06 0.08 0.32 0.58 0.72 1.21 1.58 0.87 0.35 0.41 0.64 0.53 0.47 0.29 0.28 0.35 0.24 0.34 0.27 0.23 0.14 0.09 0.05 0.01 0.00 0.00 0.00 0.00 0.00
0.00 0.00 0.00 0.00 0.01 0.00 0.00 0.00 0.00 0.04 0.15 0.07 0.03 0.01 0.01 0.01 0.00 0.02 0.05 0.06 0.08 0.18 0.42 0.64 1.00 0.97 0.47 0.23 0.14 0.26 0.46 0.59 0.52 0.38 0.27 0.32 0.32 0.36 0.48 0.47 0.37 0.13 0.03 0.01 0.01 0.01 0.00 0.00 0.00
0.00 0.00 0.00 0.00 0.00 0.00 0.00 0.00 0.00 0.00 0.02 0.00 0.00 0.01 0.00 0.01 0.00 0.01 0.04 0.10 0.29 0.44 0.44 0.33 0.15 0.13 0.04 0.06 0.08 0.11 0.20 0.41 0.40 0.34 0.17 0.30 0.32 0.43 0.34 0.33 0.52 0.30 0.12 0.02 0.02 0.02 0.02 0.03 0.02
0.00 0.00 0.00 0.00 0.00 0.01 0.01 0.00 0.00 0.00 0.00 0.00 0.01 0.03 0.01 0.01 0.01 0.04 0.08 0.13 0.11 0.05 0.02 0.06 0.08 0.14 0.05 0.04 0.05 0.09 0.27 0.42 0.33 0.38 0.23 0.21 0.25 0.34 0.35 0.39 0.40 0.24 0.11 0.05 0.02 0.01 0.00 0.01 0.03
0.00 0.00 0.00 0.01 0.03 0.04 0.00 0.01 0.01 0.00 0.00 0.00 0.01 0.02 0.02 0.02 0.03 0.03 0.00 0.00 0.01 0.02 0.03 0.06 0.12 0.15 0.05 0.02 0.02 0.04 0.13 0.23 0.24 0.21 0.17 0.13 0.18 0.25 0.29 0.35 0.39 0.32 0.19 0.15 0.09 0.05 0.04 0.07 0.11
0.00 0.00 0.04 0.04 0.01 0.02 0.01 0.04 0.02 0.01 0.00 0.00 0.00 0.00 0.03 0.01 0.00 0.00 0.01 0.00 0.00 0.04 0.07 0.08 0.12 0.16 0.08 0.02 0.07 0.14 0.16 0.19 0.23 0.19 0.14 0.10 0.10 0.14 0.17 0.20 0.20 0.16 0.12 0.11 0.13 0.14 0.20 0.28 0.36
0.07 0.03 0.07 0.04 0.04 0.06 0.01 0.04 0.02 0.02 0.01 0.02 0.00 0.00 0.09 0.02 0.01 0.02 0.02 0.01 0.01 0.05 0.08 0.10 0.13 0.19 0.10 0.07 0.08 0.14 0.18 0.16 0.15 0.11 0.10 0.06 0.07 0.10 0.10 0.08 0.07 0.08 0.11 0.14 0.25 0.48 0.44 0.39 0.48
0.08 0.17 0.31 0.34 0.15 0.07 0.03 0.03 0.01 0.01 0.01 0.08 0.04 0.00 0.00 0.00 0.01 0.03 0.02 0.01 0.02 0.04 0.08 0.08 0.07 0.10 0.10 0.13 0.07 0.06 0.13 0.16 0.16 0.13 0.17 0.12 0.07 0.06 0.15 0.22 0.20 0.16 0.19 0.35 0.43 0.47 0.42 0.46 0.52
0.06 0.18 0.20 0.22 0.17 0.07 0.03 0.01 0.00 0.00 0.00 0.00 0.01 0.00 0.00 0.00 0.00 0.01 0.01 0.02 0.03 0.07 0.18 0.12 0.11 0.11 0.07 0.11 0.17 0.21 0.26 0.31 0.37 0.36 0.31 0.19 0.21 0.24 0.39 0.53 0.56 0.47 0.37 0.37 0.48 0.59 0.57 0.60 0.52
0.09 0.11 0.06 0.21 0.10 0.08 0.01 0.01 0.00 0.00 0.00 0.00 0.00 0.00 0.00 0.00 0.00 0.00 0.01 0.02 0.03 0.03 0.16 0.20 0.13 0.12 0.08 0.11 0.16 0.25 0.38 0.40 0.31 0.35 0.58 0.42 0.37 0.28 0.39 0.50 0.40 0.40 0.37 0.40 0.56 0.62 0.47 0.39 0.40
0.05 0.15 0.15 0.27 0.14 0.12 0.00 0.01 0.02 0.02 0.01 0.00 0.00 0.00 0.00 0.00 0.00 0.00 0.00 0.00 0.01 0.02 0.11 0.16 0.10 0.11 0.10 0.08 0.10 0.15 0.27 0.41 0.48 0.80 1.10 1.22 0.99 0.77 0.49 0.53 0.52 0.39 0.25 0.24 0.26 0.30 0.31 0.31 0.29
0.03 0.23 0.20 0.09 0.02 0.14 0.08 0.09 0.03 0.02 0.01 0.00 0.00 0.00 0.00 0.00 0.00 0.00 0.00 0.01 0.00 0.01 0.05 0.13 0.23 0.23 0.09 0.10 0.20 0.33 0.40 0.58 0.92 0.88 1.17 0.94 0.90 0.96 0.82 0.62 0.63 0.56 0.50 0.46 0.40 0.33 0.27 0.24 0.20
0.03 0.05 0.15 0.22 0.11 0.06 0.16 0.13 0.09 0.01 0.00 0.00 0.00 0.00 0.00 0.00 0.00 0.00 0.00 0.01 0.00 0.00 0.01 0.07 0.29 0.53 0.73 0.69 1.01 0.92 1.05 1.21 1.11 1.38 1.94 1.33 0.98 0.72 0.50 0.36 0.28 0.29 0.34 0.37 0.30 0.24 0.19 0.18 0.18

GFSSGP_prec_precacc_096.txt.gz
Total_Precipitation_Accumulation
0.00 0.00 0.00 0.00 0.00 0.00 0.00 0.00 0.01 0.02 0.05 0.07 0.15 0.17 0.15 0.19 0.41 0.76 0.68 1.22 2.37 1.63 0.97 0.87 0.94 0.30 0.22 0.19 0.12 0.06 0.02 0.01 0.02 0.01 0.00 0.00 0.00 0.00 0.01 0.01 0.03 0.03 0.13 0.06 0.02 0.02 0.06 0.05 0.03
0.00 0.00 0.00 0.00 0.00 0.00 0.00 0.02 0.01 0.06 0.20 0.31 0.32 0.34 0.31 0.36 0.28 0.48 0.66 0.56 0.56 0.41 0.57 0.75 1.19 0.97 0.80 0.62 0.22 0.12 0.08 0.05 0.01 0.02 0.01 0.01 0.01 0.01 0.02 0.01 0.01 0.05 0.12 0.05 0.03 0.06 0.07 0.04 0.01
0.00 0.00 0.00 0.00 0.00 0.00 0.00 0.02 0.02 0.06 0.16 0.17 0.15 0.13 0.26 0.42 0.69 0.83 0.68 0.55 0.58 0.35 0.31 0.76 1.18 1.33 0.83 0.99 0.67 0.43 0.38 0.15 0.07 0.12 0.05 0.02 0.01 0.02 0.04 0.02 0.02 0.09 0.13 0.06 0.06 0.06 0.05 0.03 0.00
0.00 0.00 0.00 0.00 0.00 0.00 0.00 0.02 0.04 0.15 0.14 0.09 0.12 0.20 0.54 0.52 0.96 0.72 0.65 0.83 1.04 1.14 0.91 1.64 2.05 1.48 1.03 0.94 1.15 2.03 1.84 1.25 0.95 0.61 0.38 0.20 0.12 0.05 0.05 0.05 0.06 0.13 0.15 0.08 0.08 0.04 0.04 0.01 0.00
0.00 0.00 0.00 0.00 0.00 0.00 0.01 0.06 0.17 0.20 0.22 0.28 0.12 0.30 0.91 0.46 0.41 0.62 1.19 2.26 3.14 2.76 2.23 2.19 3.00 2.30 1.62 1.11 1.35 2.02 3.37 3.89 3.33 2.26 1.23 1.15 1.12 0.78 0.42 0.24 0.19 0.21 0.23 0.14 0.07 0.04 0.02 0.00 0.00
0.00 0.00 0.00 0.00 0.00 0.00 0.01 0.11 0.30 0.40 0.25 0.32 0.12 0.38 0.91 0.39 0.47 0.72 1.82 2.34 4.04 5.81 6.52 4.51 4.60 5.14 3.94 2.54 1.24 1.45 2.03 3.28 3.30 3.31 2.92 2.60 2.31 1.55 1.02 0.52 0.40 0.34 0.24 0.12 0.11 0.03 0.02 0.00 0.00
0.00 0.00 0.00 0.00 0.00 0.01 0.04 0.13 0.21 0.23 0.19 0.33 0.20 0.49 1.07 0.45 0.44 0.96 1.82 4.35 6.04 6.86 10.03 10.33 6.89 6.24 5.55 6.20 3.91 1.58 1.50 1.64 2.04 2.05 2.00 2.44 2.87 1.94 1.41 0.89 0.66 0.65 0.57 0.17 0.07 0.03 0.01 0.00 0.00
0.00 0.00 0.00 0.00 0.01 0.04 0.08 0.21 0.27 0.14 0.28 0.50 0.20 0.35 1.12 0.58 0.43 0.50 0.85 2.20 6.16 7.50 6.57 6.82 5.47 4.74 4.34 4.46 5.06 3.46 2.30 1.97 1.73 1.57 1.43 1.45 2.03 1.95 1.35 0.84 0.62 0.73 0.60 0.22 0.03 0.02 0.00 0.00 0.00
0.00 0.00 0.00 0.00 0.04 0.12 0.13 0.12 0.09 0.04 0.06 0.24 0.35 0.31 0.37 0.30 0.27 0.29 0.96 1.02 1.92 3.50 3.96 3.54 2.44 1.70 1.94 2.04 2.49 3.08 3.07 2.48 2.47 2.66 1.83 1.35 1.26 1.73 1.34 0.92 0.58 0.61 0.59 0.36 0.06 0.00 0.00 0.00 0.00
0.00 0.00 0.00 0.00 0.02 0.28 0.21 0.26 0.23 0.04 0.07 0.42 0.52 0.57 0.44 0.30 0.28 0.25 0.62 0.77 1.65 2.08 1.80 1.28 0.80 0.43 0.47 0.60 0.75 1.24 2.01 2.36 2.08 3.40 2.28 1.86 1.05 1.13 1.03 1.09 0.69 0.60 0.68 0.31 0.22 0.01 0.00 0.00 0.00
0.00 0.00 0.00 0.00 0.00 0.05 0.09 0.01 0.01 0.04 0.10 0.25 0.36 0.32 0.16 0.20 0.14 0.19 0.33 0.66 1.12 0.85 0.81 0.74 0.52 0.30 0.33 0.26 0.31 0.47 1.09 1.92 2.15 2.28 2.07 2.07 1.12 1.27 1.04 1.12 0.90 0.67 0.92 0.40 0.22 0.03 0.00 0.00 0.00
0.00 0.00 0.00 0.00 0.01 0.00 0.00 0.01 0.00 0.06 0.54 0.42 0.08 0.21 0.13 0.12 0.17 0.24 0.31 0.39 0.48 0.45 0.47 0.32 0.35 0.36 0.51 0.36 0.25 0.29 0.70 1.49 1.70 1.32 1.09 1.46 0.96 0.94 0.95 0.70 0.68 0.56 0.85 0.34 0.09 0.01 0.00 0.00 0.00
0.00 0.00 0.00 0.00 0.02 0.02 0.01 0.01 0.02 0.40 0.85 0.25 0.22 0.18 0.11 0.12 0.16 0.13 0.11 0.17 0.21 0.30 0.41 0.39 0.18 0.25 0.23 0.23 0.24 0.22 0.57 0.80 1.09 0.96 0.37 0.97 0.76 0.54 0.87 0.61 0.52 0.37 0.78 0.26 0.05 0.01 0.00 0.00 0.00
0.00 0.00 0.00 0.02 0.01 0.02 0.01 0.02 0.18 0.31 0.29 0.38 0.32 0.19 0.14 0.09 0.09 0.08 0.04 0.03 0.11 0.26 0.39 0.47 0.41 0.35 0.30 0.23 0.31 0.30 0.45 0.81 0.73 0.88 0.36 0.24 0.36 0.50 0.85 0.66 0.40 0.23 0.48 0.25 0.07 0.01 0.00 0.00 0.00
0.00 0.01 0.01 0.04 0.02 0.01 0.02 0.10 0.20 0.47 0.35 0.20 0.23 0.21 0.21 0.18 0.09 0.04 0.02 0.01 0.02 0.07 0.22 0.62 1.02 0.50 0.34 0.28 0.31 0.34 0.25 0.44 0.66 0.78 0.53 0.22 0.11 0.23 0.42 0.54 0.29 0.18 0.19 0.18 0.06 0.01 0.00 0.00 0.00
0.00 0.00 0.02 0.16 0.03 0.01 0.01 0.20 0.34 0.14 0.15 0.41 0.12 0.15 0.20 0.12 0.04 0.00 0.00 0.00 0.01 0.04 0.12 0.66 1.27 0.93 0.48 0.27 0.32 0.37 0.47 0.44 0.53 0.59 0.55 0.29 0.20 0.16 0.16 0.30 0.35 0.20 0.11 0.07 0.02 0.00 0.00 0.00 0.00
0.00 0.00 0.00 0.01 0.01 0.01 0.01 0.02 0.15 0.11 0.10 0.26 0.08 0.05 0.02 0.02 0.01 0.00 0.00 0.00 0.03 0.04 0.17 0.50 0.80 1.08 0.97 0.76 0.71 0.56 0.47 0.53 0.50 0.40 0.44 0.30 0.25 0.25 0.15 0.23 0.25 0.24 0.10 0.02 0.01 0.00 0.00 0.00 0.00
0.00 0.00 0.00 0.02 0.01 0.00 0.00 0.00 0.01 0.11 0.12 0.09 0.05 0.01 0.01 0.00 0.00 0.00 0.03 0.04 0.06 0.08 0.32 0.58 0.72 1.21 1.58 0.87 0.35 0.41 0.64 0.53 0.48 0.31 0.36 0.43 0.31 0.40 0.31 0.29 0.25 0.10 0.06 0.01 0.00 0.00 0.00 0.00 0.00
0.00 0.00 0.00 0.00 0.01 0.00 0.00 0.00 0.00 0.04 0.15 0.07 0.03 0.01 0.01 0.01 0.00 0.02 0.05 0.06 0.08 0.18 0.42 0.64 1.00 0.97 0.47 0.23 0.14 0.26 0.46 0.59 0.52 0.38 0.29 0.50 0.53 0.49 0.62 0.54 0.57 0.37 0.06 0.03 0.01 0.01 0.00 0.00 0.00
0.00 0.00 0.00 0.00 0.00 0.00 0.00 0.00 0.00 0.00 0.02 0.00 0.00 0.01 0.00 0.01 0.00 0.01 0.04 0.10 0.29 0.44 0.44 0.33 0.15 0.13 0.04 0.06 0.08 0.11 0.20 0.41 0.40 0.34 0.17 0.31 0.52 0.74 0.54 0.55 0.71 0.66 0.32 0.07 0.02 0.02 0.02 0.03 0.02
0.00 0.00 0.00 0.00 0.00 0.01 0.01 0.00 0.00 0.00 0.00 0.00 0.01 0.03 0.01 0.01 0.01 0.04 0.08 0.13 0.11 0.05 0.02 0.06 0.08 0.14 0.05 0.04 0.05 0.09 0.27 0.42 0.33 0.38 0.23 0.21 0.26 0.48 0.67 0.57 0.59 0.58 0.32 0.14 0.05 0.02 0.00 0.01 0.03
0.00 0.00 0.00 0.01 0.03 0.04 0.00 0.01 0.01 0.00 0.00 0.00 0.01 0.02 0.02 0.02 0.03 0.03 0.00 0.00 0.01 0.02 0.03 0.06 0.12 0.15 0.05 0.02 0.03 0.04 0.13 0.23 0.24 0.21 0.18 0.14 0.18 0.27 0.40 0.62 0.53 0.52 0.38 0.26 0.11 0.06 0.04 0.07 0.11
0.00 0.00 0.04 0.04 0.01 0.02 0.01 0.04 0.02 0.01 0.00 0.00 0.00 0.00 0.03 0.01 0.00 0.00 0.01 0.00 0.00 0.04 0.07 0.08 0.12 0.16 0.08 0.02 0.07 0.14 0.16 0.19 0.23 0.19 0.14 0.10 0.11 0.16 0.22 0.32 0.44 0.43 0.38 0.33 0.21 0.15 0.20 0.28 0.36
0.07 0.03 0.07 0.04 0.06 0.09 0.01 0.04 0.03 0.02 0.01 0.02 0.00 0.00 0.09 0.02 0.01 0.02 0.02 0.01 0.01 0.05 0.08 0.10 0.13 0.19 0.10 0.07 0.08 0.14 0.18 0.16 0.15 0.11 0.10 0.07 0.09 0.12 0.13 0.22 0.26 0.39 0.48 0.45 0.44 0.53 0.46 0.40 0.48
0.08 0.18 0.34 0.39 0.22 0.09 0.03 0.03 0.01 0.01 0.01 0.08 0.04 0.00 0.00 0.00 0.01 0.03 0.02 0.01 0.02 0.04 0.08 0.08 0.07 0.10 0.10 0.13 0.07 0.06 0.13 0.16 0.16 0.13 0.17 0.13 0.07 0.07 0.17 0.25 0.24 0.24 0.36 0.73 0.71 0.65 0.51 0.50 0.54
0.07 0.20 0.22 0.26 0.20 0.08 0.03 0.01 0.00 0.00 0.00 0.00 0.01 0.00 0.00 0.00 0.00 0.01 0.01 0.02 0.03 0.07 0.18 0.12 0.11 0.11 0.07 0.11 0.17 0.21 0.26 0.31 0.37 0.36 0.31 0.20 0.21 0.24 0.39 0.53 0.57 0.49 0.40 0.44 0.61 0.67 0.63 0.65 0.54
0.09 0.13 0.09 0.39 0.18 0.13 0.01 0.01 0.00 0.00 0.00 0.00 0.00 0.00 0.00 0.00 0.00 0.00 0.01 0.02 0.03 0.03 0.16 0.20 0.13 0.12 0.08 0.11 0.16 0.25 0.38 0.40 0.31 0.35 0.58 0.42 0.37 0.28 0.39 0.50 0.40 0.40 0.37 0.42 0.58 0.64 0.48 0.40 0.40
0.05 0.19 0.29 0.45 0.25 0.16 0.00 0.02 0.03 0.02 0.01 0.00 0.00 0.00 0.00 0.00 0.00 0.00 0.00 0.00 0.01 0.02 0.11 0.16 0.10 0.11 0.10 0.08 0.10 0.15 0.27 0.41 0.48 0.80 1.10 1.22 0.99 0.77 0.49 0.53 0.52 0.39 0.25 0.25 0.28 0.32 0.31 0.31 0.29
0.03 0.25 0.27 0.25 0.14 0.22 0.10 0.14 0.10 0.02 0.01 0.00 0.00 0.00 0.00 0.00 0.00 0.00 0.00 0.01 0.00 0.01 0.05 0.13 0.23 0.23 0.09 0.10 0.20 0.33 0.40 0.58 0.92 0.88 1.17 0.94 0.90 0.96 0.82 0.62 0.63 0.56 0.50 0.46 0.40 0.34 0.29 0.25 0.20
0.03 0.06 0.21 0.43 0.22 0.12 0.19 0.14 0.19 0.07 0.01 0.00 0.00 0.00 0.00 0.00 0.00 0.00 0.00 0.01 0.00 0.00 0.01 0.07 0.29 0.53 0.75 0.69 1.01 0.92 1.05 1.21 1.11 1.38 1.94 1.33 0.98 0.72 0.50 0.36 0.28 0.29 0.34 0.37 0.30 0.24 0.19 0.19 0.19

GFSSGP_prec_precacc_102.txt.gz
Total_Precipitation_Accumulation
0.00 0.00 0.00 0.00 0.00 0.00 0.00 0.00 0.01 0.02 0.05 0.07 0.15 0.17 0.15 0.19 0.41 0.76 0.68 1.22 2.37 1.63 0.97 0.87 0.94 0.30 0.22 0.19 0.12 0.06 0.02 0.01 0.02 0.01 0.00 0.00 0.00 0.00 0.01 0.01 0.03 0.03 0.14 0.07 0.02 0.03 0.07 0.05 0.03
0.00 0.00 0.00 0.00 0.00 0.00 0.00 0.02 0.01 0.06 0.20 0.31 0.32 0.34 0.31 0.36 0.28 0.48 0.66 0.56 0.56 0.41 0.57 0.75 1.19 0.97 0.80 0.62 0.22 0.12 0.08 0.05 0.01 0.02 0.01 0.01 0.01 0.01 0.02 0.01 0.01 0.06 0.14 0.12 0.10 0.10 0.10 0.05 0.02
0.00 0.00 0.00 0.00 0.00 0.00 0.00 0.02 0.02 0.06 0.16 0.17 0.15 0.13 0.26 0.42 0.69 0.83 0.68 0.55 0.58 0.35 0.31 0.76 1.18 1.33 0.83 0.99 0.67 0.43 0.38 0.16 0.07 0.12 0.05 0.02 0.01 0.05 0.12 0.16 0.20 0.27 0.26 0.17 0.18 0.12 0.08 0.03 0.00
0.00 0.00 0.00 0.00 0.00 0.00 0.00 0.02 0.04 0.15 0.14 0.09 0.12 0.20 0.54 0.52 0.96 0.72 0.65 0.83 1.04 1.14 0.91 1.64 2.05 1.48 1.03 0.94 1.15 2.03 1.84 1.26 0.97 0.62 0.39 0.20 0.28 0.39 0.43 0.41 0.38 0.41 0.39 0.23 0.21 0.14 0.06 0.01 0.00
0.00 0.00 0.00 0.00 0.00 0.00 0.01 0.06 0.17 0.20 0.22 0.28 0.12 0.30 0.91 0.46 0.41 0.62 1.19 2.26 3.14 2.76 2.23 2.19 3.00 2.30 1.62 1.11 1.36 2.02 3.37 3.89 3.33 2.30 1.32 1.46 1.57 1.38 1.11 0.70 0.56 0.51 0.51 0.48 0.33 0.21 0.14 0.01 0.00
0.00 0.00 0.00 0.00 0.00 0.00 0.01 0.11 0.30 0.40 0.25 0.32 0.12 0.38 0.91 0.39 0.47 0.72 1.82 2.34 4.04 5.81 6.52 4.51 4.60 5.14 3.94 2.54 1.24 1.45 2.05 3.30 3.36 3.45 3.18 2.92 2.43 1.59 1.23 0.75 0.58 0.53 0.51 0.44 0.43 0.26 0.22 0.07 0.03
0.00 0.00 0.00 0.00 0.00 0.01 0.04 0.13 0.21 0.23 0.19 0.33 0.20 0.49 1.07 0.45 0.44 0.96 1.82 4.35 6.04 6.86 10.03 10.33 6.89 6.24 5.55 6.20 3.91 1.58 1.50 1.65 2.05 2.15 2.12 2.48 2.87 1.94 1.42 0.89 0.66 0.69 0.70 0.37 0.30 0.17 0.20 0.18 0.13
0.00 0.00 0.00 0.00 0.01 0.04 0.08 0.21 0.27 0.14 0.28 0.50 0.20 0.35 1.12 0.58 0.43 0.50 0.85 2.20 6.16 7.50 6.57 6.82 5.47 4.75 4.34 4.46 5.06 3.46 2.30 1.97 1.75 1.67 1.55 1.50 2.06 1.96 1.35 0.84 0.64 0.74 0.67 0.48 0.31 0.27 0.33 0.23 0.14
0.00 0.00 0.00 0.00 0.04 0.12 0.13 0.12 0.09 0.04 0.06 0.24 0.35 0.31 0.37 0.30 0.27 0.29 0.96 1.02 1.92 3.50 3.96 3.54 2.44 1.70 1.94 2.04 2.50 3.09 3.09 2.51 2.53 2.73 1.89 1.39 1.29 1.74 1.35 0.94 0.60 0.62 0.68 0.56 0.42 0.38 0.42 0.29 0.15
0.00 0.00 0.00 0.00 0.02 0.28 0.21 0.26 0.23 0.04 0.07 0.42 0.52 0.57 0.44 0.30 0.28 0.25 0.62 0.77 1.65 2.08 1.80 1.28 0.80 0.43 0.47 0.60 0.76 1.26 2.04 2.39 2.12 3.44 2.33 1.91 1.07 1.14 1.04 1.12 0.74 0.64 0.86 0.62 0.66 0.54 0.41 0.26 0.10
0.00 0.00 0.00 0.00 0.00 0.05 0.09 0.01 0.01 0.04 0.10 0.25 0.36 0.32 0.16 0.20 0.14 0.19 0.33 0.66 1.12 0.85 0.81 0.74 0.52 0.30 0.33 0.26 0.31 0.48 1.12 1.94 2.19 2.31 2.14 2.14 1.17 1.30 1.05 1.13 0.91 0.77 1.17 0.78 0.73 0.57 0.33 0.16 0.09
0.00 0.00 0.00 0.00 0.01 0.00 0.00 0.01 0.00 0.06 0.54 0.42 0.08 0.21 0.13 0.12 0.17 0.24 0.31 0.39 0.48 0.45 0.47 0.32 0.35 0.36 0.51 0.36 0.25 0.30 0.72 1.50 1.71 1.34 1.11 1.48 0.97 0.94 0.97 0.74 0.71 0.62 1.09 0.72 0.49 0.34 0.20 0.14 0.10
0.00 0.00 0.00 0.00 0.02 0.02 0.01 0.01 0.02 0.40 0.85 0.25 0.22 0.18 0.11 0.12 0.16 0.13 0.11 0.17 0.21 0.30 0.41 0.39 0.18 0.25 0.23 0.23 0.24 0.23 0.58 0.81 1.09 0.97 0.38 0.98 0.76 0.54 0.88 0.68 0.64 0.46 0.97 0.55 0.31 0.29 0.21 0.10 0.08
0.00 0.00 0.00 0.02 0.01 0.02 0.01 0.02 0.18 0.31 0.29 0.38 0.32 0.19 0.14 0.09 0.09 0.08 0.04 0.03 0.11 0.26 0.39 0.47 0.41 0.35 0.30 0.23 0.31 0.30 0.46 0.81 0.73 0.88 0.36 0.24 0.36 0.51 0.89 0.80 0.71 0.44 0.64 0.50 0.41 0.24 0.21 0.09 0.05
0.00 0.01 0.01 0.04 0.02 0.01 0.02 0.10 0.20 0.47 0.35 0.20 0.23 0.21 0.21 0.18 0.09 0.04 0.02 0.01 0.02 0.07 0.22 0.62 1.02 0.50 0.34 0.28 0.31 0.34 0.25 0.45 0.67 0.78 0.53 0.22 0.12 0.25 0.45 0.66 0.52 0.49 0.49 0.41 0.54 0.49 0.27 0.10 0.05
0.00 0.00 0.02 0.16 0.03 0.01 0.01 0.20 0.34 0.14 0.15 0.41 0.12 0.15 0.20 0.12 0.04 0.00 0.00 0.00 0.01 0.04 0.12 0.66 1.27 0.93 0.48 0.27 0.32 0.37 0.47 0.44 0.54 0.59 0.55 0.30 0.21 0.18 0.19 0.37 0.62 0.48 0.49 0.32 0.33 0.47 0.32 0.12 0.04
0.00 0.00 0.00 0.01 0.01 0.01 0.01 0.02 0.15 0.11 0.10 0.26 0.08 0.05 0.02 0.02 0.01 0.00 0.00 0.00 0.03 0.04 0.17 0.50 0.80 1.08 0.97 0.76 0.71 0.56 0.47 0.53 0.50 0.41 0.44 0.31 0.26 0.27 0.18 0.26 0.37 0.65 0.42 0.33 0.41 0.36 0.33 0.12 0.03
0.00 0.00 0.00 0.02 0.01 0.00 0.00 0.00 0.01 0.11 0.12 0.09 0.05 0.01 0.01 0.00 0.00 0.00 0.03 0.04 0.06 0.08 0.32 0.58 0.72 1.21 1.58 0.87 0.35 0.41 0.64 0.53 0.48 0.32 0.37 0.44 0.32 0.41 0.35 0.31 0.25 0.32 0.48 0.40 0.47 0.54 0.33 0.17 0.03
0.00 0.00 0.00 0.00 0.01 0.00 0.00 0.00 0.00 0.04 0.15 0.07 0.03 0.01 0.01 0.01 0.00 0.02 0.05 0.06 0.08 0.18 0.42 0.64 1.00 0.97 0.47 0.23 0.14 0.26 0.46 0.59 0.52 0.39 0.30 0.52 0.56 0.53 0.64 0.55 0.58 0.38 0.17 0.34 0.26 0.51 0.44 0.22 0.03
0.00 0.00 0.00 0.00 0.00 0.00 0.00 0.00 0.00 0.00 0.02 0.00 0.00 0.01 0.00 0.01 0.00 0.01 0.04 0.10 0.29 0.44 0.44 0.33 0.15 0.13 0.04 0.06 0.08 0.11 0.21 0.41 0.41 0.34 0.18 0.34 0.58 0.81 0.63 0.57 0.73 0.69 0.35 0.14 0.16 0.29 0.38 0.22 0.04
0.00 0.00 0.00 0.00 0.00 0.01 0.01 0.00 0.00 0.00 0.00 0.00 0.01 0.03 0.01 0.01 0.01 0.04 0.08 0.13 0.11 0.05 0.02 0.06 0.08 0.14 0.05 0.04 0.05 0.09 0.27 0.42 0.34 0.38 0.23 0.22 0.29 0.60 0.81 0.71 0.64 0.71 0.44 0.17 0.09 0.09 0.09 0.07 0.05
0.00 0.00 0.00 0.01 0.03 0.04 0.00 0.01 0.01 0.00 0.00 0.00 0.01 0.02 0.02 0.02 0.03 0.03 0.00 0.00 0.01 0.02 0.03 0.06 0.12 0.15 0.05 0.02 0.03 0.04 0.13 0.23 0.24 0.21 0.18 0.14 0.19 0.28 0.56 0.81 0.67 0.63 0.68 0.48 0.16 0.07 0.06 0.08 0.11
0.00 0.00 0.04 0.04 0.01 0.02 0.01 0.04 0.02 0.01 0.00 0.00 0.00 0.00 0.03 0.01 0.00 0.00 0.01 0.00 0.00 0.04 0.07 0.08 0.12 0.16 0.08 0.02 0.07 0.14 0.16 0.19 0.23 0.19 0.14 0.11 0.11 0.17 0.24 0.46 0.59 0.55 0.50 0.49 0.36 0.26 0.23 0.28 0.36
0.07 0.03 0.07 0.04 0.06 0.09 0.01 0.04 0.03 0.02 0.01 0.02 0.00 0.00 0.09 0.02 0.01 0.02 0.02 0.01 0.01 0.05 0.08 0.10 0.13 0.19 0.10 0.07 0.08 0.14 0.18 0.16 0.15 0.11 0.10 0.07 0.09 0.13 0.15 0.25 0.31 0.44 0.53 0.62 0.70 0.69 0.58 0.43 0.49
0.08 0.18 0.34 0.40 0.23 0.09 0.03 0.03 0.01 0.01 0.01 0.08 0.04 0.00 0.00 0.00 0.01 0.03 0.02 0.01 0.02 0.04 0.08 0.08 0.07 0.10 0.10 0.13 0.07 0.06 0.13 0.16 0.16 0.13 0.17 0.13 0.08 0.09 0.19 0.29 0.27 0.25 0.39 0.78 0.92 0.95 0.73 0.59 0.57
0.07 0.20 0.22 0.26 0.20 0.08 0.03 0.01 0.00 0.00 0.00 0.00 0.01 0.00 0.00 0.00 0.00 0.01 0.01 0.02 0.03 0.07 0.18 0.12 0.11 0.11 0.07 0.12 0.17 0.21 0.26 0.31 0.37 0.36 0.31 0.20 0.21 0.24 0.40 0.56 0.61 0.50 0.42 0.49 0.71 0.85 0.87 0.85 0.72
0.09 0.13 0.09 0.39 0.19 0.13 0.01 0.01 0.00 0.00 0.00 0.00 0.00 0.00 0.00 0.00 0.00 0.00 0.01 0.02 0.03 0.03 0.16 0.20 0.13 0.12 0.08 0.11 0.16 0.25 0.38 0.40 0.31 0.35 0.58 0.42 0.37 0.28 0.40 0.51 0.43 0.42 0.38 0.44 0.61 0.67 0.54 0.48 0.52
0.05 0.19 0.30 0.46 0.27 0.16 0.00 0.02 0.04 0.03 0.02 0.00 0.00 0.00 0.00 0.00 0.00 0.00 0.00 0.00 0.01 0.02 0.11 0.16 0.10 0.11 0.10 0.08 0.10 0.15 0.27 0.41 0.48 0.80 1.10 1.22 0.99 0.77 0.50 0.54 0.53 0.40 0.27 0.26 0.29 0.33 0.34 0.36 0.37
0.03 0.25 0.27 0.25 0.16 0.26 0.13 0.16 0.18 0.06 0.04 0.02 0.00 0.00 0.00 0.01 0.00 0.00 0.00 0.01 0.00 0.01 0.05 0.13 0.24 0.23 0.09 0.11 0.21 0.33 0.40 0.58 0.92 0.88 1.17 0.94 0.90 0.96 0.82 0.62 0.63 0.56 0.50 0.46 0.41 0.34 0.30 0.27 0.22
0.03 0.06 0.21 0.44 0.23 0.15 0.23 0.16 0.20 0.08 0.02 0.01 0.00 0.00 0.01 0.02 0.04 0.02 0.01 0.01 0.00 0.00 0.01 0.08 0.31 0.54 0.75 0.72 1.04 0.93 1.05 1.21 1.11 1.38 1.94 1.33 0.98 0.72 0.50 0.36 0.28 0.30 0.34 0.37 0.30 0.24 0.19 0.19 0.19

GFSSGP_prec_precacc_105.txt.gz
Total_Precipitation_Accumulation
0.00 0.00 0.00 0.00 0.00 0.00 0.00 0.00 0.01 0.02 0.05 0.07 0.15 0.17 0.15 0.19 0.41 0.76 0.68 1.22 2.37 1.63 0.97 0.87 0.94 0.30 0.22 0.19 0.12 0.06 0.02 0.01 0.02 0.01 0.00 0.01 0.00 0.01 0.01 0.01 0.03 0.04 0.15 0.08 0.03 0.04 0.10 0.06 0.04
0.00 0.00 0.00 0.00 0.00 0.00 0.00 0.02 0.01 0.06 0.20 0.31 0.32 0.34 0.31 0.36 0.28 0.48 0.66 0.56 0.56 0.41 0.57 0.75 1.19 0.97 0.80 0.62 0.22 0.12 0.08 0.05 0.01 0.02 0.02 0.02 0.01 0.01 0.04 0.02 0.01 0.11 0.24 0.18 0.16 0.19 0.16 0.06 0.03
0.00 0.00 0.00 0.00 0.00 0.00 0.00 0.02 0.02 0.06 0.16 0.17 0.15 0.13 0.26 0.42 0.69 0.83 0.68 0.55 0.58 0.35 0.31 0.76 1.18 1.33 0.83 0.99 0.67 0.43 0.38 0.16 0.07 0.12 0.05 0.02 0.02 0.13 0.24 0.21 0.21 0.37 0.41 0.37 0.36 0.26 0.15 0.05 0.00
0.00 0.00 0.00 0.00 0.00 0.00 0.00 0.02 0.04 0.15 0.14 0.09 0.12 0.20 0.54 0.52 0.96 0.72 0.65 0.83 1.04 1.14 0.91 1.64 2.05 1.48 1.03 0.94 1.15 2.03 1.84 1.26 0.97 0.62 0.39 0.20 0.33 0.48 0.47 0.45 0.43 0.47 0.54 0.39 0.36 0.38 0.20 0.02 0.00
0.00 0.00 0.00 0.00 0.00 0.00 0.01 0.06 0.17 0.20 0.22 0.28 0.12 0.30 0.91 0.46 0.41 0.62 1.19 2.26 3.14 2.76 2.23 2.19 3.00 2.30 1.62 1.11 1.36 2.02 3.37 3.89 3.34 2.31 1.32 1.53 1.73 1.40 1.11 0.70 0.56 0.51 0.52 0.54 0.43 0.30 0.20 0.07 0.03
0.00 0.00 0.00 0.00 0.00 0.00 0.01 0.11 0.30 0.40 0.25 0.32 0.12 0.38 0.91 0.39 0.47 0.72 1.82 2.34 4.04 5.81 6.52 4.51 4.60 5.14 3.94 2.54 1.24 1.45 2.05 3.30 3.36 3.47 3.29 3.10 2.50 1.59 1.23 0.75 0.58 0.53 0.51 0.44 0.46 0.32 0.29 0.14 0.23
0.00 0.00 0.00 0.00 0.00 0.01 0.04 0.13 0.21 0.23 0.19 0.33 0.20 0.49 1.07 0.45 0.44 0.96 1.82 4.35 6.04 6.86 10.03 10.33 6.89 6.24 5.55 6.20 3.91 1.58 1.50 1.65 2.05 2.17 2.15 2.50 2.88 1.94 1.42 0.89 0.66 0.69 0.70 0.37 0.32 0.21 0.27 0.30 0.28
0.00 0.00 0.00 0.00 0.01 0.04 0.08 0.21 0.27 0.14 0.28 0.50 0.20 0.35 1.12 0.58 0.43 0.50 0.85 2.20 6.16 7.50 6.57 6.82 5.47 4.75 4.34 4.46 5.06 3.46 2.30 1.97 1.75 1.69 1.56 1.50 2.07 1.96 1.35 0.84 0.64 0.74 0.67 0.48 0.34 0.40 0.53 0.45 0.27
0.00 0.00 0.00 0.00 0.04 0.12 0.13 0.12 0.09 0.04 0.06 0.24 0.35 0.31 0.37 0.30 0.27 0.29 0.96 1.02 1.92 3.50 3.96 3.54 2.44 1.70 1.94 2.04 2.50 3.09 3.09 2.51 2.53 2.74 1.90 1.42 1.36 1.80 1.36 0.94 0.60 0.63 0.69 0.58 0.46 0.53 0.62 0.46 0.31
0.00 0.00 0.00 0.00 0.02 0.28 0.21 0.26 0.23 0.04 0.07 0.42 0.52 0.57 0.44 0.30 0.28 0.25 0.62 0.77 1.65 2.08 1.80 1.28 0.80 0.43 0.47 0.60 0.76 1.27 2.04 2.40 2.14 3.45 2.34 1.93 1.09 1.19 1.07 1.13 0.76 0.68 0.88 0.65 0.70 0.59 0.46 0.35 0.24
0.00 0.00 0.00 0.00 0.00 0.05 0.09 0.01 0.01 0.04 0.10 0.25 0.36 0.32 0.16 0.20 0.14 0.19 0.33 0.66 1.12 0.85 0.81 0.74 0.52 0.30 0.33 0.26 0.31 0.49 1.13 1.96 2.22 2.38 2.21 2.21 1.25 1.37 1.08 1.18 0.93 0.80 1.21 0.80 0.76 0.59 0.42 0.26 0.23
0.00 0.00 0.00 0.00 0.01 0.00 0.00 0.01 0.00 0.06 0.54 0.42 0.08 0.21 0.13 0.12 0.17 0.24 0.31 0.39 0.48 0.45 0.47 0.32 0.35 0.36 0.51 0.36 0.25 0.30 0.72 1.51 1.72 1.37 1.15 1.54 1.04 1.02 1.02 0.79 0.75 0.65 1.12 0.74 0.54 0.37 0.31 0.31 0.29
0.00 0.00 0.00 0.00 0.02 0.02 0.01 0.01 0.02 0.40 0.85 0.25 0.22 0.18 0.11 0.12 0.16 0.13 0.11 0.17 0.21 0.30 0.41 0.39 0.18 0.25 0.23 0.23 0.24 0.23 0.58 0.82 1.10 0.98 0.39 1.00 0.80 0.57 0.90 0.71 0.66 0.48 1.02 0.61 0.34 0.39 0.31 0.32 0.30
0.00 0.00 0.00 0.02 0.01 0.02 0.01 0.02 0.18 0.31 0.29 0.38 0.32 0.19 0.14 0.09 0.09 0.08 0.04 0.03 0.11 0.26 0.39 0.47 0.41 0.35 0.30 0.23 0.31 0.30 0.46 0.82 0.74 0.89 0.37 0.25 0.39 0.53 0.90 0.81 0.71 0.46 0.71 0.58 0.47 0.31 0.39 0.35 0.44
0.00 0.01 0.01 0.04 0.02 0.01 0.02 0.10 0.20 0.47 0.35 0.20 0.23 0.21 0.21 0.18 0.09 0.04 0.02 0.01 0.02 0.07 0.22 0.62 1.02 0.50 0.34 0.28 0.31 0.34 0.25 0.45 0.67 0.78 0.53 0.23 0.12 0.28 0.48 0.69 0.54 0.52 0.59 0.48 0.61 0.56 0.44 0.42 0.50
0.00 0.00 0.02 0.16 0.03 0.01 0.01 0.20 0.34 0.14 0.15 0.41 0.12 0.15 0.20 0.12 0.04 0.00 0.00 0.00 0.01 0.04 0.12 0.66 1.27 0.93 0.48 0.27 0.32 0.37 0.47 0.44 0.54 0.60 0.56 0.30 0.21 0.21 0.24 0.41 0.66 0.52 0.57 0.35 0.40 0.65 0.48 0.37 0.33
0.00 0.00 0.00 0.01 0.01 0.01 0.01 0.02 0.15 0.11 0.10 0.26 0.08 0.05 0.02 0.02 0.01 0.00 0.00 0.00 0.03 0.04 0.17 0.50 0.80 1.08 0.97 0.76 0.71 0.56 0.47 0.53 0.50 0.41 0.45 0.31 0.26 0.28 0.21 0.29 0.39 0.67 0.44 0.35 0.45 0.55 0.60 0.34 0.26
0.00 0.00 0.00 0.02 0.01 0.00 0.00 0.00 0.01 0.11 0.12 0.09 0.05 0.01 0.01 0.00 0.00 0.00 0.03 0.04 0.06 0.08 0.32 0.58 0.72 1.21 1.58 0.87 0.35 0.41 0.64 0.53 0.48 0.32 0.37 0.45 0.32 0.43 0.39 0.35 0.26 0.32 0.49 0.43 0.58 0.69 0.62 0.43 0.22
0.00 0.00 0.00 0.00 0.01 0.00 0.00 0.00 0.00 0.04 0.15 0.07 0.03 0.01 0.01 0.01 0.00 0.02 0.05 0.06 0.08 0.18 0.42 0.64 1.00 0.97 0.47 0.23 0.14 0.26 0.46 0.59 0.53 0.39 0.30 0.52 0.56 0.55 0.68 0.61 0.58 0.38 0.18 0.38 0.47 0.81 0.78 0.52 0.26
0.00 0.00 0.00 0.00 0.00 0.00 0.00 0.00 0.00 0.00 0.02 0.00 0.00 0.01 0.00 0.01 0.00 0.01 0.04 0.10 0.29 0.44 0.44 0.33 0.15 0.13 0.04 0.06 0.08 0.11 0.21 0.41 0.41 0.34 0.18 0.34 0.58 0.82 0.67 0.59 0.74 0.69 0.36 0.16 0.29 0.58 0.88 0.62 0.22
0.00 0.00 0.00 0.00 0.00 0.01 0.01 0.00 0.00 0.00 0.00 0.00 0.01 0.03 0.01 0.01 0.01 0.04 0.08 0.13 0.11 0.05 0.02 0.06 0.08 0.14 0.05 0.04 0.05 0.09 0.27 0.43 0.34 0.38 0.24 0.22 0.30 0.62 0.84 0.73 0.65 0.71 0.45 0.19 0.12 0.22 0.50 0.37 0.18
0.00 0.00 0.00 0.01 0.03 0.04 0.00 0.01 0.01 0.00 0.00 0.00 0.01 0.02 0.02 0.02 0.03 0.03 0.00 0.00 0.01 0.02 0.03 0.06 0.12 0.15 0.05 0.02 0.03 0.04 0.13 0.23 0.24 0.22 0.18 0.14 0.19 0.29 0.58 0.82 0.69 0.64 0.71 0.50 0.18 0.09 0.25 0.31 0.18
0.00 0.00 0.04 0.04 0.01 0.02 0.01 0.04 0.02 0.01 0.00 0.00 0.00 0.00 0.03 0.01 0.00 0.00 0.01 0.00 0.00 0.04 0.07 0.08 0.12 0.16 0.08 0.02 0.07 0.14 0.16 0.19 0.23 0.19 0.14 0.11 0.12 0.17 0.26 0.48 0.61 0.57 0.51 0.53 0.43 0.27 0.26 0.37 0.42
0.07 0.03 0.07 0.04 0.06 0.09 0.01 0.04 0.03 0.02 0.01 0.02 0.00 0.00 0.09 0.02 0.01 0.02 0.02 0.01 0.01 0.05 0.08 0.10 0.13 0.19 0.10 0.07 0.08 0.14 0.18 0.16 0.15 0.11 0.10 0.07 0.09 0.13 0.16 0.28 0.35 0.47 0.55 0.66 0.73 0.71 0.59 0.43 0.50
0.08 0.18 0.34 0.40 0.23 0.09 0.03 0.03 0.01 0.01 0.01 0.08 0.04 0.00 0.00 0.00 0.01 0.03 0.02 0.01 0.02 0.04 0.08 0.08 0.07 0.10 0.10 0.13 0.07 0.06 0.13 0.16 0.16 0.13 0.17 0.13 0.08 0.09 0.19 0.31 0.30 0.27 0.42 0.79 0.98 1.08 0.80 0.61 0.58
0.07 0.20 0.23 0.26 0.20 0.08 0.03 0.01 0.00 0.00 0.00 0.00 0.01 0.00 0.00 0.00 0.00 0.01 0.01 0.02 0.03 0.07 0.18 0.12 0.11 0.11 0.07 0.12 0.17 0.21 0.26 0.31 0.37 0.36 0.31 0.20 0.21 0.24 0.40 0.56 0.63 0.51 0.42 0.50 0.71 0.90 0.97 1.01 0.78
0.10 0.14 0.09 0.40 0.19 0.14 0.01 0.01 0.00 0.00 0.00 0.00 0.00 0.00 0.00 0.00 0.00 0.00 0.01 0.02 0.03 0.03 0.16 0.20 0.13 0.12 0.08 0.11 0.16 0.25 0.38 0.40 0.31 0.35 0.58 0.42 0.37 0.28 0.40 0.51 0.45 0.44 0.38 0.44 0.61 0.69 0.60 0.65 0.73
0.05 0.19 0.30 0.46 0.27 0.16 0.00 0.02 0.07 0.05 0.02 0.00 0.00 0.00 0.00 0.00 0.00 0.00 0.00 0.00 0.01 0.02 0.11 0.16 0.10 0.11 0.10 0.08 0.11 0.15 0.27 0.41 0.48 0.80 1.10 1.22 0.99 0.77 0.50 0.54 0.54 0.41 0.27 0.27 0.30 0.34 0.35 0.38 0.42
0.03 0.27 0.29 0.27 0.16 0.27 0.13 0.22 0.21 0.06 0.04 0.02 0.00 0.00 0.00 0.01 0.00 0.00 0.00 0.01 0.00 0.01 0.05 0.13 0.24 0.23 0.09 0.11 0.21 0.33 0.40 0.58 0.92 0.88 1.17 0.94 0.90 0.96 0.82 0.63 0.64 0.56 0.50 0.47 0.41 0.35 0.30 0.28 0.24
0.03 0.06 0.21 0.45 0.25 0.15 0.23 0.20 0.21 0.08 0.02 0.01 0.00 0.00 0.01 0.02 0.04 0.02 0.02 0.02 0.01 0.01 0.02 0.08 0.31 0.54 0.75 0.72 1.04 0.93 1.05 1.21 1.11 1.38 1.94 1.33 0.98 0.72 0.50 0.36 0.29 0.30 0.34 0.37 0.31 0.24 0.20 0.20 0.20

GFSSGP_prec_precacc_108.txt.gz
Total_Precipitation_Accumulation
0.00 0.00 0.00 0.00 0.00 0.00 0.00 0.00 0.01 0.02 0.05 0.07 0.15 0.17 0.15 0.19 0.41 0.76 0.68 1.22 2.37 1.63 0.97 0.87 0.94 0.30 0.22 0.19 0.12 0.06 0.02 0.01 0.02 0.01 0.00 0.01 0.01 0.01 0.02 0.01 0.03 0.06 0.26 0.17 0.04 0.04 0.11 0.07 0.05
0.00 0.00 0.00 0.00 0.00 0.00 0.00 0.02 0.01 0.06 0.20 0.31 0.32 0.34 0.31 0.36 0.28 0.48 0.66 0.56 0.56 0.41 0.57 0.75 1.19 0.97 0.80 0.62 0.22 0.12 0.08 0.05 0.01 0.02 0.02 0.02 0.01 0.03 0.07 0.02 0.01 0.15 0.30 0.29 0.27 0.25 0.17 0.07 0.03
0.00 0.00 0.00 0.00 0.00 0.00 0.00 0.02 0.02 0.06 0.16 0.17 0.15 0.13 0.26 0.42 0.69 0.83 0.68 0.55 0.58 0.35 0.31 0.76 1.18 1.33 0.83 0.99 0.67 0.43 0.38 0.16 0.07 0.12 0.05 0.03 0.05 0.19 0.27 0.22 0.21 0.37 0.43 0.41 0.44 0.41 0.29 0.08 0.00
0.00 0.00 0.00 0.00 0.00 0.00 0.00 0.02 0.04 0.15 0.14 0.09 0.12 0.20 0.54 0.52 0.96 0.72 0.65 0.83 1.04 1.14 0.91 1.64 2.05 1.48 1.03 0.94 1.15 2.03 1.84 1.26 0.97 0.62 0.39 0.21 0.36 0.50 0.49 0.46 0.43 0.47 0.54 0.39 0.37 0.40 0.23 0.02 0.00
0.00 0.00 0.00 0.00 0.00 0.00 0.01 0.06 0.17 0.20 0.22 0.28 0.12 0.30 0.91 0.46 0.41 0.62 1.19 2.26 3.14 2.76 2.23 2.19 3.00 2.30 1.62 1.11 1.36 2.02 3.37 3.89 3.34 2.31 1.32 1.53 1.73 1.40 1.11 0.70 0.56 0.51 0.52 0.54 0.44 0.31 0.20 0.07 0.03
0.00 0.00 0.00 0.00 0.00 0.00 0.01 0.11 0.30 0.40 0.25 0.32 0.12 0.38 0.91 0.39 0.47 0.72 1.82 2.34 4.04 5.81 6.52 4.51 4.60 5.14 3.94 2.54 1.24 1.45 2.05 3.30 3.37 3.48 3.31 3.14 2.50 1.59 1.23 0.75 0.58 0.53 0.51 0.44 0.46 0.32 0.29 0.16 0.26
0.00 0.00 0.00 0.00 0.00 0.01 0.04 0.13 0.21 0.23 0.19 0.33 0.20 0.49 1.07 0.45 0.44 0.96 1.82 4.35 6.04 6.86 10.03 10.33 6.89 6.24 5.55 6.20 3.91 1.58 1.50 1.65 2.05 2.18 2.16 2.52 2.89 1.95 1.42 0.89 0.66 0.69 0.70 0.37 0.32 0.25 0.35 0.48 0.44
0.00 0.00 0.00 0.00 0.01 0.04 0.08 0.21 0.27 0.14 0.28 0.50 0.20 0.35 1.12 0.58 0.43 0.50 0.85 2.20 6.16 7.50 6.57 6.82 5.47 4.75 4.34 4.46 5.06 3.46 2.30 1.97 1.75 1.69 1.58 1.51 2.07 1.97 1.35 0.84 0.64 0.74 0.67 0.48 0.37 0.47 0.60 0.53 0.42
0.00 0.00 0.00 0.00 0.04 0.12 0.13 0.12 0.09 0.04 0.06 0.24 0.35 0.31 0.37 0.30 0.27 0.29 0.96 1.02 1.92 3.50 3.96 3.54 2.44 1.70 1.94 2.04 2.50 3.09 3.09 2.51 2.53 2.74 1.90 1.43 1.38 1.81 1.37 0.94 0.60 0.63 0.69 0.58 0.48 0.60 0.63 0.50 0.40
0.00 0.00 0.00 0.00 0.02 0.28 0.21 0.26 0.23 0.04 0.07 0.42 0.52 0.57 0.44 0.30 0.28 0.25 0.62 0.77 1.65 2.08 1.80 1.28 0.80 0.43 0.47 0.60 0.76 1.27 2.04 2.40 2.14 3.45 2.34 1.94 1.11 1.21 1.08 1.16 0.77 0.68 0.89 0.65 0.73 0.60 0.46 0.36 0.25
0.00 0.00 0.00 0.00 0.00 0.05 0.09 0.01 0.01 0.04 0.10 0.25 0.36 0.32 0.16 0.20 0.14 0.19 0.33 0.66 1.12 0.85 0.81 0.74 0.52 0.30 0.33 0.26 0.31 0.49 1.13 1.96 2.22 2.39 2.24 2.24 1.28 1.40 1.13 1.26 0.97 0.80 1.22 0.84 0.79 0.59 0.42 0.26 0.24
0.00 0.00 0.00 0.00 0.01 0.00 0.00 0.01 0.00 0.06 0.54 0.42 0.08 0.21 0.13 0.12 0.17 0.24 0.31 0.39 0.48 0.45 0.47 0.32 0.35 0.36 0.51 0.36 0.25 0.30 0.72 1.51 1.73 1.38 1.17 1.56 1.07 1.05 1.08 0.84 0.78 0.67 1.13 0.78 0.55 0.38 0.31 0.32 0.34
0.00 0.00 0.00 0.00 0.02 0.02 0.01 0.01 0.02 0.40 0.85 0.25 0.22 0.18 0.11 0.12 0.16 0.13 0.11 0.17 0.21 0.30 0.41 0.39 0.18 0.25 0.23 0.23 0.24 0.23 0.58 0.82 1.10 0.99 0.40 1.02 0.83 0.60 0.95 0.75 0.70 0.51 1.07 0.65 0.37 0.41 0.31 0.34 0.35
0.00 0.00 0.00 0.02 0.01 0.02 0.01 0.02 0.18 0.31 0.29 0.38 0.32 0.19 0.14 0.09 0.09 0.08 0.04 0.03 0.11 0.26 0.39 0.47 0.41 0.35 0.30 0.23 0.31 0.30 0.46 0.82 0.74 0.89 0.38 0.26 0.41 0.57 0.96 0.86 0.74 0.47 0.73 0.61 0.52 0.33 0.39 0.37 0.48
0.00 0.01 0.01 0.04 0.02 0.01 0.02 0.10 0.20 0.47 0.35 0.20 0.23 0.21 0.21 0.18 0.09 0.04 0.02 0.01 0.02 0.07 0.22 0.62 1.02 0.50 0.34 0.28 0.31 0.34 0.25 0.45 0.67 0.78 0.54 0.23 0.13 0.30 0.52 0.71 0.55 0.53 0.61 0.52 0.69 0.62 0.46 0.47 0.72
0.00 0.00 0.02 0.16 0.03 0.01 0.01 0.20 0.34 0.14 0.15 0.41 0.12 0.15 0.20 0.12 0.04 0.00 0.00 0.00 0.01 0.04 0.12 0.66 1.27 0.93 0.48 0.27 0.32 0.37 0.47 0.44 0.54 0.60 0.56 0.30 0.22 0.21 0.26 0.44 0.68 0.54 0.60 0.40 0.44 0.68 0.50 0.45 0.63
0.00 0.00 0.00 0.01 0.01 0.01 0.01 0.02 0.15 0.11 0.10 0.26 0.08 0.05 0.02 0.02 0.01 0.00 0.00 0.00 0.03 0.04 0.17 0.50 0.80 1.08 0.97 0.76 0.71 0.56 0.47 0.53 0.50 0.41 0.45 0.31 0.26 0.29 0.22 0.30 0.41 0.70 0.47 0.36 0.46 0.55 0.60 0.40 0.50
0.00 0.00 0.00 0.02 0.01 0.00 0.00 0.00 0.01 0.11 0.12 0.09 0.05 0.01 0.01 0.00 0.00 0.00 0.03 0.04 0.06 0.08 0.32 0.58 0.72 1.21 1.58 0.87 0.35 0.41 0.64 0.53 0.48 0.32 0.37 0.45 0.33 0.43 0.39 0.36 0.28 0.35 0.51 0.43 0.58 0.70 0.65 0.53 0.43
0.00 0.00 0.00 0.00 0.01 0.00 0.00 0.00 0.00 0.04 0.15 0.07 0.03 0.01 0.01 0.01 0.00 0.02 0.05 0.06 0.08 0.18 0.42 0.64 1.00 0.97 0.47 0.23 0.14 0.26 0.46 0.59 0.53 0.39 0.30 0.52 0.57 0.55 0.69 0.63 0.60 0.39 0.18 0.38 0.47 0.82 0.86 0.73 0.50
0.00 0.00 0.00 0.00 0.00 0.00 0.00 0.00 0.00 0.00 0.02 0.00 0.00 0.01 0.00 0.01 0.00 0.01 0.04 0.10 0.29 0.44 0.44 0.33 0.15 0.13 0.04 0.06 0.08 0.11 0.21 0.41 0.41 0.34 0.18 0.34 0.59 0.83 0.69 0.61 0.74 0.69 0.36 0.16 0.29 0.61 1.04 0.91 0.55
0.00 0.00 0.00 0.00 0.00 0.01 0.01 0.00 0.00 0.00 0.00 0.00 0.01 0.03 0.01 0.01 0.01 0.04 0.08 0.13 0.11 0.05 0.02 0.06 0.08 0.14 0.05 0.04 0.05 0.09 0.27 0.43 0.34 0.38 0.24 0.22 0.30 0.63 0.85 0.75 0.65 0.71 0.45 0.19 0.12 0.23 0.66 0.67 0.57
0.00 0.00 0.00 0.01 0.03 0.04 0.00 0.01 0.01 0.00 0.00 0.00 0.01 0.02 0.02 0.02 0.03 0.03 0.00 0.00 0.01 0.02 0.03 0.06 0.12 0.15 0.05 0.02 0.03 0.04 0.13 0.23 0.24 0.22 0.18 0.14 0.19 0.30 0.59 0.84 0.69 0.64 0.71 0.50 0.18 0.10 0.31 0.55 0.43
0.00 0.00 0.04 0.04 0.01 0.02 0.01 0.04 0.02 0.01 0.00 0.00 0.00 0.00 0.03 0.01 0.00 0.00 0.01 0.00 0.00 0.04 0.07 0.08 0.12 0.16 0.08 0.02 0.07 0.14 0.16 0.19 0.23 0.19 0.14 0.11 0.12 0.17 0.27 0.49 0.61 0.57 0.51 0.53 0.43 0.27 0.28 0.51 0.61
0.07 0.03 0.07 0.04 0.06 0.09 0.01 0.04 0.03 0.02 0.01 0.02 0.00 0.00 0.09 0.02 0.01 0.02 0.02 0.01 0.01 0.05 0.08 0.10 0.13 0.19 0.10 0.07 0.08 0.14 0.18 0.16 0.15 0.11 0.10 0.07 0.09 0.13 0.16 0.29 0.35 0.47 0.55 0.66 0.73 0.71 0.59 0.46 0.59
0.08 0.19 0.36 0.43 0.24 0.09 0.03 0.03 0.01 0.01 0.01 0.08 0.04 0.00 0.00 0.00 0.01 0.03 0.02 0.01 0.02 0.04 0.08 0.08 0.07 0.10 0.10 0.13 0.07 0.06 0.13 0.16 0.16 0.13 0.17 0.13 0.08 0.09 0.20 0.32 0.31 0.28 0.42 0.80 0.98 1.09 0.80 0.61 0.60
0.07 0.20 0.26 0.29 0.20 0.08 0.03 0.01 0.00 0.00 0.00 0.00 0.01 0.00 0.00 0.00 0.00 0.01 0.01 0.02 0.03 0.07 0.18 0.12 0.11 0.11 0.07 0.12 0.17 0.21 0.26 0.31 0.37 0.36 0.31 0.20 0.21 0.24 0.40 0.57 0.65 0.52 0.42 0.50 0.72 0.91 0.99 1.04 0.81
0.11 0.15 0.10 0.43 0.22 0.18 0.03 0.03 0.02 0.00 0.00 0.00 0.00 0.00 0.00 0.00 0.00 0.00 0.01 0.02 0.03 0.03 0.16 0.20 0.13 0.12 0.08 0.11 0.16 0.25 0.38 0.40 0.31 0.35 0.58 0.42 0.37 0.28 0.40 0.51 0.46 0.46 0.39 0.44 0.62 0.69 0.61 0.67 0.78
0.09 0.20 0.32 0.49 0.36 0.23 0.02 0.06 0.20 0.14 0.04 0.01 0.00 0.00 0.00 0.00 0.00 0.00 0.00 0.00 0.01 0.02 0.11 0.16 0.10 0.11 0.10 0.08 0.11 0.16 0.27 0.42 0.48 0.80 1.10 1.22 0.99 0.77 0.50 0.54 0.55 0.43 0.28 0.27 0.30 0.34 0.35 0.41 0.49
0.15 0.33 0.32 0.29 0.18 0.31 0.16 0.36 0.29 0.11 0.07 0.03 0.00 0.00 0.00 0.01 0.00 0.00 0.00 0.01 0.00 0.01 0.06 0.15 0.24 0.23 0.09 0.11 0.23 0.34 0.40 0.59 0.92 0.88 1.17 0.94 0.90 0.96 0.82 0.63 0.64 0.57 0.51 0.47 0.42 0.35 0.30 0.29 0.25
0.05 0.09 0.23 0.48 0.27 0.16 0.29 0.55 0.31 0.13 0.04 0.01 0.00 0.00 0.01 0.02 0.04 0.02 0.02 0.02 0.01 0.01 0.05 0.13 0.32 0.56 0.76 0.74 1.07 0.93 1.06 1.22 1.12 1.39 1.94 1.33 0.98 0.72 0.50 0.36 0.29 0.30 0.34 0.37 0.31 0.24 0.20 0.20 0.20

GFSSGP_prec_precacc_111.txt.gz
Total_Precipitation_Accumulation
0.00 0.00 0.00 0.00 0.00 0.00 0.00 0.00 0.01 0.02 0.05 0.07 0.15 0.17 0.15 0.19 0.41 0.76 0.68 1.22 2.37 1.63 0.97 0.87 0.94 0.30 0.22 0.19 0.12 0.06 0.02 0.01 0.02 0.01 0.00 0.01 0.01 0.01 0.02 0.01 0.03 0.06 0.26 0.23 0.04 0.05 0.12 0.07 0.05
0.00 0.00 0.00 0.00 0.00 0.00 0.00 0.02 0.01 0.06 0.20 0.31 0.32 0.34 0.31 0.36 0.28 0.48 0.66 0.56 0.56 0.41 0.57 0.75 1.19 0.97 0.80 0.62 0.22 0.12 0.08 0.05 0.01 0.02 0.02 0.02 0.01 0.03 0.07 0.02 0.01 0.15 0.30 0.30 0.29 0.26 0.17 0.07 0.03
0.00 0.00 0.00 0.00 0.00 0.00 0.00 0.02 0.02 0.06 0.16 0.17 0.15 0.13 0.26 0.42 0.69 0.83 0.68 0.55 0.58 0.35 0.31 0.76 1.18 1.33 0.83 0.99 0.67 0.43 0.38 0.16 0.07 0.12 0.05 0.03 0.05 0.19 0.27 0.22 0.21 0.37 0.43 0.41 0.44 0.41 0.29 0.08 0.00
0.00 0.00 0.00 0.00 0.00 0.00 0.00 0.02 0.04 0.15 0.14 0.09 0.12 0.20 0.54 0.52 0.96 0.72 0.65 0.83 1.04 1.14 0.91 1.64 2.05 1.48 1.03 0.94 1.15 2.03 1.84 1.26 0.97 0.62 0.39 0.21 0.37 0.50 0.49 0.46 0.43 0.47 0.54 0.39 0.37 0.42 0.23 0.02 0.00
0.00 0.00 0.00 0.00 0.00 0.00 0.01 0.06 0.17 0.20 0.22 0.28 0.12 0.30 0.91 0.46 0.41 0.62 1.19 2.26 3.14 2.76 2.23 2.19 3.00 2.30 1.62 1.11 1.36 2.02 3.37 3.89 3.34 2.31 1.32 1.53 1.73 1.40 1.11 0.70 0.56 0.51 0.52 0.54 0.44 0.31 0.20 0.07 0.03
0.00 0.00 0.00 0.00 0.00 0.00 0.01 0.11 0.30 0.40 0.25 0.32 0.12 0.38 0.91 0.39 0.47 0.72 1.82 2.34 4.04 5.81 6.52 4.51 4.60 5.14 3.94 2.54 1.24 1.45 2.05 3.30 3.37 3.48 3.31 3.14 2.51 1.60 1.23 0.75 0.58 0.53 0.51 0.44 0.46 0.32 0.29 0.17 0.27
0.00 0.00 0.00 0.00 0.00 0.01 0.04 0.13 0.21 0.23 0.19 0.33 0.20 0.49 1.07 0.45 0.44 0.96 1.82 4.35 6.04 6.86 10.03 10.33 6.89 6.24 5.55 6.20 3.91 1.58 1.50 1.65 2.05 2.18 2.17 2.52 2.89 1.96 1.43 0.90 0.66 0.69 0.70 0.37 0.34 0.29 0.39 0.57 0.53
0.00 0.00 0.00 0.00 0.01 0.04 0.08 0.21 0.27 0.14 0.28 0.50 0.20 0.35 1.12 0.58 0.43 0.50 0.85 2.20 6.16 7.50 6.57 6.82 5.47 4.75 4.34 4.46 5.06 3.46 2.30 1.97 1.75 1.69 1.58 1.51 2.07 1.98 1.37 0.86 0.64 0.74 0.67 0.48 0.39 0.48 0.62 0.55 0.42
0.00 0.00 0.00 0.00 0.04 0.12 0.13 0.12 0.09 0.04 0.06 0.24 0.35 0.31 0.37 0.30 0.27 0.29 0.96 1.02 1.92 3.50 3.96 3.54 2.44 1.70 1.94 2.04 2.50 3.09 3.09 2.51 2.53 2.74 1.90 1.43 1.38 1.81 1.37 0.94 0.60 0.65 0.69 0.59 0.49 0.60 0.63 0.50 0.40
0.00 0.00 0.00 0.00 0.02 0.28 0.21 0.26 0.23 0.04 0.07 0.42 0.52 0.57 0.44 0.30 0.28 0.25 0.62 0.77 1.65 2.08 1.80 1.28 0.80 0.43 0.47 0.60 0.76 1.27 2.04 2.40 2.14 3.45 2.34 1.94 1.11 1.21 1.08 1.16 0.77 0.68 0.89 0.65 0.74 0.60 0.46 0.36 0.25
0.00 0.00 0.00 0.00 0.00 0.05 0.09 0.01 0.01 0.04 0.10 0.25 0.36 0.32 0.16 0.20 0.14 0.19 0.33 0.66 1.12 0.85 0.81 0.74 0.52 0.30 0.33 0.26 0.31 0.49 1.13 1.96 2.22 2.39 2.24 2.24 1.28 1.40 1.13 1.29 1.00 0.81 1.23 0.84 0.79 0.59 0.42 0.26 0.24
0.00 0.00 0.00 0.00 0.01 0.00 0.00 0.01 0.00 0.06 0.54 0.42 0.08 0.21 0.13 0.12 0.17 0.24 0.31 0.39 0.48 0.45 0.47 0.32 0.35 0.36 0.51 0.36 0.25 0.30 0.72 1.51 1.73 1.38 1.17 1.56 1.07 1.05 1.08 0.85 0.87 0.68 1.14 0.80 0.55 0.38 0.31 0.32 0.34
0.00 0.00 0.00 0.00 0.02 0.02 0.01 0.01 0.02 0.40 0.85 0.25 0.22 0.18 0.11 0.12 0.16 0.13 0.11 0.17 0.21 0.30 0.41 0.39 0.18 0.25 0.23 0.23 0.24 0.23 0.58 0.82 1.10 0.99 0.40 1.02 0.83 0.60 0.96 0.77 0.74 0.55 1.10 0.66 0.37 0.41 0.31 0.34 0.35
0.00 0.00 0.00 0.02 0.01 0.02 0.01 0.02 0.18 0.31 0.29 0.38 0.32 0.19 0.14 0.09 0.09 0.08 0.04 0.03 0.11 0.26 0.39 0.47 0.41 0.35 0.30 0.23 0.31 0.30 0.46 0.82 0.74 0.89 0.38 0.26 0.41 0.57 0.96 0.88 0.75 0.50 0.74 0.63 0.52 0.33 0.39 0.37 0.48
0.00 0.01 0.01 0.04 0.02 0.01 0.02 0.10 0.20 0.47 0.35 0.20 0.23 0.21 0.21 0.18 0.09 0.04 0.02 0.01 0.02 0.07 0.22 0.62 1.02 0.50 0.34 0.28 0.31 0.34 0.25 0.45 0.67 0.78 0.54 0.23 0.13 0.30 0.52 0.72 0.56 0.54 0.62 0.53 0.69 0.62 0.46 0.47 0.73
0.00 0.00 0.02 0.16 0.03 0.01 0.01 0.20 0.34 0.14 0.15 0.41 0.12 0.15 0.20 0.12 0.04 0.00 0.00 0.00 0.01 0.04 0.12 0.66 1.27 0.93 0.48 0.27 0.32 0.37 0.47 0.44 0.54 0.60 0.56 0.30 0.22 0.21 0.26 0.44 0.68 0.54 0.61 0.43 0.46 0.69 0.50 0.45 0.65
0.00 0.00 0.00 0.01 0.01 0.01 0.01 0.02 0.15 0.11 0.10 0.26 0.08 0.05 0.02 0.02 0.01 0.00 0.00 0.00 0.03 0.04 0.17 0.50 0.80 1.08 0.97 0.76 0.71 0.56 0.47 0.53 0.50 0.41 0.45 0.31 0.26 0.29 0.22 0.30 0.41 0.71 0.47 0.37 0.48 0.57 0.60 0.41 0.51
0.00 0.00 0.00 0.02 0.01 0.00 0.00 0.00 0.01 0.11 0.12 0.09 0.05 0.01 0.01 0.00 0.00 0.00 0.03 0.04 0.06 0.08 0.32 0.58 0.72 1.21 1.58 0.87 0.35 0.41 0.64 0.53 0.48 0.32 0.37 0.45 0.33 0.43 0.39 0.36 0.28 0.36 0.52 0.44 0.59 0.70 0.65 0.53 0.43
0.00 0.00 0.00 0.00 0.01 0.00 0.00 0.00 0.00 0.04 0.15 0.07 0.03 0.01 0.01 0.01 0.00 0.02 0.05 0.06 0.08 0.18 0.42 0.64 1.00 0.97 0.47 0.23 0.14 0.26 0.46 0.59 0.53 0.39 0.30 0.52 0.57 0.55 0.69 0.63 0.60 0.39 0.18 0.39 0.47 0.82 0.87 0.74 0.52
0.00 0.00 0.00 0.00 0.00 0.00 0.01 0.00 0.00 0.00 0.02 0.00 0.00 0.01 0.00 0.01 0.00 0.01 0.04 0.10 0.29 0.44 0.44 0.33 0.15 0.13 0.04 0.06 0.08 0.11 0.21 0.41 0.41 0.34 0.18 0.34 0.59 0.83 0.69 0.61 0.74 0.69 0.36 0.17 0.30 0.62 1.05 0.92 0.60
0.00 0.00 0.00 0.00 0.00 0.01 0.02 0.00 0.00 0.00 0.00 0.00 0.01 0.03 0.01 0.01 0.01 0.04 0.08 0.13 0.11 0.05 0.02 0.06 0.08 0.14 0.05 0.04 0.05 0.09 0.27 0.43 0.34 0.38 0.24 0.22 0.30 0.63 0.85 0.75 0.65 0.71 0.45 0.19 0.12 0.24 0.67 0.68 0.65
0.00 0.00 0.00 0.01 0.03 0.08 0.01 0.02 0.01 0.00 0.00 0.00 0.01 0.02 0.02 0.02 0.03 0.03 0.00 0.00 0.01 0.02 0.03 0.06 0.12 0.15 0.05 0.02 0.03 0.04 0.13 0.23 0.24 0.22 0.18 0.14 0.19 0.30 0.59 0.84 0.69 0.64 0.71 0.50 0.18 0.10 0.31 0.57 0.57
0.00 0.00 0.04 0.04 0.03 0.03 0.01 0.05 0.02 0.01 0.00 0.00 0.00 0.00 0.03 0.01 0.00 0.00 0.01 0.00 0.00 0.04 0.07 0.08 0.13 0.19 0.09 0.02 0.07 0.14 0.16 0.19 0.23 0.19 0.14 0.11 0.12 0.17 0.27 0.49 0.61 0.57 0.51 0.53 0.43 0.27 0.28 0.52 0.67
0.07 0.04 0.08 0.05 0.07 0.11 0.01 0.04 0.03 0.02 0.01 0.02 0.00 0.00 0.09 0.02 0.01 0.02 0.02 0.01 0.01 0.05 0.08 0.10 0.13 0.22 0.16 0.08 0.08 0.14 0.18 0.16 0.15 0.11 0.10 0.07 0.09 0.13 0.16 0.29 0.35 0.47 0.55 0.66 0.73 0.71 0.59 0.47 0.62
0.08 0.19 0.37 0.44 0.25 0.10 0.03 0.03 0.01 0.02 0.01 0.08 0.04 0.00 0.00 0.00 0.01 0.03 0.02 0.01 0.02 0.04 0.08 0.08 0.07 0.10 0.12 0.14 0.07 0.06 0.13 0.16 0.16 0.13 0.17 0.13 0.08 0.09 0.20 0.32 0.31 0.28 0.42 0.80 0.98 1.09 0.80 0.61 0.61
0.07 0.20 0.27 0.30 0.21 0.08 0.03 0.01 0.00 0.00 0.00 0.02 0.05 0.01 0.00 0.00 0.00 0.01 0.01 0.02 0.03 0.07 0.18 0.12 0.11 0.11 0.07 0.13 0.17 0.21 0.26 0.32 0.38 0.36 0.31 0.20 0.21 0.24 0.40 0.57 0.65 0.52 0.42 0.50 0.72 0.91 0.99 1.04 0.81
0.11 0.15 0.10 0.44 0.23 0.19 0.03 0.08 0.05 0.02 0.02 0.05 0.05 0.02 0.00 0.00 0.00 0.00 0.01 0.02 0.03 0.03 0.16 0.20 0.13 0.12 0.08 0.11 0.16 0.26 0.42 0.44 0.31 0.35 0.58 0.42 0.37 0.28 0.40 0.51 0.46 0.46 0.39 0.44 0.62 0.69 0.61 0.67 0.78
0.09 0.20 0.35 0.58 0.43 0.35 0.04 0.15 0.37 0.44 0.34 0.14 0.04 0.00 0.00 0.00 0.00 0.00 0.00 0.00 0.01 0.02 0.11 0.16 0.10 0.11 0.10 0.08 0.11 0.19 0.32 0.43 0.51 0.81 1.10 1.22 0.99 0.77 0.50 0.54 0.55 0.44 0.28 0.27 0.30 0.34 0.35 0.41 0.49
0.16 0.35 0.35 0.31 0.26 0.50 0.29 0.71 0.67 0.71 0.66 0.40 0.02 0.00 0.00 0.01 0.00 0.00 0.00 0.01 0.00 0.01 0.06 0.16 0.25 0.25 0.10 0.12 0.27 0.41 0.44 0.63 0.99 0.91 1.18 0.94 0.90 0.96 0.82 0.63 0.64 0.58 0.51 0.47 0.42 0.35 0.30 0.29 0.26
0.15 0.15 0.26 0.54 0.33 0.28 0.51 1.10 1.10 0.52 0.32 0.06 0.01 0.00 0.01 0.02 0.04 0.02 0.02 0.02 0.01 0.01 0.06 0.15 0.36 0.60 0.83 0.81 1.17 1.04 1.17 1.38 1.25 1.42 1.95 1.34 1.00 0.76 0.51 0.36 0.29 0.30 0.35 0.38 0.31 0.25 0.20 0.20 0.21

GFSSGP_prec_precacc_114.txt.gz
Total_Precipitation_Accumulation
0.00 0.00 0.00 0.00 0.00 0.00 0.00 0.00 0.01 0.02 0.05 0.07 0.15 0.17 0.15 0.19 0.41 0.76 0.68 1.22 2.37 1.63 0.97 0.87 0.94 0.30 0.22 0.19 0.12 0.06 0.02 0.01 0.02 0.01 0.00 0.01 0.01 0.01 0.02 0.01 0.03 0.06 0.26 0.23 0.04 0.05 0.12 0.07 0.05
0.00 0.00 0.00 0.00 0.00 0.00 0.00 0.02 0.01 0.06 0.20 0.31 0.32 0.34 0.31 0.36 0.28 0.48 0.66 0.56 0.56 0.41 0.57 0.75 1.19 0.97 0.80 0.62 0.22 0.12 0.08 0.05 0.01 0.02 0.02 0.02 0.01 0.03 0.07 0.02 0.01 0.15 0.30 0.30 0.29 0.26 0.17 0.07 0.03
0.00 0.00 0.00 0.00 0.00 0.00 0.00 0.02 0.02 0.06 0.16 0.17 0.15 0.13 0.26 0.42 0.69 0.83 0.68 0.55 0.58 0.35 0.31 0.76 1.18 1.33 0.83 0.99 0.67 0.43 0.38 0.16 0.07 0.12 0.05 0.03 0.05 0.19 0.27 0.22 0.21 0.37 0.43 0.41 0.44 0.41 0.29 0.08 0.00
0.00 0.00 0.00 0.00 0.00 0.00 0.00 0.02 0.04 0.15 0.14 0.09 0.12 0.20 0.54 0.52 0.96 0.72 0.65 0.83 1.04 1.14 0.91 1.64 2.05 1.48 1.03 0.94 1.15 2.03 1.84 1.26 0.97 0.62 0.39 0.21 0.37 0.50 0.49 0.46 0.43 0.47 0.54 0.39 0.37 0.43 0.23 0.02 0.00
0.00 0.00 0.00 0.00 0.00 0.00 0.01 0.06 0.17 0.20 0.22 0.28 0.12 0.30 0.91 0.46 0.41 0.62 1.19 2.26 3.14 2.76 2.23 2.19 3.00 2.30 1.62 1.11 1.36 2.02 3.37 3.89 3.34 2.31 1.32 1.53 1.73 1.40 1.11 0.70 0.56 0.51 0.52 0.54 0.44 0.31 0.20 0.07 0.03
0.00 0.00 0.00 0.00 0.00 0.00 0.01 0.11 0.30 0.40 0.25 0.32 0.12 0.38 0.91 0.39 0.47 0.72 1.82 2.34 4.04 5.81 6.52 4.51 4.60 5.14 3.94 2.54 1.24 1.45 2.05 3.30 3.37 3.48 3.31 3.14 2.51 1.60 1.23 0.75 0.58 0.53 0.51 0.44 0.47 0.32 0.29 0.17 0.27
0.00 0.00 0.00 0.00 0.00 0.01 0.04 0.13 0.21 0.23 0.19 0.33 0.20 0.49 1.07 0.45 0.44 0.96 1.82 4.35 6.04 6.86 10.03 10.33 6.89 6.24 5.55 6.20 3.91 1.58 1.50 1.65 2.05 2.18 2.17 2.52 2.89 1.96 1.43 0.90 0.66 0.69 0.70 0.37 0.34 0.29 0.39 0.57 0.53
0.00 0.00 0.00 0.00 0.01 0.04 0.08 0.21 0.27 0.14 0.28 0.50 0.20 0.35 1.12 0.58 0.43 0.50 0.85 2.20 6.16 7.50 6.57 6.82 5.47 4.75 4.34 4.46 5.06 3.46 2.30 1.97 1.75 1.69 1.58 1.51 2.07 1.98 1.37 0.86 0.64 0.74 0.67 0.48 0.39 0.48 0.62 0.55 0.46
0.00 0.00 0.00 0.00 0.04 0.12 0.13 0.12 0.09 0.04 0.06 0.24 0.35 0.31 0.37 0.30 0.27 0.29 0.96 1.02 1.92 3.50 3.96 3.54 2.44 1.70 1.94 2.04 2.50 3.09 3.09 2.51 2.53 2.74 1.90 1.43 1.38 1.81 1.37 0.94 0.61 0.69 0.69 0.59 0.49 0.60 0.63 0.50 0.43
0.00 0.00 0.00 0.00 0.02 0.28 0.21 0.26 0.23 0.04 0.07 0.42 0.52 0.57 0.44 0.30 0.28 0.25 0.62 0.77 1.65 2.08 1.80 1.28 0.80 0.43 0.47 0.60 0.76 1.27 2.04 2.40 2.14 3.45 2.34 1.94 1.11 1.21 1.08 1.16 0.77 0.69 0.89 0.65 0.74 0.60 0.46 0.36 0.25
0.00 0.00 0.00 0.00 0.00 0.05 0.09 0.01 0.01 0.04 0.10 0.25 0.36 0.32 0.16 0.20 0.14 0.19 0.33 0.66 1.12 0.85 0.81 0.74 0.52 0.30 0.33 0.26 0.31 0.49 1.13 1.96 2.22 2.39 2.24 2.24 1.28 1.40 1.13 1.29 1.00 0.81 1.23 0.84 0.79 0.59 0.42 0.26 0.24
0.00 0.00 0.00 0.00 0.01 0.00 0.00 0.01 0.00 0.06 0.54 0.42 0.08 0.21 0.13 0.12 0.17 0.24 0.31 0.39 0.48 0.45 0.47 0.32 0.35 0.36 0.51 0.36 0.25 0.30 0.72 1.51 1.73 1.38 1.17 1.56 1.07 1.05 1.08 0.85 0.87 0.68 1.14 0.80 0.55 0.38 0.31 0.32 0.34
0.00 0.00 0.00 0.00 0.02 0.02 0.01 0.01 0.02 0.40 0.85 0.25 0.22 0.18 0.11 0.12 0.16 0.13 0.11 0.17 0.21 0.30 0.41 0.39 0.18 0.25 0.23 0.23 0.24 0.23 0.58 0.82 1.10 0.99 0.40 1.02 0.83 0.60 0.96 0.77 0.75 0.55 1.10 0.66 0.37 0.41 0.31 0.34 0.35
0.00 0.00 0.00 0.02 0.01 0.02 0.01 0.02 0.18 0.31 0.29 0.38 0.32 0.19 0.14 0.09 0.09 0.08 0.04 0.03 0.11 0.26 0.39 0.47 0.41 0.35 0.30 0.23 0.31 0.30 0.46 0.82 0.74 0.89 0.38 0.26 0.41 0.57 0.96 0.88 0.75 0.51 0.76 0.64 0.52 0.33 0.39 0.37 0.48
0.00 0.01 0.01 0.04 0.02 0.01 0.02 0.10 0.20 0.47 0.35 0.20 0.23 0.21 0.21 0.18 0.09 0.04 0.02 0.01 0.02 0.07 0.22 0.62 1.02 0.50 0.34 0.28 0.31 0.34 0.25 0.45 0.67 0.78 0.54 0.23 0.13 0.30 0.52 0.72 0.56 0.54 0.62 0.54 0.69 0.62 0.46 0.47 0.73
0.00 0.00 0.02 0.16 0.03 0.01 0.01 0.20 0.34 0.14 0.15 0.41 0.12 0.15 0.20 0.12 0.04 0.00 0.00 0.00 0.01 0.04 0.12 0.66 1.27 0.93 0.48 0.27 0.32 0.37 0.47 0.44 0.54 0.60 0.56 0.30 0.22 0.21 0.26 0.44 0.68 0.54 0.61 0.43 0.46 0.69 0.50 0.45 0.65
0.00 0.00 0.00 0.01 0.01 0.01 0.01 0.02 0.15 0.11 0.10 0.26 0.08 0.05 0.02 0.02 0.01 0.00 0.00 0.00 0.03 0.04 0.17 0.50 0.80 1.08 0.97 0.76 0.71 0.56 0.47 0.53 0.50 0.41 0.45 0.31 0.26 0.29 0.22 0.30 0.41 0.71 0.47 0.37 0.48 0.57 0.60 0.41 0.51
0.00 0.00 0.00 0.02 0.01 0.00 0.00 0.00 0.01 0.11 0.12 0.09 0.05 0.01 0.01 0.00 0.00 0.00 0.03 0.04 0.06 0.08 0.32 0.58 0.72 1.21 1.58 0.87 0.35 0.41 0.64 0.53 0.48 0.32 0.37 0.45 0.33 0.43 0.39 0.36 0.28 0.36 0.52 0.44 0.59 0.70 0.65 0.54 0.44
0.00 0.00 0.00 0.00 0.01 0.00 0.00 0.00 0.00 0.04 0.15 0.07 0.03 0.01 0.01 0.01 0.00 0.02 0.05 0.06 0.08 0.18 0.42 0.64 1.00 0.97 0.47 0.24 0.15 0.26 0.46 0.59 0.53 0.39 0.30 0.52 0.57 0.55 0.69 0.63 0.60 0.39 0.19 0.39 0.48 0.83 0.88 0.75 0.53
0.00 0.00 0.00 0.00 0.00 0.00 0.01 0.00 0.00 0.00 0.02 0.00 0.00 0.01 0.00 0.01 0.00 0.01 0.04 0.10 0.29 0.44 0.44 0.33 0.15 0.13 0.04 0.06 0.09 0.16 0.22 0.41 0.41 0.34 0.18 0.34 0.59 0.83 0.69 0.61 0.74 0.69 0.36 0.17 0.31 0.63 1.07 0.94 0.62
0.00 0.00 0.00 0.00 0.00 0.01 0.03 0.01 0.00 0.00 0.00 0.00 0.01 0.03 0.01 0.01 0.01 0.04 0.08 0.13 0.11 0.05 0.02 0.06 0.08 0.14 0.05 0.04 0.11 0.17 0.33 0.46 0.35 0.38 0.24 0.22 0.30 0.63 0.85 0.75 0.65 0.71 0.45 0.19 0.12 0.24 0.68 0.68 0.66
0.00 0.00 0.00 0.01 0.03 0.08 0.04 0.04 0.01 0.00 0.00 0.00 0.01 0.02 0.02 0.02 0.03 0.03 0.00 0.00 0.01 0.02 0.03 0.06 0.12 0.15 0.05 0.02 0.03 0.05 0.13 0.23 0.24 0.22 0.18 0.14 0.19 0.30 0.59 0.84 0.69 0.64 0.71 0.50 0.18 0.10 0.31 0.57 0.58
0.01 0.00 0.04 0.05 0.05 0.04 0.03 0.09 0.02 0.01 0.00 0.00 0.00 0.00 0.03 0.01 0.00 0.00 0.01 0.00 0.00 0.04 0.07 0.08 0.15 0.28 0.20 0.10 0.11 0.16 0.17 0.19 0.23 0.19 0.14 0.11 0.12 0.17 0.27 0.49 0.61 0.57 0.51 0.53 0.43 0.27 0.28 0.52 0.67
0.08 0.04 0.10 0.09 0.11 0.14 0.01 0.04 0.03 0.02 0.02 0.02 0.00 0.00 0.09 0.02 0.01 0.02 0.02 0.01 0.01 0.05 0.08 0.10 0.13 0.24 0.26 0.19 0.22 0.26 0.25 0.17 0.15 0.11 0.10 0.07 0.10 0.13 0.16 0.29 0.35 0.47 0.55 0.66 0.73 0.71 0.59 0.47 0.63
0.10 0.23 0.39 0.47 0.29 0.11 0.03 0.03 0.02 0.08 0.08 0.09 0.04 0.00 0.00 0.00 0.01 0.03 0.02 0.01 0.02 0.04 0.08 0.08 0.07 0.10 0.12 0.16 0.10 0.08 0.15 0.19 0.17 0.13 0.17 0.13 0.10 0.09 0.20 0.32 0.31 0.28 0.42 0.80 0.98 1.10 0.81 0.62 0.61
0.08 0.22 0.27 0.31 0.21 0.08 0.03 0.01 0.02 0.05 0.16 0.09 0.08 0.02 0.00 0.00 0.00 0.01 0.01 0.02 0.03 0.07 0.18 0.12 0.11 0.11 0.07 0.13 0.17 0.21 0.27 0.35 0.38 0.36 0.31 0.20 0.22 0.26 0.40 0.57 0.65 0.52 0.42 0.50 0.72 0.91 0.99 1.04 0.81
0.13 0.15 0.10 0.46 0.27 0.21 0.03 0.09 0.09 0.11 0.09 0.13 0.09 0.04 0.01 0.00 0.00 0.00 0.01 0.02 0.03 0.03 0.16 0.20 0.13 0.12 0.08 0.11 0.16 0.26 0.42 0.45 0.33 0.36 0.58 0.43 0.38 0.28 0.40 0.51 0.46 0.46 0.39 0.44 0.62 0.70 0.61 0.68 0.78
0.10 0.20 0.36 0.59 0.45 0.37 0.05 0.17 0.44 0.55 0.67 0.21 0.05 0.02 0.01 0.00 0.00 0.00 0.00 0.00 0.01 0.02 0.11 0.16 0.10 0.11 0.10 0.08 0.11 0.20 0.32 0.45 0.55 0.82 1.10 1.23 1.00 0.77 0.50 0.54 0.55 0.44 0.28 0.27 0.30 0.34 0.36 0.41 0.49
0.17 0.35 0.36 0.32 0.28 0.57 0.52 0.93 1.18 1.28 1.27 1.04 0.18 0.07 0.02 0.01 0.00 0.00 0.00 0.01 0.00 0.01 0.06 0.16 0.25 0.25 0.10 0.13 0.29 0.44 0.46 0.68 1.06 0.95 1.19 0.96 0.92 0.98 0.85 0.63 0.64 0.58 0.52 0.47 0.42 0.35 0.30 0.29 0.26
0.17 0.16 0.26 0.56 0.42 0.38 0.90 1.44 1.65 1.24 0.82 0.43 0.27 0.12 0.05 0.03 0.04 0.02 0.02 0.02 0.01 0.01 0.06 0.15 0.36 0.60 0.83 0.82 1.22 1.10 1.25 1.49 1.34 1.52 2.00 1.36 1.02 0.78 0.52 0.37 0.29 0.31 0.36 0.38 0.31 0.25 0.20 0.20 0.21

GFSSGP_prec_precacc_117.txt.gz
Total_Precipitation_Accumulation
0.00 0.00 0.00 0.00 0.00 0.00 0.00 0.00 0.01 0.02 0.05 0.07 0.15 0.17 0.15 0.19 0.41 0.76 0.68 1.22 2.37 1.63 0.97 0.87 0.94 0.30 0.22 0.19 0.12 0.06 0.02 0.01 0.02 0.01 0.00 0.01 0.01 0.01 0.02 0.01 0.03 0.06 0.26 0.23 0.04 0.05 0.12 0.07 0.05
0.00 0.00 0.00 0.00 0.00 0.00 0.00 0.02 0.01 0.06 0.20 0.31 0.32 0.34 0.31 0.36 0.28 0.48 0.66 0.56 0.56 0.41 0.57 0.75 1.19 0.97 0.80 0.62 0.22 0.12 0.08 0.05 0.01 0.02 0.02 0.02 0.01 0.03 0.07 0.02 0.01 0.15 0.30 0.30 0.29 0.26 0.17 0.07 0.03
0.00 0.00 0.00 0.00 0.00 0.00 0.00 0.02 0.02 0.06 0.16 0.17 0.15 0.13 0.26 0.42 0.69 0.83 0.68 0.55 0.58 0.35 0.31 0.76 1.18 1.33 0.83 0.99 0.67 0.43 0.38 0.16 0.07 0.12 0.05 0.03 0.05 0.19 0.27 0.22 0.21 0.37 0.43 0.41 0.44 0.41 0.29 0.08 0.00
0.00 0.00 0.00 0.00 0.00 0.00 0.00 0.02 0.04 0.15 0.14 0.09 0.12 0.20 0.54 0.52 0.96 0.72 0.65 0.83 1.04 1.14 0.91 1.64 2.05 1.48 1.03 0.94 1.15 2.03 1.84 1.26 0.97 0.62 0.39 0.21 0.37 0.50 0.49 0.46 0.43 0.48 0.55 0.40 0.37 0.43 0.23 0.02 0.00
0.00 0.00 0.00 0.00 0.00 0.00 0.01 0.06 0.17 0.20 0.22 0.28 0.12 0.30 0.91 0.46 0.41 0.62 1.19 2.26 3.14 2.76 2.23 2.19 3.00 2.30 1.62 1.11 1.36 2.02 3.37 3.89 3.34 2.31 1.32 1.53 1.73 1.40 1.11 0.70 0.56 0.51 0.53 0.54 0.45 0.32 0.20 0.07 0.03
0.00 0.00 0.00 0.00 0.00 0.00 0.01 0.11 0.30 0.40 0.25 0.32 0.12 0.38 0.91 0.39 0.47 0.72 1.82 2.34 4.04 5.81 6.52 4.51 4.60 5.14 3.94 2.54 1.24 1.45 2.05 3.30 3.37 3.48 3.31 3.14 2.51 1.60 1.23 0.75 0.58 0.53 0.51 0.45 0.48 0.32 0.29 0.17 0.27
0.00 0.00 0.00 0.00 0.00 0.01 0.04 0.13 0.21 0.23 0.19 0.33 0.20 0.49 1.07 0.45 0.44 0.96 1.82 4.35 6.04 6.86 10.03 10.33 6.89 6.24 5.55 6.20 3.91 1.58 1.50 1.65 2.05 2.18 2.17 2.52 2.89 1.96 1.43 0.90 0.66 0.69 0.70 0.37 0.34 0.29 0.39 0.57 0.53
0.00 0.00 0.00 0.00 0.01 0.04 0.08 0.21 0.27 0.14 0.28 0.50 0.20 0.35 1.12 0.58 0.43 0.50 0.85 2.20 6.16 7.50 6.57 6.82 5.47 4.75 4.34 4.46 5.06 3.46 2.30 1.97 1.75 1.69 1.58 1.51 2.07 1.98 1.37 0.86 0.64 0.74 0.67 0.48 0.39 0.48 0.62 0.57 0.53
0.00 0.00 0.00 0.00 0.04 0.12 0.13 0.12 0.09 0.04 0.06 0.24 0.35 0.31 0.37 0.30 0.27 0.29 0.96 1.02 1.92 3.50 3.96 3.54 2.44 1.70 1.94 2.04 2.50 3.09 3.09 2.51 2.53 2.74 1.90 1.43 1.38 1.81 1.37 0.94 0.61 0.69 0.69 0.59 0.49 0.60 0.63 0.53 0.44
0.00 0.00 0.00 0.00 0.02 0.28 0.21 0.26 0.23 0.04 0.07 0.42 0.52 0.57 0.44 0.30 0.28 0.25 0.62 0.77 1.65 2.08 1.80 1.28 0.80 0.43 0.47 0.60 0.76 1.27 2.04 2.40 2.14 3.45 2.34 1.94 1.11 1.21 1.08 1.16 0.78 0.69 0.89 0.65 0.74 0.60 0.46 0.36 0.25
0.00 0.00 0.00 0.00 0.00 0.05 0.09 0.01 0.01 0.04 0.10 0.25 0.36 0.32 0.16 0.20 0.14 0.19 0.33 0.66 1.12 0.85 0.81 0.74 0.52 0.30 0.33 0.26 0.31 0.49 1.13 1.96 2.22 2.39 2.24 2.24 1.28 1.40 1.13 1.29 1.01 0.81 1.23 0.84 0.79 0.59 0.42 0.26 0.24
0.00 0.00 0.00 0.00 0.01 0.00 0.00 0.01 0.00 0.06 0.54 0.42 0.08 0.21 0.13 0.12 0.17 0.24 0.31 0.39 0.48 0.45 0.47 0.32 0.35 0.36 0.51 0.36 0.25 0.30 0.72 1.51 1.73 1.38 1.17 1.56 1.07 1.05 1.08 0.85 0.87 0.68 1.14 0.80 0.55 0.38 0.31 0.32 0.34
0.00 0.00 0.00 0.00 0.02 0.02 0.01 0.01 0.02 0.40 0.85 0.25 0.22 0.18 0.11 0.12 0.16 0.13 0.11 0.17 0.21 0.30 0.41 0.39 0.18 0.25 0.23 0.23 0.24 0.23 0.58 0.82 1.10 0.99 0.40 1.02 0.83 0.60 0.96 0.77 0.75 0.55 1.10 0.66 0.37 0.41 0.31 0.34 0.35
0.00 0.00 0.00 0.02 0.01 0.02 0.01 0.02 0.18 0.31 0.29 0.38 0.32 0.19 0.14 0.09 0.09 0.08 0.04 0.03 0.11 0.26 0.39 0.47 0.41 0.35 0.30 0.23 0.31 0.30 0.46 0.82 0.74 0.89 0.38 0.26 0.41 0.57 0.96 0.88 0.75 0.51 0.76 0.64 0.52 0.33 0.39 0.37 0.48
0.00 0.01 0.01 0.04 0.02 0.01 0.02 0.10 0.20 0.47 0.35 0.20 0.23 0.21 0.21 0.18 0.09 0.04 0.02 0.01 0.02 0.07 0.22 0.62 1.02 0.50 0.34 0.28 0.31 0.34 0.25 0.45 0.67 0.78 0.54 0.23 0.13 0.30 0.52 0.72 0.56 0.54 0.62 0.54 0.69 0.62 0.46 0.47 0.73
0.00 0.00 0.02 0.16 0.03 0.01 0.01 0.20 0.34 0.14 0.15 0.41 0.12 0.15 0.20 0.12 0.04 0.00 0.00 0.00 0.01 0.04 0.12 0.66 1.27 0.93 0.48 0.27 0.32 0.37 0.47 0.44 0.54 0.60 0.56 0.30 0.22 0.21 0.26 0.44 0.68 0.54 0.61 0.43 0.46 0.69 0.50 0.45 0.65
0.00 0.00 0.00 0.01 0.01 0.01 0.01 0.02 0.15 0.11 0.10 0.26 0.08 0.05 0.02 0.02 0.01 0.00 0.00 0.00 0.03 0.04 0.17 0.50 0.80 1.08 0.97 0.76 0.71 0.56 0.47 0.53 0.50 0.41 0.45 0.31 0.26 0.29 0.22 0.30 0.41 0.71 0.47 0.37 0.48 0.57 0.60 0.41 0.51
0.00 0.00 0.00 0.02 0.01 0.00 0.00 0.00 0.01 0.11 0.12 0.09 0.05 0.01 0.01 0.00 0.00 0.00 0.03 0.04 0.06 0.08 0.32 0.58 0.72 1.21 1.58 0.87 0.35 0.41 0.64 0.53 0.48 0.32 0.37 0.45 0.33 0.43 0.39 0.36 0.28 0.36 0.52 0.44 0.59 0.70 0.65 0.54 0.44
0.00 0.00 0.00 0.00 0.01 0.00 0.00 0.00 0.00 0.04 0.15 0.07 0.03 0.01 0.01 0.01 0.00 0.02 0.05 0.06 0.08 0.18 0.42 0.64 1.00 0.97 0.47 0.24 0.15 0.27 0.47 0.59 0.53 0.39 0.30 0.52 0.57 0.55 0.69 0.63 0.60 0.39 0.19 0.39 0.48 0.84 0.89 0.76 0.54
0.00 0.01 0.00 0.00 0.00 0.00 0.01 0.00 0.00 0.00 0.02 0.00 0.00 0.01 0.00 0.01 0.00 0.01 0.04 0.10 0.29 0.44 0.44 0.33 0.15 0.13 0.04 0.06 0.10 0.16 0.24 0.44 0.47 0.38 0.18 0.34 0.59 0.83 0.69 0.61 0.74 0.69 0.36 0.17 0.31 0.64 1.09 0.97 0.64
0.00 0.00 0.00 0.00 0.00 0.01 0.03 0.01 0.00 0.00 0.00 0.00 0.01 0.03 0.01 0.01 0.01 0.04 0.08 0.13 0.11 0.05 0.02 0.06 0.08 0.14 0.05 0.04 0.12 0.18 0.37 0.56 0.48 0.43 0.24 0.22 0.30 0.63 0.85 0.75 0.65 0.71 0.45 0.19 0.12 0.24 0.69 0.70 0.68
0.00 0.00 0.01 0.01 0.03 0.08 0.06 0.05 0.01 0.00 0.00 0.00 0.01 0.02 0.02 0.02 0.03 0.03 0.00 0.00 0.01 0.02 0.03 0.06 0.12 0.15 0.06 0.05 0.04 0.07 0.14 0.23 0.24 0.22 0.18 0.14 0.19 0.30 0.59 0.84 0.69 0.64 0.71 0.51 0.18 0.11 0.31 0.58 0.60
0.01 0.01 0.05 0.05 0.05 0.04 0.04 0.10 0.02 0.01 0.01 0.01 0.00 0.00 0.03 0.01 0.00 0.00 0.01 0.00 0.00 0.04 0.07 0.08 0.15 0.28 0.21 0.12 0.14 0.20 0.24 0.24 0.24 0.19 0.14 0.11 0.13 0.17 0.27 0.49 0.61 0.57 0.51 0.53 0.43 0.27 0.29 0.53 0.68
0.08 0.05 0.11 0.10 0.12 0.14 0.01 0.05 0.05 0.10 0.08 0.05 0.01 0.00 0.09 0.02 0.01 0.02 0.02 0.01 0.01 0.05 0.08 0.10 0.13 0.24 0.27 0.22 0.26 0.31 0.33 0.27 0.24 0.16 0.13 0.09 0.14 0.16 0.17 0.29 0.35 0.47 0.55 0.66 0.73 0.71 0.59 0.47 0.64
0.10 0.23 0.42 0.48 0.32 0.11 0.04 0.05 0.07 0.13 0.13 0.11 0.05 0.01 0.00 0.00 0.01 0.03 0.02 0.01 0.02 0.04 0.08 0.08 0.07 0.10 0.13 0.17 0.13 0.10 0.18 0.22 0.20 0.18 0.23 0.18 0.13 0.11 0.20 0.33 0.31 0.28 0.42 0.80 0.98 1.10 0.81 0.62 0.61
0.08 0.22 0.29 0.31 0.22 0.09 0.05 0.04 0.18 0.11 0.44 0.14 0.09 0.02 0.00 0.00 0.00 0.01 0.01 0.02 0.03 0.07 0.18 0.12 0.11 0.11 0.07 0.13 0.18 0.21 0.28 0.36 0.40 0.37 0.32 0.21 0.23 0.27 0.41 0.58 0.66 0.52 0.42 0.50 0.72 0.92 1.00 1.04 0.81
0.16 0.16 0.10 0.46 0.30 0.24 0.04 0.18 0.29 0.26 0.43 0.75 0.26 0.08 0.04 0.02 0.01 0.00 0.01 0.02 0.03 0.03 0.16 0.20 0.13 0.12 0.08 0.11 0.16 0.26 0.42 0.46 0.35 0.38 0.60 0.45 0.40 0.30 0.41 0.52 0.46 0.47 0.40 0.44 0.62 0.70 0.61 0.68 0.79
0.13 0.24 0.38 0.59 0.46 0.41 0.09 0.21 0.51 0.64 0.91 0.52 0.34 0.22 0.08 0.04 0.01 0.00 0.00 0.00 0.01 0.02 0.11 0.16 0.10 0.11 0.11 0.09 0.11 0.20 0.32 0.45 0.56 0.86 1.11 1.24 1.03 0.82 0.52 0.55 0.56 0.45 0.28 0.27 0.30 0.35 0.36 0.41 0.50
0.20 0.36 0.36 0.33 0.30 0.60 0.66 0.99 1.27 1.39 1.45 1.21 0.41 0.18 0.06 0.02 0.01 0.00 0.00 0.01 0.00 0.01 0.06 0.16 0.25 0.25 0.12 0.14 0.30 0.44 0.46 0.69 1.07 0.98 1.23 1.00 0.99 1.06 0.90 0.65 0.65 0.58 0.52 0.47 0.42 0.35 0.31 0.30 0.26
0.23 0.18 0.26 0.56 0.43 0.39 1.06 1.57 1.80 1.41 1.01 0.57 0.51 0.37 0.18 0.07 0.04 0.02 0.02 0.02 0.01 0.01 0.06 0.15 0.36 0.62 0.84 0.83 1.23 1.11 1.27 1.51 1.37 1.56 2.04 1.42 1.09 0.87 0.59 0.42 0.31 0.31 0.36 0.38 0.31 0.26 0.21 0.21 0.21

GFSSGP_prec_precacc_120.txt.gz
Total_Precipitation_Accumulation
0.00 0.00 0.00 0.00 0.00 0.00 0.00 0.00 0.01 0.02 0.05 0.07 0.15 0.17 0.15 0.19 0.41 0.76 0.68 1.22 2.37 1.63 0.97 0.87 0.94 0.30 0.22 0.19 0.12 0.06 0.02 0.01 0.02 0.01 0.00 0.01 0.01 0.01 0.02 0.01 0.03 0.06 0.26 0.23 0.04 0.05 0.12 0.07 0.05
0.00 0.00 0.00 0.00 0.00 0.00 0.00 0.02 0.01 0.06 0.20 0.31 0.32 0.34 0.31 0.36 0.28 0.48 0.66 0.56 0.56 0.41 0.57 0.75 1.19 0.97 0.80 0.62 0.22 0.12 0.08 0.05 0.01 0.02 0.02 0.02 0.01 0.03 0.07 0.02 0.01 0.15 0.30 0.30 0.29 0.26 0.17 0.07 0.03
0.00 0.00 0.00 0.00 0.00 0.00 0.00 0.02 0.02 0.06 0.16 0.17 0.15 0.13 0.26 0.42 0.69 0.83 0.68 0.55 0.58 0.35 0.31 0.76 1.18 1.33 0.83 0.99 0.67 0.43 0.38 0.16 0.07 0.12 0.05 0.03 0.05 0.19 0.27 0.22 0.21 0.38 0.44 0.42 0.44 0.41 0.29 0.08 0.00
0.00 0.00 0.00 0.00 0.00 0.00 0.00 0.02 0.04 0.15 0.14 0.09 0.12 0.20 0.54 0.52 0.96 0.72 0.65 0.83 1.04 1.14 0.91 1.64 2.05 1.48 1.03 0.94 1.15 2.03 1.84 1.26 0.97 0.62 0.39 0.21 0.37 0.50 0.49 0.46 0.43 0.48 0.55 0.40 0.38 0.43 0.23 0.02 0.00
0.00 0.00 0.00 0.00 0.00 0.00 0.01 0.06 0.17 0.20 0.22 0.28 0.12 0.30 0.91 0.46 0.41 0.62 1.19 2.26 3.14 2.76 2.23 2.19 3.00 2.30 1.62 1.11 1.36 2.02 3.37 3.89 3.34 2.31 1.32 1.53 1.73 1.40 1.11 0.70 0.56 0.51 0.53 0.54 0.45 0.32 0.20 0.07 0.03
0.00 0.00 0.00 0.00 0.00 0.00 0.01 0.11 0.30 0.40 0.25 0.32 0.12 0.38 0.91 0.39 0.47 0.72 1.82 2.34 4.04 5.81 6.52 4.51 4.60 5.14 3.94 2.54 1.24 1.45 2.05 3.30 3.37 3.48 3.31 3.14 2.51 1.60 1.23 0.75 0.58 0.54 0.52 0.45 0.48 0.32 0.29 0.17 0.27
0.00 0.00 0.00 0.00 0.00 0.01 0.04 0.13 0.21 0.23 0.19 0.33 0.20 0.49 1.07 0.45 0.44 0.96 1.82 4.35 6.04 6.86 10.03 10.33 6.89 6.24 5.55 6.20 3.91 1.58 1.50 1.65 2.05 2.18 2.17 2.52 2.89 1.96 1.43 0.90 0.66 0.69 0.71 0.38 0.34 0.29 0.39 0.57 0.53
0.00 0.00 0.00 0.00 0.01 0.04 0.08 0.21 0.27 0.14 0.28 0.50 0.20 0.35 1.12 0.58 0.43 0.50 0.85 2.20 6.16 7.50 6.57 6.82 5.47 4.75 4.34 4.46 5.06 3.46 2.30 1.97 1.75 1.69 1.58 1.51 2.07 1.98 1.37 0.86 0.64 0.74 0.67 0.48 0.39 0.48 0.62 0.57 0.53
0.00 0.00 0.00 0.00 0.04 0.12 0.13 0.12 0.09 0.04 0.06 0.24 0.35 0.31 0.37 0.30 0.27 0.29 0.96 1.02 1.92 3.50 3.96 3.54 2.44 1.70 1.94 2.04 2.50 3.09 3.09 2.51 2.53 2.74 1.90 1.43 1.38 1.81 1.37 0.94 0.61 0.69 0.69 0.59 0.49 0.60 0.63 0.53 0.45
0.00 0.00 0.00 0.00 0.02 0.28 0.21 0.26 0.23 0.04 0.07 0.42 0.52 0.57 0.44 0.30 0.28 0.25 0.62 0.77 1.65 2.08 1.80 1.28 0.80 0.43 0.47 0.60 0.76 1.27 2.04 2.40 2.14 3.45 2.34 1.94 1.11 1.21 1.08 1.16 0.78 0.69 0.89 0.65 0.74 0.60 0.46 0.36 0.25
0.00 0.00 0.00 0.00 0.00 0.05 0.09 0.01 0.01 0.04 0.10 0.25 0.36 0.32 0.16 0.20 0.14 0.19 0.33 0.66 1.12 0.85 0.81 0.74 0.52 0.30 0.33 0.26 0.31 0.49 1.13 1.96 2.22 2.39 2.24 2.24 1.28 1.40 1.13 1.29 1.01 0.81 1.23 0.84 0.79 0.59 0.42 0.26 0.24
0.00 0.00 0.00 0.00 0.01 0.00 0.00 0.01 0.00 0.06 0.54 0.42 0.08 0.21 0.13 0.12 0.17 0.24 0.31 0.39 0.48 0.45 0.47 0.32 0.35 0.36 0.51 0.36 0.25 0.30 0.73 1.52 1.73 1.38 1.17 1.56 1.07 1.05 1.08 0.85 0.87 0.68 1.15 0.80 0.55 0.38 0.31 0.32 0.34
0.00 0.00 0.00 0.00 0.02 0.02 0.01 0.01 0.02 0.40 0.85 0.25 0.22 0.18 0.11 0.12 0.16 0.14 0.11 0.17 0.21 0.30 0.41 0.39 0.18 0.25 0.23 0.23 0.24 0.23 0.58 0.82 1.10 0.99 0.40 1.02 0.83 0.60 0.96 0.77 0.75 0.55 1.10 0.66 0.37 0.41 0.32 0.34 0.35
0.00 0.00 0.00 0.02 0.01 0.02 0.01 0.02 0.18 0.31 0.29 0.38 0.32 0.19 0.14 0.09 0.09 0.08 0.04 0.03 0.11 0.26 0.39 0.47 0.41 0.35 0.30 0.23 0.31 0.30 0.46 0.82 0.74 0.89 0.38 0.26 0.41 0.57 0.96 0.88 0.75 0.51 0.76 0.64 0.52 0.33 0.39 0.37 0.48
0.00 0.01 0.01 0.04 0.02 0.01 0.02 0.10 0.20 0.47 0.35 0.20 0.23 0.21 0.21 0.18 0.09 0.04 0.02 0.01 0.02 0.07 0.22 0.62 1.02 0.50 0.34 0.28 0.31 0.34 0.25 0.45 0.67 0.78 0.54 0.23 0.13 0.30 0.52 0.72 0.56 0.54 0.62 0.54 0.69 0.62 0.46 0.47 0.73
0.00 0.00 0.02 0.16 0.03 0.01 0.01 0.20 0.34 0.14 0.15 0.41 0.12 0.15 0.20 0.12 0.04 0.00 0.00 0.00 0.01 0.04 0.12 0.66 1.27 0.93 0.48 0.27 0.33 0.37 0.47 0.44 0.54 0.60 0.56 0.30 0.22 0.21 0.26 0.44 0.68 0.54 0.61 0.43 0.46 0.69 0.50 0.45 0.65
0.00 0.00 0.00 0.01 0.01 0.01 0.01 0.02 0.15 0.11 0.10 0.26 0.08 0.05 0.02 0.02 0.01 0.00 0.00 0.00 0.03 0.04 0.17 0.50 0.80 1.08 0.97 0.76 0.72 0.56 0.47 0.53 0.50 0.41 0.45 0.31 0.26 0.29 0.22 0.30 0.41 0.71 0.47 0.37 0.48 0.57 0.60 0.41 0.51
0.00 0.00 0.00 0.02 0.01 0.00 0.00 0.00 0.01 0.11 0.12 0.09 0.05 0.01 0.01 0.00 0.00 0.00 0.03 0.04 0.06 0.08 0.32 0.58 0.72 1.21 1.58 0.87 0.35 0.41 0.64 0.54 0.48 0.32 0.37 0.45 0.33 0.43 0.39 0.36 0.28 0.36 0.52 0.44 0.59 0.70 0.65 0.54 0.44
0.00 0.00 0.00 0.00 0.01 0.00 0.00 0.00 0.00 0.04 0.15 0.07 0.03 0.01 0.01 0.01 0.00 0.02 0.05 0.06 0.08 0.18 0.42 0.64 1.00 0.97 0.47 0.24 0.15 0.27 0.47 0.60 0.53 0.39 0.30 0.52 0.57 0.55 0.69 0.63 0.60 0.39 0.19 0.39 0.49 0.85 0.89 0.77 0.55
0.00 0.01 0.00 0.00 0.00 0.00 0.01 0.00 0.00 0.00 0.02 0.00 0.00 0.01 0.00 0.01 0.00 0.01 0.04 0.10 0.29 0.44 0.44 0.33 0.15 0.13 0.04 0.06 0.10 0.16 0.24 0.44 0.47 0.38 0.18 0.34 0.59 0.83 0.69 0.61 0.74 0.69 0.36 0.18 0.32 0.65 1.09 0.98 0.66
0.00 0.00 0.00 0.00 0.00 0.01 0.03 0.01 0.00 0.00 0.00 0.00 0.01 0.03 0.01 0.01 0.01 0.04 0.08 0.13 0.11 0.05 0.02 0.06 0.08 0.14 0.05 0.04 0.12 0.19 0.38 0.57 0.49 0.45 0.25 0.22 0.30 0.63 0.85 0.75 0.65 0.71 0.46 0.19 0.12 0.25 0.69 0.71 0.70
0.00 0.00 0.01 0.01 0.03 0.08 0.06 0.07 0.01 0.00 0.00 0.00 0.01 0.02 0.02 0.02 0.03 0.03 0.00 0.00 0.01 0.02 0.03 0.06 0.12 0.15 0.06 0.05 0.04 0.07 0.15 0.24 0.24 0.23 0.19 0.16 0.20 0.30 0.59 0.84 0.69 0.64 0.71 0.51 0.18 0.11 0.32 0.59 0.60
0.01 0.01 0.05 0.05 0.06 0.05 0.04 0.11 0.02 0.01 0.05 0.02 0.00 0.00 0.03 0.01 0.00 0.00 0.01 0.00 0.00 0.04 0.07 0.08 0.15 0.28 0.21 0.12 0.14 0.20 0.24 0.25 0.27 0.21 0.15 0.13 0.19 0.24 0.27 0.49 0.61 0.57 0.51 0.53 0.43 0.28 0.29 0.54 0.69
0.08 0.05 0.11 0.10 0.13 0.15 0.01 0.05 0.08 0.37 0.19 0.12 0.02 0.00 0.09 0.02 0.01 0.02 0.02 0.01 0.01 0.05 0.08 0.10 0.13 0.24 0.27 0.23 0.27 0.32 0.35 0.30 0.24 0.16 0.14 0.14 0.28 0.25 0.20 0.30 0.36 0.47 0.55 0.66 0.73 0.71 0.60 0.47 0.65
0.10 0.23 0.42 0.48 0.32 0.11 0.04 0.06 0.17 0.34 0.23 0.21 0.12 0.02 0.01 0.00 0.01 0.03 0.02 0.01 0.02 0.04 0.08 0.08 0.07 0.10 0.13 0.18 0.14 0.11 0.20 0.23 0.20 0.18 0.25 0.28 0.29 0.22 0.26 0.37 0.32 0.28 0.42 0.80 0.98 1.10 0.81 0.62 0.62
0.08 0.22 0.29 0.33 0.23 0.12 0.08 0.11 0.45 0.30 0.54 0.26 0.20 0.05 0.02 0.01 0.00 0.01 0.01 0.02 0.03 0.07 0.18 0.12 0.11 0.11 0.07 0.13 0.18 0.22 0.30 0.37 0.41 0.37 0.34 0.24 0.34 0.35 0.44 0.61 0.67 0.53 0.45 0.52 0.73 0.92 1.00 1.05 0.81
0.16 0.16 0.10 0.46 0.30 0.28 0.16 0.48 0.40 0.34 0.57 1.24 0.51 0.13 0.08 0.03 0.01 0.00 0.01 0.02 0.03 0.03 0.16 0.20 0.13 0.12 0.08 0.11 0.16 0.26 0.43 0.47 0.35 0.40 0.65 0.46 0.42 0.33 0.44 0.56 0.48 0.49 0.44 0.48 0.63 0.71 0.62 0.68 0.79
0.13 0.25 0.40 0.60 0.47 0.46 0.21 0.37 0.66 0.77 1.05 0.78 0.83 0.60 0.17 0.15 0.06 0.02 0.01 0.00 0.01 0.02 0.11 0.16 0.10 0.11 0.11 0.09 0.11 0.20 0.32 0.45 0.56 0.87 1.12 1.26 1.09 0.89 0.56 0.59 0.58 0.47 0.31 0.31 0.32 0.35 0.37 0.42 0.50
0.21 0.36 0.37 0.34 0.32 0.70 0.80 1.08 1.32 1.45 1.58 1.47 0.67 0.53 0.42 0.15 0.12 0.05 0.01 0.01 0.00 0.01 0.06 0.16 0.25 0.25 0.12 0.14 0.30 0.44 0.46 0.69 1.07 0.98 1.25 1.06 1.05 1.11 0.95 0.72 0.69 0.60 0.54 0.49 0.43 0.36 0.32 0.30 0.27
0.25 0.19 0.26 0.56 0.44 0.41 1.08 1.62 1.89 1.48 1.09 0.68 0.64 0.49 0.41 0.28 0.21 0.11 0.05 0.02 0.01 0.01 0.06 0.15 0.36 0.62 0.84 0.84 1.24 1.12 1.27 1.51 1.38 1.57 2.06 1.45 1.11 0.91 0.66 0.50 0.35 0.32 0.38 0.40 0.32 0.26 0.21 0.21 0.21

GFSSGP_prec_precacc_123.txt.gz
Total_Precipitation_Accumulation
0.00 0.00 0.00 0.00 0.00 0.00 0.00 0.00 0.01 0.02 0.05 0.07 0.15 0.17 0.15 0.19 0.41 0.76 0.68 1.22 2.37 1.63 0.97 0.87 0.94 0.30 0.22 0.19 0.12 0.06 0.02 0.01 0.02 0.01 0.00 0.01 0.01 0.01 0.02 0.01 0.03 0.06 0.26 0.23 0.04 0.05 0.12 0.07 0.05
0.00 0.00 0.00 0.00 0.00 0.00 0.00 0.02 0.01 0.06 0.20 0.31 0.32 0.34 0.31 0.36 0.28 0.48 0.66 0.56 0.56 0.41 0.57 0.75 1.19 0.97 0.80 0.62 0.22 0.12 0.08 0.05 0.01 0.02 0.02 0.02 0.01 0.03 0.07 0.02 0.01 0.15 0.30 0.30 0.29 0.26 0.17 0.07 0.03
0.00 0.00 0.00 0.00 0.00 0.00 0.00 0.02 0.02 0.06 0.16 0.17 0.15 0.13 0.26 0.42 0.69 0.83 0.68 0.55 0.58 0.35 0.31 0.76 1.18 1.33 0.83 0.99 0.67 0.43 0.38 0.16 0.07 0.12 0.05 0.03 0.05 0.19 0.27 0.22 0.21 0.38 0.44 0.42 0.44 0.41 0.29 0.08 0.00
0.00 0.00 0.00 0.00 0.00 0.00 0.00 0.02 0.04 0.15 0.14 0.09 0.12 0.20 0.54 0.52 0.96 0.72 0.65 0.83 1.04 1.14 0.91 1.64 2.05 1.48 1.03 0.94 1.15 2.03 1.84 1.26 0.97 0.62 0.39 0.21 0.37 0.50 0.49 0.46 0.43 0.48 0.56 0.40 0.38 0.43 0.23 0.02 0.00
0.00 0.00 0.00 0.00 0.00 0.00 0.01 0.06 0.17 0.20 0.22 0.28 0.12 0.30 0.91 0.46 0.41 0.62 1.19 2.26 3.14 2.76 2.23 2.19 3.00 2.30 1.62 1.11 1.36 2.02 3.37 3.89 3.34 2.31 1.32 1.53 1.73 1.40 1.11 0.70 0.56 0.51 0.54 0.54 0.45 0.32 0.20 0.07 0.03
0.00 0.00 0.00 0.00 0.00 0.00 0.01 0.11 0.30 0.40 0.25 0.32 0.12 0.38 0.91 0.39 0.47 0.72 1.82 2.34 4.04 5.81 6.52 4.51 4.60 5.14 3.94 2.54 1.24 1.45 2.05 3.30 3.37 3.48 3.31 3.14 2.51 1.60 1.23 0.75 0.58 0.54 0.52 0.45 0.48 0.32 0.29 0.17 0.27
0.00 0.00 0.00 0.00 0.00 0.01 0.04 0.13 0.21 0.23 0.19 0.33 0.20 0.49 1.07 0.45 0.44 0.96 1.82 4.35 6.04 6.86 10.03 10.33 6.89 6.24 5.55 6.20 3.91 1.58 1.50 1.65 2.05 2.18 2.17 2.52 2.89 1.96 1.43 0.90 0.66 0.69 0.71 0.38 0.34 0.29 0.39 0.57 0.53
0.00 0.00 0.00 0.00 0.01 0.04 0.08 0.21 0.27 0.14 0.28 0.50 0.20 0.35 1.12 0.58 0.43 0.50 0.85 2.20 6.16 7.50 6.57 6.82 5.47 4.75 4.34 4.46 5.06 3.46 2.30 1.97 1.75 1.69 1.58 1.51 2.07 1.98 1.37 0.86 0.64 0.74 0.68 0.48 0.39 0.48 0.62 0.57 0.53
0.00 0.00 0.00 0.00 0.04 0.12 0.13 0.12 0.09 0.04 0.06 0.24 0.35 0.31 0.37 0.30 0.27 0.29 0.96 1.02 1.92 3.50 3.96 3.54 2.44 1.70 1.94 2.04 2.50 3.09 3.09 2.51 2.53 2.74 1.90 1.43 1.38 1.81 1.37 0.94 0.61 0.69 0.69 0.59 0.49 0.60 0.63 0.53 0.45
0.00 0.00 0.00 0.00 0.02 0.28 0.21 0.26 0.23 0.04 0.07 0.42 0.52 0.57 0.44 0.30 0.28 0.25 0.62 0.77 1.65 2.08 1.80 1.28 0.80 0.43 0.47 0.60 0.76 1.27 2.04 2.40 2.14 3.45 2.34 1.94 1.11 1.21 1.08 1.16 0.78 0.69 0.89 0.65 0.74 0.60 0.46 0.36 0.25
0.00 0.00 0.00 0.00 0.00 0.05 0.09 0.01 0.01 0.04 0.10 0.25 0.36 0.32 0.16 0.20 0.14 0.19 0.33 0.66 1.12 0.85 0.81 0.74 0.52 0.30 0.33 0.26 0.31 0.49 1.13 1.96 2.22 2.39 2.24 2.24 1.28 1.40 1.13 1.29 1.01 0.81 1.23 0.84 0.79 0.59 0.42 0.26 0.24
0.00 0.00 0.00 0.00 0.01 0.00 0.00 0.01 0.00 0.06 0.54 0.42 0.08 0.21 0.13 0.12 0.17 0.24 0.31 0.39 0.48 0.45 0.47 0.32 0.35 0.36 0.51 0.36 0.25 0.30 0.73 1.52 1.73 1.38 1.17 1.56 1.07 1.05 1.08 0.85 0.87 0.68 1.15 0.80 0.55 0.38 0.31 0.32 0.34
0.00 0.00 0.00 0.00 0.02 0.02 0.01 0.01 0.02 0.40 0.85 0.25 0.22 0.18 0.11 0.12 0.16 0.14 0.11 0.17 0.21 0.30 0.41 0.39 0.18 0.25 0.23 0.23 0.24 0.23 0.58 0.82 1.10 0.99 0.40 1.02 0.83 0.60 0.96 0.77 0.75 0.55 1.10 0.66 0.37 0.41 0.32 0.34 0.35
0.00 0.00 0.00 0.02 0.01 0.02 0.01 0.02 0.18 0.31 0.29 0.38 0.32 0.19 0.14 0.09 0.09 0.08 0.04 0.03 0.11 0.26 0.39 0.47 0.41 0.35 0.30 0.23 0.31 0.30 0.46 0.82 0.74 0.89 0.38 0.26 0.41 0.57 0.96 0.88 0.75 0.51 0.76 0.64 0.52 0.33 0.39 0.37 0.48
0.00 0.01 0.01 0.04 0.02 0.01 0.02 0.10 0.20 0.47 0.35 0.20 0.23 0.21 0.21 0.18 0.09 0.04 0.02 0.01 0.02 0.07 0.22 0.62 1.02 0.50 0.34 0.28 0.31 0.34 0.25 0.45 0.67 0.78 0.54 0.23 0.13 0.30 0.52 0.72 0.56 0.54 0.62 0.54 0.69 0.62 0.46 0.47 0.73
0.00 0.00 0.02 0.16 0.03 0.01 0.01 0.20 0.34 0.14 0.15 0.41 0.12 0.15 0.20 0.12 0.04 0.00 0.00 0.00 0.01 0.04 0.12 0.66 1.27 0.93 0.48 0.27 0.33 0.37 0.47 0.44 0.54 0.60 0.56 0.30 0.22 0.22 0.27 0.44 0.68 0.54 0.61 0.43 0.46 0.69 0.50 0.45 0.65
0.00 0.00 0.00 0.01 0.01 0.01 0.01 0.02 0.15 0.11 0.10 0.26 0.08 0.05 0.02 0.02 0.01 0.00 0.00 0.00 0.03 0.04 0.17 0.50 0.80 1.08 0.97 0.76 0.72 0.57 0.48 0.53 0.50 0.41 0.45 0.31 0.26 0.29 0.22 0.30 0.41 0.71 0.47 0.37 0.48 0.57 0.60 0.41 0.51
0.00 0.00 0.00 0.02 0.01 0.00 0.00 0.00 0.01 0.11 0.12 0.09 0.05 0.01 0.01 0.00 0.00 0.00 0.03 0.04 0.06 0.08 0.32 0.58 0.72 1.21 1.58 0.87 0.36 0.42 0.65 0.54 0.49 0.32 0.37 0.45 0.33 0.43 0.39 0.36 0.28 0.36 0.52 0.44 0.59 0.70 0.65 0.54 0.44
0.00 0.00 0.00 0.00 0.01 0.00 0.00 0.00 0.00 0.04 0.15 0.07 0.03 0.01 0.01 0.01 0.00 0.02 0.05 0.06 0.08 0.18 0.42 0.64 1.00 0.97 0.47 0.24 0.15 0.28 0.47 0.61 0.54 0.39 0.30 0.52 0.57 0.55 0.69 0.63 0.60 0.39 0.19 0.39 0.49 0.85 0.89 0.77 0.55
0.00 0.01 0.00 0.00 0.00 0.00 0.01 0.00 0.00 0.00 0.02 0.00 0.00 0.01 0.00 0.01 0.00 0.01 0.04 0.10 0.29 0.44 0.44 0.33 0.15 0.13 0.05 0.06 0.10 0.17 0.25 0.45 0.48 0.39 0.18 0.35 0.59 0.83 0.69 0.61 0.74 0.69 0.36 0.18 0.32 0.66 1.10 0.99 0.66
0.00 0.00 0.00 0.00 0.00 0.01 0.03 0.01 0.00 0.00 0.00 0.00 0.01 0.03 0.01 0.01 0.01 0.04 0.08 0.13 0.11 0.05 0.02 0.06 0.08 0.14 0.05 0.04 0.13 0.23 0.39 0.57 0.49 0.45 0.25 0.23 0.31 0.63 0.85 0.75 0.65 0.71 0.46 0.19 0.12 0.25 0.69 0.71 0.70
0.00 0.00 0.01 0.01 0.03 0.08 0.06 0.08 0.01 0.00 0.00 0.00 0.01 0.02 0.02 0.02 0.03 0.03 0.00 0.00 0.01 0.02 0.03 0.06 0.12 0.15 0.06 0.05 0.04 0.07 0.15 0.24 0.24 0.23 0.20 0.19 0.24 0.32 0.60 0.84 0.69 0.64 0.71 0.51 0.18 0.11 0.32 0.59 0.60
0.01 0.01 0.05 0.05 0.06 0.05 0.04 0.11 0.02 0.02 0.09 0.05 0.02 0.01 0.04 0.01 0.00 0.00 0.01 0.00 0.00 0.04 0.07 0.08 0.15 0.28 0.21 0.12 0.15 0.21 0.24 0.25 0.27 0.21 0.15 0.16 0.23 0.33 0.35 0.54 0.65 0.59 0.53 0.54 0.43 0.28 0.29 0.54 0.69
0.08 0.05 0.11 0.10 0.13 0.15 0.01 0.06 0.09 0.50 0.47 0.32 0.16 0.07 0.12 0.03 0.02 0.02 0.02 0.01 0.01 0.05 0.08 0.10 0.13 0.24 0.27 0.23 0.27 0.33 0.35 0.30 0.24 0.16 0.14 0.14 0.32 0.33 0.32 0.46 0.52 0.64 0.67 0.71 0.73 0.71 0.60 0.47 0.65
0.10 0.23 0.42 0.48 0.32 0.11 0.05 0.07 0.21 0.44 0.39 0.34 0.26 0.14 0.08 0.04 0.02 0.04 0.02 0.01 0.02 0.04 0.08 0.08 0.07 0.11 0.13 0.18 0.15 0.12 0.21 0.24 0.21 0.19 0.25 0.29 0.35 0.24 0.28 0.41 0.40 0.32 0.44 0.81 0.99 1.10 0.81 0.62 0.62
0.08 0.22 0.29 0.33 0.23 0.12 0.09 0.18 0.59 0.46 0.72 0.44 0.65 0.29 0.16 0.09 0.03 0.02 0.01 0.03 0.03 0.07 0.18 0.12 0.12 0.13 0.09 0.15 0.21 0.23 0.31 0.39 0.42 0.38 0.37 0.28 0.41 0.37 0.49 0.65 0.71 0.54 0.45 0.53 0.75 0.96 1.01 1.05 0.82
0.16 0.16 0.10 0.46 0.30 0.29 0.27 0.72 0.54 0.44 0.72 1.45 0.74 0.33 0.28 0.15 0.05 0.00 0.02 0.03 0.04 0.04 0.17 0.21 0.15 0.13 0.09 0.12 0.18 0.29 0.45 0.48 0.36 0.42 0.68 0.48 0.44 0.41 0.54 0.58 0.50 0.50 0.45 0.50 0.67 0.74 0.64 0.69 0.80
0.13 0.25 0.41 0.60 0.49 0.51 0.34 0.51 0.76 0.82 1.12 0.92 1.06 1.00 0.40 0.35 0.14 0.04 0.01 0.01 0.02 0.03 0.12 0.16 0.11 0.12 0.11 0.09 0.11 0.20 0.33 0.45 0.57 0.88 1.14 1.27 1.13 0.94 0.62 0.62 0.60 0.47 0.31 0.33 0.34 0.37 0.39 0.43 0.52
0.21 0.36 0.37 0.35 0.35 0.75 0.85 1.14 1.38 1.52 1.67 1.64 0.96 0.92 0.92 0.46 0.49 0.23 0.10 0.02 0.01 0.01 0.07 0.16 0.26 0.26 0.12 0.14 0.30 0.44 0.46 0.69 1.07 0.98 1.25 1.07 1.07 1.19 1.01 0.78 0.74 0.62 0.57 0.53 0.47 0.37 0.33 0.31 0.28
0.26 0.20 0.27 0.57 0.44 0.42 1.11 1.66 1.94 1.56 1.19 0.77 0.76 0.65 0.61 0.60 0.47 0.44 0.33 0.24 0.04 0.02 0.06 0.16 0.36 0.62 0.85 0.84 1.24 1.12 1.27 1.51 1.38 1.57 2.07 1.46 1.12 0.92 0.71 0.58 0.42 0.37 0.41 0.43 0.37 0.28 0.23 0.23 0.23

GFSSGP_prec_precacc_126.txt.gz
Total_Precipitation_Accumulation
0.00 0.00 0.00 0.00 0.00 0.00 0.00 0.00 0.01 0.02 0.05 0.07 0.15 0.17 0.15 0.19 0.41 0.76 0.68 1.22 2.37 1.63 0.97 0.87 0.94 0.30 0.22 0.19 0.12 0.06 0.02 0.01 0.02 0.01 0.00 0.01 0.01 0.01 0.02 0.01 0.03 0.06 0.26 0.23 0.04 0.05 0.12 0.07 0.05
0.00 0.00 0.00 0.00 0.00 0.00 0.00 0.02 0.01 0.06 0.20 0.31 0.32 0.34 0.31 0.36 0.28 0.48 0.66 0.56 0.56 0.41 0.57 0.75 1.19 0.97 0.80 0.62 0.22 0.12 0.08 0.05 0.01 0.02 0.02 0.02 0.01 0.03 0.07 0.02 0.01 0.15 0.30 0.30 0.29 0.26 0.17 0.07 0.03
0.00 0.00 0.00 0.00 0.00 0.00 0.00 0.02 0.02 0.06 0.16 0.17 0.15 0.13 0.26 0.42 0.69 0.83 0.68 0.55 0.58 0.35 0.31 0.76 1.18 1.33 0.83 0.99 0.67 0.43 0.38 0.16 0.07 0.12 0.05 0.03 0.05 0.19 0.27 0.22 0.21 0.38 0.44 0.42 0.44 0.41 0.29 0.08 0.00
0.00 0.00 0.00 0.00 0.00 0.00 0.00 0.02 0.04 0.15 0.14 0.09 0.12 0.20 0.54 0.52 0.96 0.72 0.65 0.83 1.04 1.14 0.91 1.64 2.05 1.48 1.03 0.94 1.15 2.03 1.84 1.26 0.97 0.62 0.39 0.21 0.37 0.50 0.49 0.46 0.43 0.48 0.56 0.40 0.38 0.43 0.23 0.02 0.00
0.00 0.00 0.00 0.00 0.00 0.00 0.01 0.06 0.17 0.20 0.22 0.28 0.12 0.30 0.91 0.46 0.41 0.62 1.19 2.26 3.14 2.76 2.23 2.19 3.00 2.30 1.62 1.11 1.36 2.02 3.37 3.89 3.34 2.31 1.32 1.53 1.73 1.40 1.11 0.70 0.56 0.51 0.54 0.54 0.45 0.32 0.20 0.07 0.03
0.00 0.00 0.00 0.00 0.00 0.00 0.01 0.11 0.30 0.40 0.25 0.32 0.12 0.38 0.91 0.39 0.47 0.72 1.82 2.34 4.04 5.81 6.52 4.51 4.60 5.14 3.94 2.54 1.24 1.45 2.05 3.30 3.37 3.48 3.31 3.14 2.51 1.60 1.23 0.75 0.58 0.54 0.52 0.45 0.48 0.32 0.29 0.17 0.27
0.00 0.00 0.00 0.00 0.00 0.01 0.04 0.13 0.21 0.23 0.19 0.33 0.20 0.49 1.07 0.45 0.44 0.96 1.82 4.35 6.04 6.86 10.03 10.33 6.89 6.24 5.55 6.20 3.91 1.58 1.50 1.65 2.05 2.18 2.17 2.52 2.89 1.96 1.43 0.90 0.66 0.69 0.71 0.38 0.34 0.29 0.39 0.57 0.53
0.00 0.00 0.00 0.00 0.01 0.04 0.08 0.21 0.27 0.14 0.28 0.50 0.20 0.35 1.12 0.58 0.43 0.50 0.85 2.20 6.16 7.50 6.57 6.82 5.47 4.75 4.34 4.46 5.06 3.46 2.30 1.97 1.75 1.69 1.58 1.51 2.07 1.98 1.37 0.86 0.64 0.74 0.68 0.48 0.39 0.48 0.62 0.57 0.53
0.00 0.00 0.00 0.00 0.04 0.12 0.13 0.12 0.09 0.04 0.06 0.24 0.35 0.31 0.37 0.30 0.27 0.29 0.96 1.02 1.92 3.50 3.96 3.54 2.44 1.70 1.94 2.04 2.50 3.09 3.09 2.51 2.53 2.74 1.90 1.43 1.38 1.81 1.37 0.94 0.62 0.72 0.69 0.59 0.49 0.60 0.63 0.53 0.45
0.00 0.00 0.00 0.00 0.02 0.28 0.21 0.26 0.23 0.04 0.07 0.42 0.52 0.57 0.44 0.30 0.28 0.25 0.62 0.77 1.65 2.08 1.80 1.28 0.80 0.43 0.47 0.60 0.76 1.27 2.04 2.40 2.14 3.45 2.34 1.94 1.11 1.21 1.08 1.16 0.79 0.74 0.93 0.65 0.74 0.60 0.46 0.36 0.25
0.00 0.00 0.00 0.00 0.00 0.05 0.09 0.01 0.01 0.04 0.10 0.25 0.36 0.32 0.16 0.20 0.14 0.19 0.33 0.66 1.12 0.85 0.81 0.74 0.52 0.30 0.33 0.26 0.31 0.49 1.13 1.96 2.22 2.39 2.24 2.24 1.28 1.41 1.13 1.29 1.01 0.82 1.24 0.84 0.79 0.59 0.42 0.26 0.24
0.00 0.00 0.00 0.00 0.01 0.00 0.00 0.01 0.00 0.06 0.54 0.42 0.08 0.21 0.13 0.12 0.17 0.24 0.31 0.39 0.48 0.45 0.47 0.32 0.35 0.36 0.51 0.36 0.25 0.30 0.73 1.52 1.73 1.38 1.17 1.56 1.07 1.06 1.08 0.86 0.87 0.69 1.15 0.81 0.55 0.38 0.31 0.32 0.34
0.00 0.00 0.00 0.00 0.02 0.02 0.01 0.01 0.02 0.40 0.85 0.25 0.22 0.18 0.11 0.12 0.16 0.14 0.11 0.17 0.21 0.30 0.41 0.39 0.18 0.25 0.23 0.23 0.24 0.23 0.58 0.82 1.10 0.99 0.40 1.02 0.83 0.60 0.96 0.77 0.75 0.56 1.11 0.67 0.38 0.41 0.32 0.34 0.35
0.00 0.00 0.00 0.02 0.01 0.02 0.01 0.02 0.18 0.31 0.29 0.38 0.32 0.19 0.14 0.09 0.09 0.08 0.04 0.03 0.11 0.26 0.39 0.47 0.41 0.35 0.30 0.23 0.31 0.30 0.46 0.82 0.74 0.89 0.38 0.26 0.41 0.57 0.96 0.88 0.76 0.52 0.76 0.64 0.52 0.33 0.39 0.37 0.49
0.00 0.01 0.01 0.04 0.02 0.01 0.02 0.10 0.20 0.47 0.35 0.20 0.23 0.21 0.21 0.18 0.09 0.04 0.02 0.01 0.02 0.07 0.22 0.62 1.02 0.50 0.34 0.28 0.31 0.34 0.25 0.45 0.67 0.78 0.54 0.23 0.13 0.30 0.52 0.72 0.56 0.54 0.63 0.54 0.69 0.62 0.46 0.48 0.74
0.00 0.00 0.02 0.16 0.03 0.01 0.01 0.20 0.34 0.14 0.15 0.41 0.12 0.15 0.20 0.12 0.04 0.00 0.00 0.00 0.01 0.04 0.12 0.66 1.27 0.93 0.48 0.27 0.33 0.37 0.47 0.44 0.54 0.60 0.56 0.30 0.22 0.22 0.27 0.44 0.68 0.55 0.61 0.43 0.46 0.69 0.50 0.46 0.67
0.00 0.00 0.00 0.01 0.01 0.01 0.01 0.02 0.15 0.11 0.10 0.26 0.08 0.05 0.02 0.02 0.01 0.00 0.00 0.00 0.03 0.04 0.17 0.50 0.80 1.08 0.97 0.76 0.72 0.57 0.48 0.53 0.50 0.41 0.45 0.31 0.26 0.29 0.22 0.30 0.41 0.71 0.47 0.37 0.48 0.57 0.60 0.41 0.52
0.00 0.00 0.00 0.02 0.01 0.00 0.00 0.00 0.01 0.11 0.12 0.09 0.05 0.01 0.01 0.00 0.00 0.00 0.03 0.04 0.06 0.08 0.32 0.58 0.72 1.21 1.58 0.87 0.36 0.42 0.65 0.54 0.49 0.32 0.37 0.45 0.33 0.43 0.40 0.36 0.28 0.36 0.52 0.44 0.59 0.70 0.65 0.54 0.44
0.00 0.00 0.00 0.00 0.01 0.00 0.00 0.00 0.00 0.04 0.15 0.07 0.03 0.01 0.01 0.01 0.00 0.02 0.05 0.06 0.08 0.18 0.42 0.64 1.00 0.97 0.47 0.24 0.15 0.28 0.47 0.61 0.54 0.39 0.30 0.52 0.57 0.55 0.69 0.63 0.60 0.39 0.19 0.39 0.49 0.85 0.90 0.77 0.55
0.00 0.01 0.00 0.00 0.00 0.00 0.01 0.00 0.00 0.00 0.02 0.00 0.00 0.01 0.00 0.01 0.00 0.01 0.04 0.10 0.29 0.44 0.44 0.33 0.15 0.13 0.05 0.06 0.10 0.17 0.25 0.45 0.49 0.39 0.19 0.35 0.59 0.83 0.69 0.61 0.74 0.69 0.36 0.18 0.32 0.66 1.10 0.99 0.67
0.00 0.00 0.00 0.00 0.00 0.01 0.03 0.01 0.00 0.00 0.00 0.00 0.01 0.03 0.01 0.01 0.01 0.04 0.08 0.13 0.11 0.05 0.02 0.06 0.08 0.14 0.06 0.04 0.13 0.24 0.39 0.57 0.49 0.45 0.25 0.23 0.31 0.63 0.85 0.75 0.65 0.71 0.46 0.19 0.12 0.25 0.69 0.71 0.70
0.00 0.00 0.01 0.01 0.03 0.08 0.06 0.08 0.01 0.00 0.00 0.00 0.01 0.02 0.03 0.02 0.03 0.03 0.00 0.00 0.01 0.02 0.03 0.06 0.13 0.16 0.07 0.09 0.12 0.10 0.15 0.24 0.24 0.23 0.21 0.19 0.25 0.32 0.60 0.84 0.69 0.64 0.71 0.51 0.18 0.11 0.32 0.59 0.61
0.01 0.01 0.05 0.05 0.06 0.05 0.04 0.11 0.02 0.02 0.09 0.06 0.03 0.02 0.05 0.02 0.01 0.01 0.01 0.00 0.00 0.04 0.07 0.08 0.15 0.28 0.21 0.17 0.37 0.34 0.27 0.26 0.27 0.21 0.15 0.16 0.24 0.34 0.35 0.55 0.66 0.61 0.56 0.57 0.44 0.28 0.30 0.54 0.70
0.08 0.05 0.11 0.10 0.13 0.15 0.01 0.06 0.09 0.52 0.51 0.34 0.17 0.10 0.16 0.06 0.06 0.05 0.04 0.02 0.02 0.07 0.09 0.10 0.13 0.24 0.27 0.23 0.30 0.53 0.48 0.31 0.25 0.16 0.14 0.15 0.32 0.34 0.34 0.47 0.55 0.69 0.77 0.77 0.76 0.72 0.60 0.48 0.65
0.10 0.23 0.42 0.48 0.32 0.11 0.05 0.07 0.23 0.46 0.44 0.42 0.32 0.20 0.16 0.11 0.10 0.10 0.07 0.04 0.05 0.08 0.13 0.11 0.09 0.11 0.13 0.18 0.15 0.12 0.22 0.24 0.21 0.20 0.27 0.31 0.37 0.24 0.28 0.46 0.47 0.37 0.48 0.83 0.99 1.11 0.82 0.62 0.62
0.08 0.22 0.29 0.33 0.23 0.12 0.09 0.21 0.65 0.57 0.79 0.54 0.78 0.44 0.31 0.22 0.13 0.10 0.09 0.07 0.05 0.09 0.23 0.14 0.14 0.14 0.10 0.15 0.21 0.24 0.33 0.40 0.44 0.40 0.39 0.31 0.43 0.40 0.53 0.68 0.82 0.68 0.53 0.54 0.76 0.96 1.03 1.06 0.82
0.16 0.16 0.10 0.46 0.30 0.29 0.27 0.76 0.63 0.48 0.78 1.53 0.88 0.49 0.60 0.51 0.24 0.12 0.11 0.11 0.10 0.09 0.20 0.24 0.17 0.16 0.12 0.15 0.20 0.30 0.47 0.51 0.39 0.44 0.70 0.51 0.47 0.44 0.58 0.63 0.57 0.64 0.54 0.54 0.69 0.76 0.67 0.71 0.81
0.14 0.25 0.41 0.61 0.49 0.52 0.36 0.54 0.79 0.83 1.15 0.99 1.19 1.21 0.60 0.63 0.42 0.18 0.10 0.07 0.04 0.07 0.15 0.19 0.16 0.16 0.15 0.12 0.12 0.21 0.33 0.45 0.57 0.89 1.15 1.29 1.14 0.97 0.65 0.64 0.66 0.54 0.38 0.37 0.37 0.39 0.40 0.44 0.54
0.22 0.36 0.38 0.36 0.36 0.77 0.87 1.17 1.43 1.56 1.73 1.72 1.07 1.11 1.22 0.66 0.86 0.51 0.24 0.15 0.06 0.02 0.09 0.18 0.28 0.28 0.13 0.15 0.31 0.44 0.46 0.69 1.07 0.98 1.25 1.07 1.07 1.20 1.04 0.81 0.79 0.65 0.59 0.54 0.49 0.39 0.34 0.32 0.31
0.27 0.21 0.27 0.58 0.45 0.43 1.13 1.70 1.99 1.61 1.24 0.82 0.80 0.73 0.72 0.79 0.78 0.89 0.64 0.43 0.12 0.03 0.07 0.16 0.37 0.64 0.86 0.85 1.25 1.13 1.28 1.51 1.38 1.57 2.07 1.46 1.12 0.92 0.72 0.62 0.48 0.44 0.46 0.46 0.38 0.29 0.23 0.25 0.28

GFSSGP_prec_precacc_129.txt.gz
Total_Precipitation_Accumulation
0.00 0.00 0.00 0.00 0.00 0.00 0.00 0.00 0.01 0.02 0.05 0.07 0.15 0.17 0.15 0.19 0.41 0.76 0.68 1.22 2.37 1.63 0.97 0.87 0.94 0.30 0.22 0.19 0.12 0.06 0.02 0.01 0.02 0.01 0.00 0.01 0.01 0.01 0.02 0.01 0.03 0.06 0.26 0.23 0.04 0.05 0.12 0.07 0.05
0.00 0.00 0.00 0.00 0.00 0.00 0.00 0.02 0.01 0.06 0.20 0.31 0.32 0.34 0.31 0.36 0.28 0.48 0.66 0.56 0.56 0.41 0.57 0.75 1.19 0.97 0.80 0.62 0.22 0.12 0.08 0.05 0.01 0.02 0.02 0.02 0.01 0.03 0.07 0.02 0.01 0.15 0.30 0.30 0.29 0.26 0.17 0.07 0.03
0.00 0.00 0.00 0.00 0.00 0.00 0.00 0.02 0.02 0.06 0.16 0.17 0.15 0.13 0.26 0.42 0.69 0.83 0.68 0.55 0.58 0.35 0.31 0.76 1.18 1.33 0.83 0.99 0.67 0.43 0.38 0.16 0.07 0.12 0.05 0.03 0.05 0.19 0.27 0.22 0.21 0.38 0.44 0.42 0.44 0.41 0.29 0.08 0.00
0.00 0.00 0.00 0.00 0.00 0.00 0.00 0.02 0.04 0.15 0.14 0.09 0.12 0.20 0.54 0.52 0.96 0.72 0.65 0.83 1.04 1.14 0.91 1.64 2.05 1.48 1.03 0.94 1.15 2.03 1.84 1.26 0.97 0.62 0.39 0.21 0.37 0.50 0.49 0.46 0.43 0.48 0.56 0.40 0.38 0.43 0.23 0.02 0.00
0.00 0.00 0.00 0.00 0.00 0.00 0.01 0.06 0.17 0.20 0.22 0.28 0.12 0.30 0.91 0.46 0.41 0.62 1.19 2.26 3.14 2.76 2.23 2.19 3.00 2.30 1.62 1.11 1.36 2.02 3.37 3.89 3.34 2.31 1.32 1.53 1.73 1.40 1.11 0.70 0.56 0.51 0.54 0.54 0.45 0.32 0.20 0.07 0.03
0.00 0.00 0.00 0.00 0.00 0.00 0.01 0.11 0.30 0.40 0.25 0.32 0.12 0.38 0.91 0.39 0.47 0.72 1.82 2.34 4.04 5.81 6.52 4.51 4.60 5.14 3.94 2.54 1.24 1.45 2.05 3.30 3.37 3.48 3.31 3.14 2.51 1.60 1.23 0.75 0.58 0.54 0.52 0.45 0.48 0.32 0.29 0.17 0.27
0.00 0.00 0.00 0.00 0.00 0.01 0.04 0.13 0.21 0.23 0.19 0.33 0.20 0.49 1.07 0.45 0.44 0.96 1.82 4.35 6.04 6.86 10.03 10.33 6.89 6.24 5.55 6.20 3.91 1.58 1.50 1.65 2.05 2.18 2.17 2.52 2.89 1.96 1.43 0.90 0.66 0.69 0.71 0.38 0.34 0.29 0.39 0.57 0.53
0.00 0.00 0.00 0.00 0.01 0.04 0.08 0.21 0.27 0.14 0.28 0.50 0.20 0.35 1.12 0.58 0.43 0.50 0.85 2.20 6.16 7.50 6.57 6.82 5.47 4.75 4.34 4.46 5.06 3.46 2.30 1.97 1.75 1.69 1.58 1.51 2.07 1.98 1.37 0.86 0.64 0.74 0.68 0.48 0.39 0.48 0.62 0.57 0.53
0.00 0.00 0.00 0.00 0.04 0.12 0.13 0.12 0.09 0.04 0.06 0.24 0.35 0.31 0.37 0.30 0.27 0.29 0.96 1.02 1.92 3.50 3.96 3.55 2.44 1.70 1.94 2.04 2.50 3.09 3.09 2.51 2.53 2.74 1.90 1.43 1.38 1.81 1.37 0.94 0.62 0.73 0.70 0.59 0.49 0.60 0.63 0.53 0.45
0.00 0.00 0.00 0.00 0.02 0.28 0.21 0.26 0.23 0.04 0.07 0.42 0.52 0.57 0.44 0.30 0.28 0.25 0.62 0.77 1.65 2.08 1.80 1.28 0.80 0.43 0.47 0.60 0.76 1.27 2.04 2.40 2.14 3.45 2.34 1.94 1.11 1.21 1.08 1.16 0.80 0.75 0.94 0.65 0.74 0.60 0.46 0.36 0.25
0.00 0.00 0.00 0.00 0.00 0.05 0.09 0.01 0.01 0.04 0.10 0.25 0.36 0.32 0.16 0.20 0.14 0.19 0.33 0.66 1.12 0.85 0.81 0.74 0.52 0.30 0.33 0.26 0.31 0.49 1.13 1.96 2.22 2.39 2.24 2.24 1.28 1.42 1.14 1.31 1.01 0.82 1.24 0.84 0.79 0.59 0.42 0.26 0.24
0.00 0.00 0.00 0.00 0.01 0.00 0.00 0.01 0.00 0.06 0.54 0.42 0.08 0.21 0.13 0.12 0.17 0.24 0.31 0.39 0.48 0.45 0.47 0.32 0.35 0.36 0.51 0.36 0.25 0.30 0.73 1.52 1.73 1.38 1.17 1.56 1.07 1.07 1.09 0.88 0.88 0.69 1.15 0.81 0.55 0.38 0.31 0.32 0.34
0.00 0.00 0.00 0.00 0.02 0.02 0.01 0.01 0.02 0.40 0.85 0.25 0.22 0.18 0.11 0.12 0.16 0.14 0.11 0.17 0.21 0.30 0.41 0.39 0.18 0.25 0.23 0.23 0.24 0.23 0.58 0.82 1.10 0.99 0.40 1.02 0.83 0.61 0.97 0.78 0.77 0.56 1.12 0.67 0.38 0.41 0.33 0.35 0.35
0.00 0.00 0.00 0.02 0.01 0.02 0.01 0.02 0.18 0.31 0.29 0.38 0.32 0.19 0.14 0.09 0.09 0.08 0.04 0.03 0.11 0.26 0.39 0.47 0.41 0.35 0.30 0.23 0.31 0.30 0.46 0.82 0.74 0.89 0.38 0.26 0.41 0.57 0.97 0.89 0.76 0.52 0.78 0.66 0.53 0.33 0.40 0.37 0.49
0.00 0.01 0.01 0.04 0.02 0.01 0.02 0.10 0.20 0.47 0.35 0.20 0.23 0.21 0.21 0.18 0.09 0.04 0.02 0.01 0.02 0.07 0.22 0.62 1.02 0.50 0.34 0.28 0.31 0.34 0.25 0.45 0.67 0.78 0.54 0.23 0.13 0.30 0.52 0.72 0.57 0.54 0.63 0.56 0.71 0.64 0.47 0.48 0.74
0.00 0.00 0.02 0.16 0.03 0.01 0.01 0.20 0.34 0.14 0.15 0.41 0.12 0.15 0.20 0.12 0.04 0.00 0.00 0.00 0.01 0.04 0.12 0.66 1.27 0.93 0.48 0.27 0.33 0.37 0.47 0.44 0.54 0.60 0.56 0.30 0.22 0.22 0.27 0.44 0.68 0.55 0.62 0.44 0.47 0.70 0.51 0.46 0.67
0.00 0.00 0.00 0.01 0.01 0.01 0.01 0.02 0.15 0.11 0.10 0.26 0.08 0.05 0.02 0.02 0.01 0.00 0.00 0.00 0.03 0.04 0.17 0.50 0.80 1.08 0.97 0.77 0.72 0.57 0.48 0.53 0.50 0.41 0.45 0.31 0.26 0.29 0.23 0.30 0.41 0.71 0.48 0.37 0.48 0.57 0.61 0.41 0.53
0.00 0.00 0.00 0.02 0.01 0.00 0.00 0.00 0.01 0.11 0.12 0.09 0.05 0.01 0.01 0.00 0.00 0.00 0.03 0.04 0.06 0.08 0.32 0.58 0.72 1.21 1.58 0.88 0.38 0.42 0.65 0.54 0.49 0.32 0.37 0.45 0.33 0.43 0.40 0.37 0.28 0.36 0.52 0.45 0.60 0.70 0.66 0.54 0.45
0.00 0.00 0.00 0.00 0.01 0.00 0.00 0.00 0.00 0.04 0.15 0.07 0.03 0.01 0.01 0.01 0.00 0.02 0.05 0.06 0.08 0.18 0.42 0.64 1.00 0.97 0.47 0.25 0.18 0.29 0.47 0.61 0.54 0.39 0.30 0.52 0.57 0.55 0.69 0.63 0.60 0.39 0.19 0.39 0.49 0.85 0.90 0.77 0.56
0.00 0.01 0.00 0.00 0.00 0.00 0.01 0.00 0.00 0.00 0.02 0.00 0.00 0.01 0.00 0.01 0.00 0.01 0.04 0.10 0.29 0.44 0.44 0.33 0.15 0.13 0.05 0.06 0.10 0.18 0.25 0.45 0.49 0.39 0.19 0.35 0.59 0.83 0.69 0.61 0.74 0.69 0.36 0.18 0.32 0.66 1.10 0.99 0.67
0.00 0.00 0.00 0.00 0.00 0.01 0.03 0.01 0.00 0.00 0.00 0.00 0.01 0.03 0.01 0.01 0.01 0.04 0.08 0.13 0.11 0.05 0.02 0.06 0.08 0.14 0.07 0.05 0.15 0.25 0.40 0.57 0.49 0.45 0.25 0.23 0.31 0.63 0.85 0.75 0.65 0.71 0.46 0.19 0.12 0.25 0.69 0.71 0.70
0.00 0.00 0.01 0.01 0.03 0.08 0.06 0.08 0.01 0.00 0.00 0.00 0.01 0.02 0.03 0.03 0.04 0.03 0.01 0.00 0.01 0.02 0.03 0.06 0.13 0.16 0.10 0.20 0.33 0.22 0.18 0.24 0.24 0.23 0.21 0.19 0.25 0.32 0.60 0.84 0.69 0.64 0.71 0.51 0.18 0.11 0.32 0.60 0.61
0.01 0.01 0.05 0.05 0.06 0.05 0.04 0.11 0.02 0.02 0.09 0.06 0.03 0.02 0.05 0.03 0.02 0.02 0.02 0.01 0.00 0.04 0.08 0.08 0.15 0.28 0.21 0.21 0.55 0.62 0.50 0.35 0.31 0.23 0.17 0.17 0.24 0.34 0.35 0.55 0.66 0.61 0.56 0.58 0.44 0.28 0.30 0.55 0.70
0.08 0.05 0.11 0.10 0.13 0.15 0.01 0.06 0.09 0.52 0.52 0.34 0.18 0.11 0.16 0.07 0.06 0.06 0.06 0.04 0.04 0.09 0.12 0.11 0.13 0.24 0.27 0.24 0.38 0.69 1.03 1.23 1.07 0.77 0.32 0.17 0.35 0.37 0.35 0.48 0.55 0.69 0.78 0.78 0.77 0.72 0.60 0.48 0.65
0.10 0.23 0.42 0.48 0.32 0.11 0.05 0.07 0.24 0.47 0.44 0.43 0.33 0.21 0.17 0.12 0.11 0.12 0.09 0.08 0.08 0.12 0.20 0.20 0.13 0.12 0.14 0.19 0.19 0.22 0.39 0.58 0.91 1.33 1.31 0.51 0.39 0.25 0.29 0.47 0.49 0.38 0.49 0.84 1.00 1.12 0.82 0.63 0.63
0.08 0.22 0.29 0.33 0.23 0.12 0.09 0.22 0.66 0.57 0.79 0.54 0.78 0.45 0.32 0.24 0.15 0.12 0.13 0.12 0.10 0.15 0.31 0.29 0.26 0.23 0.12 0.16 0.24 0.33 0.40 0.47 0.55 0.58 0.70 0.43 0.46 0.41 0.55 0.71 0.83 0.71 0.56 0.56 0.77 0.98 1.04 1.07 0.82
0.16 0.16 0.10 0.46 0.30 0.29 0.28 0.77 0.64 0.48 0.78 1.53 0.89 0.51 0.64 0.60 0.34 0.18 0.17 0.21 0.21 0.17 0.30 0.40 0.32 0.27 0.21 0.20 0.22 0.33 0.52 0.53 0.42 0.47 0.75 0.55 0.48 0.45 0.59 0.65 0.59 0.69 0.62 0.61 0.72 0.79 0.68 0.73 0.82
0.14 0.25 0.43 0.63 0.50 0.53 0.37 0.55 0.80 0.83 1.15 1.00 1.21 1.25 0.67 0.74 0.60 0.32 0.24 0.24 0.21 0.20 0.24 0.32 0.29 0.26 0.22 0.20 0.20 0.28 0.38 0.48 0.60 0.91 1.18 1.32 1.16 0.98 0.66 0.65 0.69 0.58 0.43 0.41 0.40 0.41 0.43 0.46 0.55
0.23 0.37 0.38 0.37 0.37 0.78 0.88 1.21 1.44 1.57 1.73 1.72 1.08 1.15 1.30 0.78 1.05 0.77 0.45 0.35 0.30 0.21 0.16 0.27 0.35 0.35 0.20 0.20 0.34 0.47 0.49 0.72 1.09 0.99 1.25 1.07 1.07 1.20 1.04 0.82 0.80 0.67 0.62 0.58 0.51 0.43 0.37 0.36 0.33
0.27 0.23 0.29 0.61 0.48 0.48 1.18 1.73 2.00 1.61 1.25 0.83 0.81 0.75 0.76 0.87 0.92 1.15 0.87 0.68 0.55 0.16 0.12 0.21 0.42 0.68 0.90 0.92 1.28 1.16 1.28 1.52 1.38 1.57 2.07 1.46 1.12 0.92 0.72 0.62 0.51 0.46 0.48 0.48 0.41 0.32 0.27 0.28 0.30

GFSSGP_prec_precacc_132.txt.gz
Total_Precipitation_Accumulation
0.00 0.00 0.00 0.00 0.00 0.00 0.00 0.00 0.01 0.02 0.05 0.07 0.15 0.17 0.15 0.19 0.41 0.76 0.68 1.22 2.37 1.63 0.97 0.87 0.94 0.30 0.22 0.19 0.12 0.06 0.02 0.01 0.02 0.01 0.00 0.01 0.01 0.01 0.02 0.01 0.03 0.06 0.26 0.23 0.04 0.05 0.12 0.07 0.05
0.00 0.00 0.00 0.00 0.00 0.00 0.00 0.02 0.01 0.06 0.20 0.31 0.32 0.34 0.31 0.36 0.28 0.48 0.66 0.56 0.56 0.41 0.57 0.75 1.19 0.97 0.80 0.62 0.22 0.12 0.08 0.05 0.01 0.02 0.02 0.02 0.01 0.03 0.07 0.02 0.01 0.15 0.30 0.30 0.29 0.26 0.17 0.07 0.03
0.00 0.00 0.00 0.00 0.00 0.00 0.00 0.02 0.02 0.06 0.16 0.17 0.15 0.13 0.26 0.42 0.69 0.83 0.68 0.55 0.58 0.35 0.31 0.76 1.18 1.33 0.83 0.99 0.67 0.43 0.38 0.16 0.07 0.12 0.05 0.03 0.05 0.19 0.27 0.22 0.21 0.38 0.44 0.42 0.44 0.41 0.29 0.08 0.00
0.00 0.00 0.00 0.00 0.00 0.00 0.00 0.02 0.04 0.15 0.14 0.09 0.12 0.20 0.54 0.52 0.96 0.72 0.65 0.83 1.04 1.14 0.91 1.64 2.05 1.48 1.03 0.94 1.15 2.03 1.84 1.26 0.97 0.62 0.39 0.21 0.37 0.50 0.49 0.46 0.43 0.48 0.56 0.40 0.38 0.43 0.23 0.02 0.00
0.00 0.00 0.00 0.00 0.00 0.00 0.01 0.06 0.17 0.20 0.22 0.28 0.12 0.30 0.91 0.46 0.41 0.62 1.19 2.26 3.14 2.76 2.23 2.19 3.00 2.30 1.62 1.11 1.36 2.02 3.37 3.89 3.34 2.31 1.32 1.53 1.73 1.40 1.11 0.70 0.56 0.51 0.54 0.54 0.45 0.32 0.20 0.07 0.03
0.00 0.00 0.00 0.00 0.00 0.00 0.01 0.11 0.30 0.40 0.25 0.32 0.12 0.38 0.91 0.39 0.47 0.72 1.82 2.34 4.04 5.81 6.52 4.51 4.60 5.14 3.94 2.54 1.24 1.45 2.05 3.30 3.37 3.48 3.31 3.14 2.51 1.60 1.23 0.75 0.58 0.54 0.52 0.45 0.48 0.32 0.29 0.17 0.27
0.00 0.00 0.00 0.00 0.00 0.01 0.04 0.13 0.21 0.23 0.19 0.33 0.20 0.49 1.07 0.45 0.44 0.96 1.82 4.35 6.04 6.86 10.03 10.33 6.89 6.24 5.55 6.20 3.91 1.58 1.50 1.65 2.05 2.18 2.17 2.52 2.89 1.96 1.43 0.90 0.66 0.69 0.71 0.38 0.34 0.29 0.39 0.57 0.53
0.00 0.00 0.00 0.00 0.01 0.04 0.08 0.21 0.27 0.14 0.28 0.50 0.20 0.35 1.12 0.58 0.43 0.50 0.85 2.20 6.16 7.50 6.57 6.83 5.47 4.75 4.34 4.46 5.06 3.46 2.30 1.97 1.75 1.69 1.58 1.51 2.07 1.98 1.37 0.86 0.64 0.74 0.68 0.48 0.39 0.48 0.62 0.57 0.53
0.00 0.00 0.00 0.00 0.04 0.12 0.13 0.12 0.09 0.04 0.06 0.24 0.35 0.31 0.37 0.30 0.27 0.29 0.96 1.02 1.92 3.50 3.96 3.56 2.45 1.70 1.94 2.04 2.50 3.09 3.09 2.51 2.53 2.74 1.90 1.43 1.38 1.81 1.37 0.94 0.62 0.73 0.70 0.59 0.49 0.60 0.63 0.53 0.45
0.00 0.00 0.00 0.00 0.02 0.28 0.21 0.26 0.23 0.04 0.07 0.42 0.52 0.57 0.44 0.30 0.28 0.25 0.62 0.77 1.65 2.08 1.80 1.28 0.81 0.44 0.47 0.60 0.76 1.27 2.04 2.40 2.14 3.45 2.34 1.94 1.11 1.21 1.08 1.16 0.80 0.76 0.97 0.66 0.74 0.60 0.46 0.36 0.25
0.00 0.00 0.00 0.00 0.00 0.05 0.09 0.01 0.01 0.04 0.10 0.25 0.36 0.32 0.16 0.20 0.14 0.19 0.33 0.66 1.12 0.85 0.81 0.74 0.52 0.31 0.34 0.26 0.31 0.49 1.13 1.96 2.22 2.39 2.24 2.24 1.28 1.42 1.14 1.32 1.01 0.82 1.24 0.84 0.79 0.59 0.42 0.26 0.24
0.00 0.00 0.00 0.00 0.01 0.00 0.00 0.01 0.00 0.06 0.54 0.42 0.08 0.21 0.13 0.12 0.17 0.24 0.31 0.39 0.48 0.45 0.47 0.32 0.35 0.36 0.54 0.37 0.25 0.30 0.73 1.52 1.73 1.38 1.17 1.56 1.07 1.08 1.09 0.88 0.89 0.70 1.16 0.81 0.55 0.38 0.31 0.32 0.34
0.00 0.00 0.00 0.00 0.02 0.02 0.01 0.01 0.02 0.40 0.85 0.25 0.22 0.18 0.11 0.12 0.16 0.14 0.11 0.17 0.21 0.30 0.41 0.39 0.18 0.26 0.26 0.24 0.24 0.23 0.58 0.82 1.10 0.99 0.40 1.02 0.83 0.61 0.97 0.78 0.77 0.56 1.13 0.68 0.38 0.42 0.33 0.35 0.36
0.00 0.00 0.00 0.02 0.01 0.02 0.01 0.02 0.18 0.31 0.29 0.38 0.32 0.19 0.14 0.09 0.09 0.08 0.04 0.03 0.11 0.26 0.39 0.47 0.41 0.35 0.34 0.37 0.32 0.31 0.46 0.82 0.74 0.89 0.38 0.26 0.41 0.58 0.97 0.90 0.77 0.53 0.78 0.66 0.54 0.34 0.41 0.38 0.49
0.00 0.01 0.01 0.04 0.02 0.01 0.02 0.10 0.20 0.47 0.35 0.20 0.23 0.21 0.21 0.18 0.09 0.04 0.02 0.01 0.02 0.07 0.22 0.62 1.02 0.50 0.34 0.33 0.40 0.35 0.27 0.45 0.67 0.78 0.54 0.23 0.13 0.30 0.52 0.72 0.57 0.54 0.64 0.56 0.71 0.65 0.48 0.49 0.75
0.00 0.00 0.02 0.16 0.03 0.01 0.01 0.20 0.34 0.14 0.15 0.41 0.12 0.15 0.20 0.12 0.04 0.00 0.00 0.00 0.01 0.04 0.12 0.66 1.27 0.93 0.48 0.29 0.41 0.41 0.47 0.44 0.54 0.60 0.56 0.30 0.22 0.22 0.27 0.44 0.68 0.55 0.62 0.44 0.47 0.70 0.51 0.46 0.68
0.00 0.00 0.00 0.01 0.01 0.01 0.01 0.02 0.15 0.11 0.10 0.26 0.08 0.05 0.02 0.02 0.01 0.00 0.00 0.00 0.03 0.04 0.17 0.50 0.80 1.08 0.98 0.82 0.79 0.60 0.51 0.53 0.50 0.41 0.45 0.31 0.27 0.29 0.23 0.31 0.42 0.71 0.48 0.38 0.49 0.57 0.61 0.42 0.53
0.00 0.00 0.00 0.02 0.01 0.00 0.00 0.00 0.01 0.11 0.12 0.09 0.05 0.01 0.01 0.00 0.00 0.00 0.03 0.04 0.06 0.08 0.32 0.58 0.72 1.21 1.58 0.91 0.50 0.58 0.80 0.62 0.50 0.32 0.37 0.45 0.33 0.44 0.40 0.37 0.28 0.36 0.52 0.45 0.60 0.70 0.66 0.54 0.45
0.00 0.00 0.00 0.00 0.01 0.00 0.00 0.00 0.00 0.04 0.15 0.07 0.03 0.01 0.01 0.01 0.00 0.02 0.05 0.06 0.08 0.18 0.42 0.64 1.00 0.97 0.47 0.28 0.29 0.43 0.60 0.69 0.62 0.39 0.30 0.52 0.57 0.55 0.69 0.63 0.60 0.39 0.19 0.40 0.49 0.85 0.90 0.78 0.56
0.00 0.01 0.00 0.00 0.00 0.00 0.01 0.00 0.00 0.00 0.02 0.00 0.00 0.01 0.00 0.01 0.00 0.01 0.04 0.10 0.29 0.44 0.44 0.33 0.15 0.13 0.05 0.06 0.14 0.30 0.41 0.57 0.52 0.41 0.19 0.35 0.59 0.83 0.69 0.62 0.74 0.69 0.36 0.18 0.32 0.66 1.10 1.00 0.67
0.00 0.00 0.00 0.00 0.00 0.01 0.03 0.01 0.00 0.00 0.00 0.00 0.01 0.03 0.01 0.01 0.01 0.04 0.08 0.13 0.11 0.05 0.02 0.06 0.08 0.14 0.07 0.05 0.20 0.38 0.55 0.75 0.63 0.54 0.25 0.23 0.31 0.63 0.85 0.75 0.65 0.71 0.46 0.20 0.13 0.25 0.70 0.72 0.71
0.00 0.00 0.01 0.01 0.03 0.08 0.06 0.08 0.01 0.00 0.00 0.00 0.01 0.02 0.03 0.03 0.04 0.03 0.01 0.00 0.01 0.03 0.03 0.06 0.13 0.16 0.10 0.20 0.36 0.35 0.37 0.47 0.34 0.27 0.22 0.19 0.25 0.32 0.60 0.84 0.70 0.64 0.71 0.51 0.19 0.11 0.32 0.60 0.62
0.01 0.01 0.05 0.05 0.06 0.05 0.04 0.11 0.02 0.02 0.09 0.06 0.03 0.02 0.05 0.03 0.02 0.02 0.02 0.01 0.00 0.05 0.08 0.08 0.15 0.28 0.21 0.21 0.55 0.68 0.65 0.44 0.36 0.29 0.20 0.17 0.24 0.34 0.35 0.55 0.66 0.61 0.56 0.58 0.44 0.28 0.30 0.55 0.71
0.08 0.05 0.11 0.10 0.13 0.15 0.01 0.06 0.09 0.52 0.52 0.34 0.18 0.11 0.16 0.07 0.06 0.06 0.06 0.04 0.04 0.09 0.12 0.11 0.14 0.24 0.27 0.24 0.39 0.72 1.14 1.49 1.62 1.22 0.67 0.35 0.46 0.44 0.37 0.51 0.59 0.70 0.78 0.78 0.78 0.74 0.60 0.49 0.67
0.10 0.23 0.42 0.48 0.32 0.11 0.05 0.07 0.24 0.47 0.44 0.43 0.33 0.21 0.17 0.12 0.12 0.12 0.10 0.08 0.09 0.13 0.21 0.22 0.15 0.14 0.15 0.20 0.20 0.25 0.49 0.83 1.30 1.89 2.57 2.01 1.47 1.09 0.87 0.61 0.53 0.41 0.50 0.87 1.02 1.14 0.84 0.65 0.65
0.08 0.22 0.29 0.33 0.23 0.12 0.09 0.22 0.66 0.57 0.79 0.54 0.79 0.45 0.32 0.24 0.16 0.13 0.14 0.14 0.14 0.19 0.34 0.32 0.31 0.30 0.18 0.20 0.28 0.37 0.45 0.58 0.90 0.93 1.28 1.54 1.76 1.48 1.76 1.23 0.92 0.76 0.62 0.64 0.85 1.00 1.06 1.08 0.85
0.16 0.16 0.10 0.46 0.30 0.29 0.29 0.77 0.64 0.48 0.78 1.53 0.89 0.51 0.64 0.60 0.35 0.19 0.19 0.26 0.34 0.28 0.35 0.48 0.45 0.51 0.38 0.31 0.28 0.41 0.58 0.59 0.53 0.66 1.10 1.15 1.02 0.83 0.91 0.81 0.64 0.74 0.66 0.63 0.76 0.84 0.72 0.78 0.85
0.14 0.25 0.43 0.64 0.51 0.53 0.38 0.57 0.81 0.83 1.16 1.00 1.21 1.25 0.67 0.75 0.61 0.33 0.26 0.32 0.31 0.39 0.35 0.46 0.54 0.65 0.48 0.45 0.34 0.36 0.51 0.57 0.67 0.97 1.26 1.52 1.60 1.43 0.88 0.77 0.74 0.63 0.48 0.44 0.42 0.44 0.46 0.54 0.61
0.23 0.37 0.39 0.37 0.38 0.79 0.89 1.23 1.44 1.57 1.74 1.72 1.08 1.15 1.30 0.79 1.06 0.80 0.49 0.45 0.55 0.70 0.35 0.48 0.73 1.12 0.60 0.43 0.51 0.54 0.54 0.81 1.15 1.09 1.33 1.17 1.17 1.31 1.10 0.85 0.82 0.70 0.65 0.60 0.53 0.44 0.40 0.42 0.40
0.27 0.23 0.31 0.64 0.50 0.51 1.25 1.79 2.00 1.61 1.25 0.83 0.81 0.75 0.77 0.88 0.94 1.21 0.95 0.77 0.77 0.38 0.36 0.43 0.63 0.88 1.32 1.01 1.33 1.18 1.29 1.55 1.45 1.63 2.14 1.49 1.15 0.95 0.73 0.63 0.52 0.47 0.49 0.50 0.43 0.34 0.30 0.31 0.35

GFSSGP_prec_precacc_135.txt.gz
Total_Precipitation_Accumulation
0.00 0.00 0.00 0.00 0.00 0.00 0.00 0.00 0.01 0.02 0.05 0.07 0.15 0.17 0.15 0.19 0.41 0.76 0.68 1.22 2.37 1.63 0.97 0.87 0.94 0.30 0.22 0.19 0.12 0.06 0.02 0.01 0.02 0.01 0.00 0.01 0.01 0.01 0.02 0.01 0.03 0.06 0.26 0.23 0.04 0.05 0.13 0.08 0.05
0.00 0.00 0.00 0.00 0.00 0.00 0.00 0.02 0.01 0.06 0.20 0.31 0.32 0.34 0.31 0.36 0.28 0.48 0.66 0.56 0.56 0.41 0.57 0.75 1.19 0.97 0.80 0.62 0.22 0.12 0.08 0.05 0.01 0.02 0.02 0.02 0.01 0.03 0.07 0.02 0.01 0.15 0.30 0.30 0.29 0.26 0.18 0.07 0.03
0.00 0.00 0.00 0.00 0.00 0.00 0.00 0.02 0.02 0.06 0.16 0.17 0.15 0.13 0.26 0.42 0.69 0.83 0.68 0.55 0.58 0.35 0.31 0.76 1.18 1.33 0.83 0.99 0.67 0.43 0.38 0.16 0.07 0.12 0.05 0.03 0.05 0.19 0.27 0.22 0.21 0.38 0.44 0.42 0.44 0.41 0.29 0.08 0.00
0.00 0.00 0.00 0.00 0.00 0.00 0.00 0.02 0.04 0.15 0.14 0.09 0.12 0.20 0.54 0.52 0.96 0.72 0.65 0.83 1.04 1.14 0.91 1.64 2.05 1.48 1.03 0.94 1.15 2.03 1.84 1.26 0.97 0.62 0.39 0.21 0.37 0.50 0.49 0.46 0.43 0.48 0.56 0.40 0.38 0.43 0.23 0.02 0.00
0.00 0.00 0.00 0.00 0.00 0.00 0.01 0.06 0.17 0.20 0.22 0.28 0.12 0.30 0.91 0.46 0.41 0.62 1.19 2.26 3.14 2.76 2.23 2.19 3.00 2.30 1.62 1.11 1.36 2.02 3.37 3.89 3.34 2.31 1.32 1.53 1.73 1.40 1.11 0.70 0.56 0.51 0.54 0.54 0.45 0.32 0.20 0.07 0.03
0.00 0.00 0.00 0.00 0.00 0.00 0.01 0.11 0.30 0.40 0.25 0.32 0.12 0.38 0.91 0.39 0.47 0.72 1.82 2.34 4.04 5.81 6.52 4.51 4.61 5.14 3.94 2.54 1.24 1.45 2.05 3.30 3.37 3.48 3.31 3.14 2.51 1.60 1.23 0.75 0.58 0.54 0.52 0.45 0.48 0.32 0.29 0.17 0.27
0.00 0.00 0.00 0.00 0.00 0.01 0.04 0.13 0.21 0.23 0.19 0.33 0.20 0.49 1.07 0.45 0.44 0.96 1.82 4.35 6.04 6.86 10.03 10.33 6.90 6.24 5.55 6.20 3.91 1.58 1.50 1.65 2.05 2.18 2.17 2.52 2.89 1.96 1.43 0.90 0.66 0.69 0.71 0.38 0.34 0.29 0.39 0.57 0.53
0.00 0.00 0.00 0.00 0.01 0.04 0.08 0.21 0.27 0.14 0.28 0.50 0.20 0.35 1.12 0.58 0.43 0.50 0.85 2.20 6.16 7.50 6.57 6.83 5.47 4.75 4.34 4.46 5.06 3.46 2.30 1.97 1.75 1.69 1.58 1.51 2.07 1.98 1.37 0.86 0.64 0.74 0.68 0.48 0.39 0.48 0.62 0.57 0.53
0.00 0.00 0.00 0.00 0.04 0.12 0.13 0.12 0.09 0.04 0.06 0.24 0.35 0.31 0.37 0.30 0.27 0.29 0.96 1.02 1.92 3.50 3.96 3.56 2.45 1.70 1.94 2.04 2.50 3.09 3.09 2.51 2.53 2.74 1.90 1.43 1.38 1.81 1.37 0.94 0.62 0.73 0.70 0.59 0.49 0.60 0.63 0.53 0.45
0.00 0.00 0.00 0.00 0.02 0.28 0.21 0.26 0.23 0.04 0.07 0.42 0.52 0.57 0.44 0.30 0.28 0.25 0.62 0.77 1.65 2.08 1.80 1.28 0.81 0.45 0.47 0.60 0.76 1.27 2.04 2.40 2.14 3.45 2.34 1.94 1.11 1.21 1.08 1.16 0.80 0.76 0.97 0.66 0.74 0.60 0.46 0.36 0.25
0.00 0.00 0.00 0.00 0.00 0.05 0.09 0.01 0.01 0.04 0.10 0.25 0.36 0.32 0.16 0.20 0.14 0.19 0.33 0.66 1.12 0.85 0.81 0.75 0.52 0.33 0.35 0.26 0.31 0.49 1.13 1.96 2.22 2.39 2.24 2.24 1.28 1.42 1.14 1.32 1.01 0.82 1.24 0.84 0.79 0.59 0.42 0.26 0.24
0.00 0.00 0.00 0.00 0.01 0.00 0.00 0.01 0.00 0.06 0.54 0.42 0.08 0.21 0.13 0.12 0.17 0.24 0.31 0.39 0.48 0.45 0.47 0.32 0.37 0.44 0.76 0.54 0.29 0.30 0.73 1.52 1.73 1.38 1.17 1.56 1.07 1.08 1.09 0.88 0.89 0.70 1.16 0.81 0.55 0.38 0.31 0.32 0.34
0.00 0.00 0.00 0.00 0.02 0.02 0.01 0.01 0.02 0.40 0.85 0.25 0.22 0.18 0.11 0.12 0.16 0.14 0.11 0.17 0.21 0.30 0.41 0.39 0.18 0.29 0.37 0.48 0.55 0.44 0.59 0.82 1.10 0.99 0.40 1.02 0.83 0.61 0.97 0.78 0.77 0.56 1.13 0.68 0.38 0.42 0.33 0.35 0.36
0.00 0.00 0.00 0.02 0.01 0.02 0.01 0.02 0.18 0.31 0.29 0.38 0.32 0.19 0.14 0.09 0.09 0.08 0.04 0.03 0.11 0.26 0.39 0.47 0.41 0.35 0.35 0.43 0.40 0.47 0.61 0.88 0.74 0.89 0.38 0.26 0.41 0.58 0.97 0.90 0.77 0.53 0.78 0.66 0.54 0.34 0.41 0.38 0.49
0.00 0.01 0.01 0.04 0.02 0.01 0.02 0.10 0.20 0.47 0.35 0.20 0.23 0.21 0.21 0.18 0.09 0.04 0.02 0.01 0.02 0.07 0.22 0.62 1.02 0.50 0.34 0.35 0.45 0.44 0.47 0.70 0.77 0.79 0.54 0.23 0.13 0.30 0.52 0.72 0.57 0.54 0.64 0.56 0.71 0.65 0.48 0.49 0.75
0.00 0.00 0.02 0.16 0.03 0.01 0.01 0.20 0.34 0.14 0.15 0.41 0.12 0.15 0.20 0.12 0.04 0.00 0.00 0.00 0.01 0.04 0.12 0.66 1.27 0.93 0.48 0.31 0.50 0.49 0.62 0.73 0.73 0.68 0.56 0.30 0.22 0.22 0.27 0.44 0.68 0.55 0.62 0.44 0.47 0.70 0.51 0.46 0.68
0.00 0.00 0.00 0.01 0.01 0.01 0.01 0.02 0.15 0.11 0.10 0.26 0.08 0.05 0.02 0.02 0.01 0.00 0.00 0.00 0.03 0.04 0.17 0.50 0.80 1.08 0.98 0.82 0.82 0.67 0.59 0.73 0.65 0.51 0.48 0.32 0.27 0.29 0.23 0.31 0.42 0.71 0.48 0.38 0.49 0.57 0.61 0.42 0.53
0.00 0.00 0.00 0.02 0.01 0.00 0.00 0.00 0.01 0.11 0.12 0.09 0.05 0.01 0.01 0.00 0.00 0.00 0.03 0.04 0.06 0.08 0.32 0.58 0.72 1.21 1.58 0.91 0.50 0.62 0.93 0.81 0.74 0.58 0.54 0.55 0.34 0.44 0.40 0.37 0.28 0.36 0.52 0.45 0.60 0.70 0.66 0.54 0.45
0.00 0.00 0.00 0.00 0.01 0.00 0.00 0.00 0.00 0.04 0.15 0.07 0.03 0.01 0.01 0.01 0.00 0.02 0.05 0.06 0.08 0.18 0.42 0.64 1.00 0.97 0.47 0.28 0.29 0.43 0.62 0.75 0.70 0.59 0.55 0.74 0.64 0.55 0.69 0.63 0.60 0.39 0.19 0.40 0.49 0.86 0.90 0.78 0.56
0.00 0.01 0.00 0.00 0.00 0.00 0.01 0.00 0.00 0.00 0.02 0.00 0.00 0.01 0.00 0.01 0.00 0.01 0.04 0.10 0.29 0.44 0.44 0.33 0.15 0.13 0.05 0.06 0.14 0.30 0.42 0.62 0.57 0.47 0.39 0.62 0.74 0.86 0.69 0.62 0.74 0.69 0.36 0.18 0.33 0.67 1.10 1.00 0.67
0.00 0.00 0.00 0.00 0.00 0.01 0.03 0.01 0.00 0.00 0.00 0.00 0.01 0.03 0.01 0.01 0.01 0.04 0.08 0.13 0.11 0.05 0.02 0.06 0.08 0.14 0.07 0.05 0.20 0.38 0.55 0.75 0.68 0.63 0.33 0.28 0.44 0.66 0.86 0.75 0.65 0.71 0.46 0.20 0.13 0.25 0.70 0.72 0.71
0.00 0.00 0.01 0.01 0.03 0.08 0.06 0.08 0.01 0.00 0.00 0.00 0.01 0.02 0.03 0.03 0.04 0.03 0.01 0.00 0.01 0.03 0.03 0.06 0.13 0.16 0.10 0.20 0.36 0.35 0.37 0.47 0.34 0.28 0.27 0.26 0.42 0.42 0.61 0.84 0.70 0.64 0.71 0.51 0.19 0.11 0.32 0.60 0.62
0.01 0.01 0.05 0.05 0.06 0.05 0.04 0.11 0.02 0.02 0.09 0.06 0.03 0.02 0.05 0.03 0.02 0.02 0.02 0.01 0.00 0.05 0.08 0.08 0.15 0.28 0.21 0.21 0.55 0.68 0.65 0.45 0.37 0.35 0.41 0.41 0.43 0.57 0.45 0.57 0.66 0.61 0.56 0.58 0.44 0.28 0.30 0.55 0.71
0.08 0.05 0.11 0.10 0.13 0.15 0.01 0.06 0.09 0.52 0.52 0.34 0.18 0.11 0.16 0.07 0.06 0.06 0.06 0.04 0.04 0.09 0.12 0.11 0.14 0.24 0.27 0.24 0.39 0.74 1.15 1.49 1.64 1.32 0.90 0.66 0.76 0.79 0.68 0.58 0.60 0.71 0.79 0.80 0.78 0.74 0.62 0.52 0.68
0.10 0.23 0.42 0.48 0.32 0.11 0.05 0.07 0.24 0.47 0.44 0.43 0.33 0.21 0.17 0.12 0.12 0.12 0.10 0.08 0.09 0.13 0.21 0.22 0.15 0.15 0.15 0.21 0.21 0.28 0.51 0.84 1.32 1.96 2.73 2.66 2.18 1.89 1.87 1.26 0.75 0.52 0.54 0.88 1.07 1.16 0.85 0.68 0.71
0.08 0.22 0.29 0.33 0.23 0.12 0.09 0.22 0.66 0.57 0.79 0.54 0.79 0.45 0.32 0.24 0.16 0.13 0.14 0.14 0.14 0.20 0.35 0.33 0.31 0.31 0.19 0.22 0.30 0.43 0.50 0.62 0.93 1.06 1.39 2.14 2.83 2.54 2.89 3.12 2.37 1.58 1.01 0.92 1.09 1.14 1.12 1.12 0.93
0.16 0.16 0.10 0.46 0.30 0.29 0.29 0.77 0.64 0.48 0.78 1.53 0.89 0.51 0.64 0.60 0.35 0.20 0.19 0.26 0.35 0.30 0.38 0.50 0.48 0.60 0.48 0.36 0.35 0.49 0.68 0.67 0.58 0.73 1.36 1.44 1.35 1.49 1.90 2.08 1.69 1.85 1.91 1.49 1.25 1.19 1.07 1.07 0.97
0.14 0.25 0.43 0.64 0.51 0.53 0.38 0.58 0.82 0.83 1.16 1.00 1.21 1.25 0.67 0.75 0.61 0.34 0.27 0.33 0.33 0.44 0.38 0.52 0.73 1.02 0.75 0.64 0.53 0.57 0.68 0.71 0.76 0.99 1.35 1.79 2.05 1.89 1.43 1.36 1.21 1.08 1.03 1.10 0.75 0.62 0.64 0.72 0.78
0.23 0.37 0.39 0.38 0.38 0.79 0.89 1.23 1.44 1.57 1.74 1.72 1.09 1.15 1.30 0.79 1.07 0.81 0.50 0.46 0.59 0.77 0.40 0.55 1.00 1.73 1.35 0.92 0.82 0.99 0.78 1.11 1.27 1.11 1.35 1.28 1.38 1.68 1.57 1.30 1.16 1.00 0.86 0.78 0.64 0.49 0.42 0.46 0.47
0.27 0.23 0.31 0.67 0.51 0.52 1.26 1.81 2.01 1.61 1.25 0.83 0.81 0.75 0.77 0.88 0.95 1.21 0.96 0.78 0.78 0.43 0.49 0.55 0.78 1.07 2.12 1.86 1.88 1.58 1.48 1.68 1.57 1.69 2.17 1.54 1.24 1.05 0.88 0.80 0.75 0.65 0.59 0.57 0.48 0.40 0.34 0.34 0.38

GFSSGP_prec_precacc_138.txt.gz
Total_Precipitation_Accumulation
0.00 0.00 0.00 0.00 0.00 0.00 0.00 0.00 0.01 0.02 0.05 0.07 0.15 0.17 0.15 0.19 0.41 0.76 0.68 1.22 2.37 1.63 0.97 0.87 0.94 0.30 0.22 0.19 0.12 0.06 0.02 0.01 0.02 0.01 0.00 0.01 0.01 0.01 0.02 0.01 0.03 0.06 0.26 0.23 0.04 0.05 0.14 0.09 0.05
0.00 0.00 0.00 0.00 0.00 0.00 0.00 0.02 0.01 0.06 0.20 0.31 0.32 0.34 0.31 0.36 0.28 0.48 0.66 0.56 0.56 0.41 0.57 0.75 1.19 0.97 0.80 0.62 0.22 0.12 0.08 0.05 0.01 0.02 0.02 0.02 0.01 0.03 0.07 0.02 0.01 0.15 0.30 0.30 0.29 0.26 0.18 0.07 0.03
0.00 0.00 0.00 0.00 0.00 0.00 0.00 0.02 0.02 0.06 0.16 0.17 0.15 0.13 0.26 0.42 0.69 0.83 0.68 0.55 0.58 0.35 0.31 0.76 1.18 1.33 0.83 0.99 0.67 0.43 0.38 0.16 0.07 0.12 0.05 0.03 0.05 0.19 0.27 0.22 0.21 0.38 0.44 0.42 0.44 0.41 0.29 0.08 0.00
0.00 0.00 0.00 0.00 0.00 0.00 0.00 0.02 0.04 0.15 0.14 0.09 0.12 0.20 0.54 0.52 0.96 0.72 0.65 0.83 1.04 1.14 0.91 1.64 2.06 1.48 1.03 0.94 1.15 2.03 1.84 1.26 0.97 0.62 0.39 0.21 0.37 0.50 0.49 0.46 0.43 0.48 0.56 0.40 0.38 0.43 0.23 0.02 0.00
0.00 0.00 0.00 0.00 0.00 0.00 0.01 0.06 0.17 0.20 0.22 0.28 0.12 0.30 0.91 0.46 0.41 0.62 1.19 2.26 3.14 2.76 2.23 2.19 3.01 2.30 1.62 1.11 1.36 2.02 3.37 3.89 3.34 2.31 1.32 1.53 1.73 1.40 1.11 0.70 0.56 0.51 0.54 0.54 0.45 0.32 0.20 0.07 0.03
0.00 0.00 0.00 0.00 0.00 0.00 0.01 0.11 0.30 0.40 0.25 0.32 0.12 0.38 0.91 0.39 0.47 0.72 1.82 2.34 4.04 5.81 6.52 4.51 4.62 5.15 3.94 2.54 1.24 1.45 2.05 3.30 3.37 3.48 3.31 3.14 2.51 1.60 1.23 0.75 0.58 0.54 0.52 0.45 0.48 0.32 0.29 0.17 0.27
0.00 0.00 0.00 0.00 0.00 0.01 0.04 0.13 0.21 0.23 0.19 0.33 0.20 0.49 1.07 0.45 0.44 0.96 1.82 4.35 6.04 6.86 10.03 10.33 6.90 6.25 5.55 6.20 3.91 1.58 1.50 1.65 2.05 2.18 2.17 2.52 2.89 1.96 1.43 0.90 0.66 0.69 0.71 0.38 0.34 0.29 0.39 0.57 0.53
0.00 0.00 0.00 0.00 0.01 0.04 0.08 0.21 0.27 0.14 0.28 0.50 0.20 0.35 1.12 0.58 0.43 0.50 0.85 2.20 6.16 7.51 6.57 6.83 5.47 4.75 4.34 4.46 5.06 3.46 2.30 1.97 1.75 1.69 1.58 1.51 2.07 1.98 1.37 0.86 0.64 0.74 0.68 0.48 0.39 0.48 0.62 0.57 0.53
0.00 0.00 0.00 0.00 0.04 0.12 0.13 0.12 0.09 0.04 0.06 0.24 0.35 0.31 0.37 0.30 0.27 0.29 0.96 1.02 1.92 3.50 3.96 3.56 2.46 1.70 1.94 2.05 2.50 3.09 3.09 2.51 2.53 2.74 1.90 1.43 1.38 1.81 1.37 0.94 0.62 0.73 0.70 0.59 0.49 0.60 0.63 0.53 0.45
0.00 0.00 0.00 0.00 0.02 0.28 0.21 0.26 0.23 0.04 0.07 0.42 0.52 0.57 0.44 0.30 0.28 0.25 0.62 0.77 1.65 2.08 1.80 1.28 0.81 0.45 0.47 0.61 0.78 1.27 2.04 2.40 2.14 3.45 2.34 1.94 1.11 1.21 1.08 1.16 0.80 0.76 0.97 0.66 0.74 0.60 0.46 0.36 0.25
0.00 0.00 0.00 0.00 0.00 0.05 0.09 0.01 0.01 0.04 0.10 0.25 0.36 0.32 0.16 0.20 0.14 0.19 0.33 0.66 1.12 0.85 0.81 0.75 0.52 0.34 0.38 0.28 0.33 0.50 1.14 1.96 2.22 2.39 2.24 2.24 1.28 1.42 1.14 1.32 1.01 0.82 1.24 0.84 0.79 0.59 0.42 0.26 0.24
0.00 0.00 0.00 0.00 0.01 0.00 0.00 0.01 0.00 0.06 0.54 0.42 0.08 0.21 0.13 0.12 0.17 0.24 0.31 0.39 0.48 0.45 0.47 0.32 0.37 0.45 0.78 0.62 0.38 0.38 0.78 1.55 1.73 1.38 1.17 1.56 1.07 1.08 1.09 0.88 0.89 0.70 1.16 0.81 0.55 0.38 0.31 0.32 0.34
0.00 0.00 0.00 0.00 0.02 0.02 0.01 0.01 0.02 0.40 0.85 0.25 0.22 0.18 0.11 0.12 0.16 0.14 0.11 0.17 0.21 0.30 0.41 0.39 0.18 0.29 0.37 0.48 0.64 0.58 0.67 0.92 1.18 1.00 0.40 1.02 0.83 0.61 0.97 0.78 0.77 0.56 1.13 0.68 0.38 0.42 0.33 0.35 0.36
0.00 0.00 0.00 0.02 0.01 0.02 0.01 0.02 0.18 0.31 0.29 0.38 0.32 0.19 0.14 0.09 0.09 0.08 0.04 0.03 0.11 0.26 0.39 0.47 0.41 0.35 0.35 0.43 0.40 0.56 0.77 1.08 0.92 0.98 0.41 0.26 0.41 0.58 0.97 0.90 0.77 0.53 0.78 0.66 0.54 0.34 0.41 0.38 0.49
0.00 0.01 0.01 0.04 0.02 0.01 0.02 0.10 0.20 0.47 0.35 0.20 0.23 0.21 0.21 0.18 0.09 0.04 0.02 0.01 0.02 0.07 0.22 0.62 1.02 0.50 0.34 0.35 0.45 0.45 0.55 0.93 0.98 0.95 0.68 0.29 0.16 0.30 0.52 0.72 0.57 0.54 0.64 0.56 0.71 0.65 0.48 0.49 0.75
0.00 0.00 0.02 0.16 0.03 0.01 0.01 0.20 0.34 0.14 0.15 0.41 0.12 0.15 0.20 0.12 0.04 0.00 0.00 0.00 0.01 0.04 0.12 0.66 1.27 0.93 0.48 0.31 0.50 0.49 0.63 0.79 0.86 0.89 0.71 0.41 0.26 0.24 0.27 0.44 0.68 0.55 0.62 0.44 0.47 0.70 0.51 0.46 0.68
0.00 0.00 0.00 0.01 0.01 0.01 0.01 0.02 0.15 0.11 0.10 0.26 0.08 0.05 0.02 0.02 0.01 0.00 0.00 0.00 0.03 0.04 0.17 0.50 0.80 1.08 0.98 0.82 0.82 0.67 0.59 0.75 0.73 0.60 0.76 0.64 0.50 0.42 0.26 0.31 0.42 0.71 0.48 0.38 0.49 0.57 0.61 0.42 0.53
0.00 0.00 0.00 0.02 0.01 0.00 0.00 0.00 0.01 0.11 0.12 0.09 0.05 0.01 0.01 0.00 0.00 0.00 0.03 0.04 0.06 0.08 0.32 0.58 0.72 1.21 1.58 0.91 0.50 0.62 0.93 0.81 0.75 0.63 0.75 0.90 0.74 0.79 0.55 0.40 0.28 0.36 0.52 0.45 0.60 0.70 0.66 0.54 0.45
0.00 0.00 0.00 0.00 0.01 0.00 0.00 0.00 0.00 0.04 0.15 0.07 0.03 0.01 0.01 0.01 0.00 0.02 0.05 0.06 0.08 0.18 0.42 0.64 1.00 0.97 0.47 0.28 0.29 0.43 0.62 0.75 0.70 0.59 0.62 1.00 1.14 1.09 1.03 0.78 0.64 0.40 0.19 0.40 0.49 0.86 0.90 0.78 0.56
0.00 0.01 0.00 0.00 0.00 0.00 0.01 0.00 0.00 0.00 0.02 0.00 0.00 0.01 0.00 0.01 0.00 0.01 0.04 0.10 0.29 0.44 0.44 0.33 0.15 0.13 0.05 0.06 0.14 0.30 0.42 0.62 0.57 0.47 0.40 0.69 0.88 1.23 1.23 0.96 0.82 0.72 0.38 0.18 0.33 0.67 1.10 1.00 0.68
0.00 0.00 0.00 0.00 0.00 0.01 0.03 0.01 0.00 0.00 0.00 0.00 0.01 0.03 0.01 0.01 0.01 0.04 0.08 0.13 0.11 0.05 0.02 0.06 0.08 0.14 0.07 0.05 0.20 0.38 0.55 0.75 0.68 0.63 0.33 0.29 0.50 0.83 1.17 1.11 0.75 0.74 0.47 0.20 0.13 0.25 0.70 0.72 0.71
0.00 0.00 0.01 0.01 0.03 0.08 0.06 0.08 0.01 0.00 0.00 0.00 0.01 0.02 0.03 0.03 0.04 0.03 0.01 0.00 0.01 0.03 0.03 0.06 0.13 0.16 0.10 0.20 0.36 0.35 0.37 0.47 0.34 0.28 0.28 0.26 0.45 0.57 0.85 1.09 0.86 0.73 0.74 0.51 0.19 0.11 0.32 0.60 0.62
0.01 0.01 0.05 0.05 0.06 0.05 0.04 0.11 0.02 0.02 0.09 0.06 0.03 0.02 0.05 0.03 0.02 0.02 0.02 0.01 0.00 0.05 0.08 0.08 0.15 0.28 0.21 0.21 0.55 0.68 0.65 0.45 0.38 0.35 0.41 0.41 0.44 0.61 0.67 0.89 0.99 0.86 0.66 0.61 0.45 0.28 0.30 0.55 0.71
0.08 0.05 0.11 0.10 0.13 0.15 0.01 0.06 0.09 0.52 0.52 0.34 0.18 0.11 0.16 0.07 0.06 0.06 0.06 0.04 0.04 0.09 0.12 0.11 0.14 0.24 0.27 0.24 0.39 0.74 1.15 1.50 1.65 1.32 0.90 0.66 0.77 0.82 0.86 0.91 1.01 1.46 1.33 0.91 0.81 0.76 0.62 0.52 0.68
0.10 0.23 0.42 0.48 0.32 0.11 0.05 0.07 0.24 0.47 0.44 0.43 0.33 0.21 0.17 0.12 0.12 0.12 0.10 0.08 0.09 0.13 0.21 0.22 0.15 0.15 0.15 0.21 0.21 0.28 0.51 0.84 1.33 1.97 2.74 2.67 2.19 1.92 2.00 1.99 1.69 1.55 1.64 1.53 1.14 1.22 0.88 0.70 0.72
0.08 0.22 0.29 0.33 0.23 0.12 0.09 0.22 0.66 0.57 0.79 0.54 0.79 0.45 0.32 0.24 0.16 0.13 0.14 0.14 0.14 0.20 0.35 0.34 0.33 0.32 0.19 0.22 0.31 0.43 0.51 0.63 0.94 1.08 1.40 2.17 2.88 2.58 2.97 3.45 3.67 2.94 2.26 2.24 1.54 1.28 1.21 1.16 0.97
0.16 0.16 0.10 0.46 0.30 0.29 0.29 0.77 0.64 0.48 0.78 1.53 0.89 0.51 0.64 0.60 0.35 0.20 0.19 0.26 0.35 0.30 0.39 0.55 0.52 0.62 0.50 0.39 0.38 0.50 0.69 0.69 0.61 0.77 1.39 1.47 1.38 1.55 1.99 2.23 2.43 3.04 3.12 2.61 2.12 1.70 1.39 1.33 1.25
0.14 0.25 0.43 0.64 0.51 0.54 0.38 0.58 0.82 0.83 1.16 1.00 1.21 1.25 0.67 0.75 0.61 0.34 0.27 0.33 0.34 0.45 0.41 0.56 0.76 1.06 0.78 0.69 0.61 0.63 0.73 0.74 0.85 1.08 1.45 1.84 2.09 1.93 1.50 1.61 1.68 1.53 1.41 1.55 1.78 1.85 1.64 1.70 1.54
0.24 0.37 0.39 0.38 0.38 0.79 0.89 1.23 1.44 1.57 1.74 1.72 1.09 1.15 1.31 0.80 1.07 0.81 0.50 0.46 0.60 0.78 0.42 0.58 1.03 1.77 1.45 1.03 1.00 1.16 0.95 1.33 1.50 1.30 1.50 1.38 1.45 1.74 1.68 1.43 1.44 1.36 1.23 1.15 1.15 1.05 1.18 1.54 1.75
0.27 0.23 0.31 0.67 0.51 0.52 1.27 1.82 2.01 1.61 1.25 0.83 0.81 0.75 0.77 0.88 0.95 1.22 0.96 0.78 0.78 0.43 0.51 0.58 0.83 1.15 2.35 2.22 2.29 2.00 2.15 2.56 1.94 1.90 2.28 1.58 1.32 1.21 0.97 0.85 0.82 0.87 0.92 0.96 0.86 0.89 0.80 0.74 0.81

GFSSGP_prec_precacc_144.txt.gz
Total_Precipitation_Accumulation
0.00 0.00 0.00 0.00 0.00 0.00 0.00 0.00 0.01 0.02 0.05 0.07 0.15 0.17 0.15 0.19 0.41 0.76 0.68 1.22 2.37 1.63 0.97 0.87 0.94 0.30 0.22 0.19 0.12 0.06 0.02 0.01 0.02 0.01 0.00 0.01 0.01 0.01 0.02 0.01 0.03 0.06 0.26 0.23 0.04 0.05 0.14 0.09 0.06
0.00 0.00 0.00 0.00 0.00 0.00 0.00 0.02 0.01 0.06 0.20 0.31 0.32 0.34 0.31 0.36 0.28 0.48 0.66 0.56 0.56 0.41 0.57 0.75 1.19 0.97 0.80 0.62 0.22 0.12 0.08 0.05 0.01 0.02 0.02 0.02 0.01 0.03 0.07 0.02 0.01 0.15 0.30 0.30 0.29 0.26 0.18 0.07 0.03
0.00 0.00 0.00 0.00 0.00 0.00 0.00 0.02 0.02 0.06 0.16 0.17 0.15 0.13 0.26 0.42 0.69 0.83 0.68 0.56 0.60 0.35 0.31 0.76 1.18 1.33 0.83 0.99 0.67 0.43 0.38 0.16 0.07 0.12 0.05 0.03 0.05 0.19 0.27 0.22 0.21 0.38 0.44 0.42 0.44 0.41 0.29 0.08 0.00
0.00 0.00 0.00 0.00 0.00 0.00 0.00 0.02 0.04 0.15 0.14 0.09 0.12 0.20 0.54 0.52 0.96 0.72 0.65 0.83 1.04 1.14 0.91 1.64 2.06 1.48 1.03 0.94 1.15 2.03 1.84 1.26 0.97 0.62 0.39 0.21 0.37 0.50 0.49 0.46 0.43 0.48 0.56 0.40 0.38 0.43 0.23 0.02 0.00
0.00 0.00 0.00 0.00 0.00 0.00 0.01 0.06 0.17 0.20 0.22 0.28 0.12 0.30 0.91 0.46 0.41 0.62 1.19 2.26 3.14 2.76 2.23 2.19 3.01 2.30 1.62 1.11 1.36 2.02 3.37 3.89 3.34 2.31 1.32 1.53 1.73 1.40 1.11 0.70 0.56 0.51 0.54 0.54 0.45 0.32 0.20 0.07 0.03
0.00 0.00 0.00 0.00 0.00 0.00 0.01 0.11 0.30 0.40 0.25 0.32 0.12 0.38 0.91 0.39 0.47 0.72 1.82 2.34 4.04 5.81 6.52 4.51 4.62 5.15 3.95 2.55 1.25 1.45 2.05 3.30 3.37 3.48 3.31 3.14 2.51 1.60 1.23 0.75 0.58 0.54 0.52 0.45 0.48 0.32 0.29 0.17 0.27
0.00 0.00 0.00 0.00 0.00 0.01 0.04 0.13 0.21 0.23 0.19 0.33 0.20 0.49 1.07 0.45 0.44 0.96 1.82 4.35 6.04 6.86 10.03 10.33 6.90 6.25 5.55 6.20 3.92 1.62 1.54 1.69 2.06 2.18 2.17 2.52 2.89 1.96 1.43 0.90 0.66 0.69 0.71 0.38 0.34 0.29 0.39 0.57 0.53
0.00 0.00 0.00 0.00 0.01 0.04 0.08 0.21 0.27 0.14 0.28 0.50 0.20 0.35 1.12 0.58 0.43 0.50 0.85 2.20 6.16 7.51 6.57 6.83 5.47 4.75 4.34 4.46 5.07 3.53 2.40 2.06 1.81 1.71 1.58 1.51 2.07 1.98 1.37 0.86 0.64 0.74 0.68 0.48 0.39 0.48 0.62 0.57 0.53
0.00 0.00 0.00 0.00 0.04 0.12 0.13 0.12 0.09 0.04 0.06 0.24 0.35 0.31 0.37 0.30 0.27 0.29 0.96 1.02 1.92 3.50 3.96 3.56 2.46 1.71 1.94 2.05 2.50 3.14 3.21 2.60 2.62 2.83 1.99 1.47 1.38 1.81 1.37 0.94 0.62 0.73 0.70 0.59 0.49 0.60 0.63 0.53 0.45
0.00 0.00 0.00 0.00 0.02 0.28 0.21 0.26 0.23 0.04 0.07 0.42 0.52 0.57 0.44 0.30 0.28 0.25 0.62 0.77 1.65 2.08 1.80 1.28 0.81 0.45 0.47 0.61 0.78 1.27 2.09 2.48 2.20 3.52 2.44 2.06 1.16 1.22 1.08 1.16 0.80 0.76 0.97 0.66 0.74 0.60 0.46 0.36 0.25
0.00 0.00 0.00 0.00 0.00 0.05 0.09 0.01 0.01 0.04 0.10 0.25 0.36 0.32 0.16 0.20 0.14 0.19 0.33 0.66 1.12 0.85 0.81 0.75 0.52 0.34 0.38 0.28 0.34 0.51 1.16 1.99 2.26 2.43 2.28 2.29 1.33 1.45 1.14 1.32 1.01 0.82 1.24 0.84 0.79 0.59 0.42 0.26 0.24
0.00 0.00 0.00 0.00 0.01 0.00 0.00 0.01 0.00 0.06 0.54 0.42 0.08 0.21 0.13 0.12 0.17 0.24 0.31 0.39 0.48 0.45 0.47 0.32 0.37 0.45 0.78 0.62 0.38 0.39 0.83 1.58 1.75 1.39 1.24 1.63 1.14 1.13 1.11 0.89 0.89 0.70 1.16 0.81 0.55 0.38 0.31 0.32 0.34
0.00 0.00 0.00 0.00 0.02 0.02 0.01 0.01 0.02 0.40 0.85 0.25 0.22 0.18 0.11 0.12 0.16 0.14 0.11 0.17 0.21 0.30 0.41 0.39 0.18 0.29 0.37 0.48 0.64 0.58 0.69 0.98 1.26 1.06 0.46 1.10 0.93 0.69 1.06 0.82 0.79 0.57 1.13 0.68 0.38 0.42 0.33 0.35 0.36
0.00 0.00 0.00 0.02 0.01 0.02 0.01 0.02 0.18 0.31 0.29 0.38 0.32 0.19 0.14 0.09 0.09 0.08 0.04 0.03 0.11 0.26 0.39 0.47 0.41 0.35 0.35 0.43 0.40 0.56 0.78 1.09 1.00 1.06 0.47 0.41 0.58 0.72 1.13 0.97 0.80 0.54 0.78 0.66 0.54 0.34 0.41 0.38 0.49
0.00 0.01 0.01 0.04 0.02 0.01 0.02 0.10 0.20 0.47 0.35 0.20 0.23 0.21 0.21 0.18 0.09 0.04 0.02 0.01 0.02 0.07 0.22 0.62 1.02 0.50 0.34 0.35 0.45 0.45 0.55 0.93 1.00 1.00 0.74 0.37 0.34 0.48 0.74 0.93 0.69 0.56 0.65 0.58 0.72 0.65 0.48 0.49 0.75
0.00 0.00 0.02 0.16 0.03 0.01 0.01 0.20 0.34 0.14 0.15 0.41 0.12 0.15 0.20 0.12 0.04 0.00 0.00 0.00 0.01 0.04 0.12 0.66 1.27 0.93 0.48 0.31 0.50 0.49 0.63 0.79 0.86 0.90 0.73 0.45 0.32 0.38 0.47 0.71 0.92 0.75 0.69 0.46 0.47 0.71 0.51 0.46 0.68
0.00 0.00 0.00 0.01 0.01 0.01 0.01 0.02 0.15 0.11 0.10 0.26 0.08 0.05 0.02 0.02 0.01 0.00 0.00 0.00 0.03 0.04 0.17 0.50 0.80 1.08 0.98 0.82 0.82 0.67 0.59 0.75 0.73 0.60 0.77 0.68 0.59 0.61 0.52 0.53 0.68 1.03 0.69 0.41 0.49 0.57 0.61 0.42 0.53
0.00 0.00 0.00 0.02 0.01 0.00 0.00 0.00 0.01 0.11 0.12 0.09 0.05 0.01 0.01 0.00 0.00 0.00 0.03 0.04 0.06 0.08 0.32 0.58 0.72 1.21 1.58 0.91 0.50 0.62 0.93 0.81 0.75 0.63 0.75 0.92 0.78 0.97 0.93 0.82 0.61 0.70 0.80 0.61 0.63 0.71 0.66 0.55 0.45
0.00 0.00 0.00 0.00 0.01 0.00 0.00 0.00 0.00 0.04 0.15 0.07 0.03 0.01 0.01 0.01 0.00 0.02 0.05 0.06 0.08 0.18 0.42 0.64 1.00 0.97 0.47 0.28 0.29 0.43 0.62 0.75 0.70 0.59 0.62 1.00 1.15 1.19 1.54 1.48 1.31 0.84 0.52 0.63 0.68 0.93 0.94 0.80 0.59
0.00 0.01 0.00 0.00 0.00 0.00 0.01 0.00 0.00 0.00 0.02 0.00 0.00 0.01 0.00 0.01 0.00 0.01 0.04 0.10 0.29 0.44 0.44 0.33 0.15 0.13 0.05 0.06 0.14 0.30 0.42 0.62 0.57 0.47 0.40 0.69 0.88 1.26 1.36 1.47 1.71 1.86 1.22 0.74 0.72 1.00 1.24 1.04 0.74
0.00 0.00 0.00 0.00 0.00 0.01 0.03 0.01 0.00 0.00 0.00 0.00 0.01 0.03 0.01 0.01 0.01 0.04 0.08 0.13 0.11 0.05 0.02 0.06 0.08 0.14 0.07 0.05 0.20 0.38 0.55 0.75 0.68 0.63 0.33 0.29 0.50 0.83 1.21 1.42 1.36 1.37 1.27 1.14 1.11 1.30 1.51 0.95 0.78
0.00 0.00 0.01 0.01 0.03 0.08 0.06 0.08 0.01 0.00 0.00 0.00 0.01 0.02 0.03 0.03 0.04 0.03 0.01 0.00 0.01 0.03 0.03 0.06 0.13 0.16 0.10 0.20 0.36 0.35 0.37 0.48 0.35 0.29 0.28 0.26 0.45 0.57 0.87 1.18 1.07 1.31 1.55 1.06 0.88 0.67 1.03 1.09 0.75
0.01 0.01 0.05 0.05 0.06 0.05 0.04 0.11 0.02 0.02 0.09 0.06 0.03 0.02 0.05 0.03 0.02 0.02 0.02 0.01 0.00 0.05 0.08 0.08 0.15 0.28 0.21 0.21 0.55 0.68 0.66 0.46 0.39 0.36 0.42 0.41 0.44 0.61 0.67 0.91 1.05 1.08 1.08 1.09 0.97 0.63 0.54 0.80 0.99
0.08 0.05 0.11 0.10 0.13 0.15 0.01 0.06 0.09 0.52 0.52 0.34 0.18 0.11 0.16 0.07 0.06 0.06 0.06 0.04 0.04 0.09 0.12 0.11 0.14 0.24 0.27 0.24 0.39 0.75 1.16 1.51 1.66 1.34 0.92 0.68 0.78 0.83 0.87 0.92 1.03 1.55 1.75 1.53 1.31 1.52 1.29 0.98 1.00
0.10 0.23 0.42 0.48 0.32 0.11 0.05 0.07 0.24 0.47 0.44 0.43 0.33 0.21 0.17 0.12 0.12 0.12 0.10 0.08 0.09 0.13 0.21 0.22 0.15 0.15 0.15 0.21 0.21 0.28 0.52 0.85 1.33 1.99 2.77 2.69 2.21 1.94 2.03 1.99 1.71 1.59 1.84 2.52 2.01 1.93 1.94 1.98 1.59
0.08 0.22 0.29 0.33 0.23 0.12 0.09 0.22 0.66 0.57 0.79 0.54 0.79 0.45 0.32 0.24 0.16 0.13 0.14 0.14 0.14 0.20 0.35 0.34 0.33 0.32 0.20 0.22 0.31 0.44 0.52 0.64 0.96 1.09 1.41 2.19 2.92 2.63 3.00 3.47 3.69 2.98 2.37 2.60 2.71 2.26 2.20 2.65 2.62
0.16 0.16 0.10 0.47 0.31 0.30 0.29 0.77 0.64 0.48 0.78 1.53 0.89 0.51 0.64 0.60 0.35 0.20 0.19 0.26 0.35 0.30 0.39 0.56 0.54 0.63 0.51 0.41 0.39 0.52 0.72 0.71 0.63 0.78 1.40 1.49 1.44 1.62 2.08 2.30 2.50 3.13 3.22 2.75 2.71 2.54 2.13 2.20 2.45
0.14 0.25 0.43 0.66 0.53 0.54 0.38 0.58 0.82 0.83 1.16 1.00 1.21 1.25 0.67 0.75 0.61 0.34 0.27 0.33 0.34 0.45 0.41 0.56 0.77 1.09 0.82 0.72 0.64 0.69 0.80 0.79 0.91 1.12 1.48 1.89 2.18 2.03 1.57 1.72 1.78 1.62 1.55 1.69 2.03 2.27 2.10 2.07 2.11
0.24 0.38 0.39 0.39 0.38 0.79 0.89 1.23 1.44 1.57 1.74 1.72 1.09 1.15 1.31 0.80 1.07 0.81 0.50 0.46 0.60 0.78 0.42 0.58 1.04 1.80 1.49 1.10 1.10 1.25 1.05 1.41 1.57 1.39 1.64 1.56 1.65 1.98 1.86 1.57 1.54 1.46 1.29 1.27 1.37 1.34 1.51 1.81 1.95
0.27 0.23 0.32 0.74 0.53 0.53 1.27 1.82 2.01 1.61 1.25 0.83 0.81 0.75 0.77 0.88 0.95 1.22 0.96 0.78 0.78 0.43 0.51 0.58 0.84 1.19 2.42 2.37 2.50 2.20 2.39 2.82 2.19 2.28 2.67 2.09 1.81 1.55 1.23 1.11 1.03 1.04 1.08 1.12 1.07 1.17 1.12 1.08 1.17

GFSSGP_prec_precacc_147.txt.gz
Total_Precipitation_Accumulation
0.00 0.00 0.00 0.00 0.00 0.00 0.00 0.00 0.01 0.02 0.05 0.07 0.15 0.17 0.15 0.19 0.41 0.76 0.68 1.23 2.37 1.63 0.97 0.87 0.94 0.30 0.22 0.19 0.12 0.06 0.02 0.01 0.02 0.01 0.00 0.01 0.01 0.01 0.02 0.01 0.03 0.06 0.26 0.23 0.04 0.05 0.14 0.09 0.06
0.00 0.00 0.00 0.00 0.00 0.00 0.00 0.02 0.01 0.06 0.20 0.31 0.32 0.34 0.31 0.36 0.28 0.48 0.67 0.58 0.57 0.41 0.57 0.75 1.19 0.97 0.80 0.62 0.22 0.12 0.08 0.05 0.01 0.02 0.02 0.02 0.01 0.03 0.07 0.02 0.01 0.15 0.30 0.30 0.29 0.26 0.18 0.07 0.03
0.00 0.00 0.00 0.00 0.00 0.00 0.00 0.02 0.02 0.06 0.16 0.17 0.15 0.13 0.26 0.42 0.69 0.83 0.70 0.57 0.60 0.36 0.31 0.78 1.20 1.34 0.83 0.99 0.67 0.43 0.38 0.16 0.07 0.12 0.05 0.03 0.05 0.19 0.27 0.22 0.21 0.38 0.44 0.42 0.44 0.41 0.29 0.08 0.00
0.00 0.00 0.00 0.00 0.00 0.00 0.00 0.02 0.04 0.15 0.14 0.09 0.12 0.20 0.54 0.52 0.96 0.73 0.65 0.83 1.04 1.14 0.91 1.64 2.07 1.50 1.03 0.94 1.16 2.04 1.84 1.26 0.97 0.62 0.39 0.21 0.37 0.50 0.49 0.46 0.43 0.48 0.56 0.40 0.38 0.43 0.23 0.02 0.00
0.00 0.00 0.00 0.00 0.00 0.00 0.01 0.06 0.17 0.20 0.22 0.28 0.12 0.30 0.91 0.46 0.41 0.62 1.19 2.26 3.14 2.76 2.23 2.19 3.01 2.31 1.63 1.12 1.37 2.03 3.38 3.89 3.34 2.31 1.32 1.53 1.74 1.40 1.11 0.70 0.56 0.51 0.54 0.54 0.45 0.32 0.20 0.07 0.03
0.00 0.00 0.00 0.00 0.00 0.00 0.01 0.11 0.30 0.40 0.25 0.32 0.12 0.38 0.91 0.39 0.47 0.72 1.82 2.34 4.04 5.81 6.52 4.51 4.62 5.15 3.95 2.56 1.26 1.46 2.07 3.34 3.37 3.48 3.32 3.16 2.53 1.60 1.23 0.75 0.58 0.54 0.52 0.45 0.48 0.32 0.29 0.17 0.27
0.00 0.00 0.00 0.00 0.00 0.01 0.04 0.13 0.21 0.23 0.19 0.33 0.20 0.49 1.07 0.45 0.44 0.96 1.82 4.35 6.04 6.86 10.03 10.33 6.90 6.25 5.55 6.20 3.93 1.65 1.56 1.74 2.11 2.20 2.22 2.58 2.93 1.98 1.44 0.90 0.66 0.69 0.71 0.38 0.34 0.29 0.39 0.57 0.53
0.00 0.00 0.00 0.00 0.01 0.04 0.08 0.21 0.27 0.14 0.28 0.50 0.20 0.35 1.12 0.58 0.43 0.50 0.85 2.20 6.16 7.51 6.57 6.83 5.47 4.75 4.34 4.46 5.07 3.57 2.44 2.08 1.82 1.74 1.66 1.61 2.17 2.03 1.38 0.86 0.64 0.74 0.68 0.48 0.39 0.48 0.62 0.57 0.53
0.00 0.00 0.00 0.00 0.04 0.12 0.13 0.12 0.09 0.04 0.06 0.24 0.35 0.31 0.37 0.30 0.27 0.29 0.96 1.02 1.92 3.50 3.96 3.56 2.46 1.71 1.94 2.05 2.50 3.14 3.23 2.64 2.64 2.83 2.03 1.57 1.50 1.94 1.47 0.95 0.62 0.73 0.70 0.59 0.49 0.60 0.63 0.53 0.45
0.00 0.00 0.00 0.00 0.02 0.28 0.21 0.26 0.23 0.04 0.07 0.42 0.52 0.57 0.44 0.30 0.28 0.25 0.62 0.77 1.65 2.08 1.80 1.28 0.81 0.45 0.47 0.61 0.78 1.27 2.09 2.48 2.21 3.53 2.44 2.06 1.20 1.30 1.15 1.25 0.87 0.77 0.98 0.66 0.74 0.60 0.46 0.36 0.25
0.00 0.00 0.00 0.00 0.00 0.05 0.09 0.01 0.01 0.04 0.10 0.25 0.36 0.32 0.16 0.20 0.14 0.19 0.33 0.66 1.12 0.85 0.81 0.75 0.52 0.34 0.38 0.28 0.34 0.51 1.16 1.99 2.26 2.43 2.28 2.29 1.34 1.46 1.16 1.36 1.07 0.85 1.25 0.85 0.79 0.59 0.42 0.26 0.24
0.00 0.00 0.00 0.00 0.01 0.00 0.00 0.01 0.00 0.06 0.54 0.42 0.08 0.21 0.13 0.12 0.17 0.24 0.31 0.39 0.48 0.45 0.47 0.32 0.37 0.45 0.78 0.62 0.38 0.39 0.83 1.58 1.75 1.39 1.24 1.63 1.14 1.14 1.14 0.92 0.93 0.74 1.18 0.81 0.56 0.38 0.31 0.32 0.34
0.00 0.00 0.00 0.00 0.02 0.02 0.01 0.01 0.02 0.40 0.85 0.25 0.22 0.18 0.11 0.12 0.16 0.14 0.11 0.17 0.21 0.30 0.41 0.39 0.18 0.29 0.37 0.48 0.64 0.58 0.69 0.98 1.26 1.06 0.46 1.10 0.93 0.70 1.08 0.84 0.83 0.60 1.17 0.70 0.40 0.42 0.33 0.35 0.36
0.00 0.00 0.00 0.02 0.01 0.02 0.01 0.02 0.18 0.31 0.29 0.38 0.32 0.19 0.14 0.09 0.09 0.08 0.04 0.03 0.11 0.26 0.39 0.47 0.41 0.35 0.35 0.43 0.40 0.56 0.78 1.09 1.00 1.06 0.47 0.41 0.58 0.72 1.15 1.02 0.87 0.61 0.84 0.72 0.57 0.36 0.42 0.38 0.49
0.00 0.01 0.01 0.04 0.02 0.01 0.02 0.10 0.20 0.47 0.35 0.20 0.23 0.21 0.21 0.18 0.09 0.04 0.02 0.01 0.02 0.07 0.22 0.62 1.02 0.50 0.34 0.35 0.45 0.45 0.55 0.93 1.00 1.00 0.74 0.37 0.34 0.48 0.74 0.94 0.73 0.64 0.72 0.64 0.76 0.68 0.50 0.49 0.75
0.00 0.00 0.02 0.16 0.03 0.01 0.01 0.20 0.34 0.14 0.15 0.41 0.12 0.15 0.20 0.12 0.04 0.00 0.00 0.00 0.01 0.04 0.12 0.66 1.27 0.93 0.48 0.31 0.50 0.49 0.63 0.79 0.86 0.90 0.73 0.45 0.32 0.38 0.47 0.71 0.92 0.80 0.82 0.58 0.54 0.73 0.53 0.47 0.68
0.00 0.00 0.00 0.01 0.01 0.01 0.01 0.02 0.15 0.11 0.10 0.26 0.08 0.05 0.02 0.02 0.01 0.00 0.00 0.00 0.03 0.04 0.17 0.50 0.80 1.08 0.98 0.82 0.82 0.67 0.59 0.75 0.73 0.60 0.77 0.68 0.59 0.61 0.52 0.53 0.68 1.04 0.77 0.60 0.64 0.63 0.62 0.42 0.53
0.00 0.00 0.00 0.02 0.01 0.00 0.00 0.00 0.01 0.11 0.12 0.09 0.05 0.01 0.01 0.00 0.00 0.00 0.03 0.04 0.06 0.08 0.32 0.58 0.72 1.21 1.58 0.91 0.50 0.62 0.93 0.81 0.75 0.63 0.75 0.92 0.78 0.97 0.93 0.82 0.61 0.70 0.82 0.69 0.83 0.89 0.78 0.57 0.45
0.00 0.00 0.00 0.00 0.01 0.00 0.00 0.00 0.00 0.04 0.15 0.07 0.03 0.01 0.01 0.01 0.00 0.02 0.05 0.06 0.08 0.18 0.42 0.64 1.00 0.97 0.47 0.28 0.29 0.43 0.62 0.75 0.70 0.59 0.62 1.00 1.15 1.19 1.54 1.49 1.31 0.84 0.53 0.65 0.75 1.13 1.15 0.96 0.65
0.00 0.01 0.00 0.00 0.00 0.00 0.01 0.00 0.00 0.00 0.02 0.00 0.00 0.01 0.00 0.01 0.00 0.01 0.04 0.10 0.29 0.44 0.44 0.33 0.15 0.13 0.05 0.06 0.14 0.30 0.42 0.62 0.57 0.47 0.40 0.69 0.88 1.26 1.36 1.47 1.71 1.86 1.22 0.75 0.73 1.07 1.51 1.61 1.40
0.00 0.00 0.00 0.00 0.00 0.01 0.03 0.01 0.00 0.00 0.00 0.00 0.01 0.03 0.01 0.01 0.01 0.04 0.08 0.13 0.11 0.05 0.02 0.06 0.08 0.14 0.07 0.05 0.20 0.38 0.56 0.76 0.68 0.64 0.34 0.29 0.50 0.83 1.21 1.42 1.37 1.37 1.27 1.14 1.11 1.31 1.74 1.62 1.60
0.00 0.00 0.01 0.01 0.03 0.08 0.06 0.08 0.01 0.00 0.00 0.00 0.01 0.02 0.03 0.03 0.04 0.03 0.01 0.00 0.01 0.03 0.03 0.06 0.13 0.16 0.10 0.20 0.36 0.35 0.38 0.49 0.36 0.29 0.29 0.26 0.45 0.57 0.87 1.18 1.07 1.31 1.55 1.07 0.89 0.67 1.07 1.55 1.71
0.01 0.01 0.05 0.05 0.06 0.05 0.04 0.11 0.02 0.02 0.09 0.06 0.03 0.02 0.05 0.03 0.02 0.02 0.02 0.01 0.00 0.05 0.08 0.08 0.15 0.28 0.21 0.21 0.55 0.69 0.66 0.47 0.40 0.37 0.43 0.42 0.45 0.62 0.68 0.92 1.06 1.09 1.09 1.10 0.97 0.63 0.55 0.82 1.06
0.08 0.05 0.11 0.10 0.13 0.15 0.01 0.06 0.09 0.52 0.52 0.34 0.18 0.11 0.16 0.07 0.06 0.06 0.06 0.04 0.04 0.09 0.12 0.11 0.14 0.24 0.27 0.24 0.39 0.75 1.16 1.51 1.66 1.34 0.93 0.68 0.79 0.84 0.87 0.93 1.04 1.56 1.76 1.54 1.31 1.52 1.30 0.98 1.01
0.10 0.23 0.42 0.48 0.32 0.11 0.05 0.07 0.24 0.47 0.44 0.43 0.33 0.21 0.17 0.12 0.12 0.12 0.10 0.08 0.09 0.13 0.21 0.22 0.15 0.15 0.15 0.21 0.21 0.29 0.53 0.86 1.34 2.00 2.77 2.69 2.21 1.94 2.03 1.99 1.71 1.60 1.86 2.53 2.01 1.94 1.94 2.00 1.60
0.08 0.22 0.29 0.33 0.23 0.12 0.09 0.22 0.66 0.57 0.79 0.54 0.79 0.45 0.32 0.24 0.16 0.13 0.14 0.14 0.14 0.20 0.35 0.34 0.33 0.32 0.20 0.22 0.31 0.45 0.53 0.65 0.97 1.10 1.42 2.19 2.93 2.63 3.00 3.47 3.69 2.98 2.38 2.62 2.73 2.27 2.21 2.67 2.65
0.16 0.16 0.10 0.48 0.32 0.32 0.29 0.77 0.64 0.48 0.78 1.53 0.89 0.51 0.64 0.60 0.35 0.20 0.19 0.26 0.35 0.30 0.39 0.56 0.54 0.63 0.51 0.41 0.39 0.52 0.72 0.72 0.64 0.79 1.41 1.49 1.44 1.62 2.08 2.30 2.51 3.14 3.23 2.79 2.74 2.56 2.15 2.20 2.48
0.14 0.25 0.43 0.67 0.56 0.56 0.38 0.58 0.82 0.83 1.16 1.00 1.21 1.25 0.67 0.75 0.61 0.34 0.27 0.33 0.34 0.45 0.41 0.56 0.77 1.09 0.82 0.72 0.64 0.69 0.80 0.79 0.92 1.13 1.49 1.90 2.19 2.03 1.58 1.74 1.81 1.64 1.60 1.75 2.14 2.31 2.14 2.09 2.12
0.24 0.38 0.39 0.40 0.40 0.82 0.90 1.23 1.44 1.57 1.74 1.72 1.09 1.15 1.31 0.80 1.07 0.81 0.50 0.46 0.60 0.78 0.42 0.58 1.04 1.80 1.49 1.10 1.10 1.26 1.05 1.41 1.58 1.41 1.66 1.59 1.68 2.00 1.87 1.57 1.57 1.56 1.39 1.44 1.48 1.37 1.54 1.83 1.97
0.27 0.23 0.33 0.76 0.56 0.56 1.29 1.83 2.01 1.61 1.25 0.83 0.81 0.75 0.77 0.88 0.95 1.22 0.96 0.78 0.78 0.43 0.51 0.58 0.84 1.19 2.42 2.37 2.50 2.20 2.39 2.82 2.21 2.34 2.73 2.16 1.89 1.62 1.27 1.14 1.09 1.13 1.23 1.31 1.27 1.28 1.21 1.15 1.23

GFSSGP_prec_precacc_150.txt.gz
Total_Precipitation_Accumulation
0.00 0.00 0.00 0.00 0.00 0.00 0.00 0.00 0.01 0.02 0.05 0.07 0.15 0.17 0.15 0.19 0.41 0.78 0.76 1.25 2.37 1.63 0.97 0.87 0.94 0.30 0.22 0.19 0.12 0.06 0.02 0.01 0.02 0.01 0.00 0.01 0.01 0.01 0.02 0.01 0.03 0.06 0.26 0.23 0.04 0.05 0.14 0.09 0.06
0.00 0.00 0.00 0.00 0.00 0.00 0.00 0.02 0.01 0.06 0.20 0.31 0.32 0.34 0.31 0.36 0.28 0.49 0.69 0.60 0.58 0.41 0.57 0.75 1.20 0.98 0.80 0.62 0.22 0.12 0.08 0.05 0.01 0.02 0.02 0.02 0.01 0.03 0.07 0.02 0.01 0.15 0.30 0.30 0.29 0.26 0.18 0.07 0.03
0.00 0.00 0.00 0.00 0.00 0.00 0.00 0.02 0.02 0.06 0.16 0.17 0.15 0.13 0.26 0.42 0.69 0.84 0.72 0.60 0.63 0.38 0.32 0.78 1.20 1.35 0.83 1.00 0.68 0.43 0.38 0.16 0.07 0.12 0.05 0.03 0.05 0.19 0.27 0.22 0.21 0.38 0.44 0.42 0.44 0.41 0.29 0.08 0.00
0.00 0.00 0.00 0.00 0.00 0.00 0.00 0.02 0.04 0.15 0.14 0.09 0.12 0.20 0.54 0.52 0.97 0.73 0.65 0.84 1.06 1.16 0.92 1.65 2.08 1.51 1.05 0.95 1.17 2.04 1.85 1.26 0.97 0.62 0.40 0.21 0.37 0.50 0.49 0.46 0.43 0.48 0.56 0.40 0.38 0.43 0.23 0.02 0.00
0.00 0.00 0.00 0.00 0.00 0.00 0.01 0.06 0.17 0.20 0.22 0.28 0.12 0.30 0.91 0.46 0.41 0.62 1.19 2.26 3.14 2.76 2.23 2.19 3.01 2.31 1.63 1.12 1.37 2.03 3.39 3.89 3.34 2.31 1.36 1.58 1.77 1.42 1.11 0.70 0.56 0.51 0.54 0.54 0.45 0.32 0.20 0.07 0.03
0.00 0.00 0.00 0.00 0.00 0.00 0.01 0.11 0.30 0.40 0.25 0.32 0.12 0.38 0.91 0.39 0.47 0.72 1.82 2.34 4.04 5.81 6.52 4.51 4.62 5.15 3.95 2.56 1.26 1.46 2.08 3.36 3.38 3.48 3.35 3.23 2.60 1.67 1.26 0.75 0.58 0.54 0.52 0.45 0.48 0.32 0.29 0.17 0.27
0.00 0.00 0.00 0.00 0.00 0.01 0.04 0.13 0.21 0.23 0.19 0.33 0.20 0.49 1.07 0.45 0.44 0.96 1.82 4.35 6.04 6.86 10.03 10.33 6.90 6.25 5.55 6.20 3.94 1.65 1.56 1.78 2.17 2.27 2.25 2.61 2.99 2.05 1.52 0.94 0.67 0.69 0.71 0.38 0.34 0.29 0.39 0.57 0.53
0.00 0.00 0.00 0.00 0.01 0.04 0.08 0.21 0.27 0.14 0.28 0.50 0.20 0.35 1.12 0.58 0.43 0.50 0.85 2.20 6.16 7.51 6.57 6.83 5.47 4.75 4.34 4.46 5.07 3.57 2.44 2.08 1.85 1.83 1.81 1.70 2.19 2.08 1.45 0.94 0.70 0.76 0.68 0.48 0.39 0.48 0.62 0.57 0.53
0.00 0.00 0.00 0.00 0.04 0.12 0.13 0.12 0.09 0.04 0.06 0.24 0.35 0.31 0.37 0.30 0.27 0.29 0.96 1.02 1.92 3.50 3.96 3.56 2.46 1.71 1.94 2.05 2.50 3.14 3.23 2.64 2.64 2.84 2.07 1.64 1.52 2.00 1.59 1.05 0.74 0.86 0.78 0.62 0.50 0.60 0.63 0.53 0.45
0.00 0.00 0.00 0.00 0.02 0.28 0.21 0.26 0.23 0.04 0.07 0.42 0.52 0.57 0.44 0.30 0.28 0.25 0.62 0.77 1.65 2.08 1.80 1.28 0.81 0.45 0.47 0.61 0.78 1.27 2.09 2.48 2.21 3.53 2.44 2.06 1.20 1.30 1.18 1.33 0.95 0.87 1.10 0.74 0.77 0.62 0.46 0.36 0.25
0.00 0.00 0.00 0.00 0.00 0.05 0.09 0.01 0.01 0.04 0.10 0.25 0.36 0.32 0.16 0.20 0.14 0.19 0.33 0.66 1.12 0.85 0.81 0.75 0.52 0.34 0.38 0.28 0.34 0.51 1.16 1.99 2.26 2.43 2.28 2.29 1.34 1.46 1.17 1.38 1.09 0.93 1.37 0.92 0.83 0.60 0.42 0.26 0.24
0.00 0.00 0.00 0.00 0.01 0.00 0.00 0.01 0.00 0.06 0.54 0.42 0.08 0.21 0.13 0.12 0.17 0.24 0.31 0.39 0.48 0.45 0.47 0.32 0.37 0.45 0.78 0.62 0.38 0.39 0.83 1.58 1.75 1.39 1.24 1.63 1.14 1.14 1.14 0.93 0.94 0.75 1.23 0.90 0.66 0.44 0.33 0.32 0.34
0.00 0.00 0.00 0.00 0.02 0.02 0.01 0.01 0.02 0.40 0.85 0.25 0.22 0.18 0.11 0.12 0.16 0.14 0.11 0.17 0.21 0.30 0.41 0.39 0.18 0.29 0.37 0.48 0.64 0.58 0.69 0.98 1.26 1.06 0.46 1.10 0.93 0.70 1.08 0.84 0.83 0.62 1.20 0.73 0.44 0.45 0.35 0.38 0.37
0.00 0.00 0.00 0.02 0.01 0.02 0.01 0.02 0.18 0.31 0.29 0.38 0.32 0.19 0.14 0.09 0.09 0.08 0.04 0.03 0.11 0.26 0.39 0.47 0.41 0.35 0.35 0.43 0.40 0.56 0.78 1.09 1.00 1.06 0.47 0.41 0.58 0.72 1.15 1.02 0.87 0.61 0.87 0.78 0.62 0.38 0.43 0.39 0.53
0.00 0.01 0.01 0.04 0.02 0.01 0.02 0.10 0.20 0.47 0.35 0.20 0.23 0.21 0.21 0.18 0.09 0.04 0.02 0.01 0.02 0.07 0.22 0.62 1.02 0.50 0.34 0.35 0.45 0.45 0.55 0.93 1.00 1.00 0.74 0.37 0.34 0.48 0.74 0.94 0.73 0.64 0.72 0.67 0.83 0.74 0.52 0.50 0.77
0.00 0.00 0.02 0.16 0.03 0.01 0.01 0.20 0.34 0.14 0.15 0.41 0.12 0.15 0.20 0.12 0.04 0.00 0.00 0.00 0.01 0.04 0.12 0.66 1.27 0.93 0.48 0.31 0.50 0.49 0.63 0.79 0.86 0.90 0.73 0.45 0.32 0.38 0.47 0.71 0.92 0.80 0.82 0.59 0.56 0.77 0.58 0.49 0.69
0.00 0.00 0.00 0.01 0.01 0.01 0.01 0.02 0.15 0.11 0.10 0.26 0.08 0.05 0.02 0.02 0.01 0.00 0.00 0.00 0.03 0.04 0.17 0.50 0.80 1.08 0.98 0.82 0.82 0.67 0.59 0.75 0.73 0.60 0.77 0.68 0.59 0.61 0.52 0.53 0.68 1.04 0.77 0.60 0.64 0.65 0.67 0.46 0.55
0.00 0.00 0.00 0.02 0.01 0.00 0.00 0.00 0.01 0.11 0.12 0.09 0.05 0.01 0.01 0.00 0.00 0.00 0.03 0.04 0.06 0.08 0.32 0.58 0.72 1.21 1.58 0.91 0.50 0.62 0.93 0.81 0.75 0.63 0.75 0.92 0.78 0.97 0.93 0.82 0.61 0.70 0.82 0.69 0.83 0.89 0.81 0.67 0.51
0.00 0.00 0.00 0.00 0.01 0.00 0.00 0.00 0.00 0.04 0.15 0.07 0.03 0.01 0.01 0.01 0.00 0.02 0.05 0.06 0.08 0.18 0.42 0.64 1.00 0.97 0.47 0.28 0.29 0.43 0.62 0.75 0.70 0.59 0.62 1.00 1.15 1.19 1.54 1.49 1.32 0.84 0.53 0.65 0.75 1.13 1.16 1.07 0.92
0.00 0.01 0.00 0.00 0.00 0.00 0.01 0.00 0.00 0.00 0.02 0.00 0.00 0.01 0.00 0.01 0.00 0.01 0.04 0.10 0.29 0.44 0.44 0.33 0.15 0.13 0.05 0.06 0.14 0.30 0.42 0.62 0.57 0.47 0.40 0.69 0.88 1.26 1.36 1.47 1.71 1.86 1.22 0.75 0.73 1.07 1.51 1.62 1.54
0.00 0.00 0.00 0.00 0.00 0.01 0.03 0.01 0.00 0.00 0.00 0.00 0.01 0.03 0.01 0.01 0.01 0.04 0.08 0.13 0.11 0.05 0.02 0.06 0.08 0.14 0.07 0.05 0.20 0.38 0.56 0.76 0.68 0.64 0.34 0.29 0.50 0.84 1.22 1.43 1.37 1.38 1.28 1.14 1.11 1.31 1.74 1.63 1.61
0.00 0.00 0.01 0.01 0.03 0.08 0.06 0.08 0.01 0.00 0.00 0.00 0.01 0.02 0.03 0.03 0.04 0.03 0.01 0.00 0.01 0.03 0.03 0.06 0.13 0.16 0.10 0.20 0.36 0.35 0.38 0.49 0.36 0.29 0.29 0.26 0.45 0.58 0.87 1.19 1.08 1.32 1.56 1.07 0.89 0.67 1.08 1.56 1.72
0.01 0.01 0.05 0.05 0.06 0.05 0.04 0.11 0.02 0.02 0.09 0.06 0.03 0.02 0.05 0.03 0.02 0.02 0.02 0.01 0.00 0.05 0.08 0.08 0.15 0.28 0.21 0.21 0.55 0.69 0.66 0.47 0.40 0.37 0.43 0.42 0.45 0.62 0.68 0.93 1.07 1.10 1.10 1.11 0.98 0.64 0.56 0.83 1.07
0.08 0.05 0.11 0.10 0.13 0.15 0.01 0.06 0.09 0.52 0.52 0.34 0.18 0.11 0.16 0.07 0.06 0.06 0.06 0.04 0.04 0.09 0.12 0.11 0.14 0.24 0.27 0.24 0.39 0.75 1.17 1.51 1.66 1.35 0.93 0.68 0.79 0.84 0.87 0.93 1.05 1.57 1.76 1.54 1.32 1.53 1.31 0.99 1.03
0.10 0.23 0.42 0.48 0.32 0.11 0.05 0.07 0.24 0.47 0.44 0.43 0.33 0.21 0.17 0.12 0.12 0.12 0.10 0.08 0.09 0.13 0.21 0.22 0.15 0.15 0.15 0.21 0.21 0.29 0.53 0.86 1.35 2.00 2.78 2.69 2.21 1.94 2.03 2.00 1.71 1.60 1.86 2.54 2.02 1.94 1.95 2.01 1.62
0.08 0.22 0.29 0.34 0.24 0.12 0.09 0.22 0.66 0.57 0.79 0.54 0.79 0.45 0.32 0.24 0.16 0.13 0.14 0.14 0.14 0.20 0.35 0.34 0.33 0.32 0.20 0.22 0.31 0.45 0.53 0.65 0.97 1.10 1.43 2.21 2.94 2.64 3.01 3.47 3.69 2.98 2.38 2.62 2.74 2.29 2.23 2.69 2.67
0.16 0.16 0.10 0.48 0.33 0.34 0.29 0.77 0.64 0.48 0.78 1.53 0.89 0.51 0.64 0.60 0.35 0.20 0.19 0.26 0.35 0.30 0.39 0.56 0.54 0.63 0.51 0.41 0.39 0.52 0.72 0.72 0.65 0.80 1.42 1.51 1.45 1.64 2.08 2.30 2.51 3.14 3.23 2.79 2.75 2.58 2.17 2.23 2.50
0.14 0.25 0.44 0.70 0.59 0.60 0.38 0.58 0.82 0.83 1.16 1.00 1.21 1.25 0.67 0.75 0.61 0.34 0.27 0.33 0.34 0.45 0.41 0.56 0.77 1.09 0.82 0.72 0.64 0.69 0.80 0.79 0.92 1.13 1.50 1.91 2.20 2.04 1.58 1.75 1.81 1.65 1.60 1.76 2.15 2.36 2.18 2.13 2.13
0.24 0.38 0.40 0.44 0.43 0.87 0.92 1.23 1.45 1.57 1.74 1.72 1.09 1.15 1.31 0.80 1.07 0.81 0.50 0.46 0.60 0.78 0.42 0.58 1.04 1.80 1.49 1.10 1.10 1.26 1.05 1.42 1.58 1.41 1.66 1.60 1.69 2.02 1.89 1.58 1.58 1.59 1.41 1.48 1.57 1.56 1.65 1.92 2.00
0.27 0.23 0.34 0.80 0.61 0.62 1.36 1.84 2.01 1.61 1.25 0.83 0.81 0.75 0.77 0.88 0.95 1.22 0.96 0.78 0.78 0.43 0.51 0.58 0.84 1.19 2.42 2.37 2.50 2.20 2.39 2.83 2.21 2.35 2.73 2.17 1.93 1.66 1.32 1.17 1.10 1.15 1.27 1.43 1.42 1.41 1.34 1.23 1.28

GFSSGP_prec_precacc_153.txt.gz
Total_Precipitation_Accumulation
0.00 0.00 0.00 0.00 0.00 0.00 0.00 0.00 0.01 0.02 0.05 0.07 0.15 0.17 0.15 0.19 0.41 0.82 0.80 1.27 2.38 1.64 0.97 0.87 0.95 0.30 0.22 0.19 0.12 0.06 0.02 0.01 0.02 0.01 0.00 0.01 0.01 0.01 0.02 0.01 0.03 0.06 0.26 0.23 0.04 0.05 0.14 0.09 0.06
0.00 0.00 0.00 0.00 0.00 0.00 0.00 0.02 0.01 0.06 0.20 0.31 0.32 0.34 0.31 0.36 0.28 0.50 0.69 0.60 0.58 0.41 0.57 0.75 1.20 0.98 0.80 0.62 0.22 0.12 0.08 0.05 0.01 0.02 0.02 0.02 0.01 0.03 0.07 0.02 0.01 0.15 0.30 0.30 0.29 0.26 0.18 0.07 0.03
0.00 0.00 0.00 0.00 0.00 0.00 0.00 0.02 0.02 0.06 0.16 0.17 0.15 0.13 0.26 0.42 0.69 0.84 0.72 0.60 0.63 0.38 0.32 0.78 1.20 1.35 0.83 1.00 0.68 0.44 0.38 0.16 0.07 0.12 0.05 0.05 0.07 0.21 0.28 0.22 0.21 0.38 0.44 0.42 0.44 0.41 0.29 0.08 0.00
0.00 0.00 0.00 0.00 0.00 0.00 0.00 0.02 0.04 0.15 0.14 0.09 0.12 0.20 0.54 0.52 0.97 0.73 0.65 0.84 1.06 1.16 0.92 1.65 2.09 1.51 1.05 0.95 1.17 2.04 1.85 1.26 0.97 0.62 0.40 0.27 0.48 0.61 0.55 0.47 0.43 0.48 0.56 0.40 0.38 0.43 0.23 0.02 0.00
0.00 0.00 0.00 0.00 0.00 0.00 0.01 0.06 0.17 0.20 0.22 0.28 0.12 0.30 0.91 0.46 0.41 0.62 1.19 2.26 3.14 2.76 2.23 2.19 3.01 2.31 1.63 1.12 1.37 2.03 3.39 3.89 3.34 2.31 1.36 1.59 1.81 1.47 1.15 0.72 0.56 0.51 0.54 0.54 0.45 0.32 0.20 0.07 0.03
0.00 0.00 0.00 0.00 0.00 0.00 0.01 0.11 0.30 0.40 0.25 0.32 0.12 0.38 0.91 0.39 0.47 0.72 1.82 2.34 4.04 5.81 6.52 4.51 4.62 5.15 3.95 2.56 1.26 1.46 2.08 3.36 3.39 3.51 3.36 3.23 2.60 1.68 1.29 0.79 0.59 0.54 0.52 0.45 0.48 0.32 0.29 0.17 0.27
0.00 0.00 0.00 0.00 0.00 0.01 0.04 0.13 0.21 0.23 0.19 0.33 0.20 0.49 1.07 0.45 0.44 0.96 1.82 4.35 6.04 6.86 10.03 10.33 6.90 6.25 5.55 6.20 3.94 1.65 1.56 1.78 2.17 2.29 2.32 2.63 2.99 2.05 1.53 0.97 0.74 0.73 0.72 0.38 0.34 0.29 0.39 0.57 0.53
0.00 0.00 0.00 0.00 0.01 0.04 0.08 0.21 0.27 0.14 0.28 0.50 0.20 0.35 1.12 0.58 0.43 0.50 0.85 2.20 6.16 7.51 6.57 6.83 5.47 4.75 4.34 4.46 5.07 3.57 2.44 2.08 1.85 1.83 1.82 1.73 2.23 2.11 1.46 0.95 0.73 0.80 0.71 0.50 0.40 0.49 0.62 0.57 0.53
0.00 0.00 0.00 0.00 0.04 0.12 0.13 0.12 0.09 0.04 0.06 0.24 0.35 0.31 0.37 0.30 0.27 0.29 0.96 1.02 1.92 3.50 3.96 3.56 2.46 1.71 1.94 2.05 2.50 3.14 3.23 2.64 2.64 2.84 2.07 1.64 1.54 2.06 1.69 1.15 0.75 0.89 0.82 0.67 0.56 0.64 0.64 0.53 0.45
0.00 0.00 0.00 0.00 0.02 0.28 0.21 0.26 0.23 0.04 0.07 0.42 0.52 0.57 0.44 0.30 0.28 0.25 0.62 0.77 1.65 2.08 1.80 1.28 0.81 0.45 0.47 0.61 0.78 1.27 2.09 2.48 2.21 3.53 2.44 2.06 1.20 1.30 1.19 1.36 1.07 0.95 1.10 0.75 0.79 0.64 0.48 0.37 0.25
0.00 0.00 0.00 0.00 0.00 0.05 0.09 0.01 0.01 0.04 0.10 0.25 0.36 0.32 0.16 0.20 0.14 0.19 0.33 0.66 1.12 0.85 0.81 0.75 0.52 0.34 0.38 0.28 0.34 0.51 1.16 1.99 2.26 2.43 2.28 2.29 1.34 1.46 1.17 1.39 1.15 1.01 1.47 0.95 0.85 0.61 0.43 0.27 0.24
0.00 0.00 0.00 0.00 0.01 0.00 0.00 0.01 0.00 0.06 0.54 0.42 0.08 0.21 0.13 0.12 0.17 0.24 0.31 0.39 0.48 0.45 0.47 0.32 0.37 0.45 0.78 0.62 0.38 0.39 0.83 1.58 1.75 1.39 1.24 1.63 1.14 1.14 1.14 0.93 0.94 0.78 1.32 0.99 0.80 0.54 0.40 0.38 0.37
0.00 0.00 0.00 0.00 0.02 0.02 0.01 0.01 0.02 0.40 0.85 0.25 0.22 0.18 0.11 0.12 0.16 0.14 0.11 0.17 0.21 0.30 0.41 0.39 0.18 0.29 0.37 0.48 0.64 0.58 0.69 0.98 1.26 1.06 0.46 1.10 0.93 0.70 1.08 0.84 0.83 0.62 1.22 0.79 0.53 0.54 0.46 0.46 0.46
0.00 0.00 0.00 0.02 0.01 0.02 0.01 0.02 0.18 0.31 0.29 0.38 0.32 0.19 0.14 0.09 0.09 0.08 0.04 0.03 0.11 0.26 0.39 0.47 0.41 0.35 0.35 0.43 0.40 0.56 0.78 1.09 1.00 1.06 0.47 0.41 0.58 0.72 1.15 1.02 0.87 0.61 0.87 0.79 0.68 0.45 0.51 0.47 0.61
0.00 0.01 0.01 0.04 0.02 0.01 0.02 0.10 0.20 0.47 0.35 0.20 0.23 0.21 0.21 0.18 0.09 0.04 0.02 0.01 0.02 0.07 0.22 0.62 1.02 0.50 0.34 0.35 0.45 0.45 0.55 0.93 1.00 1.00 0.74 0.37 0.34 0.48 0.74 0.94 0.73 0.64 0.72 0.67 0.83 0.77 0.60 0.59 0.84
0.00 0.00 0.02 0.16 0.03 0.01 0.01 0.20 0.34 0.14 0.15 0.41 0.12 0.15 0.20 0.12 0.04 0.00 0.00 0.00 0.01 0.04 0.12 0.66 1.27 0.93 0.48 0.31 0.50 0.49 0.63 0.79 0.86 0.90 0.73 0.45 0.32 0.38 0.47 0.71 0.92 0.80 0.82 0.59 0.56 0.77 0.61 0.56 0.77
0.00 0.00 0.00 0.01 0.01 0.01 0.01 0.02 0.15 0.11 0.10 0.26 0.08 0.05 0.02 0.02 0.01 0.00 0.00 0.00 0.03 0.04 0.17 0.50 0.80 1.08 0.98 0.82 0.82 0.67 0.59 0.75 0.73 0.60 0.77 0.68 0.59 0.61 0.52 0.53 0.68 1.04 0.77 0.60 0.64 0.65 0.67 0.48 0.61
0.00 0.00 0.00 0.02 0.01 0.00 0.00 0.00 0.01 0.11 0.12 0.09 0.05 0.01 0.01 0.00 0.00 0.00 0.03 0.04 0.06 0.08 0.32 0.58 0.72 1.21 1.58 0.91 0.50 0.62 0.93 0.81 0.75 0.63 0.75 0.92 0.78 0.97 0.93 0.82 0.61 0.70 0.82 0.69 0.83 0.89 0.81 0.67 0.53
0.00 0.00 0.00 0.00 0.01 0.00 0.00 0.00 0.00 0.04 0.15 0.07 0.03 0.01 0.01 0.01 0.00 0.02 0.05 0.06 0.08 0.18 0.42 0.64 1.00 0.97 0.47 0.28 0.29 0.43 0.62 0.75 0.70 0.59 0.62 1.00 1.15 1.19 1.54 1.49 1.32 0.84 0.53 0.65 0.75 1.13 1.16 1.07 0.93
0.00 0.01 0.00 0.00 0.00 0.00 0.01 0.00 0.00 0.00 0.02 0.00 0.00 0.01 0.00 0.01 0.00 0.01 0.04 0.10 0.29 0.44 0.44 0.33 0.15 0.13 0.05 0.06 0.14 0.30 0.42 0.62 0.57 0.47 0.40 0.69 0.88 1.26 1.36 1.48 1.72 1.86 1.23 0.75 0.73 1.07 1.51 1.62 1.54
0.00 0.00 0.00 0.00 0.00 0.01 0.03 0.01 0.00 0.00 0.00 0.00 0.01 0.03 0.01 0.01 0.01 0.04 0.08 0.13 0.11 0.05 0.02 0.06 0.08 0.14 0.07 0.05 0.20 0.38 0.56 0.76 0.68 0.64 0.34 0.29 0.50 0.84 1.22 1.43 1.38 1.38 1.28 1.15 1.12 1.31 1.74 1.63 1.61
0.00 0.00 0.01 0.01 0.03 0.08 0.06 0.08 0.01 0.00 0.00 0.00 0.01 0.02 0.03 0.03 0.04 0.03 0.01 0.00 0.01 0.03 0.03 0.06 0.13 0.16 0.10 0.20 0.36 0.35 0.38 0.49 0.36 0.29 0.29 0.26 0.45 0.58 0.88 1.19 1.09 1.33 1.56 1.08 0.90 0.68 1.08 1.56 1.72
0.01 0.01 0.05 0.05 0.06 0.05 0.04 0.11 0.02 0.02 0.09 0.06 0.03 0.02 0.05 0.03 0.02 0.02 0.02 0.01 0.00 0.05 0.08 0.08 0.15 0.28 0.21 0.21 0.55 0.69 0.66 0.47 0.40 0.37 0.43 0.42 0.45 0.62 0.69 0.93 1.07 1.10 1.11 1.12 0.99 0.65 0.56 0.83 1.08
0.08 0.05 0.11 0.10 0.13 0.15 0.01 0.06 0.09 0.52 0.52 0.34 0.18 0.11 0.16 0.07 0.06 0.06 0.06 0.04 0.04 0.09 0.12 0.11 0.14 0.24 0.27 0.24 0.39 0.75 1.17 1.51 1.66 1.35 0.93 0.68 0.79 0.84 0.88 0.93 1.05 1.57 1.77 1.55 1.33 1.53 1.31 1.00 1.03
0.10 0.23 0.42 0.48 0.32 0.11 0.05 0.07 0.24 0.47 0.44 0.43 0.33 0.21 0.17 0.12 0.12 0.12 0.10 0.08 0.09 0.13 0.21 0.22 0.15 0.15 0.15 0.21 0.21 0.29 0.53 0.86 1.35 2.00 2.78 2.70 2.22 1.95 2.03 2.00 1.72 1.61 1.86 2.54 2.02 1.95 1.96 2.02 1.63
0.08 0.22 0.29 0.34 0.24 0.12 0.09 0.22 0.66 0.57 0.79 0.54 0.79 0.45 0.32 0.24 0.16 0.13 0.14 0.14 0.14 0.20 0.35 0.34 0.33 0.32 0.20 0.22 0.31 0.45 0.53 0.65 0.97 1.10 1.43 2.21 2.95 2.65 3.02 3.48 3.69 2.99 2.39 2.63 2.74 2.30 2.24 2.70 2.69
0.16 0.16 0.10 0.48 0.33 0.34 0.29 0.77 0.64 0.48 0.78 1.53 0.89 0.51 0.64 0.60 0.35 0.20 0.19 0.26 0.35 0.30 0.39 0.56 0.54 0.63 0.51 0.41 0.39 0.52 0.72 0.72 0.65 0.80 1.42 1.52 1.46 1.65 2.10 2.31 2.52 3.15 3.23 2.79 2.75 2.58 2.17 2.23 2.53
0.14 0.25 0.44 0.72 0.62 0.61 0.39 0.58 0.84 0.85 1.16 1.00 1.21 1.25 0.67 0.75 0.61 0.34 0.27 0.33 0.34 0.45 0.41 0.56 0.77 1.09 0.82 0.72 0.64 0.69 0.80 0.79 0.92 1.13 1.50 1.91 2.20 2.04 1.59 1.76 1.83 1.66 1.61 1.76 2.15 2.36 2.18 2.14 2.15
0.24 0.39 0.41 0.46 0.47 0.91 0.94 1.25 1.48 1.58 1.74 1.72 1.09 1.15 1.31 0.80 1.07 0.81 0.50 0.46 0.60 0.78 0.42 0.58 1.04 1.80 1.49 1.10 1.10 1.26 1.05 1.42 1.58 1.41 1.67 1.60 1.70 2.02 1.90 1.60 1.60 1.60 1.42 1.48 1.58 1.57 1.67 1.93 2.06
0.27 0.23 0.35 0.86 0.65 0.68 1.44 1.89 2.01 1.61 1.25 0.83 0.81 0.75 0.77 0.88 0.95 1.22 0.96 0.78 0.78 0.43 0.51 0.58 0.84 1.19 2.42 2.37 2.50 2.20 2.39 2.83 2.21 2.35 2.73 2.17 1.93 1.67 1.32 1.18 1.12 1.19 1.30 1.45 1.46 1.45 1.50 1.37 1.37